# Wetter Temperatur Luftdruck Luftfeuchtigkeit Sichtweite Windgeschwindigkeit Windrichtung Zeit
1 Clouds 10 1023 69 10000 7.72 260 16:45 01.02.2023
2 Clouds 10 1023 67 10000 9.77 260 14:22 01.02.2023
3 Clouds 10 1023 70 10000 8.75 250 13:19 01.02.2023
4 Clouds 9 1024 72 10000 8.23 250 12:26 01.02.2023
5 Clouds 8 1023 75 10000 7.2 250 11:35 01.02.2023
6 Clouds 6 1023 81 10000 6.17 250 08:41 01.02.2023
7 Clouds 6 1024 77 10000 5.14 250 23:41 31.01.2023
8 Clouds 8 1024 69 10000 3.6 280 21:20 31.01.2023
9 Clouds 9 1023 68 10000 2.24 315 19:24 31.01.2023
10 Clouds 10 1023 63 10000 6.17 290 17:54 31.01.2023
11 Clouds 12 1022 68 10000 7.2 280 15:36 31.01.2023
12 Clouds 12 1022 70 10000 7.2 280 15:18 31.01.2023
13 Clouds 11 1022 79 10000 6.17 250 13:43 31.01.2023
14 Clouds 8 1023 86 10000 6.17 240 11:28 31.01.2023
15 Clouds 7 1023 87 10000 7.2 250 10:26 31.01.2023
16 Clouds 7 1023 88 10000 5.66 250 09:44 31.01.2023
17 Clouds 6 1023 88 10000 6.17 240 08:56 31.01.2023
18 Clouds 6 1023 88 10000 6.69 250 07:59 31.01.2023
19 Clouds 6 1024 85 10000 4.63 250 04:52 31.01.2023
20 Clear 3 1028 85 10000 2.57 220 23:36 30.01.2023
21 Clear 3 1028 85 10000 2.57 210 22:50 30.01.2023
22 Clear 4 1028 85 10000 2.57 220 21:48 30.01.2023
23 Clear 4 1028 84 10000 2.13 262 20:45 30.01.2023
24 Clouds 6 1026 74 10000 3.6 280 18:55 30.01.2023
25 Clouds 8 1025 70 10000 4.63 280 17:26 30.01.2023
26 Clouds 9 1024 65 10000 5.81 333 14:48 30.01.2023
27 Clouds 9 1025 66 10000 5.66 290 13:56 30.01.2023
28 Clouds 8 1024 69 10000 5.66 270 12:20 30.01.2023
29 Clouds 7 1023 74 10000 5.14 280 10:24 30.01.2023
30 Clouds 7 1023 75 10000 5.14 280 09:53 30.01.2023
31 Clouds 6 1022 83 10000 4.63 290 08:36 30.01.2023
32 Clouds 8 1020 92 10000 5.14 260 06:23 30.01.2023
33 Clouds 6 1021 92 10000 5.14 250 01:31 30.01.2023
34 Clouds 6 1021 89 10000 6.17 250 23:34 29.01.2023
35 Clouds 6 1022 89 10000 6.17 250 22:37 29.01.2023
36 Clouds 7 1022 88 10000 5.14 250 20:57 29.01.2023
37 Clouds 7 1022 89 10000 5.14 250 20:25 29.01.2023
38 Clouds 8 1021 90 10000 4.63 240 19:33 29.01.2023
39 Clouds 8 1022 91 10000 4.12 240 18:35 29.01.2023
40 Clouds 9 1023 89 10000 4.12 240 16:53 29.01.2023
41 Clouds 8 1023 88 10000 4.63 250 16:20 29.01.2023
42 Clouds 7 1024 89 10000 4.63 240 14:20 29.01.2023
43 Clouds 7 1025 90 10000 4.63 240 13:25 29.01.2023
44 Clouds 6 1026 89 6000 4.63 230 12:39 29.01.2023
45 Clouds 6 1026 90 6000 4.63 230 12:20 29.01.2023
46 Clouds 6 1027 88 10000 4.63 240 11:38 29.01.2023
47 Clouds 6 1027 87 10000 4.63 240 10:53 29.01.2023
48 Clouds 5 1027 87 10000 3.6 230 08:55 29.01.2023
49 Clouds 5 1029 90 10000 3.09 230 05:45 29.01.2023
50 Clouds 5 1030 84 10000 0.89 336 23:55 28.01.2023
51 Clouds 5 1031 81 10000 2.24 292 21:49 28.01.2023
52 Clouds 5 1031 79 10000 2.57 300 19:59 28.01.2023
53 Clouds 5 1031 78 10000 3.09 300 19:27 28.01.2023
54 Clouds 6 1030 76 10000 3.09 280 17:59 28.01.2023
55 Clouds 6 1030 73 10000 2.57 300 16:58 28.01.2023
56 Clouds 6 1030 70 10000 2.06 290 16:19 28.01.2023
57 Clouds 6 1030 70 10000 2.57 280 15:38 28.01.2023
58 Clouds 6 1030 69 10000 2.06 260 14:21 28.01.2023
59 Clouds 6 1031 69 10000 2.24 314 12:48 28.01.2023
60 Clouds 4 1033 77 10000 1.03 0 11:27 28.01.2023
61 Clouds 4 1032 79 10000 1.54 270 10:33 28.01.2023
62 Clouds 3 1031 82 10000 1.54 0 06:36 28.01.2023
63 Clouds 2 1030 90 10000 1.34 5 01:36 28.01.2023
64 Clouds 2 1030 91 10000 1.03 0 00:23 28.01.2023
65 Clouds 3 1030 86 10000 1.54 360 20:57 27.01.2023
66 Clouds 5 1030 78 10000 2.06 0 18:25 27.01.2023
67 Clouds 6 1029 77 10000 1.79 25 17:54 27.01.2023
68 Clouds 6 1029 75 10000 2.06 0 17:18 27.01.2023
69 Clouds 7 1029 73 10000 2.57 0 16:34 27.01.2023
70 Clouds 7 1029 72 10000 4.12 60 14:55 27.01.2023
71 Clouds 7 1029 73 10000 4.12 60 14:24 27.01.2023
72 Clouds 7 1029 77 10000 3.09 50 12:49 27.01.2023
73 Clouds 4 1029 90 10000 1.79 359 08:41 27.01.2023
74 Clouds 4 1029 93 10000 2.57 360 05:58 27.01.2023
75 Clouds 5 1030 87 10000 3.13 334 22:56 26.01.2023
76 Clouds 5 1030 85 10000 3.09 360 21:42 26.01.2023
77 Clouds 5 1030 85 10000 3.6 350 20:39 26.01.2023
78 Clouds 6 1030 88 10000 4.47 0 19:26 26.01.2023
79 Clouds 7 1030 88 9000 4.12 360 17:55 26.01.2023
80 Clouds 7 1029 88 10000 4.63 10 16:29 26.01.2023
81 Rain 7 1029 89 10000 4.12 360 15:58 26.01.2023
82 Clouds 7 1029 88 10000 4.63 360 15:32 26.01.2023
83 Clouds 7 1029 87 10000 4.12 10 14:59 26.01.2023
84 Clouds 7 1029 88 10000 4.92 336 13:32 26.01.2023
85 Clouds 5 1030 92 10000 4.47 350 11:53 26.01.2023
86 Clouds 5 1029 91 10000 2.24 8 10:33 26.01.2023
87 Clouds 4 1029 92 10000 3.13 330 09:44 26.01.2023
88 Clouds 4 1029 92 10000 3.6 350 08:26 26.01.2023
89 Clouds 3 1028 94 10000 3.58 352 06:27 26.01.2023
90 Clouds 6 1027 95 9000 3.13 347 23:40 25.01.2023
91 Clouds 5 1027 96 8000 3.09 300 22:43 25.01.2023
92 Drizzle 5 1027 96 2400 2.57 260 21:25 25.01.2023
93 Rain 4 1027 96 2700 3.09 250 20:59 25.01.2023
94 Drizzle 3 1028 95 4600 3.6 250 18:24 25.01.2023
95 Haze 3 1029 95 3600 3.09 230 15:58 25.01.2023
96 Haze 2 1031 95 3400 4.63 270 14:57 25.01.2023
97 Mist 1 1032 95 1700 3.09 220 12:29 25.01.2023
98 Haze 0 1034 94 3200 4.12 230 09:53 25.01.2023
99 Haze 0 1034 94 3700 2.57 240 09:29 25.01.2023
100 Clouds 0 1035 93 7000 2.57 240 06:52 25.01.2023
101 Clear 1 1037 87 10000 1.03 20 00:31 25.01.2023
102 Clouds 2 1038 85 10000 2.06 90 21:56 24.01.2023
103 Clouds 2 1037 86 10000 1.54 350 21:28 24.01.2023
104 Clouds 2 1038 84 10000 2.06 70 19:39 24.01.2023
105 Clouds 3 1037 83 10000 2.57 100 18:30 24.01.2023
106 Clouds 4 1037 80 10000 1.54 60 17:19 24.01.2023
107 Clouds 4 1037 80 10000 2.57 60 16:52 24.01.2023
108 Clouds 4 1038 77 10000 3.6 90 14:49 24.01.2023
109 Clouds 4 1039 82 10000 3.09 50 12:29 24.01.2023
110 Clouds 3 1039 84 10000 3.09 60 11:20 24.01.2023
111 Clouds 3 1039 88 10000 2.57 60 08:21 24.01.2023
112 Clouds 3 1039 89 10000 1.54 0 07:50 24.01.2023
113 Clouds 3 1038 88 10000 1.03 350 05:22 24.01.2023
114 Clouds 3 1038 88 10000 1.34 15 00:49 24.01.2023
115 Clouds 3 1038 87 10000 0.89 323 23:48 23.01.2023
116 Clouds 3 1037 86 10000 1.34 333 21:50 23.01.2023
117 Clouds 3 1037 85 10000 1.34 331 19:45 23.01.2023
118 Clouds 3 1037 83 10000 2.06 60 17:59 23.01.2023
119 Clouds 4 1036 81 10000 1.54 360 15:38 23.01.2023
120 Clouds 4 1036 82 10000 3.13 329 14:34 23.01.2023
121 Clouds 3 1037 84 10000 2.68 0 13:43 23.01.2023
122 Clouds 2 1037 86 10000 1.54 300 12:54 23.01.2023
123 Clouds 1 1037 87 9000 1.54 270 11:44 23.01.2023
124 Clear -3 1036 93 6000 1.54 270 08:49 23.01.2023
125 Haze -3 1036 93 5000 1.03 0 07:38 23.01.2023
126 Clouds -1 1035 92 7000 0.51 0 23:31 22.01.2023
127 Clouds -1 1035 91 10000 1.03 340 21:48 22.01.2023
128 Clouds -1 1035 89 10000 1.54 90 20:53 22.01.2023
129 Clouds 0 1035 87 10000 1.03 0 19:53 22.01.2023
130 Clouds 0 1035 88 10000 0.73 24 19:20 22.01.2023
131 Clouds 2 1034 82 10000 0.79 28 18:22 22.01.2023
132 Clouds 2 1034 78 10000 1.03 0 17:44 22.01.2023
133 Clouds 3 1034 75 10000 1.03 0 17:21 22.01.2023
134 Clouds 4 1034 81 10000 1.03 0 14:59 22.01.2023
135 Clouds 4 1034 83 10000 0.89 69 13:51 22.01.2023
136 Clear 4 1035 86 8000 1.54 250 13:25 22.01.2023
137 Clear 3 1035 88 7000 1.03 290 12:26 22.01.2023
138 Haze -1 1034 95 4600 1.54 260 09:56 22.01.2023
139 Mist -2 1034 95 5000 0.51 0 08:51 22.01.2023
140 Haze -1 1034 94 5000 0.51 0 02:56 22.01.2023
141 Clear -1 1034 91 7000 0 0 23:43 21.01.2023
142 Clear -1 1034 91 7000 0 0 22:48 21.01.2023
143 Clear 0 1034 89 10000 0 0 21:28 21.01.2023
144 Clouds 2 1033 82 10000 1.43 52 18:50 21.01.2023
145 Clouds 6 1032 70 10000 3.09 70 15:37 21.01.2023
146 Clouds 5 1032 80 10000 1.03 0 13:32 21.01.2023
147 Clouds 4 1033 82 10000 1.79 45 12:52 21.01.2023
148 Clouds 2 1032 87 10000 0.51 0 11:37 21.01.2023
149 Clouds 1 1032 89 10000 0.51 0 10:48 21.01.2023
150 Clouds 0 1030 92 10000 2.57 50 08:31 21.01.2023
151 Clouds 1 1028 92 10000 0.45 340 04:29 21.01.2023
152 Clouds 3 1024 86 10000 2.57 340 22:28 20.01.2023
153 Clouds 4 1023 84 10000 3.09 340 21:37 20.01.2023
154 Clouds 4 1022 82 10000 4.02 342 20:42 20.01.2023
155 Clouds 5 1021 79 10000 4.02 324 18:36 20.01.2023
156 Clouds 6 1018 73 10000 4.12 300 15:53 20.01.2023
157 Clear 6 1018 74 10000 5.14 300 14:41 20.01.2023
158 Clouds 5 1019 79 10000 4.63 290 12:45 20.01.2023
159 Clouds 1 1016 87 10000 5.66 280 09:48 20.01.2023
160 Clouds 1 1015 87 10000 3.6 260 08:22 20.01.2023
161 Clouds 1 1012 88 10000 4.63 240 02:35 20.01.2023
162 Clear 0 1011 87 10000 1.79 224 22:59 19.01.2023
163 Clear 0 1010 89 10000 0.89 241 22:32 19.01.2023
164 Clear 0 1010 88 10000 0.89 241 22:32 19.01.2023
165 Clear 1 1010 87 10000 0.45 319 20:22 19.01.2023
166 Clouds 1 1008 82 10000 2.57 290 19:20 19.01.2023
167 Clouds 5 1006 72 10000 3.6 270 15:39 19.01.2023
168 Clouds 0 1006 93 10000 2.57 230 10:53 19.01.2023
169 Clouds -1 1006 93 10000 2.06 250 08:59 19.01.2023
170 Clear 1 1004 90 10000 3.6 250 23:52 18.01.2023
171 Clear 2 1002 88 10000 0.89 209 20:56 18.01.2023
172 Clear 2 1001 87 10000 1.34 282 20:19 18.01.2023
173 Clear 2 1001 86 10000 1.34 308 19:37 18.01.2023
174 Clouds 4 999 77 10000 5.14 290 17:35 18.01.2023
175 Clouds 5 998 75 10000 5.14 300 15:41 18.01.2023
176 Clouds 3 997 84 10000 4.12 260 13:30 18.01.2023
177 Clouds 1 996 88 10000 4.12 230 11:25 18.01.2023
178 Clouds -1 994 87 10000 3.6 240 08:47 18.01.2023
179 Clouds -2 992 88 10000 3.09 230 01:28 18.01.2023
180 Clouds -2 993 92 10000 0.45 313 23:54 17.01.2023
181 Clouds -1 991 88 10000 3.09 280 20:38 17.01.2023
182 Clouds -1 991 87 10000 3.09 280 19:35 17.01.2023
183 Clouds 0 989 87 10000 0.45 264 18:30 17.01.2023
184 Clouds 0 989 84 10000 2.57 300 17:31 17.01.2023
185 Clouds 1 988 82 10000 1.54 290 14:57 17.01.2023
186 Clouds 1 988 83 10000 1.54 360 14:22 17.01.2023
187 Clouds 0 988 86 10000 1.54 340 12:48 17.01.2023
188 Clouds -1 987 89 10000 1.54 0 11:44 17.01.2023
189 Clouds -2 986 86 10000 1.54 240 09:35 17.01.2023
190 Clouds -3 987 87 10000 1.03 230 08:20 17.01.2023
191 Clouds -2 987 80 10000 1.03 250 05:51 17.01.2023
192 Clouds -2 988 88 10000 1.65 272 00:57 17.01.2023
193 Clear -2 988 86 10000 1.87 267 23:45 16.01.2023
194 Clear -1 987 79 10000 0.45 323 21:59 16.01.2023
195 Clear 0 988 82 10000 3.09 300 20:49 16.01.2023
196 Clear 1 988 85 10000 4.63 300 19:42 16.01.2023
197 Clouds 2 987 83 10000 4.63 300 18:55 16.01.2023
198 Clouds 2 987 85 10000 5.66 310 18:21 16.01.2023
199 Clouds 3 987 84 10000 5.66 310 18:21 16.01.2023
200 Clouds 3 987 84 10000 7.72 300 17:36 16.01.2023
201 Clouds 4 985 81 10000 6.69 300 16:29 16.01.2023
202 Clouds 5 985 85 10000 7.2 300 13:39 16.01.2023
203 Clouds 4 984 91 10000 5.36 329 11:57 16.01.2023
204 Clouds 3 982 93 10000 5.36 322 10:21 16.01.2023
205 Snow 4 982 92 5000 5.14 80 05:22 16.01.2023
206 Clouds 3 995 88 10000 2.06 220 22:27 15.01.2023
207 Clouds 4 997 86 10000 4.63 240 20:48 15.01.2023
208 Clouds 5 998 86 10000 4.12 240 20:23 15.01.2023
209 Clouds 5 997 79 10000 5.14 250 18:27 15.01.2023
210 Clouds 7 997 71 10000 5.14 250 16:38 15.01.2023
211 Clouds 8 999 72 10000 7.72 250 13:25 15.01.2023
212 Clouds 7 999 75 10000 8.23 250 11:40 15.01.2023
213 Clouds 6 998 77 10000 6.69 240 10:52 15.01.2023
214 Clouds 6 998 78 10000 7.72 250 10:21 15.01.2023
215 Clouds 6 998 78 10000 7.72 250 10:21 15.01.2023
216 Clouds 5 999 78 10000 6.17 240 01:55 15.01.2023
217 Clouds 6 999 78 10000 8.23 250 23:27 14.01.2023
218 Clouds 7 999 74 10000 7.2 250 22:42 14.01.2023
219 Clouds 7 998 76 10000 2.68 231 21:36 14.01.2023
220 Clouds 7 998 75 10000 4.47 317 21:18 14.01.2023
221 Clouds 7 998 76 10000 4.47 317 21:18 14.01.2023
222 Clouds 7 998 73 10000 6.69 250 20:40 14.01.2023
223 Clouds 7 998 74 10000 8.23 260 19:53 14.01.2023
224 Clouds 8 997 79 10000 9.26 270 17:43 14.01.2023
225 Clouds 11 994 86 10000 8.75 250 15:31 14.01.2023
226 Clouds 11 994 89 10000 9.26 250 14:35 14.01.2023
227 Clouds 12 994 92 1400 7.72 260 13:44 14.01.2023
228 Clouds 12 994 92 1400 7.72 260 13:44 14.01.2023
229 Clouds 12 994 92 10000 7.72 220 12:26 14.01.2023
230 Clouds 11 995 92 10000 8.75 220 10:48 14.01.2023
231 Rain 10 998 92 9000 9.26 200 08:19 14.01.2023
232 Rain 10 998 92 9000 9.26 200 08:19 14.01.2023
233 Clouds 7 1012 84 10000 3.6 220 00:50 14.01.2023
234 Clouds 6 1013 83 10000 3.13 197 22:59 13.01.2023
235 Clouds 7 1013 82 10000 1.79 205 22:40 13.01.2023
236 Clouds 7 1014 81 10000 6.69 250 21:56 13.01.2023
237 Clouds 7 1014 78 10000 4.12 250 20:25 13.01.2023
238 Clouds 8 1013 75 10000 4.63 240 19:25 13.01.2023
239 Clouds 10 1011 69 10000 6.26 217 16:58 13.01.2023
240 Clouds 10 1011 69 10000 6.26 217 16:58 13.01.2023
241 Clouds 10 1009 67 10000 10.29 270 14:52 13.01.2023
242 Clouds 10 1007 69 10000 10.29 260 12:22 13.01.2023
243 Clouds 9 1006 74 10000 8.23 250 10:41 13.01.2023
244 Clouds 8 1005 74 10000 8.23 250 10:22 13.01.2023
245 Clouds 8 1005 76 10000 7.2 250 09:41 13.01.2023
246 Clouds 8 1004 77 10000 8.75 250 08:51 13.01.2023
247 Clouds 8 1002 76 10000 9.77 250 06:56 13.01.2023
248 Clouds 8 1002 76 10000 10.29 250 05:47 13.01.2023
249 Clear 8 1001 76 10000 7.72 240 00:55 13.01.2023
250 Clouds 8 1002 76 10000 7.2 240 22:48 12.01.2023
251 Clouds 9 1002 75 10000 10.29 250 21:49 12.01.2023
252 Clouds 9 1002 72 10000 3.58 214 20:48 12.01.2023
253 Clouds 11 1001 80 10000 8.23 250 18:26 12.01.2023
254 Clouds 12 1000 88 10000 8.23 250 16:59 12.01.2023
255 Rain 12 1000 88 10000 8.75 240 14:58 12.01.2023
256 Clouds 12 1001 88 10000 9.26 230 14:38 12.01.2023
257 Rain 12 1001 88 10000 9.26 230 14:18 12.01.2023
258 Clouds 12 1002 87 10000 8.75 240 12:19 12.01.2023
259 Clouds 12 1003 90 10000 7.72 240 10:25 12.01.2023
260 Rain 12 1002 90 10000 8.49 198 07:26 12.01.2023
261 Clouds 10 1005 83 10000 6.69 240 00:32 12.01.2023
262 Clouds 10 1006 84 10000 7.2 240 23:57 11.01.2023
263 Clouds 10 1007 85 10000 7.72 240 23:37 11.01.2023
264 Clouds 10 1007 86 10000 7.72 240 23:19 11.01.2023
265 Rain 9 1008 84 10000 7.2 250 21:22 11.01.2023
266 Clouds 8 1007 85 10000 7.2 240 19:19 11.01.2023
267 Rain 8 1007 88 9000 9.77 260 17:49 11.01.2023
268 Clouds 9 1008 78 10000 8.23 240 15:52 11.01.2023
269 Clouds 10 1009 71 10000 7.72 240 13:59 11.01.2023
270 Clouds 10 1009 74 10000 8.23 240 12:33 11.01.2023
271 Clouds 9 1010 80 10000 7.2 240 11:39 11.01.2023
272 Clouds 7 1009 86 10000 5.14 240 09:32 11.01.2023
273 Clear 8 1008 88 10000 5.14 240 07:31 11.01.2023
274 Clouds 8 1007 89 10000 2.24 231 06:47 11.01.2023
275 Clouds 12 1002 89 10000 7.2 240 23:55 10.01.2023
276 Clouds 12 1001 92 10000 6.17 220 22:36 10.01.2023
277 Rain 12 1001 92 10000 6.69 220 21:29 10.01.2023
278 Clouds 12 1002 91 10000 5.81 208 19:56 10.01.2023
279 Clouds 12 1002 89 10000 7.72 220 19:29 10.01.2023
280 Clouds 13 1002 88 10000 6.69 220 18:47 10.01.2023
281 Clouds 12 1003 88 10000 6.71 187 17:53 10.01.2023
282 Clouds 12 1004 90 10000 7.72 230 15:48 10.01.2023
283 Clouds 12 1004 91 10000 7.2 230 15:22 10.01.2023
284 Clouds 11 1004 94 9000 6.17 210 14:21 10.01.2023
285 Rain 8 1008 94 8000 6.26 170 11:49 10.01.2023
286 Rain 7 1011 90 9000 3.6 180 08:57 10.01.2023
287 Rain 7 1012 87 10000 4.02 191 08:25 10.01.2023
288 Clouds 6 1013 85 10000 3.09 210 07:26 10.01.2023
289 Clouds 5 1014 85 10000 4.12 240 04:51 10.01.2023
290 Clouds 6 1011 80 10000 7.72 250 22:51 09.01.2023
291 Clouds 6 1009 80 10000 2.68 216 21:21 09.01.2023
292 Clouds 6 1008 77 10000 7.2 270 20:34 09.01.2023
293 Clouds 7 1007 72 10000 7.2 270 18:42 09.01.2023
294 Clouds 7 1006 72 10000 7.72 270 17:53 09.01.2023
295 Clouds 8 1005 72 10000 7.72 280 16:58 09.01.2023
296 Clouds 8 1004 70 10000 7.2 270 16:30 09.01.2023
297 Clouds 9 1002 68 10000 8.23 280 15:22 09.01.2023
298 Clouds 9 1002 72 10000 8.23 270 14:43 09.01.2023
299 Clouds 9 1002 72 10000 8.23 270 14:43 09.01.2023
300 Clouds 8 999 81 10000 7.72 270 12:54 09.01.2023
301 Clouds 8 999 83 10000 6.69 260 12:22 09.01.2023
302 Clouds 7 998 88 10000 5.14 250 11:20 09.01.2023
303 Clouds 5 995 91 10000 6.17 250 08:28 09.01.2023
304 Clouds 5 993 92 10000 5.66 250 06:34 09.01.2023
305 Clouds 7 989 92 10000 5.66 260 02:53 09.01.2023
306 Clouds 6 989 89 10000 4.12 210 22:43 08.01.2023
307 Clouds 5 989 91 10000 3.09 220 21:23 08.01.2023
308 Clouds 5 989 91 10000 1.34 103 20:57 08.01.2023
309 Clouds 6 989 90 10000 8.75 250 19:19 08.01.2023
310 Rain 7 989 91 10000 4.63 200 17:40 08.01.2023
311 Rain 7 989 91 10000 4.63 210 17:18 08.01.2023
312 Rain 8 989 89 10000 5.14 210 15:38 08.01.2023
313 Rain 9 990 85 10000 6.69 200 14:18 08.01.2023
314 Rain 9 990 85 10000 6.69 200 13:32 08.01.2023
315 Rain 9 991 84 10000 6.69 200 12:59 08.01.2023
316 Clouds 9 993 87 10000 5.14 200 11:37 08.01.2023
317 Clouds 7 994 90 10000 4.12 210 09:37 08.01.2023
318 Clouds 7 994 92 10000 2.68 111 08:31 08.01.2023
319 Rain 8 995 85 7000 7.72 200 04:26 08.01.2023
320 Clouds 8 996 84 10000 5.66 210 23:23 07.01.2023
321 Clouds 8 996 86 10000 5.14 220 22:39 07.01.2023
322 Clouds 7 996 87 10000 5.66 230 21:59 07.01.2023
323 Clouds 7 996 86 10000 6.69 230 20:59 07.01.2023
324 Clouds 8 996 84 10000 6.69 230 20:25 07.01.2023
325 Rain 9 996 84 10000 6.71 184 19:25 07.01.2023
326 Rain 10 995 88 6000 5.66 240 18:18 07.01.2023
327 Rain 11 995 89 10000 5.66 210 17:40 07.01.2023
328 Clouds 11 996 89 10000 6.69 220 16:47 07.01.2023
329 Rain 11 996 90 10000 7.2 210 16:23 07.01.2023
330 Rain 11 996 90 10000 6.17 190 15:39 07.01.2023
331 Rain 11 996 90 10000 6.17 190 15:21 07.01.2023
332 Rain 11 997 89 10000 7.72 200 13:59 07.01.2023
333 Rain 11 997 88 10000 7.72 200 13:41 07.01.2023
334 Clouds 10 998 88 10000 6.69 200 12:50 07.01.2023
335 Clouds 10 999 90 10000 6.17 190 12:20 07.01.2023
336 Rain 10 1000 87 10000 8.23 170 10:28 07.01.2023
337 Clouds 11 1001 83 10000 8.23 170 09:22 07.01.2023
338 Clouds 11 1003 82 10000 7.2 180 07:59 07.01.2023
339 Clouds 11 1003 81 10000 7.2 180 07:40 07.01.2023
340 Clouds 12 1005 82 10000 6.69 190 05:49 07.01.2023
341 Clouds 12 1010 89 10000 8.23 210 23:24 06.01.2023
342 Clouds 12 1011 89 10000 6.69 220 22:21 06.01.2023
343 Clouds 12 1011 90 10000 5.66 210 21:47 06.01.2023
344 Clouds 12 1011 92 10000 5.66 210 20:34 06.01.2023
345 Clouds 12 1011 92 10000 4.63 210 19:55 06.01.2023
346 Clouds 12 1012 92 10000 4.92 171 19:37 06.01.2023
347 Clouds 11 1012 92 10000 4.12 210 19:18 06.01.2023
348 Clouds 11 1012 91 10000 4.02 220 17:55 06.01.2023
349 Clouds 11 1012 88 10000 4.12 220 16:52 06.01.2023
350 Clouds 11 1013 85 10000 4.12 220 16:22 06.01.2023
351 Clouds 11 1013 82 10000 4.63 230 15:51 06.01.2023
352 Clouds 11 1013 81 10000 4.63 210 15:28 06.01.2023
353 Clouds 10 1014 80 10000 4.12 230 13:42 06.01.2023
354 Clouds 9 1016 84 10000 4.63 220 11:50 06.01.2023
355 Clouds 7 1015 89 10000 4.12 230 10:34 06.01.2023
356 Clouds 6 1014 91 10000 4.02 204 08:49 06.01.2023
357 Clouds 8 1013 88 10000 6.17 250 05:22 06.01.2023
358 Clouds 12 1014 85 10000 6.17 210 22:56 05.01.2023
359 Clouds 12 1014 85 10000 5.14 210 22:29 05.01.2023
360 Clouds 11 1015 84 10000 4.92 211 20:24 05.01.2023
361 Clouds 13 1017 82 10000 4.92 206 17:30 05.01.2023
362 Clouds 13 1017 80 10000 6.17 230 16:48 05.01.2023
363 Clouds 13 1017 78 10000 6.17 240 15:56 05.01.2023
364 Clouds 13 1018 79 10000 4.63 250 15:34 05.01.2023
365 Clouds 13 1019 83 10000 5.14 240 13:35 05.01.2023
366 Clouds 13 1019 85 10000 6.17 240 12:40 05.01.2023
367 Clouds 11 1019 91 10000 4.12 220 10:37 05.01.2023
368 Clouds 10 1019 90 7000 4.12 230 09:40 05.01.2023
369 Clouds 10 1019 87 10000 4.63 240 07:28 05.01.2023
370 Clouds 10 1019 87 10000 5.66 250 06:42 05.01.2023
371 Clouds 11 1018 82 10000 6.69 250 02:23 05.01.2023
372 Clouds 11 1016 82 10000 5.14 250 22:26 04.01.2023
373 Clouds 11 1016 80 10000 7.72 260 21:30 04.01.2023
374 Clouds 12 1015 77 10000 9.77 250 19:58 04.01.2023
375 Clouds 12 1015 76 10000 9.26 260 19:37 04.01.2023
376 Clouds 12 1015 76 10000 9.26 260 19:19 04.01.2023
377 Clouds 12 1014 75 10000 9.77 260 18:18 04.01.2023
378 Clouds 13 1013 79 10000 8.23 250 16:30 04.01.2023
379 Clouds 13 1012 78 10000 9.26 260 14:50 04.01.2023
380 Clouds 14 1013 82 10000 8.75 240 12:36 04.01.2023
381 Clouds 13 1013 86 10000 7.2 240 11:23 04.01.2023
382 Clouds 13 1012 87 10000 6.17 240 10:44 04.01.2023
383 Clouds 13 1012 89 10000 6.17 240 10:25 04.01.2023
384 Clouds 13 1012 91 10000 7.2 240 09:52 04.01.2023
385 Clouds 13 1011 89 10000 8.23 230 05:39 04.01.2023
386 Clouds 13 1013 87 10000 8.75 240 01:41 04.01.2023
387 Clouds 12 1013 92 10000 7.2 230 23:43 03.01.2023
388 Clouds 12 1013 93 5000 5.66 220 23:21 03.01.2023
389 Clouds 11 1013 93 6000 7.72 210 21:42 03.01.2023
390 Clouds 11 1013 91 10000 8.23 200 20:50 03.01.2023
391 Rain 11 1015 93 8000 7.72 200 18:40 03.01.2023
392 Clouds 11 1016 92 9000 7.2 210 16:42 03.01.2023
393 Clouds 10 1016 91 10000 6.26 211 15:40 03.01.2023
394 Clouds 10 1018 93 9000 5.66 200 13:48 03.01.2023
395 Clouds 10 1018 92 6000 4.63 200 13:29 03.01.2023
396 Rain 10 1019 92 10000 5.14 200 12:57 03.01.2023
397 Rain 10 1019 92 10000 5.66 200 12:28 03.01.2023
398 Clouds 8 1020 93 10000 4.12 190 09:58 03.01.2023
399 Clouds 5 1021 93 10000 3.09 70 04:29 03.01.2023
400 Clouds 4 1021 93 10000 2.57 60 03:53 03.01.2023
401 Clouds 4 1021 93 10000 3.09 80 03:33 03.01.2023
402 Clouds 3 1022 92 10000 0.45 211 23:20 02.01.2023
403 Clouds 3 1023 89 10000 1.54 230 22:40 02.01.2023
404 Clouds 3 1023 91 10000 1.63 188 21:30 02.01.2023
405 Clear 3 1023 89 10000 2.06 210 20:35 02.01.2023
406 Clear 3 1022 87 10000 1.57 211 19:20 02.01.2023
407 Clouds 7 1019 76 10000 4.63 290 16:54 02.01.2023
408 Clouds 8 1017 79 10000 4.12 290 14:29 02.01.2023
409 Clouds 8 1016 86 10000 3.6 280 12:57 02.01.2023
410 Clouds 7 1016 93 10000 4.12 290 11:39 02.01.2023
411 Clouds 6 1013 94 10000 4.12 250 09:35 02.01.2023
412 Clouds 7 1011 93 10000 2.57 230 07:29 02.01.2023
413 Clouds 7 1008 93 8000 1.54 230 00:38 02.01.2023
414 Rain 8 1008 92 6000 2.06 350 21:55 01.01.2023
415 Rain 9 1008 91 10000 1.54 0 20:56 01.01.2023
416 Rain 9 1008 90 9000 3.09 200 20:37 01.01.2023
417 Rain 9 1008 88 10000 1.79 295 19:35 01.01.2023
418 Clouds 11 1008 84 10000 3.6 200 17:40 01.01.2023
419 Clouds 11 1008 85 10000 3.6 220 17:20 01.01.2023
420 Clouds 12 1008 81 10000 5.14 210 16:20 01.01.2023
421 Clouds 12 1009 81 10000 6.17 210 14:37 01.01.2023
422 Clouds 12 1009 80 10000 5.14 210 13:21 01.01.2023
423 Clouds 12 1009 81 10000 5.14 220 12:29 01.01.2023
424 Clouds 11 1009 82 10000 4.63 220 11:35 01.01.2023
425 Clouds 11 1008 82 10000 4.12 220 09:49 01.01.2023
426 Clouds 11 1008 82 10000 6.69 230 08:46 01.01.2023
427 Clouds 11 1007 81 10000 5.14 230 08:18 01.01.2023
428 Clouds 11 1006 81 10000 6.69 220 06:51 01.01.2023
429 Clouds 12 1002 82 10000 7.2 230 00:44 01.01.2023
430 Clouds 12 1001 82 10000 7.72 240 23:41 31.12.2022
431 Clouds 13 1000 82 10000 8.23 240 22:31 31.12.2022
432 Clouds 13 999 85 10000 8.05 175 21:25 31.12.2022
433 Clouds 13 999 90 7000 6.69 220 20:41 31.12.2022
434 Clouds 12 999 90 10000 5.66 210 19:18 31.12.2022
435 Clouds 12 999 92 10000 6.69 220 18:39 31.12.2022
436 Clouds 12 999 92 8000 6.17 210 18:18 31.12.2022
437 Rain 12 999 90 5000 6.69 210 17:43 31.12.2022
438 Clouds 13 999 89 10000 7.2 210 16:38 31.12.2022
439 Rain 13 999 91 9000 7.2 220 15:59 31.12.2022
440 Rain 13 999 92 10000 7.2 220 14:35 31.12.2022
441 Rain 13 999 93 4200 5.66 210 13:28 31.12.2022
442 Rain 13 1000 91 10000 5.66 220 12:39 31.12.2022
443 Rain 13 1000 91 10000 5.66 210 12:19 31.12.2022
444 Rain 13 1000 88 10000 7.2 230 11:45 31.12.2022
445 Rain 14 999 87 9000 6.69 230 10:28 31.12.2022
446 Rain 14 999 86 10000 7.72 230 09:52 31.12.2022
447 Clouds 14 998 87 10000 8.75 230 09:00 31.12.2022
448 Clouds 14 997 85 10000 7.72 230 07:22 31.12.2022
449 Clouds 11 998 85 10000 3.13 202 00:35 31.12.2022
450 Rain 11 998 83 10000 4.63 230 23:44 30.12.2022
451 Clouds 11 997 85 10000 3.6 220 22:41 30.12.2022
452 Clouds 11 997 87 10000 4.63 230 21:42 30.12.2022
453 Clouds 11 996 87 10000 4.92 220 21:22 30.12.2022
454 Clouds 12 995 84 10000 6.69 240 18:57 30.12.2022
455 Clouds 13 993 84 10000 7.2 230 17:35 30.12.2022
456 Clouds 13 992 84 10000 6.69 240 16:52 30.12.2022
457 Clouds 13 990 85 10000 9.26 240 15:22 30.12.2022
458 Clouds 12 988 93 10000 6.17 220 13:36 30.12.2022
459 Rain 9 994 90 6045 4.92 165 09:51 30.12.2022
460 Clouds 9 999 85 10000 5.66 180 06:55 30.12.2022
461 Clouds 6 1005 88 10000 2.57 190 02:41 30.12.2022
462 Clouds 6 1005 88 10000 3.09 230 00:53 30.12.2022
463 Clouds 6 1006 85 10000 4.63 230 22:46 29.12.2022
464 Clouds 7 1005 83 10000 3.13 221 21:29 29.12.2022
465 Clouds 7 1006 83 10000 2.24 218 20:54 29.12.2022
466 Clouds 7 1005 78 10000 5.14 240 19:55 29.12.2022
467 Clouds 8 1003 71 10000 6.69 240 17:57 29.12.2022
468 Clouds 8 1003 71 10000 7.72 250 17:29 29.12.2022
469 Clouds 9 1002 70 10000 7.72 250 16:55 29.12.2022
470 Clouds 9 1002 70 10000 6.69 240 15:58 29.12.2022
471 Clouds 9 1002 71 10000 6.69 240 14:37 29.12.2022
472 Clouds 9 1001 79 10000 7.72 250 12:41 29.12.2022
473 Clouds 9 1000 82 10000 6.17 240 11:19 29.12.2022
474 Clouds 9 996 81 10000 8.23 250 07:39 29.12.2022
475 Clouds 10 994 86 10000 8.05 209 23:45 28.12.2022
476 Clouds 10 994 85 10000 4.02 223 23:26 28.12.2022
477 Clouds 10 995 88 10000 7.2 230 21:21 28.12.2022
478 Clouds 11 995 89 4600 6.69 230 20:24 28.12.2022
479 Rain 11 995 90 10000 7.2 230 19:23 28.12.2022
480 Clouds 11 995 93 10000 7.2 210 16:43 28.12.2022
481 Clouds 10 998 92 8000 6.69 200 14:29 28.12.2022
482 Rain 10 1001 92 10000 5.36 185 12:49 28.12.2022
483 Rain 10 1003 93 8000 6.69 210 11:52 28.12.2022
484 Rain 10 1004 93 5000 5.66 210 10:37 28.12.2022
485 Haze 11 1006 94 3500 5.14 210 07:51 28.12.2022
486 Clouds 11 1007 94 8000 4.63 210 06:49 28.12.2022
487 Clouds 11 1008 92 10000 3.13 236 03:45 28.12.2022
488 Clouds 9 1010 92 10000 7.2 220 23:23 27.12.2022
489 Rain 9 1014 90 10000 5.14 220 19:58 27.12.2022
490 Rain 9 1015 90 8000 5.14 220 19:24 27.12.2022
491 Rain 9 1016 86 10000 6.69 210 17:20 27.12.2022
492 Clouds 10 1016 83 10000 6.69 200 16:39 27.12.2022
493 Clouds 10 1017 80 10000 5.66 220 15:25 27.12.2022
494 Clouds 9 1020 84 10000 3.6 220 12:29 27.12.2022
495 Clouds 8 1021 87 10000 3.6 230 11:28 27.12.2022
496 Clouds 5 1022 90 10000 3.6 240 09:46 27.12.2022
497 Clouds 5 1021 90 10000 3.6 240 09:22 27.12.2022
498 Clouds 3 1022 89 10000 2.57 220 06:49 27.12.2022
499 Clouds 4 1022 88 10000 4.63 240 04:29 27.12.2022
500 Clouds 5 1020 85 10000 4.63 240 22:21 26.12.2022
501 Clear 5 1019 85 10000 4.12 240 20:51 26.12.2022
502 Clouds 5 1019 84 10000 4.63 240 20:29 26.12.2022
503 Clouds 6 1020 82 10000 1.79 243 18:43 26.12.2022
504 Clouds 6 1018 78 10000 4.63 240 17:32 26.12.2022
505 Clouds 8 1017 69 10000 7.2 260 15:47 26.12.2022
506 Clear 8 1017 72 10000 5.14 250 13:46 26.12.2022
507 Clouds 6 1016 79 10000 4.12 250 11:56 26.12.2022
508 Clouds 6 1011 77 10000 5.66 300 07:28 26.12.2022
509 Clouds 10 1006 93 10000 4.12 210 23:48 25.12.2022
510 Clouds 10 1006 93 10000 3.6 210 23:22 25.12.2022
511 Clouds 9 1006 93 10000 3.09 200 22:26 25.12.2022
512 Rain 9 1007 92 10000 4.63 200 21:35 25.12.2022
513 Rain 10 1006 90 10000 2.57 230 18:49 25.12.2022
514 Clouds 10 1006 88 10000 2.57 210 17:51 25.12.2022
515 Clouds 10 1006 88 10000 2.57 210 17:33 25.12.2022
516 Clouds 11 1006 85 10000 4.12 210 15:19 25.12.2022
517 Rain 11 1007 91 10000 1.34 144 11:50 25.12.2022
518 Clouds 10 1008 92 10000 2.24 154 06:21 25.12.2022
519 Clouds 10 1009 90 10000 4.63 200 23:30 24.12.2022
520 Clouds 10 1010 90 10000 3.6 210 21:25 24.12.2022
521 Clouds 10 1009 92 10000 3.09 190 17:59 24.12.2022
522 Clouds 10 1010 90 10000 2.57 200 16:38 24.12.2022
523 Clouds 10 1010 89 10000 1.54 200 14:52 24.12.2022
524 Clouds 9 1010 90 10000 1.79 145 12:42 24.12.2022
525 Clouds 7 1011 93 10000 3.09 230 10:39 24.12.2022
526 Clouds 7 1011 93 10000 3.09 230 10:20 24.12.2022
527 Clouds 7 1011 92 10000 3.6 250 09:36 24.12.2022
528 Clouds 9 1007 90 9000 4.12 240 05:48 24.12.2022
529 Clouds 9 1006 91 10000 4.63 250 02:20 24.12.2022
530 Clouds 9 1005 90 10000 4.02 205 23:35 23.12.2022
531 Clouds 9 1004 88 10000 3.6 240 22:27 23.12.2022
532 Clouds 10 1003 87 10000 5.14 240 20:40 23.12.2022
533 Clouds 10 1002 85 10000 6.17 250 19:39 23.12.2022
534 Clouds 11 1002 86 10000 6.69 250 19:21 23.12.2022
535 Clouds 11 1002 87 10000 7.72 250 18:39 23.12.2022
536 Clouds 11 1001 88 10000 4.02 183 18:19 23.12.2022
537 Clouds 11 999 91 10000 8.23 250 16:33 23.12.2022
538 Clouds 12 998 88 10000 5.14 250 15:30 23.12.2022
539 Rain 9 998 94 4100 2.06 90 11:47 23.12.2022
540 Rain 8 999 95 6000 3.09 80 09:37 23.12.2022
541 Rain 8 1002 93 10000 2.06 160 07:55 23.12.2022
542 Rain 8 1003 93 10000 1.54 230 06:52 23.12.2022
543 Clouds 9 1004 92 10000 2.57 230 06:23 23.12.2022
544 Clouds 11 1003 91 10000 5.14 260 23:23 22.12.2022
545 Clouds 11 1002 92 10000 5.14 250 22:38 22.12.2022
546 Clouds 11 1002 93 10000 5.14 250 21:20 22.12.2022
547 Clouds 11 1001 95 10000 1.79 252 19:25 22.12.2022
548 Clouds 11 1002 95 10000 0.89 253 18:41 22.12.2022
549 Clouds 11 1001 95 10000 0.45 220 17:23 22.12.2022
550 Clouds 11 1001 94 10000 3.6 240 16:39 22.12.2022
551 Clouds 11 1001 94 8000 4.63 230 15:34 22.12.2022
552 Clouds 11 1001 93 10000 3.6 240 14:51 22.12.2022
553 Clouds 11 1001 94 10000 2.57 220 13:33 22.12.2022
554 Clouds 10 1002 95 10000 2.68 131 12:59 22.12.2022
555 Drizzle 7 1003 97 3400 2.57 90 10:44 22.12.2022
556 Clouds 7 1003 96 10000 0.89 137 10:22 22.12.2022
557 Clouds 6 1004 96 9000 1.54 230 09:20 22.12.2022
558 Mist 6 1004 96 1400 2.57 230 08:27 22.12.2022
559 Clouds 7 1003 95 8000 3.09 240 05:28 22.12.2022
560 Clouds 7 1003 95 10000 2.06 220 04:18 22.12.2022
561 Clouds 8 1003 93 10000 2.57 210 23:50 21.12.2022
562 Clouds 8 1003 94 10000 2.57 220 21:58 21.12.2022
563 Clouds 8 1003 94 10000 2.57 220 21:23 21.12.2022
564 Clouds 8 1003 94 10000 2.57 230 20:52 21.12.2022
565 Clouds 8 1003 93 10000 2.06 230 20:29 21.12.2022
566 Clouds 8 1003 93 10000 2.06 230 19:43 21.12.2022
567 Clouds 8 1003 93 10000 1.54 240 19:24 21.12.2022
568 Clouds 9 1003 93 10000 2.68 163 18:46 21.12.2022
569 Clouds 9 1003 90 10000 2.57 210 17:38 21.12.2022
570 Clouds 11 1004 88 10000 3.6 220 14:58 21.12.2022
571 Clouds 10 1005 88 10000 3.6 220 13:28 21.12.2022
572 Clouds 10 1006 90 10000 4.12 220 11:47 21.12.2022
573 Clouds 9 1006 90 10000 4.63 210 11:20 21.12.2022
574 Clouds 8 1006 91 10000 4.12 220 09:47 21.12.2022
575 Clouds 7 1006 91 10000 2.06 220 07:38 21.12.2022
576 Clouds 6 1009 91 10000 1.03 0 03:48 21.12.2022
577 Clouds 5 1010 91 10000 1.54 210 22:56 20.12.2022
578 Clouds 6 1010 90 10000 3.09 230 21:23 20.12.2022
579 Clouds 6 1009 89 10000 2.57 250 20:24 20.12.2022
580 Clouds 7 1009 89 10000 2.06 240 19:41 20.12.2022
581 Clouds 7 1009 86 10000 2.06 220 18:37 20.12.2022
582 Clouds 7 1009 85 10000 1.54 240 18:19 20.12.2022
583 Clouds 8 1009 84 10000 0.45 181 17:46 20.12.2022
584 Clear 10 1007 78 10000 4.12 250 16:37 20.12.2022
585 Clouds 11 1007 75 10000 4.12 250 15:36 20.12.2022
586 Clear 11 1007 78 10000 4.12 240 14:48 20.12.2022
587 Clear 11 1007 78 10000 4.12 250 14:28 20.12.2022
588 Clouds 10 1007 85 10000 4.12 240 12:59 20.12.2022
589 Clouds 10 1007 87 10000 4.12 250 12:31 20.12.2022
590 Clouds 9 1007 89 10000 5.66 250 11:37 20.12.2022
591 Clouds 11 1004 91 10000 6.17 260 08:51 20.12.2022
592 Clouds 13 1003 93 9000 7.2 200 04:38 20.12.2022
593 Rain 13 1005 89 10000 7.72 210 22:46 19.12.2022
594 Clouds 13 1005 92 8000 7.72 200 21:56 19.12.2022
595 Rain 13 1005 92 7000 7.72 200 20:28 19.12.2022
596 Clouds 13 1005 91 9000 6.69 210 19:39 19.12.2022
597 Rain 13 1005 91 10000 8.23 210 18:42 19.12.2022
598 Clouds 13 1005 91 10000 8.75 210 17:36 19.12.2022
599 Clouds 12 1006 92 10000 8.23 210 13:55 19.12.2022
600 Rain 12 1007 92 10000 7.72 210 12:21 19.12.2022
601 Rain 12 1007 91 10000 8.23 210 10:56 19.12.2022
602 Clouds 12 1006 93 10000 7.2 210 07:45 19.12.2022
603 Clouds 12 1006 95 10000 6.17 220 05:37 19.12.2022
604 Clouds 8 1008 93 7000 5.14 180 22:43 18.12.2022
605 Clouds 8 1009 93 10000 5.14 170 21:47 18.12.2022
606 Clouds 7 1009 94 10000 4.12 160 21:24 18.12.2022
607 Rain 7 1010 94 10000 4.12 160 20:33 18.12.2022
608 Rain 6 1010 93 7000 4.12 140 19:42 18.12.2022
609 Rain 5 1011 93 6000 3.6 120 18:39 18.12.2022
610 Rain 5 1012 93 7000 3.6 130 17:52 18.12.2022
611 Rain 3 1013 94 4000 3.6 130 15:41 18.12.2022
612 Rain 3 1014 94 6000 4.63 130 15:20 18.12.2022
613 Rain 3 1015 92 5000 4.12 110 14:21 18.12.2022
614 Rain 2 1016 90 8000 3.6 90 12:58 18.12.2022
615 Rain 2 1016 90 8000 3.6 90 12:58 18.12.2022
616 Rain 2 1017 90 8000 3.09 90 12:32 18.12.2022
617 Snow 2 1018 90 7000 2.06 100 11:48 18.12.2022
618 Clouds 1 1018 91 8000 4.12 100 09:24 18.12.2022
619 Clouds 0 1018 92 8000 4.12 100 08:46 18.12.2022
620 Clouds -1 1020 93 6000 4.12 100 06:24 18.12.2022
621 Haze -2 1021 93 5000 3.09 90 04:41 18.12.2022
622 Haze -1 1022 92 5000 2.06 90 01:49 18.12.2022
623 Clouds -1 1023 89 7000 2.57 80 22:57 17.12.2022
624 Clouds 1 1023 84 10000 1.54 110 20:37 17.12.2022
625 Clouds 3 1023 86 10000 1.54 0 17:21 17.12.2022
626 Clouds 3 1023 86 10000 1.54 0 17:21 17.12.2022
627 Clouds 3 1023 86 10000 1.54 0 17:21 17.12.2022
628 Clouds 4 1021 84 10000 3.6 180 15:32 17.12.2022
629 Clouds 4 1022 84 10000 3.09 180 13:18 17.12.2022
630 Clouds 1 1022 90 10000 1.54 340 11:19 17.12.2022
631 Clouds 1 1021 91 10000 1.54 0 10:40 17.12.2022
632 Clouds -1 1020 93 10000 1.54 250 08:37 17.12.2022
633 Clouds -3 1020 93 7000 1.03 0 06:48 17.12.2022
634 Mist -3 1021 93 5000 0.51 0 04:41 17.12.2022
635 Clear -2 1020 93 7000 1.54 200 22:53 16.12.2022
636 Clear -2 1020 91 6000 2.06 210 20:29 16.12.2022
637 Clouds -2 1020 90 10000 1.14 238 18:33 16.12.2022
638 Clear 2 1019 86 10000 1.54 240 15:32 16.12.2022
639 Clear 2 1019 87 10000 1.54 240 14:42 16.12.2022
640 Clear 1 1018 90 8000 1.54 240 13:21 16.12.2022
641 Clear -1 1019 91 10000 2.06 230 11:57 16.12.2022
642 Clear -3 1017 94 7000 2.06 250 09:40 16.12.2022
643 Clear -3 1016 93 7000 2.57 260 08:50 16.12.2022
644 Clear -3 1015 93 7000 2.06 280 07:55 16.12.2022
645 Haze -3 1015 94 5000 2.06 280 06:46 16.12.2022
646 Clouds -1 1012 92 10000 2.68 345 22:50 15.12.2022
647 Clouds -1 1012 89 10000 2.06 310 21:41 15.12.2022
648 Clouds -1 1011 86 10000 3.09 300 19:57 15.12.2022
649 Clear -1 1011 86 10000 3.09 300 19:21 15.12.2022
650 Clear -1 1010 81 10000 2.57 300 17:28 15.12.2022
651 Clear 0 1010 76 10000 2.24 331 16:31 15.12.2022
652 Clear 1 1010 72 10000 2.06 290 14:57 15.12.2022
653 Clear 0 1010 78 10000 2.06 290 13:18 15.12.2022
654 Clear -1 1011 81 10000 2.06 290 12:25 15.12.2022
655 Clear -1 1011 80 10000 2.06 290 12:25 15.12.2022
656 Clear -5 1010 89 10000 1.54 290 09:28 15.12.2022
657 Clear -5 1010 89 10000 1.54 280 08:46 15.12.2022
658 Clear -4 1009 91 10000 2.06 290 05:47 15.12.2022
659 Clear -3 1008 89 10000 1.03 0 02:38 15.12.2022
660 Clouds 0 1007 88 10000 2.68 331 21:25 14.12.2022
661 Clouds 0 1007 89 10000 2.57 350 20:57 14.12.2022
662 Clouds 0 1007 91 10000 3.13 348 20:18 14.12.2022
663 Mist 0 1006 93 4700 3.13 337 17:56 14.12.2022
664 Mist 0 1006 92 3700 2.57 350 16:57 14.12.2022
665 Clouds -1 1005 87 7000 4.47 341 15:39 14.12.2022
666 Clouds 0 1005 81 10000 3.6 340 13:40 14.12.2022
667 Clouds -1 1005 86 9000 2.24 347 11:20 14.12.2022
668 Clouds -2 1004 89 9000 1.79 355 10:31 14.12.2022
669 Clouds -2 1003 92 6000 2.24 347 08:48 14.12.2022
670 Clouds -1 1003 91 10000 1.03 0 22:47 13.12.2022
671 Clouds -1 1003 92 9000 1.54 360 21:48 13.12.2022
672 Clouds 0 1003 91 10000 1.54 60 20:48 13.12.2022
673 Clouds 0 1004 90 10000 2.06 20 19:59 13.12.2022
674 Clouds 0 1005 89 10000 1.54 10 17:40 13.12.2022
675 Clouds 1 1005 84 10000 3.09 60 15:44 13.12.2022
676 Clouds 1 1005 82 10000 3.09 100 14:44 13.12.2022
677 Clouds -1 1008 91 10000 3.6 100 11:18 13.12.2022
678 Clouds -1 1008 91 10000 1.54 60 10:36 13.12.2022
679 Clouds -2 1008 93 10000 1.54 30 09:23 13.12.2022
680 Clouds -2 1008 94 6000 2.06 50 04:35 13.12.2022
681 Clouds 0 1009 94 10000 4.12 100 22:23 12.12.2022
682 Clouds 0 1009 94 10000 3.09 110 21:22 12.12.2022
683 Haze 1 1008 95 5000 4.12 100 18:34 12.12.2022
684 Mist 1 1008 95 3300 2.06 50 17:19 12.12.2022
685 Clouds 1 1008 95 6000 1.54 110 15:22 12.12.2022
686 Clouds 0 1008 94 10000 2.06 160 12:24 12.12.2022
687 Clouds 0 1008 96 10000 1.54 150 09:19 12.12.2022
688 Clouds 0 1007 96 6000 1.54 280 04:55 12.12.2022
689 Snow 0 1006 96 7000 2.57 270 03:21 12.12.2022
690 Snow -1 1005 96 1700 2.06 310 22:54 11.12.2022
691 Snow 0 1005 96 1400 2.57 340 20:54 11.12.2022
692 Snow 0 1005 96 3700 2.06 340 19:48 11.12.2022
693 Mist 0 1005 96 4200 2.24 351 19:30 11.12.2022
694 Mist 0 1006 96 4100 1.34 330 18:18 11.12.2022
695 Mist 0 1006 96 2500 1.54 60 17:32 11.12.2022
696 Mist 0 1006 96 2300 1.03 0 16:52 11.12.2022
697 Fog 0 1006 96 400 1.03 0 15:47 11.12.2022
698 Fog 0 1005 97 200 0.45 47 14:50 11.12.2022
699 Fog -1 1008 94 150 0.51 0 12:45 11.12.2022
700 Fog -1 1007 90 150 1.03 0 12:18 11.12.2022
701 Clouds -3 1006 95 100 1.54 360 08:29 11.12.2022
702 Mist -2 1008 96 5000 0 0 00:34 11.12.2022
703 Clear -1 1008 94 9000 0 0 23:20 10.12.2022
704 Clear -1 1009 94 10000 1.54 230 22:33 10.12.2022
705 Clear -1 1009 93 10000 1.03 220 22:33 10.12.2022
706 Clear -1 1009 94 10000 1.54 230 22:33 10.12.2022
707 Clear -1 1010 92 10000 1.54 240 21:20 10.12.2022
708 Clear -1 1010 92 10000 0.51 0 20:39 10.12.2022
709 Clouds -1 1010 89 10000 1.32 212 18:58 10.12.2022
710 Clouds 2 1009 85 10000 2.06 230 16:59 10.12.2022
711 Clouds 3 1009 83 10000 1.54 230 16:34 10.12.2022
712 Clouds 4 1009 82 10000 2.57 260 15:39 10.12.2022
713 Clouds 4 1009 82 10000 2.57 230 14:49 10.12.2022
714 Clouds 2 1009 89 10000 3.6 230 12:54 10.12.2022
715 Clouds 1 1009 91 10000 3.6 240 11:46 10.12.2022
716 Clouds -1 1009 93 10000 3.09 230 10:43 10.12.2022
717 Clouds -2 1009 92 10000 2.57 240 09:38 10.12.2022
718 Clouds -2 1008 92 10000 2.57 230 07:20 10.12.2022
719 Clear -2 1008 92 8000 2.57 230 01:58 10.12.2022
720 Clear -1 1008 92 8000 2.57 240 23:20 09.12.2022
721 Clear -2 1009 91 7000 2.57 240 22:40 09.12.2022
722 Clear -1 1009 90 8000 2.57 220 21:26 09.12.2022
723 Clear -1 1009 90 7000 2.57 210 20:44 09.12.2022
724 Clear -1 1008 90 10000 1.73 303 19:28 09.12.2022
725 Clear 1 1008 86 10000 1.72 311 17:55 09.12.2022
726 Clear 3 1007 80 10000 2.57 300 16:36 09.12.2022
727 Clear 3 1007 79 10000 2.57 300 16:18 09.12.2022
728 Clear 3 1007 79 10000 2.57 300 16:18 09.12.2022
729 Clear 3 1007 82 10000 2.57 280 15:19 09.12.2022
730 Clouds 1 1008 93 6000 2.06 300 11:36 09.12.2022
731 Haze 1 1009 95 4900 2.57 300 10:45 09.12.2022
732 Mist 0 1007 94 2900 3.09 300 09:25 09.12.2022
733 Clouds -1 1007 92 10000 2.57 300 05:36 09.12.2022
734 Clear -2 1007 90 10000 1.31 319 02:29 09.12.2022
735 Clear -1 1008 88 10000 1.18 330 22:32 08.12.2022
736 Clear -1 1008 88 10000 0.45 314 20:51 08.12.2022
737 Clear 0 1009 85 10000 1.76 333 18:41 08.12.2022
738 Clouds 3 1009 76 10000 2.57 300 15:45 08.12.2022
739 Clouds 3 1009 80 10000 2.57 310 14:28 08.12.2022
740 Clear 1 1011 87 10000 2.57 280 11:42 08.12.2022
741 Clear -1 1011 91 9000 2.06 220 10:23 08.12.2022
742 Clear -2 1012 94 8000 2.57 220 09:28 08.12.2022
743 Clear -2 1012 93 10000 2.57 240 06:47 08.12.2022
744 Clouds 0 1016 90 10000 1.81 305 22:19 07.12.2022
745 Clouds 0 1016 90 10000 0.89 280 21:51 07.12.2022
746 Clouds 1 1015 90 10000 0.45 264 21:31 07.12.2022
747 Clouds 1 1017 88 10000 2.24 315 19:48 07.12.2022
748 Clouds 3 1018 85 10000 3.09 300 17:41 07.12.2022
749 Clouds 5 1019 80 10000 4.12 290 14:41 07.12.2022
750 Clouds 4 1021 85 10000 2.57 320 12:39 07.12.2022
751 Clouds 3 1021 90 10000 2.57 300 10:47 07.12.2022
752 Clouds 2 1022 90 10000 3.09 300 09:57 07.12.2022
753 Clouds 3 1022 91 10000 2.24 347 08:54 07.12.2022
754 Clouds 3 1021 92 10000 4.02 348 06:50 07.12.2022
755 Clouds 3 1022 92 10000 3.09 350 05:23 07.12.2022
756 Clouds 4 1023 90 10000 2.57 300 23:58 06.12.2022
757 Clouds 5 1022 88 10000 2.57 320 21:41 06.12.2022
758 Clouds 5 1022 87 10000 2.68 331 18:59 06.12.2022
759 Clouds 6 1022 83 10000 3.58 336 17:19 06.12.2022
760 Clouds 6 1022 81 10000 2.68 318 16:29 06.12.2022
761 Clouds 7 1022 77 10000 3.13 326 15:35 06.12.2022
762 Clouds 7 1022 76 10000 3.09 330 14:35 06.12.2022
763 Clouds 7 1023 78 10000 4.12 360 13:49 06.12.2022
764 Clouds 6 1023 84 10000 3.13 7 12:41 06.12.2022
765 Clouds 5 1024 88 10000 2.57 340 11:34 06.12.2022
766 Clouds 4 1023 92 10000 2.24 320 07:49 06.12.2022
767 Clouds 4 1023 89 10000 2.57 340 03:20 06.12.2022
768 Clouds 6 1023 88 10000 1.79 344 23:21 05.12.2022
769 Clouds 6 1023 87 10000 2.24 314 21:40 05.12.2022
770 Clouds 7 1023 89 10000 2.68 352 20:52 05.12.2022
771 Clouds 7 1023 88 10000 2.68 5 19:53 05.12.2022
772 Clouds 7 1022 88 10000 2.68 5 19:34 05.12.2022
773 Clouds 8 1021 86 10000 3.09 40 16:51 05.12.2022
774 Clouds 8 1021 85 10000 3.6 0 15:29 05.12.2022
775 Clouds 8 1021 85 10000 3.13 18 13:52 05.12.2022
776 Clouds 7 1021 85 10000 3.13 12 12:57 05.12.2022
777 Clouds 7 1021 85 10000 3.13 13 12:38 05.12.2022
778 Clouds 7 1021 86 10000 2.57 30 11:42 05.12.2022
779 Clouds 6 1020 87 10000 2.68 2 08:37 05.12.2022
780 Clouds 4 1018 91 7000 2.57 30 00:18 05.12.2022
781 Clouds 4 1018 89 10000 3.6 40 22:44 04.12.2022
782 Clouds 4 1018 87 10000 3.09 50 22:19 04.12.2022
783 Clouds 4 1018 86 10000 3.6 50 21:32 04.12.2022
784 Clouds 5 1017 84 10000 2.57 0 20:20 04.12.2022
785 Clouds 5 1017 81 10000 5.14 60 19:23 04.12.2022
786 Clouds 5 1017 81 10000 5.14 60 18:36 04.12.2022
787 Clouds 5 1016 81 10000 6.17 60 17:22 04.12.2022
788 Clouds 6 1015 82 10000 4.12 60 16:37 04.12.2022
789 Clouds 6 1015 84 10000 4.12 60 16:18 04.12.2022
790 Clouds 5 1015 83 10000 4.12 0 15:27 04.12.2022
791 Clouds 5 1015 84 10000 3.09 60 14:32 04.12.2022
792 Clouds 5 1016 83 10000 4.63 70 12:52 04.12.2022
793 Clouds 5 1016 83 10000 4.63 70 12:33 04.12.2022
794 Clouds 5 1016 85 10000 5.66 60 11:35 04.12.2022
795 Clouds 4 1015 89 7000 4.12 90 08:50 04.12.2022
796 Clouds 5 1015 79 10000 5.14 60 02:51 04.12.2022
797 Clouds 5 1016 82 10000 4.63 60 23:44 03.12.2022
798 Clouds 5 1016 83 10000 4.12 60 22:46 03.12.2022
799 Clouds 5 1016 82 10000 4.12 60 21:52 03.12.2022
800 Clouds 6 1016 81 10000 3.6 60 20:46 03.12.2022
801 Clouds 6 1017 81 10000 4.63 60 18:57 03.12.2022
802 Clouds 6 1018 79 10000 5.66 60 18:31 03.12.2022
803 Clouds 7 1017 77 10000 7.2 60 15:52 03.12.2022
804 Clouds 7 1018 83 10000 4.12 60 13:46 03.12.2022
805 Clouds 7 1019 83 10000 4.02 2 12:51 03.12.2022
806 Clouds 7 1019 86 10000 3.09 60 12:21 03.12.2022
807 Clouds 5 1020 86 10000 3.09 0 09:46 03.12.2022
808 Clouds 5 1022 81 10000 4.12 30 04:18 03.12.2022
809 Clouds 6 1023 87 10000 5.66 60 00:23 03.12.2022
810 Clouds 6 1023 89 10000 4.02 5 22:19 02.12.2022
811 Clouds 6 1023 89 10000 3.09 0 20:53 02.12.2022
812 Clouds 6 1024 90 10000 2.24 26 18:18 02.12.2022
813 Clouds 7 1024 86 10000 2.68 22 15:58 02.12.2022
814 Clouds 7 1024 87 10000 4.12 40 14:38 02.12.2022
815 Clouds 7 1024 87 10000 3.6 10 14:19 02.12.2022
816 Clouds 7 1024 90 10000 3.13 355 12:51 02.12.2022
817 Clouds 6 1025 94 8000 2.24 5 11:31 02.12.2022
818 Clouds 6 1025 94 8000 2.68 359 11:31 02.12.2022
819 Clouds 5 1025 95 9000 2.06 340 08:35 02.12.2022
820 Clouds 5 1025 95 7000 2.06 350 07:23 02.12.2022
821 Haze 5 1027 95 3300 1.79 2 23:35 01.12.2022
822 Haze 6 1027 94 3800 2.06 360 21:45 01.12.2022
823 Haze 5 1028 94 4400 2.06 350 21:26 01.12.2022
824 Haze 5 1028 93 4600 2.68 2 19:22 01.12.2022
825 Clouds 6 1027 90 10000 3.13 355 17:46 01.12.2022
826 Clouds 8 1028 84 10000 2.57 40 15:39 01.12.2022
827 Clouds 7 1029 92 10000 2.68 323 11:37 01.12.2022
828 Clouds 5 1029 94 8000 1.03 0 10:23 01.12.2022
829 Clouds 5 1029 94 9000 1.54 320 09:53 01.12.2022
830 Clouds 5 1029 94 9000 1.54 320 09:35 01.12.2022
831 Clouds 6 1028 94 6000 1.03 0 23:59 30.11.2022
832 Clouds 7 1027 93 6000 1.03 0 22:35 30.11.2022
833 Clouds 7 1027 91 8000 1.03 0 21:19 30.11.2022
834 Clouds 7 1027 83 9000 1.54 60 20:25 30.11.2022
835 Clouds 7 1026 74 10000 1.34 355 19:58 30.11.2022
836 Clouds 7 1026 90 10000 1.34 12 18:33 30.11.2022
837 Clouds 8 1025 89 10000 1.54 100 17:36 30.11.2022
838 Clouds 9 1025 87 10000 1.54 60 15:49 30.11.2022
839 Clouds 9 1025 88 8000 1.34 26 14:27 30.11.2022
840 Clouds 8 1025 92 7000 1.79 346 13:39 30.11.2022
841 Clouds 7 1024 96 7000 0.89 82 10:30 30.11.2022
842 Clouds 6 1023 96 7000 3.09 100 08:39 30.11.2022
843 Clouds 7 1023 95 7000 3.09 100 07:56 30.11.2022
844 Haze 7 1022 96 5000 1.03 0 23:36 29.11.2022
845 Clouds 7 1022 96 7000 1.03 0 22:49 29.11.2022
846 Clouds 7 1022 96 7000 1.03 0 21:36 29.11.2022
847 Haze 7 1021 96 5000 1.54 350 20:37 29.11.2022
848 Haze 6 1021 95 5000 2.06 50 18:59 29.11.2022
849 Clouds 6 1021 95 8000 1.54 310 17:18 29.11.2022
850 Clouds 6 1020 94 10000 0.51 0 16:25 29.11.2022
851 Clouds 6 1020 95 10000 1.03 0 14:50 29.11.2022
852 Clouds 6 1020 95 10000 2.06 290 13:20 29.11.2022
853 Clouds 6 1020 95 10000 2.06 0 11:57 29.11.2022
854 Clouds 6 1020 95 10000 2.57 60 11:18 29.11.2022
855 Clouds 6 1019 95 10000 1.54 10 09:47 29.11.2022
856 Clouds 6 1018 96 10000 2.06 330 08:42 29.11.2022
857 Mist 6 1013 96 3800 2.57 300 00:36 29.11.2022
858 Mist 6 1013 96 3800 2.57 300 00:36 29.11.2022
859 Clouds 7 1013 94 10000 1.34 348 23:35 28.11.2022
860 Clouds 6 1012 94 10000 1.54 300 22:53 28.11.2022
861 Clouds 7 1012 94 10000 1.03 0 21:44 28.11.2022
862 Clouds 7 1011 94 10000 0.51 0 21:21 28.11.2022
863 Clouds 8 1011 93 6000 1.54 320 19:39 28.11.2022
864 Clouds 9 1010 92 10000 2.24 46 18:29 28.11.2022
865 Clouds 9 1009 91 10000 1.54 140 17:51 28.11.2022
866 Clouds 10 1008 89 10000 2.57 230 16:35 28.11.2022
867 Clouds 10 1007 88 10000 0.89 194 14:28 28.11.2022
868 Clouds 10 1007 85 10000 3.09 230 13:52 28.11.2022
869 Clouds 10 1007 88 10000 2.06 90 12:42 28.11.2022
870 Clouds 7 1007 95 10000 0.51 0 10:22 28.11.2022
871 Clear 6 1007 95 10000 1.03 240 07:52 28.11.2022
872 Clouds 7 1007 95 9000 2.06 220 04:44 28.11.2022
873 Clouds 7 1007 95 8000 1.54 220 03:59 28.11.2022
874 Clouds 7 1007 95 7000 2.06 220 03:18 28.11.2022
875 Clouds 10 1009 94 10000 1.54 240 22:47 27.11.2022
876 Clouds 10 1009 94 10000 2.06 230 21:42 27.11.2022
877 Rain 11 1008 93 10000 2.57 190 20:34 27.11.2022
878 Rain 12 1009 93 10000 0.89 188 17:56 27.11.2022
879 Clouds 13 1010 94 10000 2.06 170 15:28 27.11.2022
880 Rain 13 1012 95 10000 2.06 150 12:41 27.11.2022
881 Rain 12 1013 95 10000 2.06 110 10:57 27.11.2022
882 Clouds 12 1013 95 10000 4.12 210 08:35 27.11.2022
883 Rain 11 1014 94 10000 4.12 200 04:22 27.11.2022
884 Clouds 12 1017 85 10000 5.14 180 22:31 26.11.2022
885 Clouds 12 1019 88 10000 6.17 180 20:51 26.11.2022
886 Clouds 11 1020 87 10000 4.47 177 19:27 26.11.2022
887 Clouds 12 1020 84 10000 4.12 190 17:54 26.11.2022
888 Clouds 12 1022 82 10000 5.66 210 15:52 26.11.2022
889 Clouds 12 1023 81 10000 4.63 200 13:35 26.11.2022
890 Clouds 11 1024 88 10000 3.6 180 11:45 26.11.2022
891 Clouds 10 1025 92 10000 3.09 170 10:22 26.11.2022
892 Clouds 8 1025 93 10000 2.24 159 09:31 26.11.2022
893 Clouds 8 1024 92 10000 2.06 240 06:41 26.11.2022
894 Clouds 8 1023 85 10000 2.06 220 21:46 25.11.2022
895 Clouds 8 1023 85 10000 2.06 220 21:46 25.11.2022
896 Clouds 9 1022 84 10000 3.13 229 21:24 25.11.2022
897 Clear 8 1022 84 10000 3.09 240 19:57 25.11.2022
898 Clear 11 1018 74 10000 4.12 250 16:50 25.11.2022
899 Clear 12 1016 70 10000 5.66 260 14:37 25.11.2022
900 Clear 8 1011 88 10000 2.68 195 09:24 25.11.2022
901 Clear 8 1010 87 10000 4.63 250 08:41 25.11.2022
902 Clouds 9 1008 86 10000 2.24 188 06:55 25.11.2022
903 Clouds 9 1007 86 10000 2.24 222 06:24 25.11.2022
904 Clouds 9 1004 88 10000 2.57 170 23:57 24.11.2022
905 Clouds 9 1002 87 10000 3.6 210 22:51 24.11.2022
906 Clouds 10 1002 89 10000 3.6 220 21:59 24.11.2022
907 Clouds 10 1001 89 10000 1.79 193 20:33 24.11.2022
908 Clouds 10 1000 88 10000 3.6 210 19:20 24.11.2022
909 Rain 12 1000 83 10000 7.2 200 17:43 24.11.2022
910 Rain 12 1000 84 10000 6.69 190 17:20 24.11.2022
911 Clouds 13 1001 81 10000 6.17 190 15:24 24.11.2022
912 Clouds 13 1002 79 10000 5.66 180 13:54 24.11.2022
913 Clouds 11 1004 84 10000 3.09 150 11:58 24.11.2022
914 Clouds 9 1004 84 10000 4.12 160 10:37 24.11.2022
915 Clouds 7 1004 84 10000 3.09 230 07:54 24.11.2022
916 Clouds 7 1000 84 10000 5.14 250 03:23 24.11.2022
917 Clouds 9 996 80 10000 3.6 220 23:46 23.11.2022
918 Clouds 9 996 80 10000 4.63 210 22:24 23.11.2022
919 Clouds 10 995 78 10000 4.63 220 21:30 23.11.2022
920 Clouds 10 995 80 10000 4.12 220 20:45 23.11.2022
921 Clear 10 994 80 10000 4.63 230 19:30 23.11.2022
922 Clear 10 994 80 10000 4.12 230 18:41 23.11.2022
923 Clouds 11 992 74 10000 5.14 230 16:56 23.11.2022
924 Clouds 12 990 76 10000 7.2 250 13:41 23.11.2022
925 Clouds 12 989 79 10000 7.72 260 13:21 23.11.2022
926 Clouds 11 988 85 10000 7.72 250 12:21 23.11.2022
927 Clouds 10 987 90 10000 7.72 250 11:42 23.11.2022
928 Clouds 10 986 94 6000 5.66 150 10:44 23.11.2022
929 Rain 9 986 94 10000 4.63 140 09:44 23.11.2022
930 Rain 9 986 94 10000 4.12 140 09:25 23.11.2022
931 Rain 8 987 92 10000 4.47 152 08:37 23.11.2022
932 Clouds 6 988 95 10000 3.09 140 06:59 23.11.2022
933 Clouds 5 990 94 10000 0.45 113 05:18 23.11.2022
934 Clouds 5 992 91 10000 2.57 230 23:24 22.11.2022
935 Clouds 5 992 90 10000 4.12 230 22:34 22.11.2022
936 Clouds 6 991 89 10000 3.09 220 21:34 22.11.2022
937 Clouds 7 991 87 10000 4.12 240 20:50 22.11.2022
938 Clouds 7 991 87 10000 4.12 240 20:19 22.11.2022
939 Clouds 8 990 82 10000 3.09 260 18:34 22.11.2022
940 Clouds 9 989 80 10000 4.12 290 17:45 22.11.2022
941 Clouds 10 988 77 10000 5.14 270 16:23 22.11.2022
942 Clouds 10 987 81 10000 4.63 250 13:48 22.11.2022
943 Clouds 8 987 87 10000 5.14 250 11:57 22.11.2022
944 Clouds 5 986 90 10000 4.63 240 09:26 22.11.2022
945 Clouds 5 985 87 10000 4.63 240 07:58 22.11.2022
946 Clouds 6 985 85 10000 4.63 240 06:36 22.11.2022
947 Clouds 6 985 84 10000 6.69 240 23:42 21.11.2022
948 Clouds 6 985 83 10000 6.69 240 22:50 21.11.2022
949 Clouds 6 984 83 10000 7.72 250 21:59 21.11.2022
950 Clouds 7 983 82 10000 8.75 250 20:56 21.11.2022
951 Clouds 7 983 82 10000 8.75 250 20:56 21.11.2022
952 Clouds 8 982 87 10000 11.83 260 19:44 21.11.2022
953 Clouds 8 982 89 10000 10.8 250 19:26 21.11.2022
954 Clouds 8 981 93 10000 5.81 295 18:44 21.11.2022
955 Drizzle 8 983 93 5000 9.26 110 16:58 21.11.2022
956 Clouds 8 983 92 10000 9.26 110 16:40 21.11.2022
957 Clouds 8 985 90 10000 8.23 130 15:54 21.11.2022
958 Clouds 8 987 89 10000 7.72 140 15:23 21.11.2022
959 Rain 9 989 93 9000 6.26 142 13:52 21.11.2022
960 Rain 8 994 91 10000 4.63 110 11:41 21.11.2022
961 Clouds 6 998 93 10000 3.6 90 09:31 21.11.2022
962 Clouds 5 1000 93 10000 3.09 100 07:43 21.11.2022
963 Clouds 6 1008 89 10000 4.12 250 22:51 20.11.2022
964 Clouds 6 1008 87 10000 1.34 221 21:36 20.11.2022
965 Clear 7 1007 86 10000 1.34 325 20:47 20.11.2022
966 Clouds 8 1005 85 10000 1.79 224 18:58 20.11.2022
967 Clouds 10 1006 79 10000 4.63 260 16:50 20.11.2022
968 Clear 10 1005 73 10000 5.66 270 15:35 20.11.2022
969 Clouds 11 1006 72 10000 7.72 270 14:55 20.11.2022
970 Clouds 11 1005 76 10000 5.14 270 13:58 20.11.2022
971 Clouds 11 1006 84 10000 5.14 260 13:23 20.11.2022
972 Clouds 9 1006 92 10000 5.14 270 11:38 20.11.2022
973 Clouds 8 1006 94 10000 5.14 280 10:57 20.11.2022
974 Clouds 8 1006 96 10000 1.34 336 09:43 20.11.2022
975 Drizzle 8 1005 95 5000 1.54 60 08:51 20.11.2022
976 Rain 7 1006 94 10000 2.24 167 07:30 20.11.2022
977 Rain 7 1007 93 10000 2.06 150 06:43 20.11.2022
978 Clouds 5 1012 92 10000 2.06 220 01:26 20.11.2022
979 Clouds 5 1012 90 10000 1.54 220 00:45 20.11.2022
980 Clouds 5 1011 90 10000 2.06 210 00:26 20.11.2022
981 Clouds 6 1012 89 10000 2.57 220 23:57 19.11.2022
982 Clouds 6 1012 88 10000 2.57 230 23:26 19.11.2022
983 Clouds 6 1012 87 10000 2.06 230 22:43 19.11.2022
984 Clouds 6 1012 87 10000 2.06 230 22:43 19.11.2022
985 Clouds 7 1012 86 10000 1.34 304 21:47 19.11.2022
986 Clouds 7 1012 85 10000 1.54 0 21:23 19.11.2022
987 Clouds 8 1012 84 10000 2.57 300 20:40 19.11.2022
988 Clouds 8 1012 83 10000 1.03 350 19:35 19.11.2022
989 Clouds 9 1012 82 10000 3.6 290 18:19 19.11.2022
990 Clouds 9 1012 80 10000 3.6 280 17:38 19.11.2022
991 Clouds 9 1012 80 10000 3.09 290 17:18 19.11.2022
992 Clouds 10 1012 79 10000 4.63 290 14:47 19.11.2022
993 Clouds 10 1012 80 10000 4.63 290 13:21 19.11.2022
994 Clouds 9 1012 81 10000 4.12 300 11:52 19.11.2022
995 Clouds 8 1011 84 10000 3.6 300 09:45 19.11.2022
996 Clouds 8 1010 84 10000 4.47 332 07:52 19.11.2022
997 Clouds 8 1010 84 10000 3.6 290 04:44 19.11.2022
998 Clouds 9 1008 80 10000 3.58 319 00:46 19.11.2022
999 Clouds 9 1007 78 10000 4.12 290 23:34 18.11.2022
1000 Clouds 10 1007 79 10000 1.34 308 22:23 18.11.2022
1001 Clouds 10 1006 79 10000 1.79 317 21:35 18.11.2022
1002 Clouds 10 1006 78 10000 3.6 290 20:57 18.11.2022
1003 Clouds 10 1005 78 10000 4.63 280 20:21 18.11.2022
1004 Clouds 10 1005 79 10000 1.34 321 19:36 18.11.2022
1005 Clouds 11 1003 77 10000 2.68 273 17:45 18.11.2022
1006 Clouds 11 1002 74 10000 5.66 270 15:59 18.11.2022
1007 Clouds 11 1000 79 10000 5.14 260 11:57 18.11.2022
1008 Clouds 9 998 86 10000 5.66 250 10:22 18.11.2022
1009 Clouds 9 998 86 10000 5.66 250 10:22 18.11.2022
1010 Clouds 8 996 84 10000 5.66 250 07:52 18.11.2022
1011 Clouds 8 993 83 10000 6.69 240 05:27 18.11.2022
1012 Clouds 9 992 84 10000 5.66 240 02:40 18.11.2022
1013 Rain 9 989 85 10000 6.69 250 23:38 17.11.2022
1014 Clouds 9 987 83 10000 6.69 250 20:48 17.11.2022
1015 Clouds 10 986 83 10000 4.47 198 19:54 17.11.2022
1016 Clouds 10 986 81 10000 3.13 201 19:27 17.11.2022
1017 Clouds 11 985 79 10000 3.13 191 18:29 17.11.2022
1018 Clouds 11 985 77 10000 3.13 234 17:32 17.11.2022
1019 Clouds 11 985 74 10000 7.72 260 16:31 17.11.2022
1020 Clouds 10 983 88 10000 8.75 260 12:24 17.11.2022
1021 Rain 9 982 92 10000 8.23 250 10:47 17.11.2022
1022 Rain 9 979 95 5000 10.29 260 07:35 17.11.2022
1023 Rain 11 973 96 8000 3.09 110 01:30 17.11.2022
1024 Clouds 11 976 95 10000 3.6 0 23:32 16.11.2022
1025 Clouds 10 977 95 3500 11.83 90 22:24 16.11.2022
1026 Rain 10 982 93 5000 6.69 120 20:33 16.11.2022
1027 Rain 10 985 91 10000 5.66 110 18:53 16.11.2022
1028 Rain 10 985 92 10000 4.12 120 18:30 16.11.2022
1029 Clouds 11 988 90 10000 4.63 130 16:30 16.11.2022
1030 Clouds 11 992 90 10000 3.09 160 12:20 16.11.2022
1031 Rain 9 992 92 9000 4.12 170 07:56 16.11.2022
1032 Rain 9 994 88 10000 4.12 190 01:49 16.11.2022
1033 Clear 9 993 88 10000 3.6 160 23:50 15.11.2022
1034 Clear 9 992 88 10000 1.79 184 21:54 15.11.2022
1035 Clear 10 992 89 10000 2.68 207 20:25 15.11.2022
1036 Clouds 11 992 90 10000 2.57 150 19:18 15.11.2022
1037 Clouds 12 992 89 10000 2.24 116 17:38 15.11.2022
1038 Clouds 13 991 83 10000 6.69 210 16:22 15.11.2022
1039 Clouds 13 991 86 10000 6.69 210 15:40 15.11.2022
1040 Drizzle 13 991 94 5000 7.2 170 14:41 15.11.2022
1041 Drizzle 12 993 95 5000 6.17 150 12:59 15.11.2022
1042 Rain 12 995 95 7000 6.17 150 11:22 15.11.2022
1043 Rain 12 996 93 6000 5.66 150 09:53 15.11.2022
1044 Clouds 10 1000 88 10000 4.12 140 05:19 15.11.2022
1045 Clouds 10 1004 88 10000 3.13 169 00:28 15.11.2022
1046 Clouds 12 1004 94 10000 1.34 207 22:52 14.11.2022
1047 Clouds 12 1004 95 6000 2.06 110 21:18 14.11.2022
1048 Mist 12 1005 96 5000 2.06 100 20:30 14.11.2022
1049 Clouds 12 1005 95 6000 2.06 110 18:29 14.11.2022
1050 Clouds 13 1006 96 8000 1.79 117 15:40 14.11.2022
1051 Fog 11 1010 98 900 2.06 230 11:50 14.11.2022
1052 Fog 11 1009 98 350 1.54 260 11:28 14.11.2022
1053 Fog 11 1008 98 350 1.54 260 11:28 14.11.2022
1054 Fog 11 1008 98 350 1.54 260 11:28 14.11.2022
1055 Fog 10 1009 97 250 1.03 0 08:48 14.11.2022
1056 Fog 10 1009 97 250 1.03 0 08:48 14.11.2022
1057 Fog 10 1009 97 250 1.03 0 08:48 14.11.2022
1058 Fog 10 1009 97 400 1.03 0 07:53 14.11.2022
1059 Mist 10 1010 97 3000 2.06 100 06:19 14.11.2022
1060 Mist 10 1013 96 2000 1.54 90 00:18 14.11.2022
1061 Fog 11 1014 96 450 2.57 100 21:46 13.11.2022
1062 Mist 11 1015 97 2200 2.06 90 20:58 13.11.2022
1063 Mist 12 1016 95 3700 3.6 100 19:25 13.11.2022
1064 Mist 12 1016 94 3800 3.6 100 17:55 13.11.2022
1065 Mist 13 1017 92 3700 4.12 80 17:00 13.11.2022
1066 Clouds 14 1017 91 8000 3.6 110 14:58 13.11.2022
1067 Clouds 13 1020 94 6000 4.63 100 13:35 13.11.2022
1068 Mist 12 1020 95 1300 2.57 70 12:35 13.11.2022
1069 Clouds 11 1021 96 10000 2.01 126 10:51 13.11.2022
1070 Mist 11 1021 97 1700 3.09 90 07:39 13.11.2022
1071 Mist 12 1023 96 5000 3.09 130 01:33 13.11.2022
1072 Mist 11 1024 94 3600 2.57 90 22:19 12.11.2022
1073 Clouds 12 1024 94 6000 2.57 90 21:24 12.11.2022
1074 Clouds 12 1025 92 9000 3.09 100 19:55 12.11.2022
1075 Clouds 14 1025 88 10000 2.57 120 17:56 12.11.2022
1076 Clear 16 1025 80 10000 3.58 161 16:23 12.11.2022
1077 Clear 17 1025 79 10000 2.68 147 15:18 12.11.2022
1078 Clouds 14 1027 90 10000 2.24 146 11:59 12.11.2022
1079 Clouds 12 1026 93 10000 2.06 150 09:20 12.11.2022
1080 Clouds 11 1026 93 8000 2.57 110 05:31 12.11.2022
1081 Clouds 11 1027 87 10000 1.79 139 22:30 11.11.2022
1082 Clouds 13 1027 84 10000 3.09 210 20:45 11.11.2022
1083 Clouds 13 1027 85 10000 4.12 210 19:42 11.11.2022
1084 Clouds 14 1026 85 10000 4.12 210 19:20 11.11.2022
1085 Clouds 14 1026 84 10000 3.58 217 17:56 11.11.2022
1086 Clouds 14 1026 84 10000 4.92 205 17:56 11.11.2022
1087 Clouds 16 1025 79 10000 5.14 220 16:20 11.11.2022
1088 Clouds 16 1025 80 10000 5.14 210 14:20 11.11.2022
1089 Clouds 16 1026 79 10000 6.69 210 13:29 11.11.2022
1090 Clouds 15 1024 83 10000 4.63 210 09:48 11.11.2022
1091 Clouds 15 1023 83 10000 5.14 210 08:27 11.11.2022
1092 Clouds 15 1023 84 10000 6.17 200 05:44 11.11.2022
1093 Clouds 15 1023 81 10000 4.63 210 23:22 10.11.2022
1094 Clouds 15 1023 80 10000 6.17 230 22:38 10.11.2022
1095 Clouds 14 1022 81 10000 5.14 230 21:34 10.11.2022
1096 Clouds 14 1022 82 10000 5.14 230 20:52 10.11.2022
1097 Clouds 14 1022 82 10000 5.14 220 20:22 10.11.2022
1098 Clouds 14 1022 82 10000 5.66 210 19:43 10.11.2022
1099 Clouds 14 1021 81 10000 7.72 230 18:33 10.11.2022
1100 Clouds 14 1020 78 10000 6.69 230 16:26 10.11.2022
1101 Clouds 15 1020 78 10000 6.17 220 14:21 10.11.2022
1102 Clouds 15 1020 78 10000 4.63 230 12:51 10.11.2022
1103 Clouds 12 1018 88 10000 4.12 230 08:53 10.11.2022
1104 Clouds 11 1017 91 10000 2.68 146 06:40 10.11.2022
1105 Clouds 10 1015 87 10000 4.63 240 00:56 10.11.2022
1106 Clouds 10 1014 85 10000 3.09 240 22:47 09.11.2022
1107 Clouds 11 1012 84 10000 4.63 240 20:58 09.11.2022
1108 Clouds 11 1012 84 10000 4.63 240 20:39 09.11.2022
1109 Clouds 11 1011 84 10000 4.12 240 19:50 09.11.2022
1110 Clouds 11 1011 84 10000 3.13 194 19:25 09.11.2022
1111 Clouds 13 1009 76 10000 2.68 195 17:39 09.11.2022
1112 Clouds 13 1009 76 10000 2.68 195 17:39 09.11.2022
1113 Clouds 14 1007 72 10000 6.17 240 14:56 09.11.2022
1114 Clouds 14 1006 72 10000 6.69 250 14:26 09.11.2022
1115 Clouds 14 1006 75 10000 6.17 250 13:44 09.11.2022
1116 Clouds 13 1006 79 10000 7.2 250 12:52 09.11.2022
1117 Clouds 10 1002 92 10000 5.14 230 09:29 09.11.2022
1118 Rain 10 1001 92 10000 3.6 210 07:47 09.11.2022
1119 Rain 11 1000 90 10000 3.6 210 06:33 09.11.2022
1120 Rain 12 998 88 10000 3.13 200 22:38 08.11.2022
1121 Clouds 12 998 86 10000 5.66 210 21:40 08.11.2022
1122 Clouds 12 997 85 10000 5.66 210 20:54 08.11.2022
1123 Clear 12 997 85 10000 4.63 210 20:18 08.11.2022
1124 Clouds 12 997 87 10000 4.63 220 19:28 08.11.2022
1125 Clouds 12 996 87 10000 5.14 210 17:37 08.11.2022
1126 Rain 12 996 87 10000 7.2 210 15:37 08.11.2022
1127 Rain 14 996 80 10000 6.69 210 14:36 08.11.2022
1128 Clouds 14 997 83 10000 5.36 202 13:29 08.11.2022
1129 Clouds 14 996 82 10000 6.17 200 11:21 08.11.2022
1130 Rain 12 995 90 10000 2.24 206 07:45 08.11.2022
1131 Clouds 13 996 84 10000 6.69 190 06:28 08.11.2022
1132 Clouds 15 1001 81 10000 6.17 200 22:59 07.11.2022
1133 Clouds 14 1001 84 10000 6.69 200 21:52 07.11.2022
1134 Clouds 14 1002 87 10000 6.17 200 20:58 07.11.2022
1135 Clouds 14 1002 88 10000 4.63 170 19:52 07.11.2022
1136 Clouds 14 1003 88 6000 5.14 220 17:43 07.11.2022
1137 Clouds 14 1003 90 10000 6.17 210 15:55 07.11.2022
1138 Clouds 15 1002 90 10000 4.47 188 15:32 07.11.2022
1139 Clouds 14 1003 92 10000 6.17 210 13:51 07.11.2022
1140 Clouds 14 1003 91 10000 5.66 210 12:32 07.11.2022
1141 Clouds 14 1003 92 10000 4.63 200 10:46 07.11.2022
1142 Clouds 13 1003 92 10000 3.6 210 09:19 07.11.2022
1143 Clouds 12 1002 90 10000 4.63 210 07:21 07.11.2022
1144 Clouds 11 1002 91 10000 3.09 220 02:28 07.11.2022
1145 Clouds 11 1001 90 10000 1.34 171 00:36 07.11.2022
1146 Clouds 11 1001 89 10000 5.66 230 21:53 06.11.2022
1147 Clouds 10 1001 90 10000 5.66 230 21:19 06.11.2022
1148 Clear 10 1000 91 10000 2.24 129 19:59 06.11.2022
1149 Clouds 11 1000 90 10000 2.24 223 19:30 06.11.2022
1150 Clouds 11 1000 90 10000 4.63 230 18:21 06.11.2022
1151 Rain 11 1000 90 10000 5.14 240 17:46 06.11.2022
1152 Clouds 11 999 90 10000 5.66 240 17:19 06.11.2022
1153 Clouds 12 999 92 10000 5.14 240 16:30 06.11.2022
1154 Rain 12 999 92 3000 5.36 211 15:42 06.11.2022
1155 Clouds 13 1001 94 10000 2.68 192 12:48 06.11.2022
1156 Rain 13 1002 95 8000 4.12 210 11:56 06.11.2022
1157 Rain 13 1003 94 3000 4.63 230 10:40 06.11.2022
1158 Clouds 13 1003 95 10000 3.6 230 07:45 06.11.2022
1159 Clouds 13 1003 95 10000 3.6 230 07:45 06.11.2022
1160 Clouds 14 1008 95 5000 3.09 210 00:49 06.11.2022
1161 Clouds 13 1009 94 10000 4.63 210 22:52 05.11.2022
1162 Clouds 13 1010 93 10000 5.66 220 19:21 05.11.2022
1163 Clouds 13 1010 92 10000 4.63 220 17:23 05.11.2022
1164 Clouds 12 1011 92 10000 5.14 210 15:45 05.11.2022
1165 Rain 12 1012 93 10000 4.63 200 14:33 05.11.2022
1166 Clouds 11 1013 93 10000 3.6 170 12:38 05.11.2022
1167 Rain 9 1015 91 10000 2.57 230 10:23 05.11.2022
1168 Rain 8 1015 89 10000 2.06 230 07:58 05.11.2022
1169 Clouds 7 1015 90 10000 2.06 220 06:57 05.11.2022
1170 Clouds 6 1017 93 10000 3.09 230 02:35 05.11.2022
1171 Clear 6 1017 91 10000 2.57 230 23:34 04.11.2022
1172 Clear 7 1017 91 10000 2.5 265 22:21 04.11.2022
1173 Clouds 9 1015 85 10000 2.58 275 19:54 04.11.2022
1174 Clouds 11 1014 74 10000 3.6 300 17:45 04.11.2022
1175 Clouds 12 1013 71 10000 4.63 290 16:34 04.11.2022
1176 Clouds 12 1012 73 10000 5.66 300 13:39 04.11.2022
1177 Clear 10 1011 84 10000 7.6 349 12:23 04.11.2022
1178 Clear 7 1009 93 10000 3.13 344 09:41 04.11.2022
1179 Clear 6 1007 95 10000 3.6 310 08:29 04.11.2022
1180 Clouds 7 1005 95 10000 3.09 330 07:41 04.11.2022
1181 Rain 8 999 95 6000 2.06 40 02:28 04.11.2022
1182 Clouds 8 998 95 10000 2.57 70 22:44 03.11.2022
1183 Clouds 8 999 95 10000 1.86 151 20:49 03.11.2022
1184 Clouds 8 999 94 10000 1.77 179 19:44 03.11.2022
1185 Clouds 8 1000 93 10000 2.19 208 19:18 03.11.2022
1186 Clouds 10 998 89 10000 4.12 260 17:42 03.11.2022
1187 Clouds 11 998 89 10000 4.63 250 16:18 03.11.2022
1188 Clouds 11 998 93 10000 2.06 280 13:54 03.11.2022
1189 Clouds 11 999 95 10000 1.54 280 12:35 03.11.2022
1190 Clouds 11 1000 95 10000 2.57 210 11:44 03.11.2022
1191 Rain 11 1000 95 10000 2.57 260 09:18 03.11.2022
1192 Rain 12 1000 93 10000 4.12 210 07:24 03.11.2022
1193 Clouds 14 1007 89 7000 7.72 210 21:24 02.11.2022
1194 Clouds 14 1008 87 10000 7.2 200 20:37 02.11.2022
1195 Rain 14 1008 81 10000 6.17 200 19:47 02.11.2022
1196 Clouds 14 1011 74 10000 6.69 200 16:36 02.11.2022
1197 Clouds 14 1012 75 10000 6.17 200 15:36 02.11.2022
1198 Clouds 14 1013 70 10000 7.2 210 14:29 02.11.2022
1199 Clouds 14 1015 75 10000 6.69 200 12:38 02.11.2022
1200 Clouds 12 1016 78 10000 5.14 210 10:45 02.11.2022
1201 Clear 9 1017 86 10000 3.09 220 08:49 02.11.2022
1202 Clouds 9 1014 86 10000 5.14 240 04:48 02.11.2022
1203 Clouds 10 1008 88 10000 5.14 210 23:53 01.11.2022
1204 Clear 10 1008 87 10000 5.14 200 22:19 01.11.2022
1205 Rain 10 1007 86 10000 4.02 142 21:37 01.11.2022
1206 Clouds 11 1007 84 10000 5.66 230 20:25 01.11.2022
1207 Clouds 11 1007 85 10000 6.69 210 19:42 01.11.2022
1208 Clouds 13 1007 79 10000 5.14 210 18:36 01.11.2022
1209 Clouds 13 1007 81 10000 6.17 210 17:28 01.11.2022
1210 Clouds 13 1006 79 10000 7.2 230 15:54 01.11.2022
1211 Rain 14 1007 78 10000 8.23 220 14:20 01.11.2022
1212 Clouds 15 1007 84 10000 7.72 230 12:27 01.11.2022
1213 Clouds 14 1006 90 10000 7.72 210 11:23 01.11.2022
1214 Clouds 14 1006 87 9000 6.69 220 09:54 01.11.2022
1215 Clouds 14 1005 86 10000 4.63 220 08:42 01.11.2022
1216 Clouds 13 1004 86 10000 6.17 240 07:29 01.11.2022
1217 Clouds 12 1004 85 10000 9.26 240 06:47 01.11.2022
1218 Clouds 12 1003 84 10000 9.77 240 05:57 01.11.2022
1219 Clouds 12 998 88 10000 9.77 200 03:38 01.11.2022
1220 Clouds 15 1001 93 8000 5.66 140 21:55 31.10.2022
1221 Clouds 15 1002 94 10000 4.63 120 20:40 31.10.2022
1222 Clouds 14 1004 93 10000 5.66 100 19:53 31.10.2022
1223 Clouds 15 1006 82 10000 5.66 90 17:51 31.10.2022
1224 Clouds 16 1007 79 10000 5.66 100 16:42 31.10.2022
1225 Clouds 17 1012 77 10000 4.63 150 13:24 31.10.2022
1226 Clouds 15 1014 86 10000 5.36 139 11:52 31.10.2022
1227 Clear 12 1015 94 10000 2.06 140 08:38 31.10.2022
1228 Clouds 12 1015 95 10000 0.89 160 05:33 31.10.2022
1229 Clouds 12 1016 93 10000 2.06 0 02:23 31.10.2022
1230 Clouds 13 1016 91 10000 2.57 200 23:19 30.10.2022
1231 Clouds 13 1016 91 10000 2.57 200 23:19 30.10.2022
1232 Clouds 13 1016 91 10000 3.6 200 21:40 30.10.2022
1233 Clouds 13 1016 89 10000 2.57 190 20:37 30.10.2022
1234 Clouds 14 1015 88 10000 3.6 200 18:39 30.10.2022
1235 Clouds 16 1014 80 10000 5.14 200 16:18 30.10.2022
1236 Clouds 15 1013 86 10000 4.12 190 13:53 30.10.2022
1237 Clouds 15 1014 88 10000 4.12 180 13:20 30.10.2022
1238 Clouds 14 1014 90 10000 3.6 210 11:47 30.10.2022
1239 Rain 15 1013 94 10000 2.06 200 09:38 30.10.2022
1240 Rain 15 1013 93 10000 2.57 220 08:39 30.10.2022
1241 Clouds 15 1013 91 10000 2.57 210 03:58 30.10.2022
1242 Clouds 16 1015 89 10000 2.06 220 00:28 30.10.2022
1243 Clouds 17 1013 87 10000 3.09 190 23:45 29.10.2022
1244 Clouds 17 1012 85 10000 4.02 188 21:28 29.10.2022
1245 Clouds 19 1011 80 10000 3.09 190 18:34 29.10.2022
1246 Clouds 21 1011 75 10000 3.09 160 17:21 29.10.2022
1247 Clouds 22 1011 71 10000 3.13 133 15:38 29.10.2022
1248 Clouds 21 1011 73 10000 4.12 160 14:51 29.10.2022
1249 Clouds 18 1012 88 10000 1.54 50 12:36 29.10.2022
1250 Clouds 17 1012 91 10000 3.09 70 11:54 29.10.2022
1251 Clouds 13 1013 95 10000 3.6 90 07:38 29.10.2022
1252 Clouds 13 1014 95 10000 3.6 80 06:46 29.10.2022
1253 Clouds 13 1015 94 10000 5.14 90 05:53 29.10.2022
1254 Clouds 12 1020 90 10000 1.61 176 23:43 28.10.2022
1255 Clouds 13 1018 82 10000 3.09 230 21:30 28.10.2022
1256 Clouds 15 1019 76 10000 0.45 310 19:43 28.10.2022
1257 Clouds 17 1016 68 10000 5.14 250 18:32 28.10.2022
1258 Clouds 18 1016 64 10000 6.17 260 17:39 28.10.2022
1259 Clouds 18 1014 71 10000 7.2 240 14:46 28.10.2022
1260 Clouds 18 1014 74 10000 6.17 240 13:43 28.10.2022
1261 Clouds 18 1012 81 10000 4.63 230 11:54 28.10.2022
1262 Clouds 18 1012 84 10000 4.12 210 11:32 28.10.2022
1263 Clouds 17 1012 86 10000 4.63 210 10:45 28.10.2022
1264 Clouds 16 1011 92 10000 1.34 200 08:40 28.10.2022
1265 Clouds 15 1010 95 10000 2.06 110 06:57 28.10.2022
1266 Clouds 16 1014 92 10000 1.86 167 01:44 28.10.2022
1267 Clouds 16 1013 89 10000 1.34 135 23:46 27.10.2022
1268 Clouds 16 1014 90 10000 2.06 70 22:32 27.10.2022
1269 Clouds 17 1014 88 10000 2.06 140 20:57 27.10.2022
1270 Clouds 19 1013 82 10000 3.6 180 18:31 27.10.2022
1271 Clouds 20 1013 78 10000 4.63 210 17:22 27.10.2022
1272 Clouds 18 1013 82 10000 4.12 180 12:33 27.10.2022
1273 Clouds 14 1013 94 10000 3.58 102 07:50 27.10.2022
1274 Clouds 14 1016 94 10000 2.57 150 02:55 27.10.2022
1275 Clouds 14 1017 93 10000 1.54 120 23:53 26.10.2022
1276 Clouds 14 1017 91 10000 2.68 161 22:43 26.10.2022
1277 Clouds 15 1015 87 10000 2.57 190 21:38 26.10.2022
1278 Clouds 17 1013 72 10000 5.66 230 18:29 26.10.2022
1279 Clouds 19 1011 67 10000 9.77 230 14:54 26.10.2022
1280 Clouds 18 1010 77 10000 7.72 220 13:34 26.10.2022
1281 Rain 18 1009 84 10000 5.66 190 12:34 26.10.2022
1282 Clouds 16 1008 88 10000 5.66 200 09:20 26.10.2022
1283 Clouds 16 1007 87 10000 4.12 230 08:53 26.10.2022
1284 Clouds 16 1006 89 10000 1.34 179 07:52 26.10.2022
1285 Clouds 15 1007 87 10000 5.66 140 00:40 26.10.2022
1286 Clouds 15 1008 87 10000 4.63 120 23:57 25.10.2022
1287 Clouds 14 1009 89 10000 3.09 110 21:47 25.10.2022
1288 Clouds 14 1009 88 10000 3.09 110 20:46 25.10.2022
1289 Clouds 15 1010 84 10000 3.6 160 18:59 25.10.2022
1290 Clouds 16 1010 79 10000 3.6 160 17:51 25.10.2022
1291 Clouds 16 1012 83 10000 4.12 220 13:57 25.10.2022
1292 Clouds 15 1012 88 10000 3.09 220 11:38 25.10.2022
1293 Clouds 13 1012 92 10000 2.57 230 10:37 25.10.2022
1294 Clouds 12 1011 93 10000 3.09 220 09:33 25.10.2022
1295 Clouds 12 1011 93 10000 3.13 197 08:18 25.10.2022
1296 Clouds 12 1011 93 10000 3.09 230 07:54 25.10.2022
1297 Clouds 11 1010 93 10000 3.09 240 06:55 25.10.2022
1298 Clouds 12 1010 93 10000 4.63 230 03:43 25.10.2022
1299 Clouds 13 1008 91 10000 4.63 240 00:35 25.10.2022
1300 Clouds 13 1007 91 10000 5.14 240 23:28 24.10.2022
1301 Clouds 13 1007 90 10000 4.63 240 22:24 24.10.2022
1302 Clouds 13 1007 89 10000 3.6 240 21:33 24.10.2022
1303 Rain 14 1006 88 10000 4.12 230 20:41 24.10.2022
1304 Clouds 15 1004 80 10000 2.68 220 18:52 24.10.2022
1305 Clouds 17 1004 71 10000 5.66 230 17:45 24.10.2022
1306 Clouds 18 1003 68 10000 6.17 230 16:33 24.10.2022
1307 Clouds 17 1003 75 10000 6.17 240 14:22 24.10.2022
1308 Clouds 16 1003 77 10000 6.17 240 13:34 24.10.2022
1309 Clouds 14 1002 86 10000 5.66 240 11:41 24.10.2022
1310 Clouds 12 999 91 10000 6.17 250 07:57 24.10.2022
1311 Rain 14 994 95 8000 2.57 210 00:50 24.10.2022
1312 Clouds 13 997 93 10000 3.6 160 21:23 23.10.2022
1313 Clouds 13 997 93 10000 2.57 170 19:50 23.10.2022
1314 Clouds 18 996 86 10000 4.12 140 17:55 23.10.2022
1315 Clouds 18 997 85 10000 5.36 144 17:27 23.10.2022
1316 Clouds 18 999 88 10000 4.02 154 15:19 23.10.2022
1317 Clouds 18 999 88 10000 4.02 154 15:19 23.10.2022
1318 Rain 16 1001 95 10000 2.24 134 12:59 23.10.2022
1319 Rain 15 1002 94 10000 4.12 110 10:59 23.10.2022
1320 Clouds 15 1003 91 10000 6.17 100 08:18 23.10.2022
1321 Clouds 15 1010 91 10000 2.06 120 23:40 22.10.2022
1322 Clouds 14 1010 91 10000 2.24 110 22:31 22.10.2022
1323 Clouds 15 1010 90 10000 2.24 96 21:42 22.10.2022
1324 Clouds 15 1010 88 10000 2.68 108 20:49 22.10.2022
1325 Clouds 15 1010 86 10000 2.57 140 19:45 22.10.2022
1326 Clouds 16 1009 85 10000 1.79 152 19:24 22.10.2022
1327 Clouds 17 1010 78 10000 3.09 190 17:37 22.10.2022
1328 Clouds 18 1010 75 10000 4.02 171 15:57 22.10.2022
1329 Clouds 18 1010 72 10000 4.12 220 14:42 22.10.2022
1330 Clouds 17 1010 76 10000 4.63 230 13:45 22.10.2022
1331 Clouds 13 1010 91 10000 3.09 220 10:25 22.10.2022
1332 Clouds 13 1008 93 10000 1.34 209 09:36 22.10.2022
1333 Clouds 13 1006 92 10000 4.12 240 07:58 22.10.2022
1334 Clouds 14 1003 93 10000 4.12 230 03:42 22.10.2022
1335 Rain 16 1001 83 10000 4.63 200 23:51 21.10.2022
1336 Clouds 16 1001 86 10000 4.12 180 21:35 21.10.2022
1337 Clouds 16 1001 86 10000 5.14 200 20:59 21.10.2022
1338 Rain 16 1000 89 10000 4.63 160 19:36 21.10.2022
1339 Clouds 18 1001 76 10000 5.14 190 16:51 21.10.2022
1340 Clouds 17 1001 85 10000 5.14 180 13:59 21.10.2022
1341 Clouds 17 1001 88 10000 5.36 142 12:58 21.10.2022
1342 Clouds 16 1001 89 10000 4.47 147 12:58 21.10.2022
1343 Clouds 16 1001 92 10000 2.24 204 11:33 21.10.2022
1344 Clouds 15 1001 96 10000 3.6 150 10:20 21.10.2022
1345 Clouds 13 1000 97 7000 2.06 120 08:39 21.10.2022
1346 Mist 13 1001 96 5000 3.09 100 07:32 21.10.2022
1347 Clouds 10 1004 95 10000 1.54 90 01:20 21.10.2022
1348 Clouds 12 1004 93 10000 2.06 160 22:26 20.10.2022
1349 Clouds 13 1004 92 10000 1.57 184 20:38 20.10.2022
1350 Clouds 14 1004 89 10000 3.09 250 19:39 20.10.2022
1351 Clouds 16 1004 87 10000 4.63 260 17:54 20.10.2022
1352 Clouds 16 1004 88 10000 4.63 250 17:33 20.10.2022
1353 Rain 16 1006 95 5000 2.06 240 12:37 20.10.2022
1354 Rain 16 1006 95 5000 2.06 240 12:18 20.10.2022
1355 Drizzle 16 1006 95 4100 1.54 350 11:23 20.10.2022
1356 Rain 15 1006 96 2100 1.03 0 10:50 20.10.2022
1357 Drizzle 15 1007 94 5000 4.12 90 08:22 20.10.2022
1358 Clouds 15 1008 92 6000 4.63 80 05:43 20.10.2022
1359 Clouds 15 1011 90 9000 5.14 100 01:50 20.10.2022
1360 Clouds 15 1013 86 10000 7.2 100 22:46 19.10.2022
1361 Clouds 15 1013 86 10000 9.26 90 21:58 19.10.2022
1362 Clouds 15 1013 86 10000 9.77 90 21:18 19.10.2022
1363 Clouds 15 1014 84 10000 11.83 90 18:51 19.10.2022
1364 Clouds 16 1016 80 10000 9.77 100 17:38 19.10.2022
1365 Clouds 17 1017 73 10000 9.26 90 15:58 19.10.2022
1366 Clouds 16 1020 77 10000 10.29 90 13:53 19.10.2022
1367 Clouds 13 1022 89 10000 8.23 80 10:18 19.10.2022
1368 Clouds 12 1022 91 10000 4.63 70 08:35 19.10.2022
1369 Clouds 12 1023 92 10000 4.12 80 06:50 19.10.2022
1370 Clouds 12 1026 90 10000 4.63 70 01:27 19.10.2022
1371 Clouds 12 1027 88 10000 4.12 80 23:21 18.10.2022
1372 Clouds 13 1027 80 10000 3.6 70 21:48 18.10.2022
1373 Clouds 13 1027 77 10000 3.6 80 20:59 18.10.2022
1374 Clouds 14 1027 75 10000 3.09 90 20:19 18.10.2022
1375 Clouds 16 1027 69 10000 5.14 100 18:29 18.10.2022
1376 Clear 18 1027 60 10000 5.14 120 16:55 18.10.2022
1377 Clear 18 1027 62 10000 3.6 80 14:53 18.10.2022
1378 Clear 15 1028 77 10000 2.06 90 12:35 18.10.2022
1379 Haze 12 1028 88 5000 1.54 90 11:27 18.10.2022
1380 Clear 10 1027 94 10000 0.51 0 10:23 18.10.2022
1381 Clouds 9 1026 94 10000 0.51 0 07:59 18.10.2022
1382 Clear 9 1025 95 10000 0 0 05:42 18.10.2022
1383 Clouds 12 1024 88 10000 2.06 210 22:56 17.10.2022
1384 Clouds 14 1022 81 10000 3.09 210 21:21 17.10.2022
1385 Clouds 14 1023 80 10000 2.57 0 20:43 17.10.2022
1386 Clouds 15 1021 75 10000 2.06 200 20:20 17.10.2022
1387 Clouds 16 1020 71 10000 1.34 109 19:37 17.10.2022
1388 Clouds 18 1019 61 10000 4.02 206 17:38 17.10.2022
1389 Clouds 19 1018 63 10000 5.14 250 15:54 17.10.2022
1390 Clouds 18 1018 69 10000 5.66 250 14:35 17.10.2022
1391 Clouds 17 1016 83 10000 5.14 240 12:42 17.10.2022
1392 Rain 16 1010 91 10000 2.24 209 07:34 17.10.2022
1393 Clouds 16 1009 94 10000 3.6 140 00:28 17.10.2022
1394 Rain 15 1009 91 10000 5.14 130 22:34 16.10.2022
1395 Clouds 14 1010 90 10000 4.63 120 21:21 16.10.2022
1396 Rain 15 1010 85 10000 4.47 137 19:50 16.10.2022
1397 Rain 15 1010 82 10000 5.14 120 19:24 16.10.2022
1398 Clouds 16 1011 74 10000 3.58 118 17:44 16.10.2022
1399 Clouds 16 1011 69 10000 2.57 170 16:24 16.10.2022
1400 Clouds 16 1011 67 10000 4.12 180 15:50 16.10.2022
1401 Clear 15 1012 69 10000 3.09 250 12:25 16.10.2022
1402 Clear 14 1011 72 10000 3.6 250 11:22 16.10.2022
1403 Clear 12 1010 80 10000 3.09 240 10:26 16.10.2022
1404 Clear 12 1005 84 10000 6.17 230 04:51 16.10.2022
1405 Clouds 13 1004 82 10000 4.12 220 23:42 15.10.2022
1406 Clouds 13 1004 76 10000 5.14 230 21:53 15.10.2022
1407 Clouds 13 1004 74 10000 5.66 220 21:18 15.10.2022
1408 Clouds 13 1003 82 10000 4.02 177 19:30 15.10.2022
1409 Clouds 16 1002 64 10000 5.66 240 17:23 15.10.2022
1410 Clouds 16 1002 76 10000 4.12 220 15:45 15.10.2022
1411 Clouds 16 1003 72 10000 5.66 240 13:27 15.10.2022
1412 Clear 15 1002 78 10000 6.26 199 11:43 15.10.2022
1413 Clouds 11 1002 95 10000 2.57 0 09:37 15.10.2022
1414 Clouds 11 1002 95 10000 1.54 220 07:38 15.10.2022
1415 Clouds 11 1006 95 10000 2.06 230 00:40 15.10.2022
1416 Clouds 12 1007 94 10000 3.09 230 22:58 14.10.2022
1417 Clouds 13 1007 93 10000 3.09 240 22:22 14.10.2022
1418 Clouds 13 1007 92 10000 3.09 250 20:53 14.10.2022
1419 Clouds 15 1006 89 10000 4.12 250 19:21 14.10.2022
1420 Clouds 16 1007 82 10000 4.12 230 16:19 14.10.2022
1421 Clouds 15 1009 82 10000 4.12 240 13:20 14.10.2022
1422 Clouds 14 1010 88 10000 3.13 206 11:36 14.10.2022
1423 Clouds 11 1011 94 10000 2.57 0 08:59 14.10.2022
1424 Clouds 10 1012 95 10000 1.54 220 06:51 14.10.2022
1425 Clouds 10 1011 95 10000 0.45 206 06:18 14.10.2022
1426 Clouds 10 1011 94 10000 2.06 220 05:42 14.10.2022
1427 Clouds 11 1013 95 10000 1.54 230 03:20 14.10.2022
1428 Clouds 11 1013 91 10000 1.54 90 23:42 13.10.2022
1429 Clouds 12 1015 90 10000 2.06 100 21:57 13.10.2022
1430 Clouds 13 1015 88 10000 2.57 100 21:20 13.10.2022
1431 Clouds 14 1015 84 10000 2.57 110 19:43 13.10.2022
1432 Clouds 15 1014 77 10000 3.09 110 18:52 13.10.2022
1433 Clouds 16 1013 74 10000 2.68 147 18:21 13.10.2022
1434 Clouds 17 1014 73 10000 1.54 180 15:58 13.10.2022
1435 Clouds 17 1014 74 10000 1.54 180 15:40 13.10.2022
1436 Clouds 16 1015 79 10000 2.57 70 14:18 13.10.2022
1437 Clouds 14 1015 88 10000 2.06 80 12:44 13.10.2022
1438 Clouds 14 1015 95 10000 1.03 80 11:27 13.10.2022
1439 Clouds 13 1015 96 7000 1.03 0 08:50 13.10.2022
1440 Clouds 13 1015 96 7000 2.06 120 07:39 13.10.2022
1441 Rain 13 1016 95 6000 0.51 0 06:28 13.10.2022
1442 Rain 14 1017 91 10000 3.09 240 01:46 13.10.2022
1443 Rain 14 1017 89 10000 4.12 240 00:45 13.10.2022
1444 Clouds 14 1017 84 10000 4.63 240 22:46 12.10.2022
1445 Clouds 14 1018 82 10000 4.63 240 21:51 12.10.2022
1446 Clouds 14 1018 82 10000 4.63 240 21:51 12.10.2022
1447 Clouds 14 1017 82 10000 2.68 193 21:20 12.10.2022
1448 Clouds 15 1018 83 10000 3.09 220 20:46 12.10.2022
1449 Clouds 15 1017 81 10000 2.68 244 19:24 12.10.2022
1450 Clouds 16 1018 76 10000 1.54 230 18:19 12.10.2022
1451 Clouds 16 1018 76 10000 1.54 230 18:19 12.10.2022
1452 Rain 16 1018 74 10000 3.6 240 17:43 12.10.2022
1453 Clouds 16 1019 68 10000 4.12 190 14:52 12.10.2022
1454 Clouds 16 1020 68 10000 5.14 170 13:54 12.10.2022
1455 Clouds 14 1021 71 10000 4.12 160 12:31 12.10.2022
1456 Clouds 8 1021 89 10000 1.54 80 09:37 12.10.2022
1457 Clouds 7 1022 88 10000 2.57 100 07:42 12.10.2022
1458 Clouds 7 1022 88 10000 1.54 80 06:45 12.10.2022
1459 Clouds 7 1022 86 10000 1.03 0 06:22 12.10.2022
1460 Clouds 8 1024 82 10000 1.03 0 00:58 12.10.2022
1461 Clouds 9 1024 75 10000 1.03 0 21:59 11.10.2022
1462 Clouds 10 1024 74 10000 0.45 64 20:38 11.10.2022
1463 Clouds 15 1024 57 10000 2.57 120 18:28 11.10.2022
1464 Clouds 16 1026 52 10000 2.57 210 16:37 11.10.2022
1465 Clear 15 1026 55 10000 2.06 0 14:35 11.10.2022
1466 Clouds 13 1027 67 10000 1.03 0 12:44 11.10.2022
1467 Clouds 9 1026 82 10000 2.57 230 10:29 11.10.2022
1468 Clouds 6 1026 84 10000 2.06 230 09:30 11.10.2022
1469 Clouds 6 1026 85 10000 2.06 230 09:30 11.10.2022
1470 Clouds 6 1026 83 10000 1.54 220 05:39 11.10.2022
1471 Clouds 8 1026 79 10000 1.03 0 02:22 11.10.2022
1472 Clear 9 1025 75 10000 2.06 290 00:31 11.10.2022
1473 Clear 10 1023 71 10000 2.57 300 21:35 10.10.2022
1474 Clear 13 1022 64 10000 0.51 0 19:49 10.10.2022
1475 Clouds 15 1021 55 10000 4.63 300 18:30 10.10.2022
1476 Clouds 16 1020 55 10000 5.14 350 16:58 10.10.2022
1477 Clear 16 1019 56 10000 5.36 320 15:24 10.10.2022
1478 Clouds 14 1018 69 10000 3.58 331 12:54 10.10.2022
1479 Clouds 12 1016 86 10000 3.13 324 11:56 10.10.2022
1480 Drizzle 12 1013 90 2800 1.54 290 08:45 10.10.2022
1481 Clouds 11 1010 87 10000 0.51 0 05:43 10.10.2022
1482 Clouds 11 1010 88 10000 0 0 04:39 10.10.2022
1483 Clouds 11 1011 81 10000 1.54 100 00:33 10.10.2022
1484 Clouds 11 1012 78 10000 1.03 0 22:51 09.10.2022
1485 Clouds 11 1012 76 10000 1.54 150 22:18 09.10.2022
1486 Clouds 12 1013 72 10000 2.06 160 21:22 09.10.2022
1487 Clouds 13 1013 65 10000 2.57 140 20:23 09.10.2022
1488 Clouds 13 1012 60 10000 4.12 140 19:45 09.10.2022
1489 Clouds 15 1013 55 10000 5.36 164 18:43 09.10.2022
1490 Clouds 17 1014 51 10000 4.02 101 16:56 09.10.2022
1491 Clouds 18 1014 51 10000 4.63 180 16:37 09.10.2022
1492 Clouds 18 1015 52 10000 4.63 170 15:38 09.10.2022
1493 Clouds 17 1016 55 10000 4.63 150 14:31 09.10.2022
1494 Clouds 17 1017 58 10000 4.63 160 13:48 09.10.2022
1495 Clouds 16 1018 67 10000 4.63 170 12:35 09.10.2022
1496 Clouds 12 1019 80 10000 2.57 90 10:52 09.10.2022
1497 Clouds 7 1020 91 10000 2.57 80 08:31 09.10.2022
1498 Clouds 8 1022 85 10000 1.03 0 03:48 09.10.2022
1499 Clouds 8 1023 88 10000 0.51 0 02:53 09.10.2022
1500 Clouds 9 1024 82 10000 2.06 210 00:40 09.10.2022
1501 Clouds 10 1024 78 10000 2.06 230 22:59 08.10.2022
1502 Clear 10 1025 80 10000 1.28 199 22:22 08.10.2022
1503 Clouds 12 1023 72 10000 1.24 257 20:31 08.10.2022
1504 Clouds 15 1023 57 10000 2.06 300 19:22 08.10.2022
1505 Clouds 16 1023 50 10000 3.09 270 17:39 08.10.2022
1506 Clouds 16 1023 53 10000 5.14 290 15:26 08.10.2022
1507 Clear 15 1024 65 10000 3.6 280 13:32 08.10.2022
1508 Clear 11 1023 85 10000 4.12 240 11:24 08.10.2022
1509 Clear 10 1023 89 10000 4.12 240 10:32 08.10.2022
1510 Clear 8 1022 93 10000 3.09 230 09:24 08.10.2022
1511 Clear 9 1019 93 10000 4.12 250 05:35 08.10.2022
1512 Clouds 12 1017 93 10000 4.63 240 01:19 08.10.2022
1513 Clouds 12 1016 92 10000 6.17 250 23:48 07.10.2022
1514 Clouds 12 1016 93 10000 4.63 240 23:20 07.10.2022
1515 Clouds 13 1016 92 10000 5.14 240 21:53 07.10.2022
1516 Rain 15 1016 85 10000 2.68 193 20:18 07.10.2022
1517 Clouds 18 1015 66 10000 6.17 230 17:55 07.10.2022
1518 Clouds 18 1016 61 10000 6.69 230 16:51 07.10.2022
1519 Clouds 19 1016 60 10000 8.23 240 15:44 07.10.2022
1520 Clouds 18 1018 64 10000 6.17 230 14:22 07.10.2022
1521 Clouds 16 1020 81 10000 6.17 230 11:41 07.10.2022
1522 Clouds 14 1021 88 10000 4.12 0 09:25 07.10.2022
1523 Clouds 13 1021 90 10000 3.6 230 08:29 07.10.2022
1524 Clouds 12 1023 91 10000 4.63 230 05:27 07.10.2022
1525 Clear 13 1026 89 10000 3.09 220 00:23 07.10.2022
1526 Clear 13 1026 85 10000 3.6 220 22:50 06.10.2022
1527 Clear 14 1026 81 10000 4.63 230 21:41 06.10.2022
1528 Clear 15 1026 78 10000 4.63 220 20:45 06.10.2022
1529 Clouds 16 1026 70 10000 5.66 220 19:33 06.10.2022
1530 Clouds 17 1026 66 10000 5.14 210 18:32 06.10.2022
1531 Clouds 18 1027 59 10000 6.69 240 15:47 06.10.2022
1532 Clear 17 1028 59 10000 7.2 230 13:51 06.10.2022
1533 Clear 12 1028 77 10000 4.12 240 10:45 06.10.2022
1534 Clear 9 1025 83 10000 4.63 250 05:43 06.10.2022
1535 Clear 10 1023 81 10000 4.63 240 03:24 06.10.2022
1536 Clear 12 1018 77 10000 7.2 250 22:34 05.10.2022
1537 Clouds 14 1014 75 10000 7.2 240 19:54 05.10.2022
1538 Clouds 15 1011 80 10000 7.72 250 17:58 05.10.2022
1539 Clouds 16 1010 85 10000 6.17 250 17:33 05.10.2022
1540 Clouds 17 1009 85 10000 7.6 189 15:54 05.10.2022
1541 Clouds 17 1008 85 10000 8.75 210 14:46 05.10.2022
1542 Clouds 18 1008 73 10000 7.72 220 13:52 05.10.2022
1543 Clouds 19 1008 72 10000 7.72 220 12:19 05.10.2022
1544 Clouds 17 1009 80 10000 7.72 210 08:49 05.10.2022
1545 Clouds 17 1010 79 10000 6.69 210 07:29 05.10.2022
1546 Clouds 17 1010 78 10000 7.72 220 05:35 05.10.2022
1547 Clouds 17 1012 80 10000 5.14 220 02:47 05.10.2022
1548 Clouds 16 1014 84 10000 5.14 220 00:41 05.10.2022
1549 Clouds 16 1014 84 10000 5.14 210 00:23 05.10.2022
1550 Clouds 16 1015 84 10000 4.63 210 21:59 04.10.2022
1551 Clouds 16 1015 83 10000 4.63 220 20:31 04.10.2022
1552 Clouds 17 1015 78 10000 5.66 230 18:58 04.10.2022
1553 Clouds 17 1015 78 10000 5.66 230 18:35 04.10.2022
1554 Clouds 17 1015 79 10000 5.66 240 17:43 04.10.2022
1555 Clouds 17 1015 80 10000 5.66 220 16:28 04.10.2022
1556 Clouds 17 1017 76 10000 6.17 240 12:41 04.10.2022
1557 Clouds 15 1016 85 10000 3.6 230 09:32 04.10.2022
1558 Clouds 15 1017 91 10000 3.6 170 07:23 04.10.2022
1559 Clouds 14 1020 91 10000 2.06 150 01:44 04.10.2022
1560 Clouds 14 1022 87 10000 2.57 210 23:40 03.10.2022
1561 Clouds 14 1023 82 10000 2.06 0 21:52 03.10.2022
1562 Clouds 14 1022 77 10000 3.09 170 20:55 03.10.2022
1563 Clouds 16 1023 71 10000 3.09 160 19:38 03.10.2022
1564 Clouds 18 1023 66 10000 4.63 200 17:58 03.10.2022
1565 Clouds 18 1024 65 10000 3.6 0 16:56 03.10.2022
1566 Clouds 18 1025 66 10000 2.24 159 15:28 03.10.2022
1567 Clouds 18 1026 64 10000 2.57 170 13:45 03.10.2022
1568 Clouds 15 1026 70 10000 2.06 80 12:24 03.10.2022
1569 Clouds 11 1028 84 10000 2.06 100 10:39 03.10.2022
1570 Clouds 10 1027 88 10000 1.54 20 09:37 03.10.2022
1571 Clouds 9 1027 82 10000 0 0 05:44 03.10.2022
1572 Clouds 10 1026 81 10000 1.03 260 02:51 03.10.2022
1573 Clear 12 1025 73 10000 1.03 0 22:29 02.10.2022
1574 Clear 13 1024 69 10000 1.24 309 20:50 02.10.2022
1575 Clear 17 1023 52 10000 3.09 300 18:42 02.10.2022
1576 Clear 18 1022 52 10000 4.12 300 17:52 02.10.2022
1577 Clear 18 1022 52 10000 4.12 300 17:52 02.10.2022
1578 Clouds 18 1022 52 10000 4.63 300 16:33 02.10.2022
1579 Clouds 18 1021 54 10000 5.14 300 15:56 02.10.2022
1580 Clouds 16 1020 66 10000 3.6 340 13:52 02.10.2022
1581 Clouds 16 1020 71 10000 3.6 350 13:21 02.10.2022
1582 Clouds 15 1020 81 10000 3.6 300 12:29 02.10.2022
1583 Clouds 14 1019 86 10000 3.09 300 11:39 02.10.2022
1584 Clouds 14 1018 89 10000 3.09 290 11:19 02.10.2022
1585 Rain 13 1017 92 10000 3.09 240 09:28 02.10.2022
1586 Rain 13 1016 91 10000 4.12 250 07:41 02.10.2022
1587 Clouds 14 1014 89 10000 5.14 250 02:55 02.10.2022
1588 Clouds 15 1013 80 10000 5.66 240 00:50 02.10.2022
1589 Rain 15 1013 81 10000 1.34 146 00:22 02.10.2022
1590 Rain 15 1012 76 10000 5.14 240 22:53 01.10.2022
1591 Clouds 16 1011 68 10000 6.17 250 20:53 01.10.2022
1592 Clouds 18 1010 60 10000 8.75 250 18:50 01.10.2022
1593 Clouds 19 1008 60 10000 7.72 270 16:36 01.10.2022
1594 Clouds 18 1007 64 10000 7.72 250 14:42 01.10.2022
1595 Clouds 17 1007 66 10000 6.17 250 13:32 01.10.2022
1596 Clouds 17 1007 70 10000 6.17 260 12:33 01.10.2022
1597 Clouds 15 1005 83 10000 6.69 250 11:21 01.10.2022
1598 Clouds 14 1005 89 10000 5.66 240 10:32 01.10.2022
1599 Clouds 13 1004 92 10000 5.66 240 09:55 01.10.2022
1600 Clouds 12 1004 93 10000 5.14 240 08:59 01.10.2022
1601 Clouds 12 1002 92 10000 5.14 250 07:29 01.10.2022
1602 Clouds 14 999 93 10000 6.17 250 03:36 01.10.2022
1603 Clouds 15 998 94 10000 5.66 250 01:22 01.10.2022
1604 Clouds 14 997 93 10000 7.2 200 22:56 30.09.2022
1605 Clouds 14 998 94 9000 7.72 200 21:41 30.09.2022
1606 Rain 13 1000 93 10000 5.66 200 20:45 30.09.2022
1607 Rain 13 1001 93 7000 6.17 210 20:19 30.09.2022
1608 Rain 14 1003 77 10000 7.2 220 17:40 30.09.2022
1609 Rain 16 1004 68 10000 7.2 210 16:29 30.09.2022
1610 Clouds 16 1006 70 10000 6.17 0 14:21 30.09.2022
1611 Clouds 14 1007 78 10000 4.63 230 12:24 30.09.2022
1612 Clouds 13 1008 81 10000 5.66 250 11:48 30.09.2022
1613 Clouds 9 1009 93 10000 2.57 200 08:38 30.09.2022
1614 Clouds 9 1008 93 10000 1.54 230 06:34 30.09.2022
1615 Clear 9 1008 86 10000 2.06 230 02:50 30.09.2022
1616 Clouds 11 1008 78 10000 2.57 220 00:35 30.09.2022
1617 Clear 11 1007 71 10000 1.54 290 21:39 29.09.2022
1618 Clear 11 1007 71 10000 1.54 290 21:19 29.09.2022
1619 Clouds 16 1006 55 10000 2.24 343 18:54 29.09.2022
1620 Clouds 16 1005 53 10000 1.54 0 17:48 29.09.2022
1621 Clouds 16 1004 54 10000 2.57 70 16:29 29.09.2022
1622 Clouds 15 1004 57 10000 3.6 120 15:36 29.09.2022
1623 Clouds 15 1004 60 10000 3.09 60 14:59 29.09.2022
1624 Clouds 12 1002 78 10000 1.79 322 11:54 29.09.2022
1625 Clouds 7 999 84 10000 2.57 230 07:39 29.09.2022
1626 Clouds 8 998 77 10000 3.09 220 03:24 29.09.2022
1627 Clouds 8 1000 66 10000 2.06 250 01:46 29.09.2022
1628 Clouds 10 999 73 10000 1.54 250 23:20 28.09.2022
1629 Clouds 10 999 74 10000 0.92 332 21:31 28.09.2022
1630 Clouds 11 999 72 10000 2.57 280 20:49 28.09.2022
1631 Clouds 13 999 64 10000 3.09 270 19:48 28.09.2022
1632 Clouds 14 999 61 10000 4.63 300 16:27 28.09.2022
1633 Clouds 13 999 68 10000 3.6 270 13:28 28.09.2022
1634 Clouds 11 1000 80 10000 3.6 300 11:45 28.09.2022
1635 Clouds 8 999 90 10000 3.09 220 09:36 28.09.2022
1636 Clear 6 999 92 10000 0.45 203 07:42 28.09.2022
1637 Clear 7 998 89 10000 1.79 326 05:37 28.09.2022
1638 Clouds 8 999 85 10000 4.12 290 01:44 28.09.2022
1639 Clouds 9 998 83 10000 0.45 270 00:28 28.09.2022
1640 Clouds 10 999 84 10000 1.34 323 22:40 27.09.2022
1641 Clouds 10 998 84 10000 6.17 270 21:20 27.09.2022
1642 Clouds 11 998 82 10000 4.63 280 20:31 27.09.2022
1643 Clouds 11 998 79 10000 5.14 270 19:40 27.09.2022
1644 Clouds 12 999 76 10000 5.66 270 17:47 27.09.2022
1645 Clouds 13 999 68 10000 3.09 250 16:50 27.09.2022
1646 Clouds 13 1000 74 10000 7.2 280 15:18 27.09.2022
1647 Rain 13 1000 80 10000 5.14 290 13:53 27.09.2022
1648 Clouds 13 1001 72 10000 6.17 260 12:37 27.09.2022
1649 Clouds 11 1001 77 10000 6.69 250 10:35 27.09.2022
1650 Clouds 9 1002 82 10000 6.17 280 07:55 27.09.2022
1651 Clear 9 1002 82 10000 1.79 312 04:52 27.09.2022
1652 Clouds 11 1002 81 10000 2.24 327 01:40 27.09.2022
1653 Clouds 11 1002 81 10000 2.24 327 01:40 27.09.2022
1654 Clouds 11 1002 78 10000 5.14 280 00:23 27.09.2022
1655 Clouds 11 1002 75 10000 2.68 290 23:24 26.09.2022
1656 Clouds 12 1002 71 10000 1.79 265 21:37 26.09.2022
1657 Clouds 13 1001 66 10000 5.14 300 20:18 26.09.2022
1658 Clouds 13 1001 66 10000 5.36 319 19:19 26.09.2022
1659 Clouds 14 1001 74 10000 5.14 300 17:26 26.09.2022
1660 Rain 14 1001 72 10000 5.14 300 15:44 26.09.2022
1661 Clouds 14 1000 71 10000 7.15 323 12:42 26.09.2022
1662 Clouds 14 1000 81 10000 4.63 290 11:28 26.09.2022
1663 Clouds 13 999 87 10000 6.17 290 10:36 26.09.2022
1664 Clouds 13 999 90 10000 4.63 280 10:18 26.09.2022
1665 Clouds 12 1000 92 10000 5.14 290 09:51 26.09.2022
1666 Rain 13 999 94 10000 5.66 240 09:21 26.09.2022
1667 Rain 11 1003 83 10000 6.17 230 05:30 26.09.2022
1668 Rain 12 1008 75 10000 2.68 224 02:35 26.09.2022
1669 Clouds 13 1012 67 10000 4.12 240 23:25 25.09.2022
1670 Clouds 13 1013 60 10000 3.09 230 21:48 25.09.2022
1671 Clouds 13 1013 58 10000 4.12 250 21:25 25.09.2022
1672 Clouds 13 1014 55 10000 3.6 260 20:36 25.09.2022
1673 Clouds 15 1015 51 10000 4.63 290 19:25 25.09.2022
1674 Clouds 16 1016 50 10000 5.14 290 18:29 25.09.2022
1675 Clouds 16 1016 50 10000 5.14 290 18:29 25.09.2022
1676 Clouds 16 1016 49 10000 3.09 310 17:29 25.09.2022
1677 Clouds 16 1017 47 10000 3.09 290 16:21 25.09.2022
1678 Clouds 16 1017 49 10000 3.58 319 14:55 25.09.2022
1679 Clouds 16 1018 49 10000 3.6 330 14:19 25.09.2022
1680 Clouds 13 1020 72 10000 3.09 320 11:35 25.09.2022
1681 Clouds 10 1019 87 10000 3.13 309 09:48 25.09.2022
1682 Clear 8 1019 91 10000 3.13 330 07:45 25.09.2022
1683 Clear 9 1019 89 10000 3.09 330 05:27 25.09.2022
1684 Clouds 13 1019 79 10000 3.6 0 23:37 24.09.2022
1685 Clouds 14 1019 72 10000 3.6 10 21:50 24.09.2022
1686 Clouds 15 1017 69 10000 3.6 50 20:34 24.09.2022
1687 Clouds 16 1017 62 10000 4.63 60 19:20 24.09.2022
1688 Clouds 17 1016 58 10000 5.14 340 16:58 24.09.2022
1689 Clouds 18 1016 55 10000 4.47 355 15:54 24.09.2022
1690 Clouds 18 1016 56 10000 4.47 322 15:18 24.09.2022
1691 Clouds 16 1016 67 10000 4.12 340 13:22 24.09.2022
1692 Clouds 16 1016 71 10000 3.6 350 12:40 24.09.2022
1693 Clouds 11 1015 90 10000 2.68 2 10:18 24.09.2022
1694 Clouds 10 1015 92 10000 2.57 360 09:22 24.09.2022
1695 Clouds 10 1015 92 10000 2.57 330 08:42 24.09.2022
1696 Clouds 11 1014 93 10000 2.57 340 04:58 24.09.2022
1697 Clouds 11 1014 93 10000 4.47 335 04:27 24.09.2022
1698 Clouds 14 1014 79 10000 2.06 0 23:47 23.09.2022
1699 Clouds 15 1014 76 10000 1.54 0 21:44 23.09.2022
1700 Clouds 16 1014 76 10000 3.09 360 21:24 23.09.2022
1701 Clouds 16 1013 76 10000 2.57 10 20:54 23.09.2022
1702 Clouds 17 1013 73 10000 2.57 0 19:20 23.09.2022
1703 Clouds 18 1013 69 10000 3.13 0 17:50 23.09.2022
1704 Clouds 16 1014 82 10000 3.09 340 13:41 23.09.2022
1705 Clouds 15 1014 93 10000 2.06 230 10:24 23.09.2022
1706 Rain 15 1014 93 10000 2.57 240 08:45 23.09.2022
1707 Rain 15 1015 88 10000 2.57 230 03:37 23.09.2022
1708 Clouds 16 1016 80 10000 2.57 210 23:30 22.09.2022
1709 Clouds 16 1017 77 10000 3.09 200 22:28 22.09.2022
1710 Clouds 16 1016 72 10000 3.13 190 21:36 22.09.2022
1711 Clouds 17 1017 68 10000 4.12 210 20:25 22.09.2022
1712 Clouds 19 1017 64 10000 4.12 210 18:59 22.09.2022
1713 Clouds 20 1018 60 10000 4.12 190 15:58 22.09.2022
1714 Clouds 15 1021 82 10000 1.54 70 10:55 22.09.2022
1715 Clouds 13 1022 89 10000 2.06 90 10:19 22.09.2022
1716 Clouds 10 1021 91 10000 1.44 174 08:22 22.09.2022
1717 Clouds 10 1021 89 10000 1.46 178 06:18 22.09.2022
1718 Clouds 15 1023 79 10000 2.06 220 01:27 22.09.2022
1719 Clouds 16 1024 75 10000 3.09 160 22:29 21.09.2022
1720 Clouds 17 1024 69 10000 2.57 140 21:26 21.09.2022
1721 Clouds 18 1023 57 10000 3.6 100 19:30 21.09.2022
1722 Clouds 20 1024 51 10000 3.6 90 17:45 21.09.2022
1723 Clouds 20 1024 49 10000 1.54 50 16:20 21.09.2022
1724 Clear 18 1026 61 10000 2.06 110 13:57 21.09.2022
1725 Clouds 16 1026 74 10000 1.54 100 11:44 21.09.2022
1726 Clouds 16 1026 75 10000 0.51 0 11:22 21.09.2022
1727 Clouds 14 1026 82 10000 1.54 60 09:44 21.09.2022
1728 Clouds 14 1025 82 10000 1.03 0 08:50 21.09.2022
1729 Clear 14 1026 83 10000 1.54 100 05:53 21.09.2022
1730 Clouds 14 1027 81 10000 1.54 60 02:42 21.09.2022
1731 Clouds 14 1025 80 10000 0.83 154 02:19 21.09.2022
1732 Clouds 14 1026 76 10000 1.03 0 00:20 21.09.2022
1733 Clouds 15 1026 71 10000 1.03 340 22:30 20.09.2022
1734 Clouds 17 1025 63 10000 1.03 0 20:37 20.09.2022
1735 Clouds 18 1025 59 10000 2.57 350 19:24 20.09.2022
1736 Clouds 19 1025 54 10000 2.57 330 16:18 20.09.2022
1737 Clouds 18 1025 54 10000 1.79 4 14:35 20.09.2022
1738 Clouds 17 1026 56 10000 1.54 0 12:45 20.09.2022
1739 Clouds 10 1025 87 10000 1.54 330 08:51 20.09.2022
1740 Clouds 10 1025 87 10000 1.03 0 08:25 20.09.2022
1741 Clouds 12 1025 85 10000 2.24 308 04:46 20.09.2022
1742 Clouds 12 1025 83 10000 1.03 0 03:38 20.09.2022
1743 Clouds 15 1024 78 10000 2.06 10 22:51 19.09.2022
1744 Clouds 15 1024 72 10000 2.57 10 21:39 19.09.2022
1745 Clouds 16 1024 68 10000 1.54 0 20:47 19.09.2022
1746 Clouds 17 1023 62 10000 3.09 310 19:42 19.09.2022
1747 Clouds 18 1023 56 10000 1.79 193 17:44 19.09.2022
1748 Clouds 17 1024 57 10000 2.57 330 14:18 19.09.2022
1749 Clouds 16 1024 60 10000 2.57 0 12:56 19.09.2022
1750 Clouds 13 1024 74 10000 2.24 325 10:47 19.09.2022
1751 Clouds 12 1023 83 10000 1.54 300 08:51 19.09.2022
1752 Clouds 11 1023 85 10000 1.54 330 05:53 19.09.2022
1753 Clouds 11 1022 81 10000 1.03 340 01:54 19.09.2022
1754 Clouds 13 1022 74 10000 1.03 0 23:22 18.09.2022
1755 Clouds 15 1021 70 10000 1.54 310 21:43 18.09.2022
1756 Clouds 16 1020 65 10000 4.47 316 20:24 18.09.2022
1757 Clouds 17 1019 58 10000 6.69 290 17:54 18.09.2022
1758 Clouds 17 1019 58 10000 6.69 290 17:35 18.09.2022
1759 Clouds 17 1020 55 10000 6.69 300 15:44 18.09.2022
1760 Clouds 17 1020 55 10000 6.17 290 13:50 18.09.2022
1761 Clouds 16 1020 62 10000 5.14 290 12:35 18.09.2022
1762 Clouds 14 1020 67 10000 5.66 290 11:24 18.09.2022
1763 Clouds 10 1020 76 10000 1.34 237 04:26 18.09.2022
1764 Clouds 11 1021 69 10000 3.6 300 01:25 18.09.2022
1765 Clouds 11 1021 63 10000 3.09 300 00:23 18.09.2022
1766 Clouds 12 1021 60 10000 0.45 277 21:44 17.09.2022
1767 Clouds 16 1021 44 10000 3.09 300 19:44 17.09.2022
1768 Clouds 17 1020 42 10000 5.66 300 18:57 17.09.2022
1769 Clouds 17 1021 44 10000 5.66 300 16:22 17.09.2022
1770 Clouds 15 1022 49 10000 4.63 320 13:56 17.09.2022
1771 Clear 13 1022 55 10000 4.63 300 11:55 17.09.2022
1772 Clear 9 1022 69 10000 3.6 300 09:37 17.09.2022
1773 Clouds 7 1021 76 10000 1.34 329 06:25 17.09.2022
1774 Clouds 9 1021 66 10000 3.6 290 02:34 17.09.2022
1775 Clear 11 1020 60 10000 2.24 318 22:56 16.09.2022
1776 Clear 12 1019 55 10000 3.09 330 21:29 16.09.2022
1777 Clouds 14 1018 52 10000 2.68 337 20:24 16.09.2022
1778 Clouds 16 1018 43 10000 5.36 337 17:52 16.09.2022
1779 Clouds 16 1017 48 10000 6.17 300 15:43 16.09.2022
1780 Clouds 16 1017 49 10000 5.81 347 14:28 16.09.2022
1781 Clouds 14 1017 67 10000 4.63 330 11:46 16.09.2022
1782 Clouds 11 1016 83 10000 2.06 300 09:21 16.09.2022
1783 Clouds 11 1015 83 10000 4.12 280 07:20 16.09.2022
1784 Clouds 11 1015 82 10000 2.68 317 06:47 16.09.2022
1785 Clouds 13 1014 73 10000 3.13 311 02:59 16.09.2022
1786 Clouds 14 1014 65 10000 2.06 360 23:48 15.09.2022
1787 Clouds 16 1013 65 10000 1.79 13 21:24 15.09.2022
1788 Clouds 16 1013 63 10000 2.06 340 20:23 15.09.2022
1789 Clouds 18 1013 61 10000 3.6 340 18:30 15.09.2022
1790 Clouds 18 1012 62 10000 3.13 341 17:33 15.09.2022
1791 Clouds 18 1012 62 10000 3.58 310 16:54 15.09.2022
1792 Clouds 18 1012 68 10000 3.6 280 14:42 15.09.2022
1793 Clouds 17 1012 78 10000 3.6 290 12:48 15.09.2022
1794 Clouds 14 1011 86 10000 3.09 290 10:21 15.09.2022
1795 Clouds 13 1011 89 10000 2.06 300 08:57 15.09.2022
1796 Clouds 13 1010 88 10000 1.54 340 04:24 15.09.2022
1797 Clouds 14 1009 85 10000 1.03 0 01:57 15.09.2022
1798 Clouds 17 1008 76 10000 3.6 320 22:26 14.09.2022
1799 Clouds 19 1007 65 10000 3.09 300 20:19 14.09.2022
1800 Clouds 21 1006 62 10000 2.57 350 19:32 14.09.2022
1801 Clouds 21 1006 64 10000 3.09 350 17:26 14.09.2022
1802 Clouds 20 1006 69 10000 3.09 350 15:58 14.09.2022
1803 Clouds 20 1006 75 10000 2.06 10 14:35 14.09.2022
1804 Clouds 16 1006 86 10000 2.06 10 11:54 14.09.2022
1805 Clouds 15 1006 94 10000 2.24 348 09:49 14.09.2022
1806 Clouds 15 1006 93 10000 1.34 12 07:39 14.09.2022
1807 Clouds 15 1006 96 10000 2.57 360 06:48 14.09.2022
1808 Rain 15 1007 96 10000 2.57 50 04:52 14.09.2022
1809 Clouds 15 1008 95 10000 3.09 60 01:51 14.09.2022
1810 Clouds 15 1008 94 10000 4.12 60 01:29 14.09.2022
1811 Rain 16 1008 95 10000 4.63 70 00:52 14.09.2022
1812 Rain 16 1009 94 10000 4.12 60 23:54 13.09.2022
1813 Clouds 16 1009 94 10000 4.12 60 23:36 13.09.2022
1814 Clouds 16 1009 94 10000 3.58 23 23:18 13.09.2022
1815 Rain 16 1009 91 6000 3.6 70 22:21 13.09.2022
1816 Rain 17 1009 90 10000 4.12 80 20:21 13.09.2022
1817 Rain 18 1009 84 10000 4.12 110 18:21 13.09.2022
1818 Rain 19 1010 81 10000 3.09 80 15:56 13.09.2022
1819 Clouds 18 1011 81 10000 2.06 50 14:47 13.09.2022
1820 Rain 18 1011 82 10000 2.06 40 13:20 13.09.2022
1821 Clouds 17 1011 83 10000 2.57 30 09:49 13.09.2022
1822 Clouds 18 1011 89 10000 3.09 10 07:21 13.09.2022
1823 Rain 20 1010 78 10000 1.54 210 00:30 13.09.2022
1824 Rain 21 1010 73 10000 1.03 0 22:51 12.09.2022
1825 Rain 21 1010 70 10000 2.06 220 22:22 12.09.2022
1826 Clouds 22 1009 65 10000 2.24 197 20:42 12.09.2022
1827 Clouds 24 1010 59 10000 3.09 230 19:22 12.09.2022
1828 Clouds 25 1009 57 10000 3.6 230 17:42 12.09.2022
1829 Clouds 25 1010 59 10000 4.12 220 14:54 12.09.2022
1830 Clouds 21 1012 76 10000 3.09 230 11:51 12.09.2022
1831 Clouds 19 1012 85 10000 2.06 220 10:20 12.09.2022
1832 Clouds 16 1011 92 10000 1.54 50 05:50 12.09.2022
1833 Clouds 16 1013 92 9000 1.03 0 04:30 12.09.2022
1834 Clouds 16 1015 85 10000 2.06 150 23:58 11.09.2022
1835 Clouds 17 1015 81 10000 2.06 170 22:45 11.09.2022
1836 Clouds 19 1015 76 10000 2.68 111 21:19 11.09.2022
1837 Clouds 19 1015 74 10000 3.09 170 20:42 11.09.2022
1838 Clouds 21 1015 68 10000 3.6 190 19:26 11.09.2022
1839 Clouds 22 1015 65 10000 3.6 190 18:38 11.09.2022
1840 Clouds 23 1016 64 10000 3.6 160 16:57 11.09.2022
1841 Clouds 22 1017 68 10000 3.6 140 15:44 11.09.2022
1842 Clouds 21 1018 72 10000 3.09 150 13:18 11.09.2022
1843 Clouds 16 1018 96 6000 2.57 100 10:35 11.09.2022
1844 Mist 13 1018 96 3800 1.54 100 07:49 11.09.2022
1845 Clear 14 1018 95 10000 2.06 340 04:36 11.09.2022
1846 Clouds 16 1018 88 10000 1.54 330 23:48 10.09.2022
1847 Clouds 18 1017 83 10000 2.06 300 21:38 10.09.2022
1848 Clouds 19 1017 76 10000 3.6 340 20:24 10.09.2022
1849 Clouds 20 1017 74 10000 5.14 360 19:42 10.09.2022
1850 Clouds 20 1016 75 10000 1.79 349 19:24 10.09.2022
1851 Clouds 21 1015 71 10000 4.12 280 17:19 10.09.2022
1852 Clouds 20 1016 74 10000 3.6 280 15:35 10.09.2022
1853 Clouds 18 1015 80 10000 3.09 310 13:29 10.09.2022
1854 Clouds 17 1015 86 10000 3.6 300 12:29 10.09.2022
1855 Clouds 16 1013 92 10000 2.57 250 10:28 10.09.2022
1856 Clouds 14 1012 94 10000 3.6 260 08:41 10.09.2022
1857 Clouds 14 1012 95 10000 2.06 290 08:20 10.09.2022
1858 Clear 14 1010 94 10000 0.89 275 03:43 10.09.2022
1859 Clouds 15 1009 91 10000 1.54 270 23:36 09.09.2022
1860 Clouds 16 1009 90 10000 2.57 270 22:36 09.09.2022
1861 Clouds 17 1007 87 10000 2.57 300 20:50 09.09.2022
1862 Clouds 18 1007 84 10000 4.63 280 19:58 09.09.2022
1863 Clouds 18 1007 83 10000 3.6 240 19:22 09.09.2022
1864 Clouds 20 1006 74 10000 5.14 260 17:19 09.09.2022
1865 Clouds 19 1006 82 10000 5.14 240 14:47 09.09.2022
1866 Clouds 17 1005 88 10000 4.63 260 13:31 09.09.2022
1867 Clouds 16 1003 93 10000 1.34 235 10:42 09.09.2022
1868 Clouds 16 1003 93 10000 1.79 231 10:42 09.09.2022
1869 Clouds 15 1002 96 10000 1.34 328 07:45 09.09.2022
1870 Clouds 15 1001 96 10000 1.54 230 03:34 09.09.2022
1871 Rain 16 1002 94 10000 3.13 128 22:40 08.09.2022
1872 Rain 16 1003 92 10000 3.09 200 21:51 08.09.2022
1873 Clouds 16 1002 89 10000 0.45 113 20:49 08.09.2022
1874 Clouds 17 1002 88 10000 4.12 0 20:25 08.09.2022
1875 Clouds 17 1003 88 9000 4.12 230 18:43 08.09.2022
1876 Rain 18 1003 85 10000 6.17 210 17:25 08.09.2022
1877 Rain 17 1003 92 10000 3.6 180 15:35 08.09.2022
1878 Rain 17 1005 84 10000 4.12 190 13:30 08.09.2022
1879 Rain 17 1004 89 10000 4.63 210 12:41 08.09.2022
1880 Clouds 16 1004 92 10000 2.57 200 11:23 08.09.2022
1881 Clouds 15 1004 95 10000 3.09 130 09:35 08.09.2022
1882 Clouds 14 1004 95 10000 1.54 150 07:25 08.09.2022
1883 Clouds 14 1004 95 10000 1.03 0 04:43 08.09.2022
1884 Rain 15 1005 94 10000 3.09 150 02:36 08.09.2022
1885 Rain 15 1005 94 10000 3.09 210 02:18 08.09.2022
1886 Rain 17 1007 83 10000 2.68 141 22:58 07.09.2022
1887 Clouds 18 1007 80 10000 2.57 150 21:46 07.09.2022
1888 Clouds 18 1006 77 10000 3.09 160 21:24 07.09.2022
1889 Clouds 19 1006 73 10000 4.63 190 20:29 07.09.2022
1890 Clouds 20 1007 71 10000 4.63 190 19:20 07.09.2022
1891 Clouds 21 1007 71 10000 6.69 200 16:24 07.09.2022
1892 Clouds 18 1009 86 10000 5.14 200 10:52 07.09.2022
1893 Clouds 18 1009 87 10000 5.14 200 10:32 07.09.2022
1894 Clouds 15 1009 94 10000 3.09 160 08:29 07.09.2022
1895 Clouds 16 1008 96 10000 2.57 130 06:31 07.09.2022
1896 Clouds 15 1010 90 10000 2.57 170 00:38 07.09.2022
1897 Clouds 17 1010 86 10000 2.24 108 21:56 06.09.2022
1898 Clouds 17 1010 85 10000 3.6 200 21:33 06.09.2022
1899 Rain 19 1009 84 10000 3.09 160 19:39 06.09.2022
1900 Clouds 19 1011 87 10000 0.45 295 18:40 06.09.2022
1901 Clouds 20 1011 85 10000 5.14 190 17:50 06.09.2022
1902 Clouds 21 1010 75 10000 6.17 190 16:47 06.09.2022
1903 Clouds 21 1011 70 10000 6.17 190 16:24 06.09.2022
1904 Clouds 21 1011 73 10000 4.12 200 14:27 06.09.2022
1905 Clouds 21 1011 74 10000 5.66 200 13:44 06.09.2022
1906 Clouds 21 1011 75 10000 5.66 200 13:18 06.09.2022
1907 Clouds 18 1012 90 10000 4.63 220 10:56 06.09.2022
1908 Clouds 18 1013 96 10000 4.12 220 09:49 06.09.2022
1909 Clouds 16 1011 96 10000 1.03 0 08:18 06.09.2022
1910 Clouds 16 1011 96 10000 3.09 100 06:22 06.09.2022
1911 Rain 18 1014 91 1300 6.69 250 01:22 06.09.2022
1912 Clouds 20 1012 82 10000 5.14 90 22:57 05.09.2022
1913 Clouds 20 1013 78 10000 6.17 90 21:39 05.09.2022
1914 Clouds 21 1013 73 10000 5.66 90 20:32 05.09.2022
1915 Clouds 22 1014 69 10000 2.24 71 18:53 05.09.2022
1916 Clouds 22 1014 67 10000 1.54 60 18:26 05.09.2022
1917 Clouds 22 1015 68 10000 1.54 70 17:57 05.09.2022
1918 Clouds 22 1016 70 10000 2.57 160 15:54 05.09.2022
1919 Clouds 22 1016 72 10000 2.57 170 15:23 05.09.2022
1920 Clouds 21 1017 76 10000 4.12 170 12:56 05.09.2022
1921 Clouds 20 1016 85 10000 3.09 0 11:37 05.09.2022
1922 Clouds 17 1016 94 10000 2.06 200 08:58 05.09.2022
1923 Clouds 16 1014 93 10000 2.06 230 06:38 05.09.2022
1924 Clouds 19 1013 72 10000 7.2 100 01:56 05.09.2022
1925 Clouds 20 1015 70 10000 3.09 80 22:39 04.09.2022
1926 Clouds 20 1015 69 10000 2.06 80 22:19 04.09.2022
1927 Clouds 21 1015 65 10000 3.13 129 20:37 04.09.2022
1928 Clouds 23 1015 61 10000 4.12 170 19:20 04.09.2022
1929 Clouds 24 1015 58 10000 3.58 92 17:43 04.09.2022
1930 Clouds 23 1015 61 10000 4.02 133 16:28 04.09.2022
1931 Clouds 23 1015 62 10000 4.63 190 14:27 04.09.2022
1932 Clouds 22 1015 66 10000 3.6 180 12:57 04.09.2022
1933 Clouds 21 1014 71 10000 4.12 150 11:52 04.09.2022
1934 Clouds 18 1013 87 10000 3.6 130 09:50 04.09.2022
1935 Clouds 17 1012 92 6000 2.57 140 07:27 04.09.2022
1936 Clouds 16 1012 86 10000 1.54 0 04:00 04.09.2022
1937 Clouds 18 1011 76 10000 2.24 202 23:40 03.09.2022
1938 Clouds 19 1011 75 10000 2.57 180 22:21 03.09.2022
1939 Clouds 20 1010 73 10000 3.09 220 21:23 03.09.2022
1940 Clouds 22 1009 65 10000 4.63 220 18:59 03.09.2022
1941 Clouds 23 1008 62 10000 4.63 190 17:26 03.09.2022
1942 Clouds 23 1008 62 10000 4.63 190 17:26 03.09.2022
1943 Clouds 23 1008 65 10000 4.12 200 16:27 03.09.2022
1944 Clouds 24 1008 62 10000 3.6 170 14:44 03.09.2022
1945 Clouds 23 1008 61 10000 3.09 0 13:55 03.09.2022
1946 Clouds 22 1009 72 10000 2.06 190 11:51 03.09.2022
1947 Clouds 19 1008 79 10000 1.03 0 10:27 03.09.2022
1948 Clouds 16 1007 91 8000 1.03 0 08:27 03.09.2022
1949 Clouds 16 1007 89 10000 2.06 100 06:53 03.09.2022
1950 Clouds 15 1007 88 10000 0.51 0 04:33 03.09.2022
1951 Clouds 19 1010 81 10000 2.57 150 23:55 02.09.2022
1952 Clouds 19 1009 83 9000 3.6 90 22:45 02.09.2022
1953 Clouds 21 1009 75 10000 4.12 90 20:59 02.09.2022
1954 Clouds 22 1009 72 10000 5.14 100 20:27 02.09.2022
1955 Clouds 22 1009 70 10000 3.6 90 19:01 02.09.2022
1956 Clouds 22 1010 69 10000 3.09 100 18:28 02.09.2022
1957 Clouds 23 1010 66 10000 4.12 90 17:53 02.09.2022
1958 Clouds 23 1010 61 10000 5.14 100 16:47 02.09.2022
1959 Clouds 24 1011 59 10000 4.63 80 14:33 02.09.2022
1960 Clouds 22 1012 72 10000 3.6 60 12:36 02.09.2022
1961 Clouds 18 1013 88 10000 1.03 0 10:22 02.09.2022
1962 Clouds 17 1013 90 10000 1.54 10 09:40 02.09.2022
1963 Clouds 16 1014 94 10000 1.03 0 07:32 02.09.2022
1964 Clouds 16 1014 92 10000 1.54 360 06:38 02.09.2022
1965 Clouds 17 1016 89 10000 2.06 10 02:55 02.09.2022
1966 Clouds 19 1017 72 10000 5.14 60 22:35 01.09.2022
1967 Clouds 20 1017 72 10000 4.12 70 21:44 01.09.2022
1968 Clouds 20 1016 70 10000 6.17 70 21:25 01.09.2022
1969 Clouds 20 1017 67 10000 5.14 70 20:46 01.09.2022
1970 Clouds 23 1017 58 10000 5.66 70 18:57 01.09.2022
1971 Clouds 23 1017 54 10000 7.2 80 17:33 01.09.2022
1972 Clouds 23 1018 52 10000 5.66 80 16:29 01.09.2022
1973 Clouds 22 1018 52 10000 4.63 70 14:33 01.09.2022
1974 Clouds 20 1019 62 10000 5.66 70 12:59 01.09.2022
1975 Clouds 20 1019 72 10000 4.63 60 11:53 01.09.2022
1976 Clouds 19 1019 73 10000 5.14 60 11:33 01.09.2022
1977 Clouds 19 1019 76 10000 5.66 60 10:40 01.09.2022
1978 Clouds 17 1019 84 10000 4.63 60 08:30 01.09.2022
1979 Clouds 16 1020 85 10000 4.12 50 06:23 01.09.2022
1980 Clouds 16 1022 77 10000 2.68 18 01:33 01.09.2022
1981 Clouds 16 1022 73 10000 2.57 50 00:18 01.09.2022
1982 Clouds 18 1022 61 10000 4.63 70 21:44 31.08.2022
1983 Clouds 21 1022 51 10000 7.2 80 19:50 31.08.2022
1984 Clouds 22 1022 46 10000 6.69 70 18:18 31.08.2022
1985 Clouds 23 1022 45 10000 7.2 80 16:31 31.08.2022
1986 Clouds 22 1023 54 10000 6.17 50 14:36 31.08.2022
1987 Clouds 21 1024 63 10000 5.66 60 12:23 31.08.2022
1988 Clouds 20 1024 66 10000 6.17 60 11:29 31.08.2022
1989 Clear 15 1024 79 10000 2.68 350 08:54 31.08.2022
1990 Clear 14 1023 84 10000 3.09 10 06:18 31.08.2022
1991 Clouds 18 1023 70 10000 3.09 60 23:21 30.08.2022
1992 Clouds 20 1022 65 10000 5.14 70 21:43 30.08.2022
1993 Clouds 20 1022 64 10000 5.66 80 20:57 30.08.2022
1994 Clouds 22 1021 56 10000 4.63 70 18:49 30.08.2022
1995 Clouds 23 1022 54 10000 4.63 40 15:29 30.08.2022
1996 Clouds 22 1022 59 10000 3.6 30 13:24 30.08.2022
1997 Clouds 19 1023 74 10000 3.6 40 11:22 30.08.2022
1998 Clouds 18 1022 76 10000 3.13 3 10:57 30.08.2022
1999 Clouds 15 1022 85 10000 2.68 3 07:46 30.08.2022
2000 Clouds 15 1022 77 10000 2.57 0 02:55 30.08.2022
2001 Clouds 17 1022 72 10000 2.06 30 23:28 29.08.2022
2002 Clouds 17 1022 68 10000 3.09 50 22:32 29.08.2022
2003 Clouds 18 1021 65 10000 5.14 70 21:27 29.08.2022
2004 Clouds 19 1021 63 10000 5.66 70 20:19 29.08.2022
2005 Clear 21 1022 55 10000 4.63 70 17:58 29.08.2022
2006 Clear 21 1021 55 10000 5.66 80 17:25 29.08.2022
2007 Clouds 21 1022 55 10000 6.17 60 16:43 29.08.2022
2008 Clouds 21 1022 54 10000 4.63 60 15:18 29.08.2022
2009 Clouds 21 1023 54 10000 3.6 50 13:26 29.08.2022
2010 Clouds 19 1023 65 10000 3.6 50 11:30 29.08.2022
2011 Clouds 18 1023 74 10000 4.63 50 10:21 29.08.2022
2012 Clear 16 1022 86 10000 1.54 0 08:38 29.08.2022
2013 Clouds 15 1022 86 10000 1.54 60 05:58 29.08.2022
2014 Clouds 16 1022 80 10000 3.09 60 01:25 29.08.2022
2015 Clouds 18 1022 74 10000 4.63 70 22:55 28.08.2022
2016 Clouds 19 1022 70 10000 6.17 80 21:45 28.08.2022
2017 Clouds 20 1021 65 10000 6.17 100 20:58 28.08.2022
2018 Clouds 21 1021 61 10000 7.2 90 19:44 28.08.2022
2019 Clouds 22 1021 54 10000 7.2 100 18:22 28.08.2022
2020 Clouds 22 1021 53 10000 7.2 100 17:45 28.08.2022
2021 Clouds 23 1021 52 10000 7.2 100 16:33 28.08.2022
2022 Clouds 23 1021 52 10000 5.66 80 14:46 28.08.2022
2023 Clouds 23 1021 52 10000 5.66 80 14:46 28.08.2022
2024 Clouds 21 1021 58 10000 5.14 90 12:56 28.08.2022
2025 Clouds 20 1022 68 10000 5.14 70 11:19 28.08.2022
2026 Clouds 18 1022 74 10000 2.57 50 10:19 28.08.2022
2027 Clouds 15 1021 83 10000 1.54 20 08:42 28.08.2022
2028 Clouds 14 1020 88 10000 1.54 80 07:50 28.08.2022
2029 Clouds 14 1020 87 10000 1.54 70 04:55 28.08.2022
2030 Clouds 17 1020 80 10000 3.09 60 00:34 28.08.2022
2031 Clouds 18 1019 74 10000 4.12 100 22:50 27.08.2022
2032 Clouds 19 1020 70 10000 4.63 90 22:24 27.08.2022
2033 Clouds 20 1018 66 10000 6.69 100 20:34 27.08.2022
2034 Clouds 23 1018 52 10000 5.66 100 18:50 27.08.2022
2035 Clouds 24 1018 48 10000 3.6 40 16:26 27.08.2022
2036 Clouds 24 1018 50 10000 2.57 70 15:30 27.08.2022
2037 Clouds 22 1018 57 10000 4.63 90 13:18 27.08.2022
2038 Clouds 21 1019 66 10000 3.6 100 11:58 27.08.2022
2039 Clouds 19 1019 74 10000 1.54 90 10:27 27.08.2022
2040 Clouds 17 1019 82 10000 2.06 110 09:31 27.08.2022
2041 Clouds 15 1016 81 10000 1.54 90 05:59 27.08.2022
2042 Clouds 18 1018 76 10000 2.06 150 00:52 27.08.2022
2043 Clouds 19 1017 69 10000 2.57 130 23:36 26.08.2022
2044 Clouds 21 1017 59 10000 2.24 48 21:45 26.08.2022
2045 Clouds 22 1017 51 10000 1.03 0 19:50 26.08.2022
2046 Clouds 24 1017 47 10000 2.06 0 17:53 26.08.2022
2047 Clear 24 1018 47 10000 2.57 260 15:45 26.08.2022
2048 Clear 24 1018 47 10000 2.57 200 15:24 26.08.2022
2049 Clear 22 1019 54 10000 1.54 50 12:59 26.08.2022
2050 Clouds 20 1019 67 10000 2.06 90 11:47 26.08.2022
2051 Clouds 19 1020 70 10000 1.54 130 11:21 26.08.2022
2052 Clouds 14 1019 92 7000 1.03 0 08:55 26.08.2022
2053 Clouds 14 1019 92 10000 1.54 330 03:59 26.08.2022
2054 Clouds 16 1019 88 10000 1.54 340 00:39 26.08.2022
2055 Clouds 18 1019 84 10000 2.24 329 22:44 25.08.2022
2056 Clouds 18 1018 84 10000 3.6 300 20:55 25.08.2022
2057 Clouds 19 1018 81 10000 4.12 320 19:36 25.08.2022
2058 Clouds 20 1017 78 10000 4.12 350 18:35 25.08.2022
2059 Clouds 21 1017 77 10000 3.6 340 17:32 25.08.2022
2060 Clouds 21 1016 79 10000 3.6 300 16:45 25.08.2022
2061 Clouds 21 1016 85 10000 3.6 290 15:37 25.08.2022
2062 Rain 19 1016 95 10000 2.06 50 13:59 25.08.2022
2063 Rain 18 1017 94 6000 3.09 300 11:25 25.08.2022
2064 Rain 19 1016 94 4300 1.79 9 10:44 25.08.2022
2065 Thunderstorm 19 1016 93 2900 1.54 300 07:35 25.08.2022
2066 Clouds 20 1015 84 10000 0.89 325 03:54 25.08.2022
2067 Clear 22 1016 69 10000 2.06 230 23:38 24.08.2022
2068 Clear 22 1016 68 10000 2.06 220 23:18 24.08.2022
2069 Clear 24 1016 59 10000 2.57 200 21:56 24.08.2022
2070 Clear 25 1015 60 10000 2.57 200 21:30 24.08.2022
2071 Clouds 26 1016 53 10000 3.09 0 20:18 24.08.2022
2072 Clouds 29 1015 47 10000 4.12 200 17:32 24.08.2022
2073 Clouds 28 1016 50 10000 4.12 180 15:55 24.08.2022
2074 Clouds 28 1016 51 10000 4.12 180 15:35 24.08.2022
2075 Clouds 25 1016 66 10000 4.12 220 12:52 24.08.2022
2076 Clouds 23 1016 77 10000 4.12 210 11:21 24.08.2022
2077 Clouds 20 1016 86 10000 3.09 200 09:19 24.08.2022
2078 Clouds 20 1015 87 10000 3.09 200 06:52 24.08.2022
2079 Clouds 20 1015 86 10000 4.12 230 01:21 24.08.2022
2080 Clouds 21 1015 83 10000 4.63 210 22:51 23.08.2022
2081 Clouds 21 1015 82 10000 4.12 210 22:21 23.08.2022
2082 Clouds 22 1014 78 10000 4.12 210 21:21 23.08.2022
2083 Clouds 25 1013 68 10000 4.12 190 19:43 23.08.2022
2084 Clouds 25 1013 66 10000 4.63 220 18:30 23.08.2022
2085 Clouds 25 1013 67 10000 4.12 210 17:43 23.08.2022
2086 Clouds 24 1013 72 10000 3.6 220 16:33 23.08.2022
2087 Clouds 24 1013 69 10000 4.12 220 14:55 23.08.2022
2088 Clouds 24 1013 66 10000 3.09 200 13:25 23.08.2022
2089 Clouds 21 1013 76 10000 3.6 230 11:21 23.08.2022
2090 Clouds 21 1013 80 10000 3.6 230 10:35 23.08.2022
2091 Clouds 19 1013 87 10000 3.6 240 09:47 23.08.2022
2092 Clouds 19 1013 93 10000 2.06 250 08:49 23.08.2022
2093 Clouds 18 1013 93 8000 2.06 250 08:20 23.08.2022
2094 Clouds 18 1012 94 10000 2.57 260 07:34 23.08.2022
2095 Clouds 18 1012 94 7000 2.57 230 06:26 23.08.2022
2096 Clouds 18 1012 92 7000 2.57 210 02:28 23.08.2022
2097 Clouds 19 1012 89 10000 2.57 200 00:27 23.08.2022
2098 Clouds 19 1012 88 10000 4.12 210 23:33 22.08.2022
2099 Clouds 19 1012 85 10000 3.58 213 22:34 22.08.2022
2100 Clouds 20 1011 75 10000 4.12 200 21:24 22.08.2022
2101 Clouds 21 1011 68 10000 3.6 0 19:47 22.08.2022
2102 Clouds 22 1012 65 10000 4.47 173 18:44 22.08.2022
2103 Clouds 22 1012 66 10000 4.12 0 16:47 22.08.2022
2104 Clouds 22 1013 64 10000 3.09 0 15:38 22.08.2022
2105 Clouds 22 1013 61 10000 3.6 230 13:47 22.08.2022
2106 Clear 20 1014 67 10000 2.57 0 10:38 22.08.2022
2107 Clouds 14 1014 84 10000 1.54 200 07:58 22.08.2022
2108 Clouds 15 1014 80 10000 2.57 210 03:49 22.08.2022
2109 Clouds 17 1015 76 10000 2.57 220 00:38 22.08.2022
2110 Clouds 18 1015 74 10000 2.57 220 00:18 22.08.2022
2111 Clouds 19 1015 70 10000 3.09 190 22:20 21.08.2022
2112 Clouds 21 1014 63 10000 4.12 210 21:23 21.08.2022
2113 Clouds 22 1014 58 10000 3.09 190 20:36 21.08.2022
2114 Clouds 24 1014 47 10000 2.24 104 19:25 21.08.2022
2115 Clouds 24 1015 43 10000 2.06 300 17:24 21.08.2022
2116 Clouds 23 1015 51 10000 2.57 240 15:53 21.08.2022
2117 Clouds 23 1015 52 10000 4.12 250 15:21 21.08.2022
2118 Clouds 21 1015 56 10000 4.12 260 13:52 21.08.2022
2119 Clouds 21 1015 57 10000 4.63 260 13:28 21.08.2022
2120 Clouds 20 1015 66 10000 3.6 270 11:34 21.08.2022
2121 Clouds 16 1016 79 10000 3.6 220 09:31 21.08.2022
2122 Clouds 16 1016 85 10000 3.6 230 08:56 21.08.2022
2123 Clouds 15 1017 89 10000 3.6 230 08:38 21.08.2022
2124 Clouds 14 1015 88 10000 1.79 191 07:26 21.08.2022
2125 Clouds 15 1015 84 10000 0.89 198 03:40 21.08.2022
2126 Clouds 18 1015 77 10000 4.12 230 00:22 21.08.2022
2127 Clouds 19 1016 69 10000 4.12 220 22:40 20.08.2022
2128 Clouds 20 1015 64 10000 4.63 210 21:37 20.08.2022
2129 Clouds 22 1015 59 10000 6.17 210 20:40 20.08.2022
2130 Clouds 23 1015 54 10000 4.63 210 19:40 20.08.2022
2131 Clouds 24 1015 47 10000 4.12 230 18:30 20.08.2022
2132 Clouds 24 1015 47 10000 5.14 230 17:50 20.08.2022
2133 Clouds 24 1016 48 10000 4.63 220 16:52 20.08.2022
2134 Clouds 23 1016 51 10000 5.14 250 15:33 20.08.2022
2135 Clouds 22 1017 56 10000 4.12 240 13:26 20.08.2022
2136 Clouds 20 1017 59 10000 3.6 240 11:50 20.08.2022
2137 Clear 17 1017 78 10000 3.6 240 09:37 20.08.2022
2138 Clear 15 1017 83 10000 4.12 230 08:34 20.08.2022
2139 Clear 14 1017 82 10000 3.09 230 05:55 20.08.2022
2140 Clear 17 1016 65 10000 0.89 260 00:59 20.08.2022
2141 Clear 17 1016 63 10000 4.12 280 00:35 20.08.2022
2142 Clear 18 1016 57 10000 1.79 282 23:19 19.08.2022
2143 Clear 19 1015 55 10000 1.34 323 22:33 19.08.2022
2144 Clouds 22 1015 43 10000 4.63 280 20:20 19.08.2022
2145 Clouds 24 1014 38 10000 6.69 270 18:28 19.08.2022
2146 Clouds 23 1014 48 10000 4.63 270 15:19 19.08.2022
2147 Clouds 22 1013 64 10000 5.66 250 13:26 19.08.2022
2148 Clouds 20 1013 74 10000 5.14 250 10:55 19.08.2022
2149 Clouds 20 1013 77 10000 5.14 250 10:24 19.08.2022
2150 Drizzle 19 1012 91 3800 4.63 230 06:58 19.08.2022
2151 Clouds 19 1012 79 10000 4.12 240 00:58 19.08.2022
2152 Clouds 20 1012 77 10000 5.14 240 00:31 19.08.2022
2153 Clouds 20 1012 74 10000 4.63 230 23:47 18.08.2022
2154 Clouds 21 1012 70 10000 4.63 230 22:51 18.08.2022
2155 Clouds 22 1012 66 10000 4.63 240 21:57 18.08.2022
2156 Clouds 23 1012 63 10000 5.66 250 21:35 18.08.2022
2157 Clouds 24 1012 55 10000 4.63 250 20:27 18.08.2022
2158 Clouds 25 1012 53 10000 6.17 260 19:30 18.08.2022
2159 Clouds 26 1012 52 10000 4.12 240 17:55 18.08.2022
2160 Clouds 26 1012 53 10000 4.63 250 17:18 18.08.2022
2161 Clouds 26 1012 56 10000 4.12 260 15:20 18.08.2022
2162 Clouds 25 1013 61 10000 4.02 226 14:20 18.08.2022
2163 Clouds 24 1013 64 10000 2.57 220 13:34 18.08.2022
2164 Clouds 22 1014 71 10000 1.03 0 12:26 18.08.2022
2165 Clouds 19 1014 87 8000 1.54 190 10:22 18.08.2022
2166 Clouds 19 1014 89 10000 1.03 0 09:42 18.08.2022
2167 Clouds 18 1014 93 10000 2.06 50 07:24 18.08.2022
2168 Clouds 18 1013 93 10000 1.79 319 04:47 18.08.2022
2169 Clouds 19 1014 90 10000 3.09 60 23:49 17.08.2022
2170 Clouds 19 1014 90 10000 3.09 10 21:54 17.08.2022
2171 Clouds 19 1013 87 10000 3.09 360 20:20 17.08.2022
2172 Clouds 20 1013 87 10000 3.09 360 19:32 17.08.2022
2173 Rain 21 1012 78 10000 2.57 360 17:39 17.08.2022
2174 Clouds 22 1012 77 10000 4.02 325 16:50 17.08.2022
2175 Clouds 23 1011 71 7000 6.17 100 15:30 17.08.2022
2176 Clouds 24 1011 60 10000 4.12 70 13:52 17.08.2022
2177 Clouds 22 1011 72 8000 4.12 60 11:45 17.08.2022
2178 Haze 19 1011 87 3300 3.09 50 10:25 17.08.2022
2179 Haze 17 1009 94 3500 1.34 12 08:25 17.08.2022
2180 Haze 17 1009 92 5000 1.54 30 05:22 17.08.2022
2181 Clear 18 1009 88 10000 3.09 100 00:46 17.08.2022
2182 Clouds 19 1009 84 10000 2.06 60 22:53 16.08.2022
2183 Clouds 21 1007 77 10000 3.09 110 20:59 16.08.2022
2184 Clouds 22 1007 75 10000 2.06 110 19:55 16.08.2022
2185 Clouds 22 1007 75 10000 2.06 70 19:22 16.08.2022
2186 Clouds 22 1007 71 10000 3.09 70 17:55 16.08.2022
2187 Clouds 22 1007 70 10000 2.57 80 16:47 16.08.2022
2188 Clouds 22 1008 73 10000 2.06 130 15:45 16.08.2022
2189 Clouds 21 1008 77 10000 1.03 0 14:54 16.08.2022
2190 Clouds 21 1008 78 10000 1.03 0 14:36 16.08.2022
2191 Rain 21 1007 76 10000 3.6 210 12:19 16.08.2022
2192 Clouds 21 1007 77 10000 2.57 0 10:23 16.08.2022
2193 Clouds 19 1005 86 10000 2.57 0 08:53 16.08.2022
2194 Clouds 19 1005 86 10000 2.57 230 08:21 16.08.2022
2195 Clouds 18 1005 85 10000 2.06 230 06:31 16.08.2022
2196 Clouds 21 1004 78 10000 1.03 0 23:56 15.08.2022
2197 Clouds 22 1004 70 10000 2.57 70 22:23 15.08.2022
2198 Rain 23 1004 65 8000 4.12 150 21:50 15.08.2022
2199 Clouds 26 1001 42 10000 3.6 310 20:32 15.08.2022
2200 Clouds 27 1002 34 10000 3.09 270 19:59 15.08.2022
2201 Clouds 28 1002 32 10000 4.12 250 17:59 15.08.2022
2202 Clouds 28 1001 40 10000 5.14 250 16:25 15.08.2022
2203 Clouds 28 1002 40 10000 6.17 270 15:52 15.08.2022
2204 Clouds 28 1002 46 10000 5.14 250 13:50 15.08.2022
2205 Clouds 24 1001 60 10000 4.12 240 11:24 15.08.2022
2206 Clouds 22 1001 69 10000 2.57 220 09:40 15.08.2022
2207 Clouds 19 1002 67 10000 2.57 220 07:44 15.08.2022
2208 Clouds 20 1002 51 10000 2.06 220 04:34 15.08.2022
2209 Clouds 23 1003 50 10000 2.06 210 00:33 15.08.2022
2210 Clouds 25 1003 50 10000 3.6 90 22:30 14.08.2022
2211 Clouds 26 1003 42 10000 2.57 80 21:37 14.08.2022
2212 Clouds 29 1004 33 10000 3.6 120 19:48 14.08.2022
2213 Clouds 30 1004 31 10000 5.14 110 18:57 14.08.2022
2214 Clouds 31 1004 28 10000 6.69 110 18:18 14.08.2022
2215 Clouds 32 1004 24 10000 5.66 110 16:52 14.08.2022
2216 Clouds 32 1005 25 10000 4.12 140 15:48 14.08.2022
2217 Clouds 32 1006 28 10000 6.17 110 14:24 14.08.2022
2218 Clouds 31 1006 30 10000 5.14 100 13:49 14.08.2022
2219 Clouds 31 1006 33 10000 2.57 100 13:19 14.08.2022
2220 Clouds 30 1007 40 10000 2.57 100 12:23 14.08.2022
2221 Clouds 26 1007 50 10000 2.57 110 10:49 14.08.2022
2222 Clouds 21 1008 57 10000 1.03 0 08:50 14.08.2022
2223 Clouds 18 1009 75 10000 1.03 0 06:21 14.08.2022
2224 Clouds 20 1010 68 10000 2.57 60 02:48 14.08.2022
2225 Clouds 23 1011 51 10000 4.12 80 23:53 13.08.2022
2226 Clear 25 1012 44 10000 5.66 100 22:52 13.08.2022
2227 Clear 29 1012 32 10000 7.2 90 20:58 13.08.2022
2228 Clear 29 1012 31 10000 7.2 90 20:33 13.08.2022
2229 Clear 31 1012 27 10000 8.75 90 19:37 13.08.2022
2230 Clear 33 1012 24 10000 3.6 130 17:59 13.08.2022
2231 Clear 33 1013 29 10000 5.66 90 15:31 13.08.2022
2232 Clear 31 1014 35 10000 4.12 120 14:28 13.08.2022
2233 Clear 31 1013 36 10000 5.14 110 13:40 13.08.2022
2234 Clear 28 1014 47 10000 3.58 27 11:52 13.08.2022
2235 Clear 24 1014 59 10000 2.57 60 10:31 13.08.2022
2236 Clear 21 1015 72 10000 1.54 30 09:18 13.08.2022
2237 Clear 18 1015 78 10000 1.79 329 05:57 13.08.2022
2238 Clear 22 1016 61 10000 3.6 80 00:29 13.08.2022
2239 Clear 25 1016 47 10000 4.12 90 22:20 12.08.2022
2240 Clear 28 1016 36 10000 5.66 100 20:58 12.08.2022
2241 Clear 30 1016 31 10000 6.17 110 19:43 12.08.2022
2242 Clear 31 1016 30 10000 7.2 110 18:52 12.08.2022
2243 Clear 32 1016 28 10000 7.2 110 17:36 12.08.2022
2244 Clear 32 1017 27 10000 6.69 90 16:24 12.08.2022
2245 Clear 32 1017 29 10000 7.72 100 14:47 12.08.2022
2246 Clear 30 1018 38 10000 4.12 90 12:57 12.08.2022
2247 Clear 26 1019 54 10000 3.6 90 11:19 12.08.2022
2248 Clear 20 1019 72 10000 1.79 68 08:47 12.08.2022
2249 Clear 17 1018 77 10000 1.54 10 07:26 12.08.2022
2250 Clear 19 1019 66 10000 1.54 340 03:41 12.08.2022
2251 Clear 21 1020 60 10000 3.09 80 00:31 12.08.2022
2252 Clear 22 1020 55 10000 3.09 80 23:40 11.08.2022
2253 Clear 24 1019 47 10000 3.6 90 22:37 11.08.2022
2254 Clear 25 1020 41 10000 4.63 100 21:47 11.08.2022
2255 Clear 27 1019 38 10000 5.66 100 21:22 11.08.2022
2256 Clear 29 1019 34 10000 5.66 100 20:29 11.08.2022
2257 Clear 30 1019 32 10000 5.66 100 19:33 11.08.2022
2258 Clear 30 1019 31 10000 6.69 110 18:41 11.08.2022
2259 Clear 32 1020 30 10000 6.69 110 16:42 11.08.2022
2260 Clear 31 1020 31 10000 6.17 120 15:37 11.08.2022
2261 Clear 31 1021 34 10000 5.14 90 14:20 11.08.2022
2262 Clear 26 1022 55 10000 1.54 80 11:51 11.08.2022
2263 Clear 18 1022 83 10000 1.79 41 08:34 11.08.2022
2264 Clear 16 1022 82 10000 1.8 50 04:53 11.08.2022
2265 Clear 18 1023 75 10000 3.6 100 02:26 11.08.2022
2266 Clear 22 1023 61 10000 4.12 90 22:55 10.08.2022
2267 Clear 24 1023 53 10000 4.63 90 21:45 10.08.2022
2268 Clear 25 1023 48 10000 5.66 100 20:56 10.08.2022
2269 Clouds 27 1023 44 10000 6.17 100 20:24 10.08.2022
2270 Clouds 28 1023 39 10000 6.17 90 18:46 10.08.2022
2271 Clouds 29 1024 39 10000 6.69 110 17:26 10.08.2022
2272 Clouds 28 1025 43 10000 4.63 90 14:36 10.08.2022
2273 Clouds 27 1025 47 10000 4.63 90 13:32 10.08.2022
2274 Clouds 22 1027 70 10000 2.57 70 10:47 10.08.2022
2275 Clouds 16 1027 88 10000 1.54 10 08:37 10.08.2022
2276 Clouds 15 1026 88 10000 1.03 0 07:23 10.08.2022
2277 Clouds 15 1026 86 10000 1.54 20 04:50 10.08.2022
2278 Clouds 17 1027 76 10000 2.06 50 01:33 10.08.2022
2279 Clouds 19 1028 67 10000 4.63 90 23:31 09.08.2022
2280 Clouds 21 1028 61 10000 5.14 100 21:58 09.08.2022
2281 Clouds 22 1028 58 10000 6.69 100 21:23 09.08.2022
2282 Clouds 26 1027 48 10000 7.2 110 19:18 09.08.2022
2283 Clouds 27 1027 42 10000 6.69 110 17:39 09.08.2022
2284 Clouds 28 1027 40 10000 6.17 110 17:21 09.08.2022
2285 Clouds 28 1027 40 10000 4.12 80 16:23 09.08.2022
2286 Clouds 27 1028 42 10000 5.14 90 15:23 09.08.2022
2287 Clouds 23 1029 59 10000 2.68 110 11:49 09.08.2022
2288 Clouds 17 1029 89 8000 2.06 50 08:53 09.08.2022
2289 Clear 16 1028 92 10000 1.79 57 07:59 09.08.2022
2290 Clear 15 1028 91 10000 1.03 0 06:55 09.08.2022
2291 Clouds 17 1028 81 10000 1.54 40 01:57 09.08.2022
2292 Clouds 19 1027 72 10000 4.63 90 23:26 08.08.2022
2293 Clouds 20 1027 70 10000 6.17 90 22:45 08.08.2022
2294 Clouds 21 1027 66 10000 7.2 90 21:47 08.08.2022
2295 Clouds 23 1026 59 10000 6.69 110 20:43 08.08.2022
2296 Clouds 25 1026 53 10000 7.2 90 19:41 08.08.2022
2297 Clouds 28 1025 43 10000 5.66 80 18:19 08.08.2022
2298 Clouds 28 1026 40 10000 2.57 80 15:57 08.08.2022
2299 Clouds 28 1026 41 10000 3.13 15 15:38 08.08.2022
2300 Clouds 25 1027 47 10000 2.68 313 12:35 08.08.2022
2301 Clouds 22 1027 59 10000 2.06 60 10:50 08.08.2022
2302 Clouds 17 1026 75 10000 1.34 29 08:26 08.08.2022
2303 Clear 15 1025 73 10000 1.54 350 05:33 08.08.2022
2304 Clouds 18 1024 58 10000 2.57 110 01:47 08.08.2022
2305 Clouds 23 1024 37 10000 3.09 360 21:51 07.08.2022
2306 Clouds 24 1024 36 10000 3.09 360 21:32 07.08.2022
2307 Clear 26 1023 32 10000 2.57 330 20:25 07.08.2022
2308 Clear 26 1023 32 10000 3.6 330 19:53 07.08.2022
2309 Clear 27 1023 31 10000 2.06 30 19:29 07.08.2022
2310 Clear 27 1023 32 10000 3.09 260 17:59 07.08.2022
2311 Clear 27 1024 34 10000 3.6 290 16:53 07.08.2022
2312 Clear 27 1024 35 10000 3.09 0 15:49 07.08.2022
2313 Clear 25 1025 37 10000 2.68 320 14:34 07.08.2022
2314 Clear 24 1026 39 10000 2.57 200 12:51 07.08.2022
2315 Clear 24 1026 39 10000 2.57 200 12:51 07.08.2022
2316 Clear 21 1027 53 10000 0.89 355 10:57 07.08.2022
2317 Clear 19 1027 58 10000 1.79 328 10:21 07.08.2022
2318 Clouds 13 1026 75 10000 0.49 219 04:42 07.08.2022
2319 Clouds 15 1026 70 10000 1.54 100 03:18 07.08.2022
2320 Clouds 18 1027 54 10000 5.66 90 23:29 06.08.2022
2321 Clouds 20 1027 38 10000 2.06 10 22:20 06.08.2022
2322 Clouds 23 1026 30 10000 2.57 20 20:20 06.08.2022
2323 Clouds 24 1026 29 10000 3.09 350 19:38 06.08.2022
2324 Clouds 24 1027 29 10000 3.09 290 18:19 06.08.2022
2325 Clear 24 1028 32 10000 1.54 350 16:40 06.08.2022
2326 Clear 22 1028 35 10000 3.58 313 14:31 06.08.2022
2327 Clear 22 1029 38 10000 2.06 0 13:39 06.08.2022
2328 Clear 19 1029 51 10000 2.06 320 11:24 06.08.2022
2329 Clear 16 1029 64 10000 1.54 0 09:50 06.08.2022
2330 Clouds 12 1028 73 10000 1.54 300 07:51 06.08.2022
2331 Clouds 14 1027 63 10000 3.09 340 03:35 06.08.2022
2332 Clouds 17 1025 49 10000 2.57 350 23:32 05.08.2022
2333 Clouds 20 1024 42 10000 4.12 360 21:54 05.08.2022
2334 Clouds 22 1023 32 10000 3.09 340 19:32 05.08.2022
2335 Clouds 22 1023 32 10000 5.66 290 18:44 05.08.2022
2336 Clear 22 1023 32 10000 5.36 323 17:27 05.08.2022
2337 Clear 22 1023 34 10000 5.14 300 16:48 05.08.2022
2338 Clear 22 1023 35 10000 6.17 290 15:21 05.08.2022
2339 Clouds 21 1022 38 10000 5.14 310 13:59 05.08.2022
2340 Clouds 21 1022 40 10000 5.14 290 13:23 05.08.2022
2341 Clouds 20 1022 41 10000 4.12 330 12:24 05.08.2022
2342 Clouds 18 1022 50 10000 4.92 327 10:44 05.08.2022
2343 Clouds 15 1020 63 10000 3.6 0 08:25 05.08.2022
2344 Clouds 15 1019 61 10000 3.09 340 06:41 05.08.2022
2345 Clouds 18 1017 49 10000 4.63 340 00:34 05.08.2022
2346 Clouds 21 1016 45 10000 2.57 340 22:29 04.08.2022
2347 Clouds 21 1015 44 10000 3.09 330 21:26 04.08.2022
2348 Clouds 22 1015 44 10000 3.13 349 20:43 04.08.2022
2349 Clouds 22 1015 44 10000 4.12 300 19:46 04.08.2022
2350 Clouds 23 1014 45 10000 3.13 5 18:37 04.08.2022
2351 Clouds 23 1014 45 10000 4.02 321 18:18 04.08.2022
2352 Clouds 24 1014 49 10000 3.6 320 14:23 04.08.2022
2353 Clouds 23 1015 51 10000 3.13 309 13:18 04.08.2022
2354 Clouds 21 1014 60 10000 4.12 290 11:20 04.08.2022
2355 Clouds 17 1013 74 10000 3.09 250 07:54 04.08.2022
2356 Clouds 17 1013 71 10000 3.6 300 06:41 04.08.2022
2357 Clouds 19 1012 72 10000 1.79 312 02:35 04.08.2022
2358 Clouds 21 1012 77 10000 4.63 250 23:46 03.08.2022
2359 Clouds 22 1012 76 10000 3.09 240 22:59 03.08.2022
2360 Clouds 25 1012 66 10000 4.63 260 20:50 03.08.2022
2361 Clouds 26 1011 65 10000 4.63 240 19:54 03.08.2022
2362 Clouds 26 1011 62 10000 5.14 240 18:37 03.08.2022
2363 Clouds 27 1013 59 10000 6.17 250 16:26 03.08.2022
2364 Clouds 27 1012 61 10000 6.17 250 15:47 03.08.2022
2365 Clouds 25 1014 68 10000 5.66 230 13:24 03.08.2022
2366 Clouds 20 1013 84 10000 4.63 220 09:51 03.08.2022
2367 Clouds 19 1012 87 10000 3.6 230 06:46 03.08.2022
2368 Clear 18 1013 89 10000 4.63 230 04:22 03.08.2022
2369 Clear 18 1013 87 10000 3.6 230 02:35 03.08.2022
2370 Clouds 20 1013 81 10000 4.63 240 23:54 02.08.2022
2371 Clouds 23 1013 73 10000 4.63 210 21:59 02.08.2022
2372 Clouds 23 1013 71 10000 4.63 210 21:41 02.08.2022
2373 Clouds 25 1013 66 10000 6.17 230 20:27 02.08.2022
2374 Clouds 26 1015 61 10000 6.69 230 16:52 02.08.2022
2375 Clouds 24 1014 68 10000 6.17 230 14:33 02.08.2022
2376 Clouds 22 1015 74 10000 5.66 230 10:49 02.08.2022
2377 Clouds 20 1015 83 10000 5.14 240 08:38 02.08.2022
2378 Clouds 19 1015 85 10000 4.47 201 07:51 02.08.2022
2379 Clouds 19 1015 75 10000 3.6 230 04:57 02.08.2022
2380 Clouds 20 1016 70 10000 2.68 221 03:30 02.08.2022
2381 Clouds 21 1017 66 10000 3.6 220 23:32 01.08.2022
2382 Clouds 23 1016 67 10000 5.14 200 21:54 01.08.2022
2383 Clouds 24 1016 61 10000 5.66 210 20:34 01.08.2022
2384 Clouds 26 1016 53 10000 3.6 190 19:22 01.08.2022
2385 Clouds 26 1016 51 10000 1.54 0 17:22 01.08.2022
2386 Clouds 26 1017 52 10000 2.68 111 16:49 01.08.2022
2387 Clouds 26 1017 56 10000 3.09 90 15:48 01.08.2022
2388 Clouds 25 1017 57 10000 3.09 90 15:28 01.08.2022
2389 Clouds 24 1018 60 10000 2.06 70 13:44 01.08.2022
2390 Clouds 21 1018 71 10000 2.57 80 11:49 01.08.2022
2391 Clouds 19 1018 80 10000 2.57 100 09:38 01.08.2022
2392 Clouds 18 1018 85 10000 1.54 70 08:20 01.08.2022
2393 Clouds 18 1018 84 10000 2.57 50 04:44 01.08.2022
2394 Clouds 19 1018 81 10000 2.57 70 02:31 01.08.2022
2395 Clouds 21 1017 75 10000 3.09 50 23:42 31.07.2022
2396 Clouds 22 1017 72 10000 3.09 50 22:36 31.07.2022
2397 Clouds 24 1015 64 10000 2.57 330 20:49 31.07.2022
2398 Clouds 25 1014 62 10000 4.12 290 19:40 31.07.2022
2399 Clouds 26 1015 58 10000 5.66 250 17:44 31.07.2022
2400 Clouds 24 1014 66 10000 7.72 260 15:30 31.07.2022
2401 Clouds 23 1015 70 10000 7.2 240 13:31 31.07.2022
2402 Clouds 22 1015 73 10000 7.2 250 11:45 31.07.2022
2403 Clouds 21 1015 78 10000 6.17 230 09:28 31.07.2022
2404 Clouds 20 1015 82 10000 4.63 240 06:43 31.07.2022
2405 Clouds 20 1016 77 10000 5.66 250 02:57 31.07.2022
2406 Clouds 22 1017 68 10000 4.63 280 23:30 30.07.2022
2407 Clouds 23 1016 66 10000 0.89 270 22:19 30.07.2022
2408 Clouds 24 1016 63 10000 5.14 240 21:47 30.07.2022
2409 Clouds 24 1016 58 10000 4.63 240 20:56 30.07.2022
2410 Clouds 25 1016 57 10000 5.14 260 19:58 30.07.2022
2411 Clouds 25 1016 56 10000 4.63 260 18:51 30.07.2022
2412 Clouds 25 1016 53 10000 4.12 240 17:41 30.07.2022
2413 Clouds 26 1017 48 10000 4.63 260 15:49 30.07.2022
2414 Clouds 25 1017 49 10000 4.12 250 15:21 30.07.2022
2415 Clouds 24 1018 54 10000 4.12 250 12:55 30.07.2022
2416 Clouds 23 1018 55 10000 3.6 230 11:55 30.07.2022
2417 Clouds 21 1018 62 10000 3.6 250 10:31 30.07.2022
2418 Clouds 20 1018 66 10000 3.6 230 09:47 30.07.2022
2419 Clouds 17 1018 80 10000 1.54 0 07:55 30.07.2022
2420 Clouds 18 1020 70 10000 1.54 180 02:37 30.07.2022
2421 Clouds 18 1019 68 10000 1.79 171 01:49 30.07.2022
2422 Clouds 21 1019 61 10000 5.66 100 22:25 29.07.2022
2423 Clouds 23 1018 55 10000 6.17 90 21:24 29.07.2022
2424 Clouds 24 1018 50 10000 6.69 90 20:35 29.07.2022
2425 Clouds 26 1017 36 10000 1.54 330 17:59 29.07.2022
2426 Clouds 26 1018 39 10000 1.54 0 15:27 29.07.2022
2427 Clouds 24 1018 44 10000 2.57 0 13:19 29.07.2022
2428 Clouds 21 1018 55 10000 1.79 344 11:22 29.07.2022
2429 Clouds 17 1018 79 10000 1.54 40 08:50 29.07.2022
2430 Clouds 15 1017 84 10000 1.03 0 07:54 29.07.2022
2431 Clouds 16 1018 72 10000 2.57 40 01:58 29.07.2022
2432 Clouds 18 1017 65 10000 4.63 80 22:53 28.07.2022
2433 Clouds 19 1017 56 10000 6.17 100 21:28 28.07.2022
2434 Clouds 21 1017 52 10000 6.17 100 20:32 28.07.2022
2435 Clouds 22 1017 49 10000 6.69 90 19:44 28.07.2022
2436 Clouds 22 1017 49 10000 6.69 90 19:24 28.07.2022
2437 Clouds 22 1016 49 10000 7.2 100 17:44 28.07.2022
2438 Clouds 23 1016 48 10000 7.2 90 16:57 28.07.2022
2439 Clouds 23 1016 48 10000 7.2 90 16:36 28.07.2022
2440 Clouds 23 1017 48 10000 6.69 90 13:35 28.07.2022
2441 Clouds 21 1017 50 10000 6.17 120 11:42 28.07.2022
2442 Clouds 15 1017 82 10000 1.54 60 06:59 28.07.2022
2443 Clouds 15 1017 80 10000 2.57 50 05:33 28.07.2022
2444 Clouds 15 1017 78 10000 2.57 60 03:53 28.07.2022
2445 Clouds 18 1018 62 10000 5.14 90 22:56 27.07.2022
2446 Clouds 19 1018 59 10000 5.66 90 21:29 27.07.2022
2447 Clouds 20 1018 57 10000 6.17 90 19:46 27.07.2022
2448 Clouds 20 1019 56 10000 6.69 100 18:41 27.07.2022
2449 Clouds 20 1020 62 10000 6.69 110 16:31 27.07.2022
2450 Clouds 21 1020 59 10000 5.66 100 15:41 27.07.2022
2451 Clouds 21 1020 59 10000 6.17 90 14:41 27.07.2022
2452 Clouds 20 1020 58 10000 3.09 130 13:29 27.07.2022
2453 Clouds 17 1020 75 10000 2.68 163 09:27 27.07.2022
2454 Clouds 14 1020 86 10000 2.06 90 07:40 27.07.2022
2455 Clouds 15 1021 83 10000 3.09 130 02:52 27.07.2022
2456 Clouds 17 1020 74 10000 6.69 80 22:49 26.07.2022
2457 Clouds 19 1020 66 10000 6.17 80 21:36 26.07.2022
2458 Clouds 20 1019 61 10000 5.66 90 20:49 26.07.2022
2459 Clouds 21 1019 54 10000 3.09 10 19:20 26.07.2022
2460 Clouds 21 1019 50 10000 2.06 340 18:39 26.07.2022
2461 Clouds 21 1019 52 10000 1.54 0 17:46 26.07.2022
2462 Clouds 20 1019 62 10000 3.09 260 15:43 26.07.2022
2463 Clouds 20 1020 60 10000 1.54 290 14:38 26.07.2022
2464 Clouds 18 1019 70 10000 2.06 320 12:25 26.07.2022
2465 Clouds 16 1018 82 10000 2.57 320 09:59 26.07.2022
2466 Clouds 15 1018 84 10000 3.09 310 08:23 26.07.2022
2467 Clouds 17 1015 68 10000 4.63 300 01:52 26.07.2022
2468 Clouds 18 1015 67 10000 6.69 300 00:19 26.07.2022
2469 Clouds 20 1013 65 10000 5.66 290 22:40 25.07.2022
2470 Clouds 21 1012 59 10000 5.66 270 21:43 25.07.2022
2471 Clouds 21 1012 60 10000 6.17 280 20:43 25.07.2022
2472 Clouds 21 1011 59 10000 7.2 260 20:23 25.07.2022
2473 Clouds 22 1011 57 10000 6.69 250 19:24 25.07.2022
2474 Clouds 22 1010 56 10000 6.69 270 17:37 25.07.2022
2475 Clouds 23 1010 55 10000 7.2 260 16:44 25.07.2022
2476 Clouds 21 1009 62 10000 8.23 250 13:22 25.07.2022
2477 Clouds 20 1008 65 10000 7.72 240 10:54 25.07.2022
2478 Clouds 18 1007 78 10000 5.14 230 07:53 25.07.2022
2479 Clouds 20 1009 77 10000 5.66 240 00:57 25.07.2022
2480 Clouds 21 1009 67 10000 6.17 230 23:45 24.07.2022
2481 Clouds 22 1010 57 10000 5.66 240 22:44 24.07.2022
2482 Rain 22 1010 56 10000 5.66 240 21:41 24.07.2022
2483 Clouds 23 1010 52 10000 7.72 220 20:59 24.07.2022
2484 Clouds 24 1010 50 10000 7.72 220 20:41 24.07.2022
2485 Clouds 26 1010 45 10000 6.71 172 19:20 24.07.2022
2486 Clear 27 1011 42 10000 6.69 210 17:57 24.07.2022
2487 Clear 28 1012 43 10000 8.23 210 15:55 24.07.2022
2488 Clear 28 1013 44 10000 7.72 210 14:57 24.07.2022
2489 Clouds 27 1013 44 10000 8.23 210 13:49 24.07.2022
2490 Clouds 25 1014 49 10000 6.69 220 12:28 24.07.2022
2491 Clouds 24 1014 56 10000 5.14 210 11:30 24.07.2022
2492 Clouds 21 1015 70 10000 5.14 220 09:55 24.07.2022
2493 Clouds 18 1015 80 10000 6.69 230 08:22 24.07.2022
2494 Clouds 18 1015 81 10000 4.12 230 07:41 24.07.2022
2495 Clouds 18 1016 82 10000 4.63 220 03:18 24.07.2022
2496 Clouds 20 1017 72 10000 5.14 220 23:25 23.07.2022
2497 Clouds 22 1017 61 10000 5.66 240 20:47 23.07.2022
2498 Clouds 24 1017 53 10000 5.14 240 19:30 23.07.2022
2499 Clouds 25 1017 50 10000 5.66 220 18:40 23.07.2022
2500 Clouds 26 1017 46 10000 7.2 250 17:28 23.07.2022
2501 Clouds 26 1017 40 10000 5.66 240 16:29 23.07.2022
2502 Clouds 27 1018 37 10000 4.12 230 15:22 23.07.2022
2503 Clouds 26 1018 36 10000 4.47 44 14:55 23.07.2022
2504 Clouds 26 1018 38 10000 4.63 240 14:24 23.07.2022
2505 Clouds 23 1019 48 10000 5.14 260 12:22 23.07.2022
2506 Clouds 21 1018 63 10000 3.6 230 10:44 23.07.2022
2507 Clouds 19 1018 74 10000 2.57 230 09:53 23.07.2022
2508 Clouds 17 1018 83 10000 2.06 230 08:30 23.07.2022
2509 Clouds 16 1018 84 10000 2.06 130 03:38 23.07.2022
2510 Clouds 17 1019 81 10000 4.12 110 00:39 23.07.2022
2511 Clouds 18 1018 73 10000 6.69 90 21:41 22.07.2022
2512 Clouds 20 1018 69 10000 5.66 100 20:33 22.07.2022
2513 Clouds 20 1018 66 10000 6.17 100 19:32 22.07.2022
2514 Clouds 20 1018 66 10000 2.24 121 18:23 22.07.2022
2515 Clouds 20 1020 60 10000 6.69 110 16:46 22.07.2022
2516 Clouds 20 1019 62 10000 7.72 90 14:40 22.07.2022
2517 Clouds 19 1020 67 10000 7.2 100 10:59 22.07.2022
2518 Clouds 18 1020 74 10000 6.69 90 09:25 22.07.2022
2519 Clouds 17 1020 76 10000 5.14 110 08:29 22.07.2022
2520 Clouds 17 1021 77 10000 5.66 80 05:18 22.07.2022
2521 Clouds 18 1022 76 10000 6.69 90 00:40 22.07.2022
2522 Clouds 20 1022 74 10000 6.17 90 22:25 21.07.2022
2523 Clouds 20 1021 73 10000 6.17 90 21:29 21.07.2022
2524 Clouds 22 1021 60 10000 5.66 80 19:26 21.07.2022
2525 Clouds 23 1022 56 10000 3.13 250 17:39 21.07.2022
2526 Clouds 23 1022 56 10000 2.57 40 17:19 21.07.2022
2527 Clouds 24 1021 58 10000 2.57 330 14:55 21.07.2022
2528 Clouds 24 1021 58 10000 2.57 300 14:31 21.07.2022
2529 Clouds 23 1021 63 10000 3.58 313 12:28 21.07.2022
2530 Clouds 21 1021 69 10000 2.06 330 11:19 21.07.2022
2531 Clouds 19 1020 76 10000 2.68 314 09:33 21.07.2022
2532 Clouds 18 1020 79 10000 3.09 290 08:50 21.07.2022
2533 Clouds 17 1020 82 10000 3.09 290 07:42 21.07.2022
2534 Clouds 17 1019 83 10000 3.6 300 04:46 21.07.2022
2535 Clouds 19 1018 81 10000 6.17 300 00:43 21.07.2022
2536 Clouds 22 1017 72 10000 6.17 300 22:22 20.07.2022
2537 Clouds 23 1015 67 10000 6.17 290 20:55 20.07.2022
2538 Clouds 25 1015 58 10000 4.63 270 19:52 20.07.2022
2539 Clouds 25 1015 55 10000 5.14 260 19:24 20.07.2022
2540 Clouds 26 1015 54 10000 5.14 260 18:51 20.07.2022
2541 Clouds 26 1015 53 10000 4.63 250 18:22 20.07.2022
2542 Clouds 26 1015 53 10000 6.17 250 16:45 20.07.2022
2543 Clouds 25 1016 54 10000 5.66 250 15:32 20.07.2022
2544 Clouds 26 1014 54 10000 5.14 250 14:20 20.07.2022
2545 Clouds 23 1015 64 10000 6.17 240 11:37 20.07.2022
2546 Clouds 21 1015 76 10000 5.66 220 09:41 20.07.2022
2547 Clouds 19 1012 83 10000 4.63 230 04:36 20.07.2022
2548 Clouds 23 1011 70 10000 5.66 240 00:52 20.07.2022
2549 Clouds 24 1011 63 10000 5.14 240 23:41 19.07.2022
2550 Rain 26 1011 54 10000 5.66 240 22:33 19.07.2022
2551 Rain 29 1009 42 10000 6.69 240 21:46 19.07.2022
2552 Rain 32 1008 34 10000 3.09 260 20:48 19.07.2022
2553 Clouds 36 1008 24 10000 4.63 250 19:21 19.07.2022
2554 Clouds 38 1009 20 10000 4.12 150 18:31 19.07.2022
2555 Clouds 38 1009 20 10000 5.14 140 17:49 19.07.2022
2556 Clouds 39 1010 17 10000 6.69 150 14:58 19.07.2022
2557 Clear 35 1012 25 10000 4.63 120 11:58 19.07.2022
2558 Clear 35 1012 25 10000 4.12 120 11:31 19.07.2022
2559 Clear 29 1014 38 10000 2.57 80 09:44 19.07.2022
2560 Clear 27 1013 44 10000 2.57 80 08:42 19.07.2022
2561 Clear 22 1013 54 10000 2.06 60 07:19 19.07.2022
2562 Clear 22 1014 56 10000 2.57 60 05:50 19.07.2022
2563 Clear 22 1014 55 10000 2.06 60 05:18 19.07.2022
2564 Clear 23 1015 48 10000 2.57 80 02:37 19.07.2022
2565 Clear 26 1016 38 10000 1.03 0 23:52 18.07.2022
2566 Clear 27 1016 37 10000 2.06 80 23:19 18.07.2022
2567 Clear 29 1016 29 10000 2.06 160 22:26 18.07.2022
2568 Clear 32 1016 25 10000 3.09 170 21:20 18.07.2022
2569 Clouds 34 1016 23 10000 3.6 160 20:22 18.07.2022
2570 Clouds 36 1017 21 10000 4.12 150 18:29 18.07.2022
2571 Clouds 36 1018 20 10000 3.09 210 16:34 18.07.2022
2572 Clouds 36 1018 21 10000 3.58 28 15:28 18.07.2022
2573 Clouds 34 1019 26 10000 3.09 230 13:32 18.07.2022
2574 Clouds 31 1020 32 10000 1.54 290 11:44 18.07.2022
2575 Clouds 26 1020 42 10000 1.03 70 09:55 18.07.2022
2576 Clouds 21 1020 62 10000 1.54 80 08:19 18.07.2022
2577 Clouds 18 1021 67 10000 1.54 70 05:35 18.07.2022
2578 Clouds 23 1022 48 10000 3.09 70 23:19 17.07.2022
2579 Clouds 24 1022 39 10000 2.57 110 22:32 17.07.2022
2580 Clouds 26 1023 32 10000 3.6 140 21:40 17.07.2022
2581 Clouds 27 1022 31 10000 3.6 140 20:46 17.07.2022
2582 Clouds 28 1022 31 10000 4.12 130 20:18 17.07.2022
2583 Clouds 29 1023 31 10000 3.09 150 19:25 17.07.2022
2584 Clouds 30 1023 32 10000 4.12 160 17:55 17.07.2022
2585 Clouds 30 1023 31 10000 4.12 140 17:36 17.07.2022
2586 Clouds 30 1023 32 10000 4.63 130 16:45 17.07.2022
2587 Clouds 30 1024 32 10000 4.12 120 16:22 17.07.2022
2588 Clouds 29 1025 35 10000 3.6 130 13:58 17.07.2022
2589 Clouds 28 1025 37 10000 2.57 190 13:24 17.07.2022
2590 Clouds 23 1026 51 10000 1.79 48 10:23 17.07.2022
2591 Clouds 17 1026 72 10000 2.57 100 07:55 17.07.2022
2592 Clouds 18 1025 62 10000 2.06 100 02:36 17.07.2022
2593 Clouds 20 1025 59 10000 3.6 110 00:41 17.07.2022
2594 Clouds 21 1025 56 10000 2.06 150 23:18 16.07.2022
2595 Clouds 25 1024 49 10000 6.69 80 20:53 16.07.2022
2596 Clouds 27 1025 44 10000 7.2 90 18:59 16.07.2022
2597 Clouds 28 1025 40 10000 6.69 90 17:48 16.07.2022
2598 Clouds 27 1025 39 10000 3.6 70 16:24 16.07.2022
2599 Clouds 25 1026 44 10000 2.57 80 13:47 16.07.2022
2600 Clouds 20 1026 60 10000 1.03 0 10:35 16.07.2022
2601 Clouds 18 1025 69 10000 2.06 50 09:29 16.07.2022
2602 Clouds 17 1025 71 10000 1.34 327 08:42 16.07.2022
2603 Clouds 15 1025 77 10000 1.54 10 07:51 16.07.2022
2604 Clouds 16 1024 71 10000 1.54 320 03:40 16.07.2022
2605 Clouds 17 1024 66 10000 3.09 360 01:59 16.07.2022
2606 Clouds 20 1022 55 10000 3.6 300 23:21 15.07.2022
2607 Clouds 21 1022 53 10000 3.6 300 22:38 15.07.2022
2608 Clouds 23 1022 45 10000 4.63 290 21:18 15.07.2022
2609 Clear 25 1022 41 10000 5.14 290 19:59 15.07.2022
2610 Clouds 25 1022 38 10000 6.17 280 18:35 15.07.2022
2611 Clouds 25 1023 35 10000 5.14 260 17:34 15.07.2022
2612 Clear 25 1023 35 10000 4.12 240 14:45 15.07.2022
2613 Clouds 23 1024 41 10000 2.06 0 12:49 15.07.2022
2614 Clouds 20 1025 53 10000 2.57 0 10:54 15.07.2022
2615 Clouds 17 1025 65 10000 2.06 280 09:21 15.07.2022
2616 Clouds 13 1025 75 10000 1.87 333 05:56 15.07.2022
2617 Clouds 17 1025 72 10000 2.06 110 00:52 15.07.2022
2618 Clouds 17 1025 71 10000 3.09 100 00:21 15.07.2022
2619 Clouds 19 1024 53 10000 3.6 40 22:45 14.07.2022
2620 Clouds 21 1024 44 10000 3.09 20 21:46 14.07.2022
2621 Clouds 21 1024 43 10000 4.12 340 21:28 14.07.2022
2622 Clouds 22 1024 43 10000 4.12 340 20:44 14.07.2022
2623 Clouds 23 1023 42 10000 5.66 340 20:20 14.07.2022
2624 Clouds 23 1023 39 10000 4.92 335 19:18 14.07.2022
2625 Clouds 25 1023 37 10000 4.12 310 16:23 14.07.2022
2626 Clouds 25 1023 37 10000 6.17 300 15:32 14.07.2022
2627 Clouds 24 1023 38 10000 2.68 330 13:59 14.07.2022
2628 Clouds 22 1023 44 10000 4.63 310 12:58 14.07.2022
2629 Clouds 22 1023 48 10000 3.6 310 11:54 14.07.2022
2630 Clouds 21 1023 51 10000 4.63 310 11:23 14.07.2022
2631 Clouds 20 1023 58 10000 4.12 330 10:24 14.07.2022
2632 Clouds 16 1022 76 10000 2.57 340 07:50 14.07.2022
2633 Clouds 18 1022 83 10000 4.12 80 01:26 14.07.2022
2634 Clouds 18 1022 82 10000 5.14 80 00:54 14.07.2022
2635 Clouds 21 1022 66 10000 5.66 90 22:57 13.07.2022
2636 Clouds 22 1021 65 10000 5.14 90 22:22 13.07.2022
2637 Clouds 24 1021 56 10000 6.17 100 21:19 13.07.2022
2638 Clouds 26 1020 50 10000 5.66 90 19:58 13.07.2022
2639 Clouds 28 1021 41 10000 4.12 280 17:54 13.07.2022
2640 Clouds 28 1021 40 10000 2.06 0 16:47 13.07.2022
2641 Clouds 28 1022 42 10000 1.54 0 15:43 13.07.2022
2642 Clouds 26 1022 49 10000 2.57 0 13:24 13.07.2022
2643 Clouds 23 1022 57 10000 2.57 350 10:47 13.07.2022
2644 Clouds 23 1022 60 10000 2.06 0 10:28 13.07.2022
2645 Clouds 22 1022 62 10000 2.57 310 09:27 13.07.2022
2646 Clouds 21 1021 64 10000 1.34 338 07:53 13.07.2022
2647 Clouds 22 1021 63 10000 0.45 319 03:34 13.07.2022
2648 Clouds 24 1022 62 10000 0.45 327 00:24 13.07.2022
2649 Clouds 25 1021 57 10000 3.09 210 22:19 12.07.2022
2650 Rain 26 1021 55 10000 3.09 210 21:36 12.07.2022
2651 Rain 27 1021 53 10000 4.12 210 20:42 12.07.2022
2652 Clouds 28 1021 49 10000 4.63 220 19:44 12.07.2022
2653 Clouds 29 1021 44 10000 5.14 220 18:25 12.07.2022
2654 Clouds 30 1022 43 10000 4.63 220 16:20 12.07.2022
2655 Clouds 30 1022 43 10000 4.12 200 14:31 12.07.2022
2656 Clouds 29 1022 44 10000 4.12 180 13:34 12.07.2022
2657 Clouds 27 1023 47 10000 4.63 230 11:48 12.07.2022
2658 Clouds 26 1023 52 10000 2.06 220 10:26 12.07.2022
2659 Clouds 22 1022 64 10000 1.54 70 08:46 12.07.2022
2660 Clouds 20 1023 70 10000 2.06 90 07:48 12.07.2022
2661 Clouds 19 1023 67 10000 1.54 100 05:45 12.07.2022
2662 Clouds 19 1023 67 10000 3.09 110 04:57 12.07.2022
2663 Clouds 21 1023 58 10000 1.54 140 00:54 12.07.2022
2664 Clouds 24 1023 49 10000 3.09 210 22:43 11.07.2022
2665 Clouds 27 1023 44 10000 4.12 200 21:34 11.07.2022
2666 Clouds 28 1022 42 10000 4.63 160 20:32 11.07.2022
2667 Clouds 30 1022 36 10000 2.57 40 19:18 11.07.2022
2668 Clouds 31 1022 34 10000 2.57 60 18:29 11.07.2022
2669 Clear 31 1022 34 10000 1.79 170 16:30 11.07.2022
2670 Clear 31 1023 34 10000 2.57 0 15:28 11.07.2022
2671 Clouds 29 1024 38 10000 2.06 0 13:19 11.07.2022
2672 Clear 26 1024 46 10000 3.6 250 11:24 11.07.2022
2673 Clear 23 1025 52 10000 2.57 270 09:58 11.07.2022
2674 Clear 22 1025 55 10000 1.54 280 09:35 11.07.2022
2675 Clear 20 1024 61 10000 1.03 0 08:32 11.07.2022
2676 Clouds 19 1025 62 10000 2.06 220 01:20 11.07.2022
2677 Clouds 21 1024 58 10000 4.12 220 23:54 10.07.2022
2678 Clouds 23 1025 53 10000 4.12 200 22:47 10.07.2022
2679 Clouds 27 1024 39 10000 2.06 0 20:56 10.07.2022
2680 Clouds 27 1024 38 10000 2.06 0 20:36 10.07.2022
2681 Clouds 29 1024 34 10000 2.24 326 19:38 10.07.2022
2682 Clouds 29 1025 34 10000 2.06 230 18:35 10.07.2022
2683 Clouds 29 1025 35 10000 3.09 250 17:35 10.07.2022
2684 Clouds 28 1026 37 10000 3.6 220 16:24 10.07.2022
2685 Clouds 28 1026 37 10000 3.6 220 16:24 10.07.2022
2686 Clear 28 1026 39 10000 3.09 190 15:20 10.07.2022
2687 Clear 26 1027 46 10000 2.57 260 13:40 10.07.2022
2688 Clear 24 1028 52 10000 3.6 250 12:26 10.07.2022
2689 Clear 20 1028 63 10000 3.09 250 09:57 10.07.2022
2690 Clear 18 1028 71 10000 2.57 240 08:44 10.07.2022
2691 Clear 15 1028 83 10000 1.54 210 07:29 10.07.2022
2692 Clouds 17 1030 79 10000 2.57 90 01:23 10.07.2022
2693 Clouds 20 1030 64 10000 5.66 90 22:27 09.07.2022
2694 Clouds 21 1029 64 10000 6.69 90 21:56 09.07.2022
2695 Clouds 25 1029 46 10000 7.2 100 20:45 09.07.2022
2696 Clear 26 1029 37 10000 2.57 0 18:35 09.07.2022
2697 Clear 26 1030 38 10000 3.09 0 17:33 09.07.2022
2698 Clear 26 1030 39 10000 2.57 0 16:44 09.07.2022
2699 Clear 26 1030 41 10000 3.85 346 15:40 09.07.2022
2700 Clouds 25 1031 46 10000 4.12 320 14:28 09.07.2022
2701 Clouds 24 1031 48 10000 4.63 290 13:49 09.07.2022
2702 Clouds 23 1031 54 10000 4.12 310 12:45 09.07.2022
2703 Clouds 20 1031 68 10000 3.09 350 11:22 09.07.2022
2704 Clouds 19 1031 70 10000 3.6 330 10:22 09.07.2022
2705 Clear 17 1031 80 10000 2.57 310 07:45 09.07.2022
2706 Clear 17 1031 75 10000 2.57 340 04:59 09.07.2022
2707 Clear 19 1031 66 10000 3.09 350 02:33 09.07.2022
2708 Clouds 23 1030 51 10000 3.94 349 22:54 08.07.2022
2709 Clouds 25 1030 43 10000 3.09 310 21:58 08.07.2022
2710 Clouds 26 1030 40 10000 3.6 300 20:41 08.07.2022
2711 Clouds 28 1030 36 10000 3.6 290 19:53 08.07.2022
2712 Clear 29 1031 35 10000 3.09 290 18:26 08.07.2022
2713 Clear 28 1031 38 10000 2.57 0 16:48 08.07.2022
2714 Clouds 27 1032 44 10000 3.6 250 14:54 08.07.2022
2715 Clouds 26 1033 49 10000 2.06 280 13:41 08.07.2022
2716 Clear 23 1033 55 10000 1.54 280 11:59 08.07.2022
2717 Clear 21 1033 63 10000 2.06 190 10:37 08.07.2022
2718 Clear 17 1033 75 10000 2.06 320 08:37 08.07.2022
2719 Clear 13 1032 91 10000 1.45 295 06:50 08.07.2022
2720 Clear 16 1033 76 10000 1.54 220 01:49 08.07.2022
2721 Clear 18 1032 67 10000 3.6 90 23:30 07.07.2022
2722 Clear 20 1032 60 10000 4.12 90 22:35 07.07.2022
2723 Clear 24 1031 45 10000 2.57 20 20:40 07.07.2022
2724 Clouds 24 1031 45 10000 3.6 30 18:23 07.07.2022
2725 Clouds 24 1031 46 10000 3.21 354 16:57 07.07.2022
2726 Clouds 22 1031 54 10000 0.89 66 15:18 07.07.2022
2727 Clouds 19 1030 63 10000 4.63 340 13:25 07.07.2022
2728 Clouds 19 1028 66 10000 4.63 340 12:37 07.07.2022
2729 Clouds 19 1028 66 10000 4.63 340 12:18 07.07.2022
2730 Clouds 18 1028 69 10000 3.6 350 11:29 07.07.2022
2731 Clouds 18 1028 71 10000 3.6 350 10:42 07.07.2022
2732 Clouds 17 1028 72 10000 4.63 350 10:24 07.07.2022
2733 Clouds 17 1026 78 10000 4.63 320 07:40 07.07.2022
2734 Clouds 17 1024 78 10000 5.66 270 04:18 07.07.2022
2735 Clouds 19 1024 68 10000 2.68 307 23:37 06.07.2022
2736 Clouds 20 1024 67 10000 3.13 326 23:19 06.07.2022
2737 Clouds 21 1025 62 10000 6.17 300 22:56 06.07.2022
2738 Clouds 21 1024 63 10000 6.17 300 22:38 06.07.2022
2739 Clouds 22 1024 57 10000 6.17 290 21:27 06.07.2022
2740 Clouds 23 1024 54 10000 4.12 270 19:38 06.07.2022
2741 Clouds 23 1025 54 10000 5.66 280 18:29 06.07.2022
2742 Clouds 22 1026 58 10000 5.14 280 16:19 06.07.2022
2743 Clouds 22 1026 58 10000 6.17 290 14:55 06.07.2022
2744 Clouds 22 1027 62 10000 5.66 280 12:42 06.07.2022
2745 Clouds 20 1027 66 10000 5.14 280 11:49 06.07.2022
2746 Clouds 18 1028 71 10000 3.6 280 10:20 06.07.2022
2747 Clouds 15 1028 71 10000 2.57 290 08:26 06.07.2022
2748 Clouds 14 1028 73 10000 2.06 300 07:23 06.07.2022
2749 Clouds 13 1027 77 10000 1.34 326 05:28 06.07.2022
2750 Clouds 19 1027 61 10000 2.24 322 22:48 05.07.2022
2751 Clouds 20 1026 55 10000 4.63 300 21:59 05.07.2022
2752 Clouds 21 1025 52 10000 6.17 270 20:41 05.07.2022
2753 Clouds 22 1026 51 10000 5.14 290 19:43 05.07.2022
2754 Clouds 22 1025 52 10000 5.14 300 19:22 05.07.2022
2755 Clouds 22 1025 49 10000 5.14 290 17:48 05.07.2022
2756 Clouds 21 1025 51 10000 5.66 300 16:55 05.07.2022
2757 Clouds 21 1025 51 10000 5.14 270 15:37 05.07.2022
2758 Clouds 21 1025 49 10000 3.6 290 14:31 05.07.2022
2759 Clouds 20 1025 52 10000 4.63 290 12:47 05.07.2022
2760 Clouds 19 1025 54 10000 5.14 270 11:49 05.07.2022
2761 Clouds 18 1025 55 10000 4.12 270 10:40 05.07.2022
2762 Clouds 16 1025 67 10000 3.09 290 09:24 05.07.2022
2763 Clear 13 1024 78 10000 2.24 309 07:52 05.07.2022
2764 Clouds 12 1024 81 10000 0.45 328 05:29 05.07.2022
2765 Clouds 12 1023 80 10000 0.89 344 04:24 05.07.2022
2766 Clouds 16 1022 65 10000 2.68 327 00:37 05.07.2022
2767 Clouds 17 1022 59 10000 3.6 290 23:34 04.07.2022
2768 Clouds 18 1021 55 10000 4.12 300 22:47 04.07.2022
2769 Clouds 19 1021 55 10000 4.12 300 21:48 04.07.2022
2770 Clouds 20 1021 54 10000 5.14 280 20:53 04.07.2022
2771 Clouds 21 1020 54 10000 5.14 280 20:34 04.07.2022
2772 Clouds 21 1020 53 10000 4.12 290 19:55 04.07.2022
2773 Clouds 21 1020 53 10000 4.12 290 19:36 04.07.2022
2774 Clouds 22 1020 50 10000 6.69 250 18:18 04.07.2022
2775 Clear 23 1021 46 10000 5.66 260 16:34 04.07.2022
2776 Clear 22 1021 46 10000 5.14 250 15:34 04.07.2022
2777 Clouds 22 1021 47 10000 4.63 230 13:33 04.07.2022
2778 Clouds 21 1022 48 10000 5.66 270 12:33 04.07.2022
2779 Clouds 18 1022 56 10000 3.6 220 10:34 04.07.2022
2780 Clouds 17 1022 60 10000 3.09 0 09:53 04.07.2022
2781 Clouds 14 1022 75 10000 3.09 230 08:31 04.07.2022
2782 Clouds 12 1020 82 10000 1.55 288 05:18 04.07.2022
2783 Clouds 16 1022 72 10000 1.62 291 00:42 04.07.2022
2784 Clouds 17 1021 67 10000 2.57 360 23:25 03.07.2022
2785 Clouds 20 1019 59 10000 4.63 300 20:59 03.07.2022
2786 Clouds 20 1019 59 10000 4.63 300 20:41 03.07.2022
2787 Clouds 21 1019 55 10000 5.14 280 19:42 03.07.2022
2788 Clouds 21 1019 53 10000 3.6 290 19:23 03.07.2022
2789 Clouds 21 1019 49 10000 4.12 290 17:45 03.07.2022
2790 Clouds 22 1019 45 10000 4.12 250 16:54 03.07.2022
2791 Clouds 22 1019 47 10000 2.57 0 15:25 03.07.2022
2792 Clouds 22 1020 48 10000 3.09 290 14:37 03.07.2022
2793 Clouds 22 1020 50 10000 3.6 270 13:49 03.07.2022
2794 Clouds 20 1019 58 10000 3.6 260 12:41 03.07.2022
2795 Clouds 18 1019 63 10000 4.12 250 11:40 03.07.2022
2796 Clouds 17 1019 68 10000 4.12 250 10:40 03.07.2022
2797 Clouds 16 1019 72 10000 3.6 250 09:59 03.07.2022
2798 Clouds 13 1019 88 10000 3.09 240 07:37 03.07.2022
2799 Clouds 12 1018 85 10000 4.63 260 05:22 03.07.2022
2800 Clouds 15 1018 80 10000 3.6 250 00:25 03.07.2022
2801 Clouds 16 1018 77 10000 6.69 290 22:36 02.07.2022
2802 Clouds 17 1017 73 10000 6.17 230 21:43 02.07.2022
2803 Clouds 19 1017 61 10000 4.63 230 20:20 02.07.2022
2804 Clouds 20 1017 57 10000 5.66 230 19:49 02.07.2022
2805 Clouds 21 1017 50 10000 5.66 220 17:59 02.07.2022
2806 Clouds 21 1017 49 10000 5.66 220 17:37 02.07.2022
2807 Clouds 22 1018 49 10000 5.66 200 15:37 02.07.2022
2808 Clouds 20 1018 53 10000 5.66 210 12:49 02.07.2022
2809 Clouds 19 1019 55 10000 5.66 200 11:48 02.07.2022
2810 Clouds 18 1019 62 10000 6.17 210 10:50 02.07.2022
2811 Clouds 16 1020 72 10000 5.66 230 09:49 02.07.2022
2812 Clouds 15 1019 81 10000 3.6 210 08:37 02.07.2022
2813 Clouds 14 1019 83 10000 3.6 210 08:19 02.07.2022
2814 Clear 13 1020 85 10000 2.57 220 02:53 02.07.2022
2815 Clouds 15 1019 72 10000 3.6 220 00:27 02.07.2022
2816 Clouds 16 1019 68 10000 0.89 304 22:59 01.07.2022
2817 Clouds 17 1018 64 10000 4.63 230 22:29 01.07.2022
2818 Clouds 17 1018 61 10000 5.14 260 21:37 01.07.2022
2819 Clouds 18 1018 58 10000 5.66 240 20:58 01.07.2022
2820 Clouds 18 1017 56 10000 6.17 240 20:20 01.07.2022
2821 Clouds 19 1017 53 10000 5.66 230 19:36 01.07.2022
2822 Clouds 21 1017 49 10000 6.17 250 16:41 01.07.2022
2823 Clouds 19 1016 58 10000 6.69 250 14:29 01.07.2022
2824 Clouds 19 1017 57 10000 4.63 260 13:39 01.07.2022
2825 Clouds 17 1016 68 10000 6.69 260 10:54 01.07.2022
2826 Clouds 16 1015 72 10000 4.63 240 10:19 01.07.2022
2827 Clouds 12 1015 89 10000 2.57 220 06:31 01.07.2022
2828 Clouds 12 1014 88 10000 2.57 220 02:43 01.07.2022
2829 Clouds 12 1014 88 10000 2.57 220 02:43 01.07.2022
2830 Clouds 13 1013 83 10000 2.95 236 23:52 30.06.2022
2831 Clouds 14 1013 79 10000 3.2 235 22:51 30.06.2022
2832 Clouds 14 1013 76 10000 3.6 240 22:32 30.06.2022
2833 Clouds 15 1013 76 10000 2.57 290 21:54 30.06.2022
2834 Clouds 16 1013 68 10000 5.66 220 20:49 30.06.2022
2835 Clouds 17 1013 62 10000 5.14 220 20:21 30.06.2022
2836 Clouds 18 1012 60 10000 5.14 220 19:48 30.06.2022
2837 Clouds 19 1012 55 10000 5.14 190 18:56 30.06.2022
2838 Clouds 19 1012 55 10000 4.63 200 18:22 30.06.2022
2839 Clouds 19 1012 56 10000 4.63 170 17:34 30.06.2022
2840 Clouds 18 1012 62 10000 4.12 170 16:20 30.06.2022
2841 Clouds 18 1012 66 10000 4.63 180 14:20 30.06.2022
2842 Clouds 18 1012 63 10000 3.09 220 13:29 30.06.2022
2843 Clouds 17 1012 65 10000 3.09 190 12:34 30.06.2022
2844 Clouds 16 1012 69 10000 3.09 220 11:21 30.06.2022
2845 Clouds 16 1012 78 10000 3.09 250 09:52 30.06.2022
2846 Clouds 15 1012 81 10000 4.12 250 09:29 30.06.2022
2847 Clouds 14 1011 88 10000 2.57 230 07:41 30.06.2022
2848 Clouds 14 1011 92 10000 2.57 220 05:47 30.06.2022
2849 Rain 15 1012 79 10000 3.09 210 00:27 30.06.2022
2850 Rain 16 1012 73 10000 4.12 210 22:58 29.06.2022
2851 Rain 16 1012 72 10000 4.12 210 22:37 29.06.2022
2852 Clouds 17 1011 66 10000 4.63 200 21:34 29.06.2022
2853 Clouds 18 1011 63 10000 5.14 210 20:33 29.06.2022
2854 Clouds 19 1011 60 10000 4.63 190 19:36 29.06.2022
2855 Clouds 20 1011 58 10000 4.63 0 17:42 29.06.2022
2856 Clouds 21 1012 60 10000 4.63 170 16:36 29.06.2022
2857 Clouds 20 1012 71 10000 3.6 200 14:56 29.06.2022
2858 Clouds 18 1012 84 10000 4.12 170 12:39 29.06.2022
2859 Clouds 16 1012 84 10000 4.12 160 10:56 29.06.2022
2860 Clouds 16 1013 82 9000 3.6 210 09:32 29.06.2022
2861 Clouds 15 1013 81 10000 2.57 180 07:39 29.06.2022
2862 Clouds 15 1014 76 10000 4.12 150 04:51 29.06.2022
2863 Clouds 16 1015 65 10000 2.06 150 00:58 29.06.2022
2864 Clouds 16 1015 64 10000 2.06 150 00:36 29.06.2022
2865 Clouds 17 1016 61 10000 3.6 150 22:54 28.06.2022
2866 Clouds 17 1015 60 10000 1.34 159 22:30 28.06.2022
2867 Clouds 18 1016 56 10000 3.6 210 21:54 28.06.2022
2868 Clouds 18 1016 55 10000 3.6 210 21:32 28.06.2022
2869 Clouds 19 1015 53 10000 5.14 220 20:35 28.06.2022
2870 Clouds 20 1016 49 10000 4.63 200 19:34 28.06.2022
2871 Clouds 21 1016 47 10000 5.14 200 18:53 28.06.2022
2872 Clouds 21 1016 47 10000 5.66 190 17:40 28.06.2022
2873 Clear 21 1017 47 10000 5.66 210 15:59 28.06.2022
2874 Clear 21 1017 46 10000 5.66 210 15:38 28.06.2022
2875 Clouds 20 1018 51 10000 5.14 210 14:21 28.06.2022
2876 Clouds 20 1018 51 10000 5.14 210 14:21 28.06.2022
2877 Clouds 20 1018 55 10000 6.69 210 13:52 28.06.2022
2878 Clouds 19 1018 59 10000 6.17 210 12:57 28.06.2022
2879 Clouds 18 1019 61 10000 5.66 170 11:18 28.06.2022
2880 Clouds 16 1020 72 10000 4.12 200 09:30 28.06.2022
2881 Clouds 15 1020 79 10000 3.6 200 08:44 28.06.2022
2882 Clouds 13 1019 86 10000 2.57 210 07:42 28.06.2022
2883 Clouds 12 1019 87 10000 3.09 200 07:19 28.06.2022
2884 Clouds 13 1020 78 10000 4.12 230 01:32 28.06.2022
2885 Clouds 15 1019 68 10000 4.63 240 23:42 27.06.2022
2886 Clouds 16 1019 65 10000 4.63 230 22:54 27.06.2022
2887 Clouds 17 1018 63 10000 5.14 230 21:38 27.06.2022
2888 Clouds 18 1018 58 10000 6.17 250 20:53 27.06.2022
2889 Clouds 18 1017 57 10000 5.14 240 19:36 27.06.2022
2890 Clouds 18 1017 58 10000 6.69 250 18:33 27.06.2022
2891 Rain 16 1018 74 10000 9.77 260 16:36 27.06.2022
2892 Clouds 18 1016 60 10000 6.17 250 15:24 27.06.2022
2893 Rain 18 1015 62 10000 7.2 240 13:39 27.06.2022
2894 Rain 19 1015 56 10000 5.14 230 12:56 27.06.2022
2895 Clouds 18 1015 56 10000 5.14 210 10:41 27.06.2022
2896 Clear 16 1015 67 10000 4.63 200 09:23 27.06.2022
2897 Clear 15 1015 77 10000 3.09 220 08:31 27.06.2022
2898 Clouds 13 1015 84 10000 2.06 220 07:38 27.06.2022
2899 Clouds 12 1015 82 10000 2.06 210 04:21 27.06.2022
2900 Clouds 14 1015 73 10000 2.57 190 01:19 27.06.2022
2901 Clouds 16 1014 59 10000 1.34 182 22:47 26.06.2022
2902 Clouds 19 1013 49 10000 5.14 200 20:55 26.06.2022
2903 Clouds 19 1013 46 10000 6.17 210 19:59 26.06.2022
2904 Clouds 20 1013 44 10000 6.69 220 18:32 26.06.2022
2905 Clouds 21 1013 44 10000 6.69 200 17:33 26.06.2022
2906 Clouds 21 1012 45 10000 6.17 190 15:31 26.06.2022
2907 Clear 20 1013 48 10000 6.17 210 13:55 26.06.2022
2908 Clear 19 1013 51 10000 6.69 210 13:23 26.06.2022
2909 Clouds 18 1012 53 10000 6.69 210 11:31 26.06.2022
2910 Clouds 17 1012 61 10000 6.17 220 10:29 26.06.2022
2911 Clouds 17 1012 65 10000 6.17 200 09:45 26.06.2022
2912 Clear 13 1011 83 10000 3.6 160 07:46 26.06.2022
2913 Clouds 12 1011 85 10000 2.06 180 03:19 26.06.2022
2914 Clouds 14 1010 83 10000 3.6 190 00:36 26.06.2022
2915 Clouds 14 1010 82 10000 3.6 190 00:18 26.06.2022
2916 Rain 15 1010 79 10000 4.12 180 23:24 25.06.2022
2917 Clouds 15 1009 78 10000 5.14 170 22:28 25.06.2022
2918 Clouds 16 1009 76 10000 5.14 170 21:52 25.06.2022
2919 Rain 16 1009 71 10000 6.17 150 21:20 25.06.2022
2920 Clouds 17 1008 63 10000 5.14 170 20:32 25.06.2022
2921 Clouds 18 1008 59 10000 7.2 140 19:55 25.06.2022
2922 Clouds 18 1008 59 10000 7.2 140 19:55 25.06.2022
2923 Clouds 18 1008 59 10000 7.2 140 19:55 25.06.2022
2924 Clouds 19 1008 52 10000 6.69 190 18:22 25.06.2022
2925 Clouds 20 1009 51 10000 5.14 190 17:25 25.06.2022
2926 Clouds 20 1009 50 10000 6.69 170 16:25 25.06.2022
2927 Clouds 19 1009 53 10000 6.17 170 14:28 25.06.2022
2928 Clouds 19 1009 52 10000 6.17 220 12:43 25.06.2022
2929 Clouds 18 1009 59 10000 5.14 170 11:39 25.06.2022
2930 Clouds 16 1009 75 10000 4.63 200 09:24 25.06.2022
2931 Clouds 15 1008 83 10000 5.14 200 08:49 25.06.2022
2932 Clouds 14 1008 86 10000 4.63 200 08:20 25.06.2022
2933 Clouds 12 1007 91 10000 3.07 211 06:26 25.06.2022
2934 Clouds 16 1004 90 9000 5.66 160 00:44 25.06.2022
2935 Clouds 16 1004 89 9000 5.66 160 00:44 25.06.2022
2936 Rain 17 1004 77 10000 4.12 160 23:46 24.06.2022
2937 Clouds 18 1004 71 10000 4.12 180 22:22 24.06.2022
2938 Clouds 18 1004 68 10000 7.2 220 21:22 24.06.2022
2939 Clouds 19 1004 65 10000 5.66 210 20:23 24.06.2022
2940 Clouds 20 1004 66 10000 5.66 210 19:24 24.06.2022
2941 Clouds 20 1004 66 10000 6.17 210 18:51 24.06.2022
2942 Clouds 20 1004 66 10000 6.69 200 18:31 24.06.2022
2943 Clouds 20 1004 65 10000 5.66 200 17:47 24.06.2022
2944 Clouds 21 1004 64 10000 5.14 200 16:34 24.06.2022
2945 Clouds 21 1004 60 10000 5.14 210 14:30 24.06.2022
2946 Clouds 21 1005 62 10000 6.69 200 13:58 24.06.2022
2947 Clouds 21 1005 63 10000 6.17 210 12:49 24.06.2022
2948 Clouds 21 1005 63 10000 5.66 230 11:40 24.06.2022
2949 Clouds 19 1005 68 10000 4.63 240 10:34 24.06.2022
2950 Clouds 18 1006 74 10000 4.63 240 09:41 24.06.2022
2951 Clouds 16 1006 80 10000 4.63 240 08:53 24.06.2022
2952 Clouds 16 1006 80 10000 4.63 240 08:53 24.06.2022
2953 Clouds 15 1006 86 10000 3.09 210 07:56 24.06.2022
2954 Clouds 14 1005 88 10000 0.45 146 06:42 24.06.2022
2955 Clouds 15 1006 87 10000 2.57 210 06:18 24.06.2022
2956 Clouds 15 1006 84 10000 4.12 230 03:47 24.06.2022
2957 Clouds 19 1008 78 10000 3.6 220 23:19 23.06.2022
2958 Clouds 20 1008 75 10000 4.12 0 22:40 23.06.2022
2959 Clouds 22 1007 65 10000 4.12 190 20:59 23.06.2022
2960 Clouds 23 1007 64 10000 4.63 200 20:36 23.06.2022
2961 Clouds 24 1008 61 10000 3.09 210 19:40 23.06.2022
2962 Clouds 24 1008 54 10000 2.57 0 17:54 23.06.2022
2963 Clouds 24 1008 55 10000 2.57 0 17:33 23.06.2022
2964 Clouds 24 1009 61 10000 1.03 0 16:23 23.06.2022
2965 Clouds 23 1009 62 10000 3.09 120 15:25 23.06.2022
2966 Clouds 21 1010 70 10000 1.03 0 13:46 23.06.2022
2967 Clouds 18 1011 85 10000 1.34 336 11:27 23.06.2022
2968 Rain 17 1011 84 8000 2.68 308 10:40 23.06.2022
2969 Clouds 16 1012 78 10000 2.06 350 09:19 23.06.2022
2970 Clear 14 1012 85 10000 2.06 60 03:51 23.06.2022
2971 Clear 17 1014 73 10000 4.12 90 00:27 23.06.2022
2972 Clear 18 1014 69 10000 4.12 90 23:49 22.06.2022
2973 Clear 19 1013 64 10000 5.14 100 22:50 22.06.2022
2974 Clear 21 1013 56 10000 5.66 100 21:28 22.06.2022
2975 Clear 23 1013 52 10000 6.69 100 20:48 22.06.2022
2976 Clear 23 1013 52 10000 6.69 110 20:18 22.06.2022
2977 Clear 25 1013 47 10000 6.69 110 18:57 22.06.2022
2978 Clear 26 1013 44 10000 6.69 110 17:31 22.06.2022
2979 Clear 25 1013 43 10000 7.2 100 16:40 22.06.2022
2980 Clear 26 1013 42 10000 6.69 90 15:28 22.06.2022
2981 Clear 25 1014 42 10000 6.69 90 14:41 22.06.2022
2982 Clear 25 1014 43 10000 4.63 90 13:46 22.06.2022
2983 Clear 24 1015 43 10000 4.12 80 13:24 22.06.2022
2984 Clear 23 1015 42 10000 4.12 90 11:50 22.06.2022
2985 Clear 23 1015 42 10000 4.12 90 11:50 22.06.2022
2986 Clear 21 1015 47 10000 2.24 82 10:58 22.06.2022
2987 Clear 20 1015 53 10000 2.57 70 10:26 22.06.2022
2988 Clear 17 1015 75 10000 2.57 80 08:57 22.06.2022
2989 Clear 12 1014 87 10000 2.06 40 06:39 22.06.2022
2990 Clouds 14 1015 76 10000 3.09 90 01:52 22.06.2022
2991 Clouds 16 1014 71 10000 4.63 90 00:56 22.06.2022
2992 Clouds 19 1014 53 10000 4.12 80 22:40 21.06.2022
2993 Clouds 23 1014 37 10000 4.63 100 20:40 21.06.2022
2994 Clouds 24 1013 35 10000 4.63 80 19:20 21.06.2022
2995 Clouds 24 1014 35 10000 5.14 60 17:47 21.06.2022
2996 Clouds 24 1014 35 10000 3.09 80 16:36 21.06.2022
2997 Clouds 20 1015 50 10000 3.6 100 11:56 21.06.2022
2998 Clouds 18 1016 58 10000 3.09 80 10:38 21.06.2022
2999 Clouds 15 1016 70 10000 1.54 360 09:20 21.06.2022
3000 Clouds 12 1016 89 10000 1.54 350 07:44 21.06.2022
3001 Clouds 10 1017 90 10000 1.28 125 04:43 21.06.2022
3002 Clouds 14 1018 74 10000 5.14 80 00:21 21.06.2022
3003 Clouds 17 1019 65 10000 5.66 90 22:21 20.06.2022
3004 Clouds 17 1019 65 10000 5.66 90 22:21 20.06.2022
3005 Clouds 18 1018 59 10000 6.17 110 21:37 20.06.2022
3006 Clear 21 1018 51 10000 6.17 90 20:28 20.06.2022
3007 Clear 21 1018 48 10000 5.14 90 19:36 20.06.2022
3008 Clear 22 1019 45 10000 2.57 0 18:26 20.06.2022
3009 Clear 22 1019 46 10000 2.06 0 17:49 20.06.2022
3010 Clouds 21 1019 45 10000 3.09 50 16:26 20.06.2022
3011 Clouds 21 1020 47 10000 6.17 60 15:30 20.06.2022
3012 Clouds 18 1020 51 10000 3.6 30 12:32 20.06.2022
3013 Clouds 16 1020 59 10000 4.12 50 10:21 20.06.2022
3014 Clouds 16 1020 59 10000 4.12 50 10:21 20.06.2022
3015 Clear 14 1019 72 10000 3.09 30 08:56 20.06.2022
3016 Clouds 13 1019 77 10000 2.57 40 07:52 20.06.2022
3017 Clouds 12 1018 80 10000 2.57 40 05:21 20.06.2022
3018 Clouds 13 1017 80 10000 4.63 60 01:33 20.06.2022
3019 Clouds 14 1016 87 10000 3.6 50 00:19 20.06.2022
3020 Clouds 14 1016 86 10000 3.6 50 22:43 19.06.2022
3021 Rain 15 1016 83 10000 5.66 80 21:48 19.06.2022
3022 Rain 15 1015 76 10000 5.66 80 21:29 19.06.2022
3023 Clouds 16 1015 69 10000 5.66 60 20:30 19.06.2022
3024 Rain 18 1014 59 10000 4.63 50 19:47 19.06.2022
3025 Clouds 19 1014 54 10000 4.12 50 18:43 19.06.2022
3026 Clouds 19 1014 53 10000 3.6 50 17:48 19.06.2022
3027 Clouds 19 1014 53 10000 4.63 60 17:22 19.06.2022
3028 Clouds 19 1014 52 10000 4.12 50 16:34 19.06.2022
3029 Clouds 19 1015 51 10000 4.12 60 15:41 19.06.2022
3030 Clouds 18 1015 54 10000 4.63 60 14:56 19.06.2022
3031 Clouds 17 1015 55 10000 3.6 60 14:19 19.06.2022
3032 Clouds 17 1016 55 10000 1.79 53 12:56 19.06.2022
3033 Clouds 15 1014 63 10000 5.14 10 10:55 19.06.2022
3034 Clouds 14 1015 75 10000 3.6 40 09:46 19.06.2022
3035 Clouds 12 1015 81 10000 2.06 40 08:47 19.06.2022
3036 Clouds 11 1016 85 10000 3.09 340 07:59 19.06.2022
3037 Clouds 10 1015 88 10000 4.12 340 05:37 19.06.2022
3038 Clouds 11 1016 88 10000 2.68 355 01:29 19.06.2022
3039 Rain 12 1017 88 10000 4.63 350 00:24 19.06.2022
3040 Rain 13 1017 86 10000 5.14 300 23:36 18.06.2022
3041 Clouds 14 1016 77 10000 3.6 0 22:39 18.06.2022
3042 Clouds 14 1018 83 10000 5.36 333 20:57 18.06.2022
3043 Clouds 14 1018 85 10000 5.36 350 20:38 18.06.2022
3044 Clouds 15 1018 80 10000 5.66 340 19:38 18.06.2022
3045 Clouds 16 1016 76 10000 5.66 50 18:45 18.06.2022
3046 Clouds 17 1018 74 10000 3.6 0 17:35 18.06.2022
3047 Clouds 18 1017 72 10000 4.63 60 16:56 18.06.2022
3048 Clouds 21 1017 73 10000 4.63 50 15:37 18.06.2022
3049 Clouds 21 1017 74 10000 4.12 50 14:46 18.06.2022
3050 Clouds 24 1018 65 10000 2.68 340 13:30 18.06.2022
3051 Rain 24 1018 60 10000 3.6 90 11:56 18.06.2022
3052 Clouds 23 1018 62 10000 4.63 80 10:56 18.06.2022
3053 Clouds 21 1019 70 10000 3.6 60 09:28 18.06.2022
3054 Clouds 20 1019 74 10000 2.06 10 08:30 18.06.2022
3055 Clouds 19 1018 78 10000 2.57 50 07:20 18.06.2022
3056 Clear 20 1019 75 10000 2.06 250 03:58 18.06.2022
3057 Clear 22 1019 65 10000 2.57 269 01:26 18.06.2022
3058 Clear 23 1019 60 10000 3.6 230 00:49 18.06.2022
3059 Clear 23 1018 61 10000 2.5 276 00:21 18.06.2022
3060 Clear 24 1018 55 10000 0.89 153 23:29 17.06.2022
3061 Clear 28 1018 39 10000 5.14 230 21:33 17.06.2022
3062 Clouds 30 1018 39 10000 7.2 230 20:29 17.06.2022
3063 Clouds 31 1018 36 10000 7.72 230 18:59 17.06.2022
3064 Clouds 32 1018 36 10000 6.69 240 17:47 17.06.2022
3065 Clouds 32 1018 36 10000 7.2 230 16:43 17.06.2022
3066 Clouds 32 1018 35 10000 6.69 220 16:19 17.06.2022
3067 Clouds 31 1018 36 10000 6.69 230 15:37 17.06.2022
3068 Clouds 30 1019 37 10000 7.72 210 14:23 17.06.2022
3069 Clouds 30 1019 38 10000 7.2 230 13:57 17.06.2022
3070 Clouds 30 1019 38 10000 7.2 230 13:37 17.06.2022
3071 Clouds 27 1020 44 10000 6.17 230 12:24 17.06.2022
3072 Clouds 27 1020 44 10000 5.66 210 11:50 17.06.2022
3073 Clouds 26 1020 44 10000 5.66 210 11:32 17.06.2022
3074 Clouds 21 1021 55 10000 3.09 250 08:56 17.06.2022
3075 Clouds 19 1021 62 10000 1.54 230 08:25 17.06.2022
3076 Clouds 16 1021 73 10000 1.03 0 06:42 17.06.2022
3077 Clouds 18 1022 67 10000 2.06 150 03:42 17.06.2022
3078 Clouds 19 1022 65 10000 1.73 170 01:55 17.06.2022
3079 Clouds 21 1022 54 10000 2.57 210 23:35 16.06.2022
3080 Clear 22 1022 52 10000 3.6 220 22:41 16.06.2022
3081 Clouds 24 1022 47 10000 5.14 210 21:21 16.06.2022
3082 Clouds 25 1021 46 10000 5.14 200 20:51 16.06.2022
3083 Clouds 26 1021 43 10000 3.6 200 20:27 16.06.2022
3084 Clouds 28 1021 38 10000 3.6 180 19:31 16.06.2022
3085 Clouds 29 1022 32 10000 1.54 80 17:57 16.06.2022
3086 Clouds 29 1022 31 10000 1.54 80 17:33 16.06.2022
3087 Clouds 28 1022 31 10000 2.06 0 16:30 16.06.2022
3088 Clouds 28 1022 33 10000 3.6 250 15:21 16.06.2022
3089 Clouds 27 1023 34 10000 3.6 220 14:28 16.06.2022
3090 Clouds 26 1022 39 10000 1.79 158 12:59 16.06.2022
3091 Clouds 26 1022 40 10000 1.54 280 12:35 16.06.2022
3092 Clouds 25 1022 45 10000 1.54 0 11:49 16.06.2022
3093 Clouds 23 1022 51 10000 1.79 156 10:51 16.06.2022
3094 Clouds 21 1022 59 10000 1.03 0 09:43 16.06.2022
3095 Clouds 19 1022 67 10000 0.89 321 09:20 16.06.2022
3096 Clouds 16 1022 74 10000 1.03 0 07:57 16.06.2022
3097 Clouds 15 1021 79 10000 1.54 240 07:24 16.06.2022
3098 Clouds 14 1021 79 10000 1.03 0 04:33 16.06.2022
3099 Clouds 16 1020 72 10000 2.06 140 02:19 16.06.2022
3100 Clouds 16 1020 71 10000 1.54 200 01:35 16.06.2022
3101 Clouds 16 1020 71 10000 1.54 200 01:35 16.06.2022
3102 Clouds 17 1020 68 10000 2.57 90 00:39 16.06.2022
3103 Clouds 18 1019 63 10000 4.63 80 23:33 15.06.2022
3104 Clouds 21 1019 56 10000 5.14 80 22:35 15.06.2022
3105 Clouds 22 1018 49 10000 5.66 90 21:21 15.06.2022
3106 Clouds 23 1018 48 10000 6.69 80 20:42 15.06.2022
3107 Clouds 24 1019 46 10000 6.69 80 20:23 15.06.2022
3108 Clouds 24 1018 44 10000 6.69 80 19:20 15.06.2022
3109 Clouds 26 1018 38 10000 6.17 90 17:56 15.06.2022
3110 Clouds 27 1018 36 10000 6.17 90 17:25 15.06.2022
3111 Clouds 27 1019 36 10000 2.57 0 15:37 15.06.2022
3112 Clouds 26 1019 36 10000 3.13 133 14:18 15.06.2022
3113 Clouds 24 1019 42 10000 2.57 0 12:54 15.06.2022
3114 Clouds 23 1019 47 10000 2.57 90 11:58 15.06.2022
3115 Clouds 20 1019 61 10000 1.54 60 10:24 15.06.2022
3116 Clouds 19 1019 67 10000 1.54 90 09:43 15.06.2022
3117 Clouds 16 1019 77 10000 1.03 0 08:40 15.06.2022
3118 Clouds 12 1018 85 10000 2.06 60 06:34 15.06.2022
3119 Clouds 11 1019 82 10000 1.18 80 04:46 15.06.2022
3120 Clouds 14 1019 72 10000 2.06 120 01:54 15.06.2022
3121 Clouds 15 1019 68 10000 1.54 110 00:50 15.06.2022
3122 Clouds 17 1019 64 10000 4.12 140 23:39 14.06.2022
3123 Clouds 17 1019 63 10000 3.09 100 23:21 14.06.2022
3124 Clouds 19 1018 58 10000 5.66 100 22:23 14.06.2022
3125 Clouds 20 1018 55 10000 6.17 100 21:40 14.06.2022
3126 Clouds 21 1018 53 10000 6.69 90 20:56 14.06.2022
3127 Clear 22 1018 46 10000 6.17 80 20:31 14.06.2022
3128 Clear 24 1019 41 10000 3.13 122 19:20 14.06.2022
3129 Clear 25 1019 38 10000 2.57 0 18:25 14.06.2022
3130 Clear 24 1020 39 10000 3.09 240 16:48 14.06.2022
3131 Clear 24 1020 41 10000 4.92 151 15:50 14.06.2022
3132 Clear 24 1020 41 10000 3.6 130 15:28 14.06.2022
3133 Clear 23 1021 42 10000 2.57 0 14:40 14.06.2022
3134 Clouds 22 1021 43 10000 3.09 0 13:46 14.06.2022
3135 Clouds 21 1022 47 10000 4.12 140 12:48 14.06.2022
3136 Clear 20 1022 50 10000 3.6 170 11:46 14.06.2022
3137 Clear 19 1023 52 10000 3.6 0 10:49 14.06.2022
3138 Clear 18 1023 54 10000 2.06 0 10:25 14.06.2022
3139 Clear 15 1022 75 10000 2.06 230 08:49 14.06.2022
3140 Clouds 13 1023 83 10000 2.57 220 07:58 14.06.2022
3141 Clear 10 1023 87 10000 1.25 184 05:56 14.06.2022
3142 Clear 11 1023 84 10000 1.18 150 03:36 14.06.2022
3143 Clouds 13 1023 77 10000 1.09 114 01:36 14.06.2022
3144 Clouds 15 1025 70 10000 1.16 100 23:51 13.06.2022
3145 Clouds 17 1023 57 10000 2.06 0 22:27 13.06.2022
3146 Clouds 18 1023 53 10000 1.54 10 21:59 13.06.2022
3147 Clouds 19 1023 49 10000 3.09 280 21:24 13.06.2022
3148 Clouds 20 1024 46 10000 2.24 324 19:42 13.06.2022
3149 Clouds 21 1024 43 10000 3.09 290 18:45 13.06.2022
3150 Clouds 21 1024 42 10000 2.57 280 17:52 13.06.2022
3151 Clouds 21 1025 44 10000 1.54 0 17:21 13.06.2022
3152 Clouds 20 1025 45 10000 4.63 260 16:22 13.06.2022
3153 Clouds 20 1025 45 10000 2.57 230 14:48 13.06.2022
3154 Clouds 19 1025 45 10000 3.09 260 14:18 13.06.2022
3155 Clouds 19 1026 48 10000 3.09 270 13:28 13.06.2022
3156 Clouds 18 1026 51 10000 2.68 306 11:50 13.06.2022
3157 Clouds 17 1026 58 10000 3.09 0 10:36 13.06.2022
3158 Clouds 16 1026 63 10000 4.63 300 09:43 13.06.2022
3159 Clouds 14 1025 74 10000 3.6 300 08:34 13.06.2022
3160 Clear 11 1024 81 10000 1.79 320 06:35 13.06.2022
3161 Clear 11 1023 76 10000 1.34 312 04:35 13.06.2022
3162 Clouds 13 1023 65 10000 2.24 316 01:45 13.06.2022
3163 Clouds 14 1023 61 10000 4.63 300 01:18 13.06.2022
3164 Clouds 16 1023 51 10000 5.36 294 23:43 12.06.2022
3165 Clouds 17 1022 48 10000 6.17 300 22:36 12.06.2022
3166 Clouds 18 1022 50 10000 5.14 300 21:46 12.06.2022
3167 Clouds 19 1022 49 10000 6.69 280 20:53 12.06.2022
3168 Clouds 20 1022 46 10000 6.17 270 19:58 12.06.2022
3169 Clouds 21 1021 44 10000 6.17 270 19:25 12.06.2022
3170 Clouds 21 1022 44 10000 5.14 270 17:36 12.06.2022
3171 Clouds 21 1023 46 10000 5.66 250 15:52 12.06.2022
3172 Clouds 20 1023 48 10000 5.66 270 14:51 12.06.2022
3173 Clouds 20 1024 49 10000 4.63 240 14:19 12.06.2022
3174 Clouds 20 1024 51 10000 5.66 250 13:46 12.06.2022
3175 Clouds 19 1024 54 10000 4.63 270 12:31 12.06.2022
3176 Clouds 18 1024 60 10000 4.63 270 11:19 12.06.2022
3177 Clouds 17 1024 66 10000 4.12 270 10:20 12.06.2022
3178 Clouds 15 1024 78 10000 4.12 250 08:52 12.06.2022
3179 Clouds 14 1024 79 10000 4.12 250 08:33 12.06.2022
3180 Clouds 11 1024 87 10000 4.12 240 06:49 12.06.2022
3181 Clouds 12 1024 80 10000 5.14 260 04:35 12.06.2022
3182 Clouds 13 1023 71 10000 0.89 309 02:33 12.06.2022
3183 Clouds 14 1024 69 10000 0.89 287 01:36 12.06.2022
3184 Clouds 15 1023 64 10000 0.89 304 00:58 12.06.2022
3185 Clouds 16 1024 62 10000 0.89 269 00:20 12.06.2022
3186 Clouds 17 1022 64 10000 3.13 318 23:21 11.06.2022
3187 Clouds 18 1023 69 10000 4.63 240 22:38 11.06.2022
3188 Clouds 18 1023 69 10000 4.63 240 22:38 11.06.2022
3189 Clouds 19 1022 60 10000 5.14 240 21:36 11.06.2022
3190 Clouds 20 1021 57 10000 5.66 250 20:33 11.06.2022
3191 Clouds 21 1021 55 10000 6.69 250 19:39 11.06.2022
3192 Clouds 21 1021 55 10000 5.66 250 18:56 11.06.2022
3193 Clouds 21 1021 54 10000 5.66 250 18:33 11.06.2022
3194 Clear 22 1021 49 10000 6.17 230 17:50 11.06.2022
3195 Clear 22 1021 48 10000 5.66 230 17:26 11.06.2022
3196 Clear 22 1021 47 10000 5.66 250 16:50 11.06.2022
3197 Clear 23 1021 47 10000 7.2 250 16:26 11.06.2022
3198 Clear 22 1021 47 10000 6.17 250 15:27 11.06.2022
3199 Clear 21 1022 49 10000 5.14 240 13:53 11.06.2022
3200 Clear 21 1022 49 10000 5.14 240 13:53 11.06.2022
3201 Clouds 20 1022 56 10000 5.66 250 12:25 11.06.2022
3202 Clouds 18 1022 66 10000 5.14 240 10:46 11.06.2022
3203 Clear 17 1022 71 10000 5.66 240 09:43 11.06.2022
3204 Clear 15 1022 78 10000 5.14 240 08:51 11.06.2022
3205 Clear 12 1021 92 10000 3.6 240 06:47 11.06.2022
3206 Clouds 12 1021 91 10000 4.12 230 06:24 11.06.2022
3207 Clouds 13 1020 86 10000 4.12 240 03:46 11.06.2022
3208 Clear 14 1020 82 10000 4.12 230 01:52 11.06.2022
3209 Clear 14 1019 82 10000 0.89 318 01:27 11.06.2022
3210 Clear 16 1020 72 10000 5.14 230 23:34 10.06.2022
3211 Clear 17 1019 67 10000 6.69 230 22:31 10.06.2022
3212 Clear 18 1018 64 10000 6.17 220 21:50 10.06.2022
3213 Clear 19 1018 58 10000 5.66 220 20:40 10.06.2022
3214 Clear 20 1018 57 10000 6.69 220 20:21 10.06.2022
3215 Clear 21 1018 53 10000 6.69 220 19:19 10.06.2022
3216 Clouds 22 1018 53 10000 6.69 200 18:55 10.06.2022
3217 Clouds 22 1018 53 10000 6.17 220 17:55 10.06.2022
3218 Clouds 22 1018 53 10000 6.17 220 17:55 10.06.2022
3219 Clouds 22 1018 53 10000 6.17 220 17:33 10.06.2022
3220 Clouds 23 1018 53 10000 6.17 210 16:47 10.06.2022
3221 Clouds 23 1018 53 10000 5.66 230 15:40 10.06.2022
3222 Clouds 23 1019 52 10000 4.63 200 14:34 10.06.2022
3223 Clouds 21 1019 56 10000 5.14 240 13:23 10.06.2022
3224 Clouds 20 1019 59 10000 5.14 240 11:59 10.06.2022
3225 Clouds 19 1019 63 10000 5.14 270 11:25 10.06.2022
3226 Clouds 19 1019 68 10000 5.14 250 10:35 10.06.2022
3227 Clear 17 1019 76 10000 4.12 230 09:21 10.06.2022
3228 Clouds 16 1019 84 10000 3.6 240 07:57 10.06.2022
3229 Clouds 15 1018 89 10000 3.09 230 06:49 10.06.2022
3230 Clouds 15 1018 90 10000 4.12 230 06:30 10.06.2022
3231 Clouds 16 1018 92 10000 3.6 210 05:31 10.06.2022
3232 Clouds 16 1018 90 10000 0.89 168 02:46 10.06.2022
3233 Clouds 16 1018 90 10000 4.12 220 01:37 10.06.2022
3234 Clouds 16 1018 87 10000 5.14 230 23:58 09.06.2022
3235 Clouds 17 1017 83 10000 5.66 220 22:43 09.06.2022
3236 Clouds 17 1017 74 10000 5.14 220 21:44 09.06.2022
3237 Clouds 17 1017 73 10000 5.14 220 21:25 09.06.2022
3238 Clouds 17 1017 71 10000 4.63 210 20:40 09.06.2022
3239 Clouds 17 1017 76 10000 3.09 210 19:51 09.06.2022
3240 Clouds 18 1017 66 10000 0.89 213 18:41 09.06.2022
3241 Clouds 18 1017 73 10000 3.58 206 17:55 09.06.2022
3242 Clouds 20 1017 52 10000 4.63 230 16:28 09.06.2022
3243 Clouds 20 1016 53 10000 5.66 230 15:40 09.06.2022
3244 Clouds 20 1016 56 10000 5.14 240 14:33 09.06.2022
3245 Clouds 19 1016 57 10000 4.63 220 13:44 09.06.2022
3246 Clouds 19 1016 57 10000 3.09 240 13:20 09.06.2022
3247 Clouds 19 1016 58 10000 4.63 250 11:52 09.06.2022
3248 Clouds 18 1015 64 10000 4.12 250 10:36 09.06.2022
3249 Clouds 16 1015 74 10000 4.12 250 09:40 09.06.2022
3250 Clear 16 1015 76 10000 3.6 0 09:21 09.06.2022
3251 Clouds 12 1013 89 10000 3.09 230 07:29 09.06.2022
3252 Clouds 12 1012 88 10000 3.18 256 04:47 09.06.2022
3253 Clear 14 1011 78 10000 0.89 263 01:42 09.06.2022
3254 Clear 16 1009 65 10000 6.17 270 23:24 08.06.2022
3255 Clear 16 1009 63 10000 2.68 312 22:45 08.06.2022
3256 Clouds 17 1008 61 10000 7.72 270 22:25 08.06.2022
3257 Clear 17 1008 58 10000 6.69 260 21:48 08.06.2022
3258 Clouds 19 1007 50 10000 8.23 260 20:33 08.06.2022
3259 Clouds 19 1007 49 10000 5.39 277 19:47 08.06.2022
3260 Clouds 20 1006 47 10000 9.26 260 18:56 08.06.2022
3261 Clouds 21 1005 46 10000 7.2 270 18:22 08.06.2022
3262 Clouds 21 1005 50 10000 7.2 260 16:30 08.06.2022
3263 Clouds 21 1005 56 10000 6.69 260 14:49 08.06.2022
3264 Clouds 20 1005 59 10000 5.14 240 13:36 08.06.2022
3265 Clouds 18 1004 68 10000 6.69 270 11:50 08.06.2022
3266 Clouds 18 1004 70 10000 5.14 250 11:22 08.06.2022
3267 Clouds 17 1004 84 10000 5.14 260 09:47 08.06.2022
3268 Clouds 16 1004 88 10000 4.12 250 09:20 08.06.2022
3269 Clouds 15 1003 96 10000 0.45 319 07:32 08.06.2022
3270 Rain 14 1005 94 10000 3.6 150 05:20 08.06.2022
3271 Rain 15 1008 89 10000 3.6 210 02:38 08.06.2022
3272 Clouds 15 1009 83 10000 4.63 230 23:42 07.06.2022
3273 Clouds 16 1009 81 10000 6.17 220 23:24 07.06.2022
3274 Clouds 16 1009 81 10000 5.14 210 22:39 07.06.2022
3275 Clouds 17 1010 79 10000 5.66 200 21:52 07.06.2022
3276 Clouds 18 1010 79 10000 5.14 210 21:27 07.06.2022
3277 Clouds 18 1010 79 10000 5.14 210 21:27 07.06.2022
3278 Clouds 18 1010 77 10000 4.63 210 20:46 07.06.2022
3279 Clouds 19 1010 77 10000 5.14 200 20:24 07.06.2022
3280 Clouds 19 1010 74 10000 4.63 190 19:19 07.06.2022
3281 Clouds 20 1011 73 10000 4.12 170 17:55 07.06.2022
3282 Clouds 19 1011 75 10000 3.6 160 16:56 07.06.2022
3283 Clouds 19 1011 76 10000 4.47 144 16:33 07.06.2022
3284 Clouds 19 1012 72 10000 4.63 170 15:42 07.06.2022
3285 Clouds 19 1012 72 10000 4.12 200 15:23 07.06.2022
3286 Clouds 19 1012 71 10000 4.63 180 14:46 07.06.2022
3287 Clouds 20 1012 64 10000 1.54 0 13:50 07.06.2022
3288 Clouds 20 1012 61 10000 2.06 300 13:29 07.06.2022
3289 Clouds 20 1013 58 10000 1.54 70 12:39 07.06.2022
3290 Clouds 18 1012 70 10000 1.34 171 11:22 07.06.2022
3291 Clouds 17 1013 75 10000 1.54 0 10:19 07.06.2022
3292 Clouds 13 1013 86 10000 3.09 220 08:36 07.06.2022
3293 Clouds 11 1013 90 10000 2.57 220 07:23 07.06.2022
3294 Clouds 11 1013 87 10000 2.06 230 05:56 07.06.2022
3295 Clouds 13 1014 89 10000 3.09 230 02:48 07.06.2022
3296 Clouds 14 1014 89 10000 0.99 201 00:35 07.06.2022
3297 Clouds 15 1015 86 10000 2.57 240 23:35 06.06.2022
3298 Clouds 15 1015 84 10000 2.57 240 22:45 06.06.2022
3299 Clouds 16 1015 83 10000 0.66 19 21:43 06.06.2022
3300 Clouds 17 1014 77 10000 4.12 250 20:19 06.06.2022
3301 Clouds 16 1015 81 10000 0.45 266 19:23 06.06.2022
3302 Clouds 16 1015 81 10000 1.79 271 18:46 06.06.2022
3303 Clouds 16 1015 78 10000 2.25 257 17:52 06.06.2022
3304 Clouds 16 1015 78 10000 4.12 240 16:48 06.06.2022
3305 Clouds 16 1015 81 10000 3.09 300 15:40 06.06.2022
3306 Clouds 15 1015 81 10000 3.09 280 14:57 06.06.2022
3307 Clouds 14 1015 85 10000 4.12 300 13:37 06.06.2022
3308 Clouds 14 1015 86 10000 4.63 300 12:44 06.06.2022
3309 Clouds 14 1015 88 10000 5.14 280 12:26 06.06.2022
3310 Clouds 13 1015 90 10000 4.63 290 11:45 06.06.2022
3311 Drizzle 12 1014 95 8000 4.63 290 09:46 06.06.2022
3312 Clouds 12 1014 96 2900 4.12 300 08:36 06.06.2022
3313 Rain 12 1013 96 10000 4.63 240 07:43 06.06.2022
3314 Clouds 12 1013 96 10000 4.63 240 06:49 06.06.2022
3315 Rain 12 1014 96 10000 3.6 230 04:36 06.06.2022
3316 Clouds 13 1015 95 10000 4.63 230 01:30 06.06.2022
3317 Rain 13 1015 95 8000 1.03 0 00:55 06.06.2022
3318 Rain 13 1015 95 8000 1.03 0 00:33 06.06.2022
3319 Clouds 13 1016 93 4000 2.57 230 22:59 05.06.2022
3320 Clouds 13 1015 92 7000 1.54 290 22:19 05.06.2022
3321 Clouds 14 1016 87 10000 1.79 324 20:24 05.06.2022
3322 Clouds 15 1015 85 10000 1.54 310 19:23 05.06.2022
3323 Clouds 15 1015 85 10000 2.06 280 18:19 05.06.2022
3324 Clouds 15 1016 86 10000 2.68 327 17:39 05.06.2022
3325 Clouds 15 1016 86 10000 2.57 320 17:20 05.06.2022
3326 Clouds 14 1016 87 9000 2.57 290 16:47 05.06.2022
3327 Clouds 14 1016 89 10000 2.57 310 15:28 05.06.2022
3328 Clouds 14 1016 93 8000 2.06 350 14:21 05.06.2022
3329 Clouds 13 1016 93 6000 2.57 360 11:59 05.06.2022
3330 Clouds 12 1016 95 7000 2.06 350 10:51 05.06.2022
3331 Clouds 12 1016 93 7000 3.09 10 10:24 05.06.2022
3332 Clouds 12 1016 94 6000 2.57 10 09:44 05.06.2022
3333 Clouds 12 1016 93 9000 2.57 50 08:25 05.06.2022
3334 Clouds 12 1016 94 10000 2.24 22 06:47 05.06.2022
3335 Rain 11 1016 93 10000 2.06 0 05:20 05.06.2022
3336 Rain 12 1018 88 10000 3.6 50 02:57 05.06.2022
3337 Rain 13 1019 79 10000 5.66 50 01:24 05.06.2022
3338 Rain 13 1019 79 10000 5.66 50 01:24 05.06.2022
3339 Clouds 14 1020 72 10000 5.14 50 23:43 04.06.2022
3340 Clouds 16 1020 63 10000 7.2 70 21:31 04.06.2022
3341 Clouds 18 1019 60 10000 8.23 80 19:49 04.06.2022
3342 Clouds 19 1020 57 10000 9.77 90 17:50 04.06.2022
3343 Clouds 20 1020 54 10000 8.75 80 16:22 04.06.2022
3344 Clouds 20 1021 54 10000 8.23 70 15:54 04.06.2022
3345 Clear 19 1021 56 10000 7.72 80 14:36 04.06.2022
3346 Clouds 14 1021 76 10000 6.17 60 11:48 04.06.2022
3347 Clouds 13 1021 81 10000 5.14 60 10:57 04.06.2022
3348 Clouds 13 1021 81 10000 5.14 50 10:22 04.06.2022
3349 Rain 13 1021 81 10000 4.12 60 09:41 04.06.2022
3350 Clouds 13 1021 80 10000 5.14 60 08:40 04.06.2022
3351 Clouds 13 1020 80 10000 4.63 50 07:39 04.06.2022
3352 Clouds 13 1020 78 10000 4.63 60 04:38 04.06.2022
3353 Rain 15 1020 68 10000 5.14 70 00:56 04.06.2022
3354 Rain 15 1020 70 10000 5.14 60 23:53 03.06.2022
3355 Rain 17 1019 64 10000 6.17 60 22:30 03.06.2022
3356 Rain 18 1019 57 10000 5.66 70 21:21 03.06.2022
3357 Clouds 19 1018 55 10000 6.17 70 20:33 03.06.2022
3358 Clouds 21 1018 46 10000 7.72 90 17:58 03.06.2022
3359 Clouds 21 1018 45 10000 8.23 90 16:47 03.06.2022
3360 Clouds 23 1018 41 10000 6.69 90 15:18 03.06.2022
3361 Clouds 22 1018 48 10000 5.14 90 13:20 03.06.2022
3362 Clouds 20 1018 62 10000 3.09 90 11:19 03.06.2022
3363 Clouds 16 1018 76 10000 3.6 80 09:38 03.06.2022
3364 Clouds 14 1018 81 10000 1.54 20 08:58 03.06.2022
3365 Clouds 12 1018 88 10000 1.54 20 07:26 03.06.2022
3366 Clouds 11 1018 88 10000 2.06 360 06:35 03.06.2022
3367 Clouds 11 1018 87 10000 1.54 360 05:52 03.06.2022
3368 Clouds 12 1020 81 10000 4.12 80 00:30 03.06.2022
3369 Clouds 14 1020 69 10000 5.14 80 22:45 02.06.2022
3370 Clouds 16 1019 58 10000 5.14 80 21:51 02.06.2022
3371 Clouds 18 1019 48 10000 6.17 90 20:22 02.06.2022
3372 Clouds 18 1019 48 10000 6.17 90 20:22 02.06.2022
3373 Clouds 18 1019 48 10000 6.17 90 20:22 02.06.2022
3374 Clouds 18 1019 50 10000 6.17 100 19:50 02.06.2022
3375 Clouds 19 1019 47 10000 6.69 90 19:31 02.06.2022
3376 Clouds 20 1020 49 10000 5.14 100 17:35 02.06.2022
3377 Clouds 19 1020 50 10000 5.66 90 16:28 02.06.2022
3378 Clouds 19 1020 51 10000 3.09 110 14:22 02.06.2022
3379 Clouds 19 1021 54 10000 3.58 118 13:30 02.06.2022
3380 Clouds 19 1021 54 10000 3.58 118 13:30 02.06.2022
3381 Clouds 18 1021 57 10000 2.68 156 12:21 02.06.2022
3382 Clouds 16 1021 68 10000 2.57 110 10:20 02.06.2022
3383 Clouds 14 1021 80 10000 2.06 90 09:28 02.06.2022
3384 Clear 11 1021 93 10000 2.06 90 08:27 02.06.2022
3385 Clear 9 1021 94 6000 2.57 100 07:34 02.06.2022
3386 Clear 8 1020 91 10000 1.62 79 05:29 02.06.2022
3387 Clear 9 1020 88 10000 2.06 40 03:45 02.06.2022
3388 Clear 13 1020 71 10000 0.45 73 23:55 01.06.2022
3389 Clear 13 1020 66 10000 0.45 72 22:54 01.06.2022
3390 Clear 16 1019 55 10000 2.06 350 21:45 01.06.2022
3391 Clear 17 1019 51 10000 2.06 360 21:20 01.06.2022
3392 Clear 17 1019 50 10000 3.09 350 20:38 01.06.2022
3393 Clouds 18 1018 49 10000 2.06 0 19:48 01.06.2022
3394 Clouds 17 1018 54 10000 2.57 270 17:57 01.06.2022
3395 Clouds 17 1018 56 10000 2.57 300 16:41 01.06.2022
3396 Clouds 16 1018 61 10000 3.13 314 15:37 01.06.2022
3397 Clouds 15 1017 66 10000 5.36 332 14:31 01.06.2022
3398 Clouds 15 1017 65 10000 3.6 270 12:42 01.06.2022
3399 Clouds 13 1017 78 10000 3.09 220 10:41 01.06.2022
3400 Clouds 11 1016 86 10000 2.06 0 09:26 01.06.2022
3401 Clouds 9 1015 92 10000 2.06 250 07:56 01.06.2022
3402 Clouds 7 1015 95 10000 1.78 276 06:49 01.06.2022
3403 Clouds 8 1014 94 10000 2.4 264 01:44 01.06.2022
3404 Clouds 10 1015 91 10000 2.2 274 23:47 31.05.2022
3405 Clouds 11 1014 88 10000 3.09 250 22:38 31.05.2022
3406 Clouds 11 1014 88 10000 3.09 250 22:38 31.05.2022
3407 Clouds 12 1013 86 10000 2.57 220 21:46 31.05.2022
3408 Clouds 12 1013 85 10000 2.57 230 20:57 31.05.2022
3409 Rain 12 1013 85 10000 2.57 230 20:33 31.05.2022
3410 Rain 13 1013 78 10000 3.09 220 18:57 31.05.2022
3411 Clouds 14 1012 77 10000 3.6 270 18:19 31.05.2022
3412 Clouds 14 1012 80 10000 3.6 290 17:35 31.05.2022
3413 Clouds 14 1012 77 10000 2.57 240 15:42 31.05.2022
3414 Rain 14 1012 74 10000 5.14 240 14:36 31.05.2022
3415 Clouds 15 1012 63 10000 4.63 240 12:39 31.05.2022
3416 Clouds 15 1012 65 10000 4.63 230 12:18 31.05.2022
3417 Clouds 12 1012 86 10000 3.6 230 09:53 31.05.2022
3418 Clouds 9 1012 94 10000 3.09 210 07:42 31.05.2022
3419 Clouds 9 1012 94 10000 2.06 0 05:25 31.05.2022
3420 Rain 9 1012 92 10000 2.57 200 03:41 31.05.2022
3421 Clouds 10 1012 91 10000 0.45 147 23:39 30.05.2022
3422 Clouds 10 1013 90 10000 2.57 160 23:18 30.05.2022
3423 Clouds 10 1012 88 10000 2.57 180 22:33 30.05.2022
3424 Clouds 10 1012 89 10000 3.6 200 21:40 30.05.2022
3425 Clouds 11 1013 88 10000 3.09 230 20:43 30.05.2022
3426 Rain 12 1013 74 10000 6.69 240 19:40 30.05.2022
3427 Clouds 14 1013 63 10000 4.12 190 17:53 30.05.2022
3428 Clouds 14 1013 66 10000 4.63 210 17:21 30.05.2022
3429 Clouds 13 1014 72 10000 4.63 230 15:54 30.05.2022
3430 Clouds 15 1013 58 10000 2.06 0 13:26 30.05.2022
3431 Clouds 13 1014 66 10000 3.09 220 11:40 30.05.2022
3432 Clouds 11 1014 73 10000 2.57 210 09:52 30.05.2022
3433 Clouds 8 1014 90 10000 2.06 200 07:51 30.05.2022
3434 Clouds 6 1015 93 10000 0.4 75 06:22 30.05.2022
3435 Clouds 6 1015 90 10000 0.6 70 04:46 30.05.2022
3436 Clouds 9 1016 80 10000 1.96 67 00:43 30.05.2022
3437 Clouds 11 1017 72 10000 3.6 80 22:41 29.05.2022
3438 Clouds 12 1017 68 10000 4.12 100 21:46 29.05.2022
3439 Clouds 13 1017 62 10000 4.12 80 20:23 29.05.2022
3440 Clouds 14 1017 59 10000 7.2 80 19:29 29.05.2022
3441 Clouds 15 1017 55 10000 4.12 40 18:34 29.05.2022
3442 Clouds 15 1018 52 10000 3.6 360 16:25 29.05.2022
3443 Clouds 16 1018 50 10000 4.63 50 15:46 29.05.2022
3444 Clouds 15 1018 51 10000 4.02 16 14:54 29.05.2022
3445 Clouds 15 1019 52 10000 4.12 310 12:57 29.05.2022
3446 Clouds 13 1020 60 10000 4.02 355 11:20 29.05.2022
3447 Clouds 12 1021 64 10000 3.6 360 10:34 29.05.2022
3448 Clouds 10 1021 71 10000 3.6 350 08:31 29.05.2022
3449 Clouds 8 1022 79 10000 2.24 348 04:59 29.05.2022
3450 Clouds 8 1022 78 10000 2.06 340 04:39 29.05.2022
3451 Clouds 9 1023 69 10000 1.54 360 01:52 29.05.2022
3452 Clouds 12 1024 65 10000 2.57 40 23:48 28.05.2022
3453 Clouds 12 1024 64 10000 3.09 50 23:20 28.05.2022
3454 Clouds 13 1024 63 10000 3.6 50 22:21 28.05.2022
3455 Clouds 14 1024 60 10000 4.63 50 21:19 28.05.2022
3456 Clouds 14 1024 61 10000 4.63 50 21:19 28.05.2022
3457 Clouds 16 1023 44 10000 3.6 0 19:21 28.05.2022
3458 Clouds 16 1023 45 10000 3.09 10 18:45 28.05.2022
3459 Clouds 17 1024 48 10000 4.12 50 17:34 28.05.2022
3460 Clouds 17 1024 49 10000 3.13 326 16:22 28.05.2022
3461 Clouds 17 1024 49 10000 3.6 40 15:38 28.05.2022
3462 Clouds 17 1025 51 10000 3.09 350 13:57 28.05.2022
3463 Clouds 16 1026 52 10000 2.57 20 12:43 28.05.2022
3464 Clouds 16 1026 56 10000 2.68 21 11:54 28.05.2022
3465 Clouds 15 1026 60 10000 3.13 346 10:43 28.05.2022
3466 Clouds 13 1026 63 10000 3.6 10 09:56 28.05.2022
3467 Clouds 11 1026 69 10000 4.12 350 08:43 28.05.2022
3468 Clouds 9 1025 77 10000 2.24 329 07:23 28.05.2022
3469 Clouds 9 1026 75 10000 3.69 325 05:24 28.05.2022
3470 Clouds 11 1026 67 10000 2.68 319 02:38 28.05.2022
3471 Clouds 13 1026 60 10000 2.68 314 00:31 28.05.2022
3472 Clouds 15 1026 53 10000 4.12 320 22:50 27.05.2022
3473 Clouds 17 1025 45 10000 4.12 320 21:37 27.05.2022
3474 Clouds 18 1024 43 10000 3.6 320 20:48 27.05.2022
3475 Clouds 19 1024 43 10000 6.17 290 20:21 27.05.2022
3476 Clouds 19 1024 42 10000 6.17 300 19:41 27.05.2022
3477 Clouds 20 1025 40 10000 5.81 311 19:21 27.05.2022
3478 Clouds 20 1024 42 10000 5.14 290 17:34 27.05.2022
3479 Clouds 20 1025 41 10000 5.14 290 16:38 27.05.2022
3480 Clouds 19 1025 42 10000 4.63 300 15:22 27.05.2022
3481 Clouds 18 1025 48 10000 5.66 290 13:44 27.05.2022
3482 Clouds 17 1025 54 10000 3.6 0 12:39 27.05.2022
3483 Clouds 16 1025 59 10000 4.63 300 11:33 27.05.2022
3484 Clouds 15 1025 62 10000 4.63 300 10:54 27.05.2022
3485 Clouds 15 1024 65 10000 4.63 300 10:26 27.05.2022
3486 Clouds 15 1024 72 10000 4.63 310 09:32 27.05.2022
3487 Clouds 13 1023 88 10000 2.24 310 07:42 27.05.2022
3488 Clouds 13 1022 90 10000 4.63 250 05:32 27.05.2022
3489 Clouds 15 1023 84 10000 6.17 250 02:26 27.05.2022
3490 Clouds 16 1022 79 10000 5.66 260 00:26 27.05.2022
3491 Clouds 17 1022 74 10000 7.2 260 22:30 26.05.2022
3492 Clouds 17 1021 71 10000 7.72 270 21:37 26.05.2022
3493 Clouds 19 1021 68 10000 7.2 240 19:58 26.05.2022
3494 Clouds 19 1021 66 10000 7.72 250 19:19 26.05.2022
3495 Clouds 19 1021 65 10000 7.2 250 17:37 26.05.2022
3496 Clouds 20 1021 63 10000 8.75 240 16:36 26.05.2022
3497 Clouds 19 1021 65 10000 7.2 240 15:45 26.05.2022
3498 Clouds 19 1022 66 10000 6.69 250 14:24 26.05.2022
3499 Clouds 17 1022 71 10000 6.17 240 12:36 26.05.2022
3500 Clouds 16 1022 74 10000 6.17 250 11:23 26.05.2022
3501 Clouds 15 1022 78 10000 5.14 250 09:41 26.05.2022
3502 Clouds 14 1021 81 10000 4.12 240 09:23 26.05.2022
3503 Clouds 12 1021 88 10000 4.63 240 07:57 26.05.2022
3504 Clear 11 1020 91 10000 3.39 251 03:53 26.05.2022
3505 Clouds 13 1018 81 10000 0.45 279 00:33 26.05.2022
3506 Clear 14 1018 77 10000 6.17 250 23:40 25.05.2022
3507 Clear 16 1015 67 10000 6.17 250 21:56 25.05.2022
3508 Clear 16 1015 67 10000 7.72 250 21:31 25.05.2022
3509 Clear 17 1014 66 10000 7.72 250 20:35 25.05.2022
3510 Clouds 18 1013 66 10000 8.23 250 19:21 25.05.2022
3511 Clouds 16 1013 85 4600 6.17 250 17:43 25.05.2022
3512 Rain 16 1012 78 10000 8.23 230 16:38 25.05.2022
3513 Clouds 16 1013 76 10000 6.69 230 15:54 25.05.2022
3514 Clouds 16 1012 75 10000 7.2 230 14:51 25.05.2022
3515 Clouds 16 1012 75 10000 7.2 230 14:33 25.05.2022
3516 Clouds 15 1013 77 10000 7.2 230 13:54 25.05.2022
3517 Clouds 14 1013 77 6000 8.23 240 12:39 25.05.2022
3518 Clouds 14 1013 73 10000 5.66 230 10:49 25.05.2022
3519 Clouds 14 1013 77 10000 5.14 230 10:18 25.05.2022
3520 Clouds 12 1012 84 10000 1.34 187 08:37 25.05.2022
3521 Clouds 10 1012 89 10000 0.45 321 07:23 25.05.2022
3522 Clouds 9 1012 87 10000 4.63 240 04:22 25.05.2022
3523 Clear 11 1011 83 10000 3.09 210 00:19 25.05.2022
3524 Clear 11 1011 82 10000 2.57 220 23:43 24.05.2022
3525 Clear 12 1011 79 10000 2.57 200 22:33 24.05.2022
3526 Clear 13 1010 78 10000 3.09 170 21:41 24.05.2022
3527 Clouds 14 1010 74 10000 3.6 200 21:21 24.05.2022
3528 Clouds 15 1009 73 10000 2.57 0 20:23 24.05.2022
3529 Clouds 16 1009 61 10000 5.66 290 18:56 24.05.2022
3530 Clouds 16 1009 61 10000 5.66 290 18:56 24.05.2022
3531 Clouds 16 1008 66 10000 1.54 40 16:58 24.05.2022
3532 Rain 16 1008 66 10000 2.68 308 16:28 24.05.2022
3533 Rain 16 1007 69 10000 2.57 230 15:18 24.05.2022
3534 Rain 15 1007 70 10000 5.14 270 14:25 24.05.2022
3535 Rain 15 1006 65 10000 4.12 260 13:18 24.05.2022
3536 Clouds 14 1005 76 10000 4.63 280 11:49 24.05.2022
3537 Clouds 12 1004 88 10000 3.6 280 09:47 24.05.2022
3538 Clouds 11 1004 93 10000 4.12 240 08:51 24.05.2022
3539 Rain 10 1003 93 10000 4.63 240 06:58 24.05.2022
3540 Clouds 10 1002 92 10000 0.89 314 04:59 24.05.2022
3541 Rain 10 1002 91 10000 5.14 260 02:53 24.05.2022
3542 Rain 11 1002 90 10000 4.12 250 01:44 24.05.2022
3543 Clouds 12 1002 84 10000 3 247 23:44 23.05.2022
3544 Clouds 13 1001 80 10000 2.21 280 22:22 23.05.2022
3545 Clouds 14 1001 80 10000 4.63 270 21:41 23.05.2022
3546 Clouds 14 1001 84 10000 0.89 262 20:45 23.05.2022
3547 Clouds 16 999 56 10000 5.95 269 19:44 23.05.2022
3548 Clouds 18 1000 54 10000 3.6 240 19:18 23.05.2022
3549 Clouds 18 1000 57 10000 3.09 240 18:37 23.05.2022
3550 Clouds 18 1000 65 10000 1.54 0 17:56 23.05.2022
3551 Clouds 15 1001 78 10000 3.6 300 15:54 23.05.2022
3552 Clouds 16 1002 69 10000 2.57 290 13:56 23.05.2022
3553 Clouds 17 1001 69 10000 2.24 331 11:41 23.05.2022
3554 Clouds 16 1003 73 10000 2.06 300 10:45 23.05.2022
3555 Clouds 15 1003 76 10000 2.57 290 09:47 23.05.2022
3556 Clouds 14 1004 76 10000 3.09 250 08:46 23.05.2022
3557 Clouds 14 1004 76 10000 3.09 250 08:46 23.05.2022
3558 Clouds 13 1005 76 10000 2.06 230 06:49 23.05.2022
3559 Clouds 12 1004 77 10000 0.45 336 06:31 23.05.2022
3560 Clouds 13 1007 76 10000 2.57 260 02:55 23.05.2022
3561 Clouds 13 1007 76 10000 0.89 304 01:52 23.05.2022
3562 Clouds 13 1007 76 10000 1.34 216 01:26 23.05.2022
3563 Clouds 16 1009 58 10000 2.57 220 22:49 22.05.2022
3564 Clouds 17 1008 56 10000 2.1 200 22:27 22.05.2022
3565 Clouds 18 1009 51 10000 4.12 210 21:51 22.05.2022
3566 Clouds 20 1008 41 10000 4.63 200 20:43 22.05.2022
3567 Clouds 21 1009 41 10000 4.63 220 20:22 22.05.2022
3568 Clouds 21 1010 37 10000 4.12 200 19:34 22.05.2022
3569 Clouds 22 1010 36 10000 4.12 200 18:50 22.05.2022
3570 Clouds 23 1010 39 10000 3.6 140 18:21 22.05.2022
3571 Clouds 23 1011 45 10000 3.6 170 16:57 22.05.2022
3572 Clouds 23 1012 44 10000 3.58 180 15:34 22.05.2022
3573 Clouds 23 1013 43 10000 2.57 0 14:47 22.05.2022
3574 Clouds 23 1013 43 10000 2.57 0 14:47 22.05.2022
3575 Clouds 21 1014 49 10000 2.68 141 13:21 22.05.2022
3576 Clouds 21 1014 51 10000 2.06 0 12:45 22.05.2022
3577 Clouds 18 1016 58 10000 2.57 80 10:55 22.05.2022
3578 Clouds 16 1017 71 10000 1.54 120 09:40 22.05.2022
3579 Clouds 11 1016 92 10000 1.03 0 07:54 22.05.2022
3580 Clouds 10 1017 93 10000 1.54 230 07:20 22.05.2022
3581 Clouds 10 1017 91 10000 0.9 227 04:59 22.05.2022
3582 Clouds 12 1020 83 10000 1.62 247 01:21 22.05.2022
3583 Clouds 13 1019 79 10000 1.51 246 00:26 22.05.2022
3584 Clouds 13 1019 77 10000 1.51 246 23:47 21.05.2022
3585 Clouds 16 1019 67 10000 0.89 323 22:24 21.05.2022
3586 Clouds 17 1019 58 10000 3.09 260 21:39 21.05.2022
3587 Clouds 18 1019 53 10000 5.14 270 20:48 21.05.2022
3588 Clouds 19 1019 52 10000 4.12 260 20:21 21.05.2022
3589 Clouds 19 1019 52 10000 4.63 270 19:25 21.05.2022
3590 Clouds 20 1020 47 10000 5.14 270 17:47 21.05.2022
3591 Clouds 20 1021 49 10000 4.63 230 15:44 21.05.2022
3592 Clouds 19 1021 54 10000 5.14 270 14:37 21.05.2022
3593 Clouds 19 1021 53 10000 5.14 260 13:41 21.05.2022
3594 Rain 17 1022 60 10000 4.63 250 12:41 21.05.2022
3595 Clouds 17 1022 63 10000 4.63 250 11:56 21.05.2022
3596 Clouds 15 1022 76 10000 4.63 250 10:23 21.05.2022
3597 Clouds 14 1022 77 10000 4.63 250 10:23 21.05.2022
3598 Clouds 13 1022 81 10000 4.12 250 09:38 21.05.2022
3599 Clouds 12 1022 85 10000 5.66 250 08:52 21.05.2022
3600 Clouds 11 1021 88 10000 3.6 240 07:53 21.05.2022
3601 Clouds 11 1021 84 10000 5.14 250 03:48 21.05.2022
3602 Clear 13 1020 75 10000 1.34 273 23:50 20.05.2022
3603 Clouds 14 1018 80 10000 5.66 230 22:56 20.05.2022
3604 Clouds 14 1018 81 10000 6.17 230 22:23 20.05.2022
3605 Clouds 15 1018 79 10000 5.14 230 21:41 20.05.2022
3606 Clouds 15 1017 75 10000 5.66 210 20:54 20.05.2022
3607 Clouds 16 1017 71 10000 5.14 210 19:58 20.05.2022
3608 Clouds 17 1017 68 10000 6.17 240 19:26 20.05.2022
3609 Clouds 17 1017 66 10000 5.66 240 18:44 20.05.2022
3610 Clouds 17 1018 67 10000 5.66 250 16:54 20.05.2022
3611 Clouds 16 1018 72 10000 6.17 260 16:19 20.05.2022
3612 Clouds 15 1017 79 10000 3.6 230 15:44 20.05.2022
3613 Clouds 13 1018 86 10000 4.12 300 14:30 20.05.2022
3614 Rain 12 1018 90 10000 2.06 240 13:55 20.05.2022
3615 Rain 12 1018 87 6000 3.09 230 11:34 20.05.2022
3616 Rain 14 1019 70 10000 3.6 260 09:52 20.05.2022
3617 Clouds 13 1020 70 10000 2.57 210 08:44 20.05.2022
3618 Clouds 12 1020 78 10000 1.87 216 07:18 20.05.2022
3619 Clouds 12 1018 77 10000 1.87 216 06:32 20.05.2022
3620 Clouds 13 1019 74 10000 2.31 234 04:42 20.05.2022
3621 Clouds 15 1021 61 10000 0.45 145 00:48 20.05.2022
3622 Clouds 16 1021 54 10000 1.24 190 22:47 19.05.2022
3623 Clouds 17 1021 58 10000 4.12 200 22:20 19.05.2022
3624 Clouds 19 1020 48 10000 3.09 230 21:48 19.05.2022
3625 Clouds 19 1020 56 10000 3.6 230 21:22 19.05.2022
3626 Clouds 20 1020 44 10000 3.6 0 20:34 19.05.2022
3627 Clouds 21 1019 47 10000 3.09 260 19:50 19.05.2022
3628 Clouds 21 1019 45 10000 4.63 240 18:31 19.05.2022
3629 Clouds 21 1019 42 10000 6.17 260 16:51 19.05.2022
3630 Clouds 21 1019 45 10000 5.14 270 15:19 19.05.2022
3631 Clouds 20 1019 53 10000 5.66 260 14:25 19.05.2022
3632 Clouds 19 1019 59 10000 4.63 280 13:47 19.05.2022
3633 Clouds 17 1018 78 10000 3.09 260 11:41 19.05.2022
3634 Rain 14 1018 90 10000 2.57 300 09:29 19.05.2022
3635 Clouds 14 1017 92 10000 2.57 300 07:52 19.05.2022
3636 Clouds 14 1016 94 10000 2.93 286 06:18 19.05.2022
3637 Clouds 14 1016 95 10000 2.94 286 06:18 19.05.2022
3638 Clouds 16 1015 90 10000 3.09 140 02:27 19.05.2022
3639 Rain 17 1015 75 10000 4.12 100 00:40 19.05.2022
3640 Clouds 18 1016 52 10000 4.12 110 22:53 18.05.2022
3641 Clouds 18 1016 48 10000 4.12 110 22:35 18.05.2022
3642 Clouds 19 1017 43 10000 4.12 130 21:31 18.05.2022
3643 Clouds 20 1017 43 10000 5.66 130 20:50 18.05.2022
3644 Clouds 21 1017 40 10000 5.14 140 20:18 18.05.2022
3645 Clouds 22 1018 37 10000 4.12 170 18:34 18.05.2022
3646 Clouds 23 1019 36 10000 4.63 170 17:41 18.05.2022
3647 Clouds 23 1019 36 10000 4.63 160 17:23 18.05.2022
3648 Clouds 23 1019 42 10000 3.09 180 16:35 18.05.2022
3649 Clouds 23 1020 42 10000 4.63 180 15:42 18.05.2022
3650 Clouds 23 1020 44 10000 4.12 0 14:54 18.05.2022
3651 Clouds 22 1021 49 10000 4.12 160 13:47 18.05.2022
3652 Clouds 20 1021 52 10000 3.09 240 12:51 18.05.2022
3653 Clouds 18 1022 59 10000 2.57 230 11:41 18.05.2022
3654 Clouds 18 1022 62 10000 2.57 250 11:23 18.05.2022
3655 Clouds 15 1021 74 10000 2.57 250 09:57 18.05.2022
3656 Clouds 13 1020 88 10000 3.09 230 07:55 18.05.2022
3657 Clouds 12 1020 89 10000 2.57 220 06:49 18.05.2022
3658 Clouds 15 1019 83 10000 4.63 240 02:44 18.05.2022
3659 Clouds 17 1016 80 10000 0.89 200 00:26 18.05.2022
3660 Rain 18 1016 76 10000 3.71 190 22:57 17.05.2022
3661 Clouds 23 1015 46 10000 5.66 130 21:21 17.05.2022
3662 Clouds 23 1014 43 10000 6.69 140 20:30 17.05.2022
3663 Clouds 24 1014 46 10000 7.15 136 19:29 17.05.2022
3664 Clouds 25 1016 41 10000 5.14 150 17:53 17.05.2022
3665 Clouds 25 1016 42 10000 4.63 170 17:22 17.05.2022
3666 Clouds 25 1017 45 10000 4.63 170 16:36 17.05.2022
3667 Clear 25 1017 50 10000 3.6 140 15:43 17.05.2022
3668 Clouds 25 1018 48 10000 3.09 120 14:31 17.05.2022
3669 Clouds 24 1018 49 10000 3.6 150 13:54 17.05.2022
3670 Clouds 22 1019 56 10000 3.09 150 12:32 17.05.2022
3671 Clouds 17 1019 80 10000 2.06 80 09:53 17.05.2022
3672 Clouds 15 1019 87 10000 2.57 80 08:45 17.05.2022
3673 Clouds 12 1020 90 10000 0.51 0 07:40 17.05.2022
3674 Clouds 12 1020 88 10000 1.38 178 04:34 17.05.2022
3675 Clouds 14 1020 81 10000 2.57 210 00:47 17.05.2022
3676 Clouds 15 1020 76 10000 0.89 161 22:51 16.05.2022
3677 Clouds 16 1017 77 10000 3.12 213 22:30 16.05.2022
3678 Clouds 18 1016 70 10000 1.34 206 20:56 16.05.2022
3679 Clouds 18 1017 68 10000 6.17 230 20:25 16.05.2022
3680 Clouds 20 1017 65 10000 7.2 220 18:41 16.05.2022
3681 Clouds 20 1016 67 10000 7.72 240 16:41 16.05.2022
3682 Clouds 21 1016 61 10000 6.69 240 14:58 16.05.2022
3683 Clouds 19 1016 71 10000 6.17 250 13:34 16.05.2022
3684 Clouds 18 1015 74 10000 6.17 250 12:34 16.05.2022
3685 Clouds 17 1013 82 10000 7.72 240 10:34 16.05.2022
3686 Haze 13 1015 91 4100 1.54 130 07:48 16.05.2022
3687 Haze 13 1014 90 5000 1.03 0 05:44 16.05.2022
3688 Rain 15 1012 87 8000 3.09 100 00:44 16.05.2022
3689 Clouds 16 1012 80 10000 6.17 100 22:44 15.05.2022
3690 Clouds 16 1012 82 10000 5.14 70 21:57 15.05.2022
3691 Clouds 16 1012 82 10000 5.14 90 21:36 15.05.2022
3692 Clouds 16 1012 83 10000 6.17 80 20:43 15.05.2022
3693 Rain 16 1012 88 8000 5.14 80 18:39 15.05.2022
3694 Rain 16 1015 88 9000 4.12 80 16:54 15.05.2022
3695 Rain 17 1017 82 10000 1.54 210 14:29 15.05.2022
3696 Rain 18 1016 72 10000 3.6 90 13:46 15.05.2022
3697 Clouds 18 1015 69 10000 5.88 100 11:59 15.05.2022
3698 Rain 16 1016 77 10000 4.63 80 10:49 15.05.2022
3699 Clouds 15 1017 82 10000 6.17 80 09:51 15.05.2022
3700 Rain 13 1020 80 10000 2.06 50 07:24 15.05.2022
3701 Rain 13 1020 79 10000 1.54 20 06:56 15.05.2022
3702 Clouds 13 1020 77 10000 4.63 90 03:38 15.05.2022
3703 Clouds 15 1021 72 10000 2.57 80 00:26 15.05.2022
3704 Clouds 15 1021 71 10000 3.09 80 23:37 14.05.2022
3705 Clouds 16 1021 68 10000 4.12 90 22:39 14.05.2022
3706 Clouds 18 1019 62 10000 4.63 90 21:26 14.05.2022
3707 Clouds 20 1019 56 10000 5.66 90 20:28 14.05.2022
3708 Clouds 22 1019 45 10000 4.63 90 19:21 14.05.2022
3709 Clouds 22 1019 40 10000 3.09 120 18:59 14.05.2022
3710 Clouds 23 1020 41 10000 4.63 110 17:53 14.05.2022
3711 Clear 22 1020 42 10000 2.06 0 16:23 14.05.2022
3712 Clear 21 1021 47 10000 2.06 300 14:41 14.05.2022
3713 Clouds 21 1021 49 10000 2.24 128 14:22 14.05.2022
3714 Clouds 17 1022 64 10000 2.06 200 11:51 14.05.2022
3715 Clouds 15 1023 69 10000 1.03 0 10:45 14.05.2022
3716 Clouds 14 1023 73 10000 1.03 0 10:19 14.05.2022
3717 Clouds 13 1023 80 10000 2.06 280 09:34 14.05.2022
3718 Clouds 9 1022 90 10000 2.57 230 07:43 14.05.2022
3719 Clouds 8 1021 89 10000 1.92 244 05:21 14.05.2022
3720 Clouds 11 1021 79 10000 2.64 255 01:57 14.05.2022
3721 Clouds 14 1023 72 10000 3.59 265 23:28 13.05.2022
3722 Clouds 14 1023 72 10000 0.45 268 22:56 13.05.2022
3723 Clouds 15 1023 70 10000 0.45 256 22:22 13.05.2022
3724 Clouds 17 1019 62 10000 6.17 260 21:24 13.05.2022
3725 Clouds 18 1019 58 10000 6.17 250 20:43 13.05.2022
3726 Clouds 18 1019 58 10000 6.17 250 20:43 13.05.2022
3727 Clouds 18 1019 58 10000 5.66 250 20:22 13.05.2022
3728 Clouds 20 1019 52 10000 6.69 240 19:21 13.05.2022
3729 Clouds 20 1019 51 10000 6.17 240 17:50 13.05.2022
3730 Clouds 20 1019 50 10000 7.2 250 17:24 13.05.2022
3731 Clouds 20 1019 52 10000 6.69 250 15:53 13.05.2022
3732 Clouds 19 1020 56 10000 7.2 250 14:51 13.05.2022
3733 Clouds 16 1021 64 10000 7.72 250 12:58 13.05.2022
3734 Clouds 15 1021 67 10000 6.17 250 12:25 13.05.2022
3735 Clouds 13 1021 72 10000 5.14 240 10:42 13.05.2022
3736 Clouds 13 1021 73 10000 5.66 240 09:31 13.05.2022
3737 Clouds 12 1019 79 10000 6.17 240 08:23 13.05.2022
3738 Clouds 11 1019 81 10000 6.17 240 07:42 13.05.2022
3739 Clouds 10 1019 82 10000 4.63 240 05:59 13.05.2022
3740 Clouds 12 1020 74 10000 6.69 250 02:43 13.05.2022
3741 Clouds 13 1020 70 10000 3.6 240 23:44 12.05.2022
3742 Clear 13 1020 65 10000 0.89 355 22:44 12.05.2022
3743 Clear 14 1020 59 10000 6.17 250 21:46 12.05.2022
3744 Clouds 15 1018 56 10000 7.72 250 20:25 12.05.2022
3745 Clouds 16 1018 56 10000 6.69 250 18:41 12.05.2022
3746 Clear 18 1018 48 10000 6.17 250 16:58 12.05.2022
3747 Clear 18 1018 49 10000 6.17 260 15:50 12.05.2022
3748 Clouds 17 1019 51 10000 5.66 250 14:20 12.05.2022
3749 Clouds 17 1019 51 10000 7.2 250 13:34 12.05.2022
3750 Clouds 14 1021 74 10000 4.12 250 10:43 12.05.2022
3751 Clouds 12 1020 86 10000 3.6 240 09:24 12.05.2022
3752 Clouds 10 1018 91 10000 3.6 240 08:50 12.05.2022
3753 Clouds 8 1018 93 10000 2.57 230 07:38 12.05.2022
3754 Clear 8 1017 93 10000 4.63 230 05:35 12.05.2022
3755 Clear 9 1016 92 10000 2.13 254 02:49 12.05.2022
3756 Clear 10 1014 89 10000 3.07 267 00:35 12.05.2022
3757 Clear 12 1016 81 10000 3.6 260 22:34 11.05.2022
3758 Clouds 14 1016 78 10000 0.89 324 21:38 11.05.2022
3759 Clouds 14 1014 82 10000 4.12 240 20:55 11.05.2022
3760 Clouds 14 1008 92 10000 5.14 220 18:33 11.05.2022
3761 Rain 14 1012 88 10000 6.69 210 16:53 11.05.2022
3762 Rain 14 1008 88 10000 6.69 210 15:31 11.05.2022
3763 Rain 14 1008 88 10000 6.69 210 15:31 11.05.2022
3764 Rain 14 1008 88 10000 6.69 210 15:31 11.05.2022
3765 Rain 14 1008 88 10000 6.69 210 15:31 11.05.2022
3766 Rain 14 1008 88 10000 6.69 210 15:31 11.05.2022
3767 Rain 14 1017 80 10000 6.69 220 14:38 11.05.2022
3768 Rain 14 1013 80 10000 6.69 220 14:18 11.05.2022
3769 Clouds 15 1014 66 10000 6.69 220 11:54 11.05.2022
3770 Clouds 15 1013 69 10000 6.17 230 10:44 11.05.2022
3771 Clouds 13 1014 78 10000 4.63 210 08:40 11.05.2022
3772 Clouds 12 1011 84 10000 3.6 230 05:28 11.05.2022
3773 Clouds 14 1016 74 10000 3.09 230 00:43 11.05.2022
3774 Clouds 15 1013 71 10000 2.24 266 22:31 10.05.2022
3775 Clouds 16 1013 68 10000 5.14 220 21:57 10.05.2022
3776 Clouds 17 1013 63 10000 1.79 207 20:57 10.05.2022
3777 Clouds 19 1014 52 10000 5.66 240 19:37 10.05.2022
3778 Clouds 20 1014 49 10000 6.69 270 17:58 10.05.2022
3779 Clouds 20 1014 50 10000 6.69 250 17:21 10.05.2022
3780 Clouds 18 1015 68 10000 5.14 230 15:31 10.05.2022
3781 Clouds 15 1015 83 10000 5.14 220 12:45 10.05.2022
3782 Clouds 15 1016 83 10000 4.63 230 11:51 10.05.2022
3783 Clouds 15 1016 81 10000 4.12 230 11:20 10.05.2022
3784 Clouds 15 1015 81 10000 4.12 220 10:53 10.05.2022
3785 Clouds 14 1018 77 10000 0.89 283 09:26 10.05.2022
3786 Clouds 15 1017 65 10000 4.12 230 07:22 10.05.2022
3787 Rain 16 1016 71 10000 4.12 230 04:32 10.05.2022
3788 Clouds 16 1018 66 10000 3.6 180 01:18 10.05.2022
3789 Rain 17 1020 63 10000 3.6 200 22:57 09.05.2022
3790 Clouds 18 1020 63 10000 4.12 200 21:51 09.05.2022
3791 Clouds 18 1020 62 10000 5.14 200 21:18 09.05.2022
3792 Clouds 20 1020 56 10000 6.17 220 19:29 09.05.2022
3793 Clouds 22 1021 52 10000 7.2 210 17:52 09.05.2022
3794 Clouds 21 1022 53 10000 6.69 210 16:38 09.05.2022
3795 Clouds 21 1022 54 10000 5.66 220 15:52 09.05.2022
3796 Clouds 21 1022 55 10000 6.17 200 15:27 09.05.2022
3797 Clouds 21 1023 54 10000 5.66 200 14:32 09.05.2022
3798 Clouds 21 1023 54 10000 4.63 210 13:50 09.05.2022
3799 Clouds 19 1024 55 10000 4.12 170 12:30 09.05.2022
3800 Clouds 18 1024 54 10000 3.09 110 11:43 09.05.2022
3801 Clouds 15 1025 59 10000 2.06 80 10:44 09.05.2022
3802 Clouds 12 1025 70 10000 3.09 70 09:38 09.05.2022
3803 Clouds 8 1026 92 10000 1.54 40 07:55 09.05.2022
3804 Clear 7 1027 89 10000 0.45 92 03:40 09.05.2022
3805 Clear 10 1028 80 10000 4.12 80 00:21 09.05.2022
3806 Clear 11 1029 75 10000 5.14 90 22:57 08.05.2022
3807 Clear 11 1027 70 10000 5.66 100 22:22 08.05.2022
3808 Clear 14 1027 61 10000 6.17 100 20:37 08.05.2022
3809 Clouds 15 1027 57 10000 6.17 100 19:53 08.05.2022
3810 Clouds 16 1027 55 10000 5.66 110 18:59 08.05.2022
3811 Clouds 17 1028 54 10000 5.66 100 18:24 08.05.2022
3812 Clear 18 1028 51 10000 5.14 100 16:59 08.05.2022
3813 Clear 18 1029 54 10000 5.14 90 15:43 08.05.2022
3814 Clear 18 1029 53 10000 5.14 100 15:20 08.05.2022
3815 Clear 16 1028 55 10000 4.63 90 12:41 08.05.2022
3816 Clear 13 1028 65 10000 4.12 80 10:46 08.05.2022
3817 Clear 12 1028 70 10000 3.6 50 10:21 08.05.2022
3818 Clouds 11 1030 75 10000 3.6 60 09:46 08.05.2022
3819 Clouds 10 1029 85 10000 4.12 60 07:33 08.05.2022
3820 Clouds 10 1029 86 10000 4.12 70 04:24 08.05.2022
3821 Clouds 11 1029 85 10000 4.63 90 03:20 08.05.2022
3822 Clouds 12 1027 85 8000 5.14 90 00:29 08.05.2022
3823 Clouds 12 1027 84 10000 5.66 100 23:53 07.05.2022
3824 Clouds 13 1027 80 10000 3.09 110 22:58 07.05.2022
3825 Clouds 13 1027 79 10000 3.09 110 22:34 07.05.2022
3826 Clouds 14 1026 75 10000 4.63 100 21:44 07.05.2022
3827 Clouds 15 1026 70 10000 5.14 100 20:56 07.05.2022
3828 Clouds 16 1026 71 10000 5.14 100 19:59 07.05.2022
3829 Clouds 17 1026 71 10000 6.69 90 18:38 07.05.2022
3830 Clouds 18 1026 67 10000 3.6 340 15:58 07.05.2022
3831 Clouds 17 1026 73 10000 2.68 338 14:44 07.05.2022
3832 Clouds 15 1025 78 10000 2.57 330 10:59 07.05.2022
3833 Clouds 14 1024 84 10000 2.24 329 09:39 07.05.2022
3834 Clouds 13 1024 89 10000 2.06 270 07:54 07.05.2022
3835 Clouds 13 1024 88 10000 2.57 240 06:44 07.05.2022
3836 Clouds 13 1024 88 10000 2.57 220 05:34 07.05.2022
3837 Clouds 13 1024 86 10000 2.11 269 03:32 07.05.2022
3838 Clouds 14 1024 71 10000 5.66 280 23:38 06.05.2022
3839 Rain 15 1024 71 10000 5.14 280 22:32 06.05.2022
3840 Clouds 16 1024 69 10000 5.14 280 21:47 06.05.2022
3841 Clouds 17 1024 66 10000 6.17 290 20:35 06.05.2022
3842 Clouds 18 1023 62 10000 6.17 280 19:42 06.05.2022
3843 Clouds 19 1023 59 10000 6.69 260 19:18 06.05.2022
3844 Clouds 20 1024 51 10000 5.66 270 18:24 06.05.2022
3845 Clouds 23 1024 38 10000 6.69 250 16:57 06.05.2022
3846 Clouds 23 1024 36 10000 4.63 230 15:47 06.05.2022
3847 Clouds 22 1024 37 10000 6.69 260 14:54 06.05.2022
3848 Clouds 21 1025 40 10000 5.66 240 13:31 06.05.2022
3849 Clouds 20 1025 48 10000 4.63 230 12:41 06.05.2022
3850 Clouds 18 1025 59 10000 3.6 250 11:49 06.05.2022
3851 Clouds 15 1025 72 10000 3.09 240 10:34 06.05.2022
3852 Clouds 14 1025 78 10000 3.09 260 09:46 06.05.2022
3853 Clouds 12 1025 84 10000 3.6 240 08:52 06.05.2022
3854 Clouds 10 1026 91 10000 3.09 230 07:26 06.05.2022
3855 Clouds 10 1025 90 10000 1.7 230 05:48 06.05.2022
3856 Clouds 11 1025 83 10000 0.45 163 02:51 06.05.2022
3857 Clouds 12 1025 81 10000 1.37 244 01:57 06.05.2022
3858 Clouds 15 1025 69 10000 2.06 140 22:45 05.05.2022
3859 Clouds 15 1025 69 10000 2.06 140 22:45 05.05.2022
3860 Clouds 17 1025 63 10000 2.57 300 21:31 05.05.2022
3861 Clouds 18 1024 57 10000 2.24 306 20:26 05.05.2022
3862 Clouds 19 1024 52 10000 2.06 0 18:36 05.05.2022
3863 Clouds 19 1024 53 10000 2.57 0 16:40 05.05.2022
3864 Clouds 18 1024 57 10000 2.24 357 14:53 05.05.2022
3865 Clouds 16 1024 61 10000 3.13 324 13:25 05.05.2022
3866 Clouds 16 1024 62 10000 3.09 290 12:53 05.05.2022
3867 Clouds 14 1024 70 10000 3.09 320 10:52 05.05.2022
3868 Clouds 12 1024 80 10000 3.6 300 09:40 05.05.2022
3869 Clear 8 1022 92 10000 3.6 300 07:45 05.05.2022
3870 Clear 7 1021 94 10000 0.89 305 05:42 05.05.2022
3871 Clouds 9 1021 89 10000 0.89 304 02:18 05.05.2022
3872 Clouds 10 1021 87 10000 4.12 280 01:32 05.05.2022
3873 Clouds 12 1020 86 10000 2.06 330 23:53 04.05.2022
3874 Clouds 13 1021 86 10000 2.24 310 22:46 04.05.2022
3875 Clouds 13 1021 87 10000 3.09 270 21:54 04.05.2022
3876 Clouds 13 1020 86 10000 3.09 270 21:29 04.05.2022
3877 Clouds 13 1020 85 10000 2.57 260 20:30 04.05.2022
3878 Clouds 14 1020 85 10000 2.57 300 19:55 04.05.2022
3879 Rain 14 1020 84 10000 2.57 300 19:24 04.05.2022
3880 Rain 16 1019 62 10000 4.12 260 18:22 04.05.2022
3881 Clouds 17 1018 59 10000 3.6 270 17:58 04.05.2022
3882 Clouds 17 1018 66 10000 3.6 240 15:42 04.05.2022
3883 Clouds 16 1019 69 10000 4.63 260 15:24 04.05.2022
3884 Clouds 15 1020 68 10000 4.12 250 14:21 04.05.2022
3885 Clouds 15 1020 67 10000 4.63 260 13:50 04.05.2022
3886 Clouds 15 1021 66 10000 3.09 270 12:34 04.05.2022
3887 Clouds 14 1021 73 6000 4.12 250 10:57 04.05.2022
3888 Haze 12 1021 80 5000 3.09 240 09:46 04.05.2022
3889 Clouds 11 1019 87 6000 3.09 240 08:49 04.05.2022
3890 Clouds 11 1019 89 6000 3.09 230 07:33 04.05.2022
3891 Clouds 10 1020 87 10000 1.54 110 03:50 04.05.2022
3892 Clouds 10 1021 85 10000 2.06 100 01:41 04.05.2022
3893 Clouds 12 1021 83 10000 3.09 100 22:54 03.05.2022
3894 Clouds 13 1021 76 10000 3.09 100 21:47 03.05.2022
3895 Clouds 13 1021 74 10000 4.12 100 21:20 03.05.2022
3896 Clouds 14 1021 73 10000 3.6 100 20:38 03.05.2022
3897 Clouds 15 1022 70 10000 2.06 110 18:55 03.05.2022
3898 Clouds 15 1022 71 10000 2.06 90 18:37 03.05.2022
3899 Clouds 14 1022 71 10000 1.54 120 17:20 03.05.2022
3900 Clouds 14 1022 74 9000 1.54 60 15:48 03.05.2022
3901 Clouds 13 1023 76 7000 2.57 70 14:22 03.05.2022
3902 Clouds 12 1023 79 10000 2.06 360 12:31 03.05.2022
3903 Clouds 12 1023 81 6000 2.06 20 11:23 03.05.2022
3904 Clouds 11 1022 87 6000 1.54 50 10:25 03.05.2022
3905 Clouds 11 1021 88 7000 2.24 359 08:18 03.05.2022
3906 Clouds 11 1021 86 10000 2.06 40 06:45 03.05.2022
3907 Clouds 12 1022 76 10000 1.3 73 01:56 03.05.2022
3908 Clouds 13 1022 69 10000 0.45 136 22:47 02.05.2022
3909 Clouds 14 1022 67 10000 1.03 0 22:28 02.05.2022
3910 Clouds 14 1022 64 10000 1.54 100 21:27 02.05.2022
3911 Clouds 15 1020 59 10000 1.54 0 19:22 02.05.2022
3912 Clouds 16 1020 58 10000 2.06 0 18:25 02.05.2022
3913 Clouds 16 1020 57 10000 2.57 210 17:38 02.05.2022
3914 Clouds 16 1021 59 10000 1.54 160 16:37 02.05.2022
3915 Clouds 15 1021 60 10000 1.54 120 15:41 02.05.2022
3916 Clouds 15 1022 60 10000 2.06 270 14:27 02.05.2022
3917 Clouds 14 1022 63 10000 1.54 160 13:19 02.05.2022
3918 Clouds 13 1022 66 10000 1.34 122 11:41 02.05.2022
3919 Clouds 12 1021 77 10000 1.34 140 09:42 02.05.2022
3920 Clouds 10 1021 84 10000 1.54 210 08:20 02.05.2022
3921 Clouds 9 1021 85 10000 2.06 220 06:31 02.05.2022
3922 Clouds 10 1022 81 10000 3.09 230 00:46 02.05.2022
3923 Clouds 10 1022 79 10000 2.57 220 00:21 02.05.2022
3924 Clouds 11 1022 78 10000 3.6 240 22:54 01.05.2022
3925 Clouds 11 1022 77 10000 0.8 245 21:42 01.05.2022
3926 Clouds 12 1022 68 10000 4.12 210 20:30 01.05.2022
3927 Clouds 12 1022 67 10000 2.57 0 19:22 01.05.2022
3928 Clouds 13 1022 66 10000 3.09 220 18:52 01.05.2022
3929 Clouds 13 1023 65 10000 3.6 0 17:49 01.05.2022
3930 Clouds 13 1023 67 10000 3.09 280 16:37 01.05.2022
3931 Rain 14 1023 68 10000 3.6 300 15:51 01.05.2022
3932 Rain 13 1023 64 10000 5.66 270 14:45 01.05.2022
3933 Clouds 15 1024 51 10000 3.6 240 12:40 01.05.2022
3934 Rain 13 1024 58 10000 2.57 240 10:22 01.05.2022
3935 Clouds 12 1024 68 10000 2.06 230 08:50 01.05.2022
3936 Clouds 10 1024 73 10000 2.57 230 06:50 01.05.2022
3937 Rain 11 1026 74 10000 3.6 240 02:31 01.05.2022
3938 Clouds 13 1026 67 10000 3.6 210 22:51 30.04.2022
3939 Clouds 14 1026 59 10000 2.57 100 21:33 30.04.2022
3940 Clouds 14 1026 59 10000 2.57 100 21:33 30.04.2022
3941 Clouds 15 1025 44 10000 3.09 70 20:19 30.04.2022
3942 Clouds 17 1026 41 10000 1.03 0 19:30 30.04.2022
3943 Clouds 17 1027 41 10000 2.06 150 17:32 30.04.2022
3944 Clouds 17 1028 46 10000 3.09 200 15:53 30.04.2022
3945 Clouds 16 1028 48 10000 2.06 180 15:19 30.04.2022
3946 Clear 16 1029 50 10000 2.57 150 14:19 30.04.2022
3947 Clear 12 1031 61 10000 2.57 130 11:58 30.04.2022
3948 Clear 12 1031 63 10000 3.09 130 11:31 30.04.2022
3949 Clear 10 1031 70 10000 3.6 90 10:25 30.04.2022
3950 Clear 6 1031 83 10000 2.06 30 08:25 30.04.2022
3951 Clouds 5 1031 79 10000 2.57 50 04:58 30.04.2022
3952 Clouds 7 1032 68 10000 2.06 50 00:25 30.04.2022
3953 Clouds 9 1032 63 10000 4.63 60 22:56 29.04.2022
3954 Clouds 9 1032 64 10000 3.09 50 22:21 29.04.2022
3955 Clouds 10 1031 61 10000 3.6 50 21:26 29.04.2022
3956 Clouds 10 1031 58 10000 3.6 40 20:24 29.04.2022
3957 Clouds 11 1031 59 10000 4.63 60 19:28 29.04.2022
3958 Clouds 11 1031 57 10000 3.09 30 17:37 29.04.2022
3959 Clouds 11 1031 61 10000 4.63 50 16:43 29.04.2022
3960 Clouds 11 1032 59 10000 4.12 50 14:38 29.04.2022
3961 Clouds 11 1032 56 10000 4.63 340 13:52 29.04.2022
3962 Clouds 10 1032 59 10000 3.13 342 12:41 29.04.2022
3963 Clouds 10 1032 64 10000 4.12 60 10:56 29.04.2022
3964 Clouds 6 1032 85 10000 3.09 50 07:58 29.04.2022
3965 Clouds 6 1031 90 10000 2.06 50 07:26 29.04.2022
3966 Clouds 6 1031 90 10000 2.06 10 06:34 29.04.2022
3967 Clouds 8 1032 81 10000 2.57 50 03:23 29.04.2022
3968 Rain 9 1032 75 10000 5.14 70 00:18 29.04.2022
3969 Clouds 9 1032 75 10000 5.14 80 23:26 28.04.2022
3970 Clouds 10 1032 74 10000 5.14 80 22:37 28.04.2022
3971 Clouds 10 1032 73 10000 5.14 90 21:45 28.04.2022
3972 Clouds 11 1031 69 10000 5.14 90 20:49 28.04.2022
3973 Clouds 12 1031 67 10000 5.66 90 19:57 28.04.2022
3974 Clouds 12 1031 68 10000 5.66 90 19:39 28.04.2022
3975 Clouds 12 1031 66 10000 5.66 90 19:19 28.04.2022
3976 Clouds 13 1031 63 10000 5.14 90 17:56 28.04.2022
3977 Clouds 14 1031 60 10000 4.63 90 16:59 28.04.2022
3978 Clouds 14 1031 60 10000 4.63 80 16:21 28.04.2022
3979 Clouds 14 1031 59 10000 4.63 90 15:56 28.04.2022
3980 Clouds 14 1031 60 10000 4.63 90 15:23 28.04.2022
3981 Clouds 13 1032 60 10000 4.63 90 13:43 28.04.2022
3982 Clouds 12 1031 62 10000 4.63 90 12:37 28.04.2022
3983 Clouds 11 1032 63 10000 4.63 80 11:51 28.04.2022
3984 Clouds 10 1031 65 10000 5.14 80 10:30 28.04.2022
3985 Clouds 10 1031 68 10000 5.14 60 09:51 28.04.2022
3986 Clouds 7 1031 80 10000 3.09 50 08:20 28.04.2022
3987 Clouds 5 1030 84 10000 1.54 50 06:56 28.04.2022
3988 Clouds 6 1030 82 10000 2.06 50 05:54 28.04.2022
3989 Clouds 7 1030 79 10000 3.09 50 04:44 28.04.2022
3990 Clouds 7 1030 78 10000 3.6 60 03:40 28.04.2022
3991 Clouds 8 1030 72 10000 4.12 70 23:59 27.04.2022
3992 Clouds 8 1029 71 10000 4.12 70 22:34 27.04.2022
3993 Clouds 9 1029 70 10000 5.66 90 21:51 27.04.2022
3994 Clouds 10 1028 66 10000 5.14 90 20:56 27.04.2022
3995 Clouds 10 1028 64 10000 5.14 90 20:34 27.04.2022
3996 Clouds 11 1028 62 10000 5.14 100 19:37 27.04.2022
3997 Clouds 11 1028 62 10000 5.14 80 18:52 27.04.2022
3998 Clouds 11 1028 65 10000 5.14 80 18:22 27.04.2022
3999 Clouds 11 1028 61 10000 4.63 60 16:27 27.04.2022
4000 Clouds 11 1028 59 10000 4.12 60 14:31 27.04.2022
4001 Clouds 10 1028 63 10000 4.12 50 11:45 27.04.2022
4002 Clouds 10 1028 63 10000 4.12 60 11:20 27.04.2022
4003 Clouds 8 1027 71 10000 2.06 0 08:58 27.04.2022
4004 Clouds 7 1027 82 10000 0.89 355 07:18 27.04.2022
4005 Clouds 6 1026 85 10000 1.54 50 04:30 27.04.2022
4006 Clouds 7 1026 81 10000 2.06 50 01:32 27.04.2022
4007 Clouds 8 1025 78 10000 3.09 60 00:37 27.04.2022
4008 Clouds 9 1025 71 10000 3.6 80 23:39 26.04.2022
4009 Clouds 10 1025 70 10000 3.6 80 23:18 26.04.2022
4010 Clouds 10 1024 66 10000 4.12 90 22:39 26.04.2022
4011 Clouds 12 1024 59 10000 3.6 60 21:35 26.04.2022
4012 Clouds 12 1024 53 10000 4.12 40 20:52 26.04.2022
4013 Clouds 13 1023 51 10000 3.6 0 20:30 26.04.2022
4014 Clouds 13 1023 49 10000 3.13 340 19:32 26.04.2022
4015 Clouds 14 1023 47 10000 4.63 60 18:45 26.04.2022
4016 Clouds 14 1022 45 10000 3.6 30 17:59 26.04.2022
4017 Clouds 15 1022 43 10000 4.12 50 16:49 26.04.2022
4018 Clear 15 1023 39 10000 3.09 0 14:27 26.04.2022
4019 Clear 14 1022 42 10000 4.12 50 13:33 26.04.2022
4020 Clear 13 1022 48 10000 4.12 60 11:55 26.04.2022
4021 Clear 11 1022 59 10000 2.57 0 10:37 26.04.2022
4022 Clear 8 1022 77 10000 2.06 40 09:25 26.04.2022
4023 Clear 5 1021 92 10000 1.54 10 07:38 26.04.2022
4024 Clear 5 1020 91 10000 2.06 70 04:33 26.04.2022
4025 Clear 7 1019 83 10000 1.34 71 01:30 26.04.2022
4026 Clear 8 1019 78 10000 1.79 74 00:26 26.04.2022
4027 Clouds 9 1018 73 10000 0.89 41 22:36 25.04.2022
4028 Clear 11 1018 69 10000 2.57 70 21:42 25.04.2022
4029 Clouds 12 1017 72 10000 3.09 100 20:40 25.04.2022
4030 Clouds 13 1016 65 10000 2.68 25 18:58 25.04.2022
4031 Clouds 13 1016 62 10000 3.09 40 17:54 25.04.2022
4032 Clouds 13 1016 62 10000 5.14 50 17:23 25.04.2022
4033 Clouds 13 1016 59 10000 4.12 60 15:29 25.04.2022
4034 Clouds 14 1016 57 10000 2.57 0 14:46 25.04.2022
4035 Clouds 12 1016 63 10000 4.12 340 13:35 25.04.2022
4036 Clouds 10 1015 73 10000 3.13 331 11:43 25.04.2022
4037 Clouds 9 1015 78 10000 4.63 50 10:26 25.04.2022
4038 Clouds 8 1015 86 10000 2.57 60 08:46 25.04.2022
4039 Clear 6 1014 91 10000 2.06 360 06:45 25.04.2022
4040 Clouds 7 1014 89 10000 2.24 333 04:33 25.04.2022
4041 Clear 9 1014 71 10000 2.57 50 00:58 25.04.2022
4042 Clear 10 1013 61 10000 3.6 50 23:51 24.04.2022
4043 Clear 11 1012 55 10000 4.63 60 22:49 24.04.2022
4044 Clouds 11 1012 55 10000 5.66 50 22:29 24.04.2022
4045 Clouds 12 1011 56 10000 6.17 60 21:41 24.04.2022
4046 Clouds 13 1011 51 10000 5.66 60 21:18 24.04.2022
4047 Clouds 14 1011 49 10000 6.69 60 20:35 24.04.2022
4048 Clouds 15 1010 47 10000 4.92 13 19:48 24.04.2022
4049 Clouds 16 1009 48 10000 6.69 60 18:20 24.04.2022
4050 Clouds 17 1009 48 10000 6.17 50 17:32 24.04.2022
4051 Clouds 17 1009 45 10000 5.14 60 16:59 24.04.2022
4052 Clouds 17 1009 45 10000 5.14 60 16:35 24.04.2022
4053 Clouds 17 1008 46 10000 5.66 50 15:56 24.04.2022
4054 Clouds 18 1009 45 10000 6.17 70 15:31 24.04.2022
4055 Clouds 18 1009 45 10000 6.17 70 15:31 24.04.2022
4056 Clouds 17 1008 47 10000 6.69 60 13:58 24.04.2022
4057 Clouds 17 1008 51 10000 5.66 0 13:25 24.04.2022
4058 Clouds 16 1008 56 10000 4.92 13 12:32 24.04.2022
4059 Clouds 14 1008 64 10000 3.13 355 11:34 24.04.2022
4060 Clouds 12 1008 71 10000 3.09 40 10:27 24.04.2022
4061 Clouds 11 1007 79 10000 2.57 0 09:29 24.04.2022
4062 Clouds 8 1005 87 10000 1.34 5 06:46 24.04.2022
4063 Clouds 9 1005 80 10000 2.68 339 03:57 24.04.2022
4064 Clouds 11 1005 74 10000 1.79 65 01:38 24.04.2022
4065 Clouds 12 1004 71 10000 2.57 0 00:30 24.04.2022
4066 Clouds 12 1004 69 10000 3.6 0 23:45 23.04.2022
4067 Clouds 12 1004 68 10000 4.12 0 23:22 23.04.2022
4068 Clouds 13 1003 68 10000 4.12 0 21:53 23.04.2022
4069 Clouds 13 1003 68 10000 4.12 0 21:34 23.04.2022
4070 Clouds 14 1003 66 10000 3.6 0 20:51 23.04.2022
4071 Clouds 15 1003 63 10000 4.63 50 19:48 23.04.2022
4072 Clouds 15 1003 62 10000 6.17 50 19:19 23.04.2022
4073 Clouds 15 1003 62 10000 7.2 50 18:52 23.04.2022
4074 Clouds 15 1003 60 10000 8.75 70 17:51 23.04.2022
4075 Clouds 16 1003 59 10000 9.26 70 17:30 23.04.2022
4076 Clouds 16 1003 58 10000 8.75 80 16:42 23.04.2022
4077 Clouds 17 1003 55 10000 10.29 60 15:28 23.04.2022
4078 Clouds 15 1004 66 10000 8.75 80 12:49 23.04.2022
4079 Clouds 13 1004 73 10000 6.17 60 10:49 23.04.2022
4080 Clouds 12 1004 77 10000 5.14 60 09:38 23.04.2022
4081 Clouds 10 1003 83 10000 5.66 50 06:41 23.04.2022
4082 Clouds 10 1004 84 10000 2.57 40 03:54 23.04.2022
4083 Clouds 10 1006 79 10000 3.09 0 01:25 23.04.2022
4084 Clouds 11 1006 72 10000 5.66 60 23:31 22.04.2022
4085 Clouds 12 1006 65 10000 5.66 50 22:20 22.04.2022
4086 Clouds 12 1006 62 10000 5.66 50 21:44 22.04.2022
4087 Clouds 13 1006 63 10000 5.14 80 20:54 22.04.2022
4088 Clouds 13 1006 62 10000 5.66 70 20:27 22.04.2022
4089 Clouds 14 1006 62 10000 7.2 80 19:21 22.04.2022
4090 Clouds 14 1006 63 10000 8.75 80 18:45 22.04.2022
4091 Clouds 14 1007 61 10000 9.26 80 17:48 22.04.2022
4092 Clouds 15 1006 56 10000 9.26 80 16:46 22.04.2022
4093 Clouds 15 1007 57 10000 9.77 80 15:45 22.04.2022
4094 Clouds 15 1007 58 10000 9.77 70 15:18 22.04.2022
4095 Clouds 14 1007 61 10000 7.72 60 13:54 22.04.2022
4096 Clouds 13 1008 65 10000 8.75 60 12:59 22.04.2022
4097 Clouds 13 1008 68 10000 9.26 80 12:28 22.04.2022
4098 Clouds 13 1008 71 10000 8.75 70 11:22 22.04.2022
4099 Clouds 12 1008 71 10000 7.72 70 10:51 22.04.2022
4100 Clouds 12 1008 73 10000 8.75 60 10:31 22.04.2022
4101 Clouds 11 1008 78 10000 6.17 60 09:53 22.04.2022
4102 Clouds 10 1008 81 10000 4.12 50 08:51 22.04.2022
4103 Clouds 9 1008 83 10000 3.09 50 07:44 22.04.2022
4104 Clouds 9 1010 79 10000 1.54 0 04:24 22.04.2022
4105 Clear 9 1011 71 10000 4.63 50 00:52 22.04.2022
4106 Clear 11 1012 64 10000 4.12 50 23:26 21.04.2022
4107 Clear 12 1012 63 10000 4.63 60 22:29 21.04.2022
4108 Clear 13 1012 54 10000 8.23 70 20:46 21.04.2022
4109 Clear 14 1012 47 10000 9.26 70 20:26 21.04.2022
4110 Clear 17 1011 44 10000 9.26 90 18:47 21.04.2022
4111 Clear 17 1012 41 10000 7.72 80 18:19 21.04.2022
4112 Clear 18 1012 43 10000 7.2 60 16:49 21.04.2022
4113 Clear 18 1012 46 10000 6.69 60 15:23 21.04.2022
4114 Clear 18 1012 47 10000 7.2 90 14:50 21.04.2022
4115 Clouds 17 1013 50 10000 6.17 80 13:52 21.04.2022
4116 Clouds 17 1013 53 10000 6.69 90 13:19 21.04.2022
4117 Clouds 15 1013 62 10000 4.63 70 11:25 21.04.2022
4118 Clouds 9 1013 86 8000 1.34 66 08:59 21.04.2022
4119 Clouds 7 1013 89 10000 1.34 71 07:55 21.04.2022
4120 Clouds 6 1013 89 10000 1.79 76 06:25 21.04.2022
4121 Clouds 8 1014 79 10000 1.54 30 03:35 21.04.2022
4122 Clouds 8 1014 77 10000 1.03 0 02:56 21.04.2022
4123 Clouds 8 1014 77 10000 1.03 0 02:38 21.04.2022
4124 Clouds 10 1015 64 10000 3.6 60 00:25 21.04.2022
4125 Clouds 10 1015 60 10000 3.09 70 23:24 20.04.2022
4126 Clouds 11 1015 59 10000 4.63 80 22:52 20.04.2022
4127 Clouds 11 1015 57 10000 6.17 80 22:32 20.04.2022
4128 Clouds 11 1015 58 10000 4.63 80 22:32 20.04.2022
4129 Clouds 12 1015 54 10000 5.14 80 21:35 20.04.2022
4130 Clouds 13 1015 50 10000 6.17 90 20:43 20.04.2022
4131 Clouds 14 1015 46 10000 6.69 70 19:55 20.04.2022
4132 Clouds 15 1015 43 10000 7.2 60 19:29 20.04.2022
4133 Clouds 16 1015 39 10000 7.72 90 18:42 20.04.2022
4134 Clouds 17 1015 37 10000 8.23 80 16:59 20.04.2022
4135 Clouds 17 1016 37 10000 8.75 90 16:39 20.04.2022
4136 Clouds 18 1016 37 10000 8.23 80 14:52 20.04.2022
4137 Clouds 15 1017 57 10000 2.57 60 11:57 20.04.2022
4138 Clouds 15 1017 61 10000 2.68 7 11:36 20.04.2022
4139 Clouds 12 1017 73 10000 4.12 50 10:30 20.04.2022
4140 Clouds 10 1017 82 10000 1.54 0 09:27 20.04.2022
4141 Clouds 8 1018 91 6000 2.06 350 08:25 20.04.2022
4142 Clouds 7 1017 91 6000 1.54 360 07:44 20.04.2022
4143 Clouds 7 1017 91 9000 2.06 360 05:19 20.04.2022
4144 Clouds 9 1017 78 10000 1.54 0 01:20 20.04.2022
4145 Clouds 10 1018 72 10000 1.54 360 00:21 20.04.2022
4146 Clouds 12 1018 62 10000 2.57 60 22:44 19.04.2022
4147 Clouds 12 1017 61 10000 2.06 0 22:23 19.04.2022
4148 Clouds 13 1017 57 10000 3.09 0 21:46 19.04.2022
4149 Clouds 14 1016 55 10000 5.66 50 20:57 19.04.2022
4150 Clouds 14 1016 54 10000 5.66 50 20:37 19.04.2022
4151 Clouds 15 1015 53 10000 6.17 60 19:32 19.04.2022
4152 Clouds 15 1016 58 10000 3.09 90 18:27 19.04.2022
4153 Clouds 15 1016 57 10000 3.6 70 16:50 19.04.2022
4154 Clouds 16 1016 55 10000 4.63 70 16:25 19.04.2022
4155 Clouds 16 1016 55 10000 4.63 80 15:59 19.04.2022
4156 Clouds 16 1016 58 10000 4.63 90 14:44 19.04.2022
4157 Clouds 15 1016 60 10000 1.54 340 12:53 19.04.2022
4158 Clouds 14 1016 61 10000 1.54 340 12:34 19.04.2022
4159 Clouds 13 1016 69 10000 1.54 340 11:34 19.04.2022
4160 Clouds 10 1016 79 10000 2.06 70 09:35 19.04.2022
4161 Clouds 7 1016 83 10000 1.54 300 07:43 19.04.2022
4162 Clouds 9 1015 77 10000 0.45 315 04:25 19.04.2022
4163 Clouds 10 1016 72 10000 1.99 297 01:42 19.04.2022
4164 Clouds 12 1016 65 10000 1.34 5 23:51 18.04.2022
4165 Clouds 12 1017 59 10000 1.03 0 22:53 18.04.2022
4166 Clouds 14 1017 50 10000 0.45 337 21:26 18.04.2022
4167 Clouds 16 1016 44 10000 3.6 270 20:39 18.04.2022
4168 Clouds 16 1016 43 10000 3.09 0 20:19 18.04.2022
4169 Clouds 16 1016 43 10000 2.57 260 19:40 18.04.2022
4170 Clouds 17 1016 39 10000 3.09 270 18:49 18.04.2022
4171 Clouds 17 1016 36 10000 2.57 260 17:49 18.04.2022
4172 Clouds 17 1016 34 10000 2.06 240 17:19 18.04.2022
4173 Clouds 17 1017 36 10000 2.57 210 16:40 18.04.2022
4174 Clouds 17 1017 41 10000 2.06 0 15:41 18.04.2022
4175 Clear 16 1018 44 10000 2.68 166 14:28 18.04.2022
4176 Clear 16 1018 50 10000 3.09 210 13:25 18.04.2022
4177 Clouds 14 1018 55 10000 2.57 260 12:27 18.04.2022
4178 Clouds 12 1018 70 10000 2.06 0 10:59 18.04.2022
4179 Clouds 12 1018 74 10000 3.09 280 10:18 18.04.2022
4180 Clouds 10 1018 80 10000 2.57 240 09:30 18.04.2022
4181 Clouds 8 1017 86 10000 3.09 220 07:34 18.04.2022
4182 Clear 9 1017 70 10000 2.06 230 03:57 18.04.2022
4183 Clouds 10 1018 66 10000 2.57 90 23:41 17.04.2022
4184 Clouds 12 1018 58 10000 1.54 80 22:39 17.04.2022
4185 Clouds 13 1018 45 10000 2.06 150 21:39 17.04.2022
4186 Clouds 14 1018 42 10000 0.45 148 21:19 17.04.2022
4187 Clouds 15 1019 37 10000 3.09 160 20:32 17.04.2022
4188 Clouds 17 1018 33 10000 5.66 130 19:21 17.04.2022
4189 Clouds 18 1020 29 10000 5.14 130 17:38 17.04.2022
4190 Clouds 19 1021 33 10000 5.14 140 15:38 17.04.2022
4191 Clouds 19 1022 37 10000 4.63 140 14:53 17.04.2022
4192 Clouds 18 1023 40 10000 5.14 150 13:44 17.04.2022
4193 Clouds 18 1023 46 10000 4.47 163 12:56 17.04.2022
4194 Clouds 15 1025 55 10000 2.57 150 11:24 17.04.2022
4195 Clouds 14 1025 64 10000 2.06 110 10:40 17.04.2022
4196 Clouds 12 1025 75 6000 2.57 80 10:19 17.04.2022
4197 Haze 10 1025 90 3600 2.06 90 09:23 17.04.2022
4198 Haze 8 1025 92 2700 3.09 90 08:41 17.04.2022
4199 Haze 7 1026 92 2500 2.06 90 06:59 17.04.2022
4200 Haze 8 1027 90 3500 2.06 60 03:53 17.04.2022
4201 Haze 10 1029 84 4600 3.09 80 00:55 17.04.2022
4202 Clouds 10 1029 80 6000 4.12 90 23:50 16.04.2022
4203 Clouds 12 1029 76 9000 4.63 90 22:27 16.04.2022
4204 Clouds 13 1029 70 10000 6.17 90 21:29 16.04.2022
4205 Clear 16 1029 61 10000 7.2 90 19:57 16.04.2022
4206 Clear 17 1029 59 10000 6.17 100 18:54 16.04.2022
4207 Clear 18 1029 59 10000 5.14 90 17:40 16.04.2022
4208 Clear 19 1030 50 10000 5.14 90 16:33 16.04.2022
4209 Clear 18 1030 51 10000 5.14 80 15:40 16.04.2022
4210 Clear 18 1031 54 10000 5.14 90 14:51 16.04.2022
4211 Clouds 17 1031 57 10000 5.66 80 13:57 16.04.2022
4212 Clouds 17 1031 60 10000 2.24 128 13:28 16.04.2022
4213 Clouds 16 1031 66 8000 4.63 80 12:20 16.04.2022
4214 Haze 13 1031 79 4300 3.6 90 10:49 16.04.2022
4215 Haze 11 1031 91 2500 4.12 80 09:44 16.04.2022
4216 Haze 9 1031 94 2800 2.57 90 08:57 16.04.2022
4217 Haze 8 1030 94 3100 3.09 80 07:32 16.04.2022
4218 Haze 8 1030 95 2500 1.54 80 06:58 16.04.2022
4219 Haze 10 1029 86 5000 3.09 80 02:33 16.04.2022
4220 Clouds 12 1029 81 10000 4.12 90 00:23 16.04.2022
4221 Clouds 13 1029 78 10000 4.63 90 22:57 15.04.2022
4222 Clouds 14 1028 77 10000 4.63 80 22:31 15.04.2022
4223 Clouds 15 1028 73 10000 5.14 80 21:50 15.04.2022
4224 Clouds 16 1027 68 10000 5.66 90 20:56 15.04.2022
4225 Clouds 17 1027 65 10000 5.66 90 20:21 15.04.2022
4226 Clouds 18 1027 61 10000 6.17 90 19:39 15.04.2022
4227 Clouds 20 1027 56 10000 6.69 90 18:53 15.04.2022
4228 Clouds 20 1027 53 10000 6.69 90 18:25 15.04.2022
4229 Clouds 21 1027 56 10000 6.69 90 17:34 15.04.2022
4230 Clouds 21 1026 49 10000 5.66 100 16:37 15.04.2022
4231 Clouds 22 1026 47 10000 4.02 130 16:18 15.04.2022
4232 Clouds 21 1027 48 10000 2.57 70 14:44 15.04.2022
4233 Clouds 20 1027 53 10000 2.24 180 13:34 15.04.2022
4234 Clouds 19 1027 57 10000 1.54 300 12:40 15.04.2022
4235 Clouds 18 1027 61 10000 1.54 300 11:55 15.04.2022
4236 Clouds 17 1027 65 10000 1.03 0 11:30 15.04.2022
4237 Clouds 15 1027 72 10000 1.03 0 10:40 15.04.2022
4238 Clouds 13 1027 83 10000 1.54 230 09:44 15.04.2022
4239 Clouds 11 1026 87 10000 0.51 0 09:19 15.04.2022
4240 Clouds 8 1025 89 10000 0.86 224 07:28 15.04.2022
4241 Clouds 9 1025 86 10000 1.03 0 06:28 15.04.2022
4242 Clouds 11 1025 78 10000 0.45 311 02:39 15.04.2022
4243 Clouds 13 1024 71 10000 1.34 304 23:31 14.04.2022
4244 Clouds 14 1023 69 10000 1.34 307 22:49 14.04.2022
4245 Clouds 14 1023 68 10000 0.89 312 22:29 14.04.2022
4246 Clouds 15 1023 67 10000 1.34 309 21:59 14.04.2022
4247 Clouds 17 1023 61 10000 1.34 306 20:43 14.04.2022
4248 Clouds 18 1022 56 10000 2.06 260 19:23 14.04.2022
4249 Clouds 18 1022 55 10000 1.54 0 18:22 14.04.2022
4250 Clouds 18 1022 54 10000 1.54 0 17:38 14.04.2022
4251 Clouds 19 1022 52 10000 1.34 177 16:46 14.04.2022
4252 Clouds 19 1022 55 10000 2.57 280 15:24 14.04.2022
4253 Clear 18 1022 59 10000 3.6 210 13:46 14.04.2022
4254 Clouds 17 1022 64 10000 3.09 260 12:56 14.04.2022
4255 Clouds 17 1022 65 10000 2.57 220 12:31 14.04.2022
4256 Clouds 15 1022 73 10000 2.57 230 11:29 14.04.2022
4257 Clouds 14 1022 78 10000 2.06 250 10:53 14.04.2022
4258 Clear 13 1022 85 10000 3.09 260 10:26 14.04.2022
4259 Clouds 10 1022 93 10000 3.6 250 09:24 14.04.2022
4260 Clouds 7 1021 94 10000 1.1 217 07:27 14.04.2022
4261 Clear 9 1020 91 10000 1.69 249 03:32 14.04.2022
4262 Clouds 13 1020 76 10000 3.6 240 23:26 13.04.2022
4263 Clouds 14 1020 72 10000 4.63 270 22:23 13.04.2022
4264 Clouds 15 1019 71 10000 0.89 338 21:37 13.04.2022
4265 Clouds 16 1018 66 10000 4.12 260 20:23 13.04.2022
4266 Clouds 16 1017 62 10000 5.14 250 19:37 13.04.2022
4267 Clouds 17 1017 57 10000 5.14 240 18:36 13.04.2022
4268 Clouds 18 1016 56 10000 4.63 220 17:24 13.04.2022
4269 Clouds 18 1016 57 10000 5.14 230 16:37 13.04.2022
4270 Clouds 18 1016 60 10000 4.12 250 15:41 13.04.2022
4271 Clouds 17 1016 63 10000 5.66 230 14:51 13.04.2022
4272 Clouds 17 1016 64 10000 4.63 250 14:30 13.04.2022
4273 Clouds 17 1016 66 10000 4.63 220 13:29 13.04.2022
4274 Clouds 16 1016 71 10000 4.12 230 12:30 13.04.2022
4275 Clouds 14 1015 80 10000 3.6 230 10:55 13.04.2022
4276 Clouds 12 1014 88 10000 3.09 0 09:45 13.04.2022
4277 Clouds 11 1014 91 10000 3.09 230 08:43 13.04.2022
4278 Clouds 10 1012 92 10000 1.89 189 07:18 13.04.2022
4279 Clouds 11 1013 91 10000 2.06 230 06:46 13.04.2022
4280 Clouds 11 1012 91 10000 2.57 220 06:18 13.04.2022
4281 Clouds 12 1010 85 10000 3.09 220 00:25 13.04.2022
4282 Clouds 12 1010 83 10000 3.09 220 23:46 12.04.2022
4283 Clouds 13 1009 81 10000 2.57 200 22:20 12.04.2022
4284 Clouds 13 1009 80 10000 3.6 220 21:39 12.04.2022
4285 Clouds 14 1008 77 10000 4.63 230 20:42 12.04.2022
4286 Clouds 14 1007 77 10000 4.63 200 19:54 12.04.2022
4287 Clouds 15 1007 76 10000 4.63 200 19:33 12.04.2022
4288 Clouds 15 1007 75 10000 4.12 220 18:50 12.04.2022
4289 Rain 15 1007 75 10000 5.14 210 17:36 12.04.2022
4290 Clouds 18 1005 64 10000 4.63 210 16:33 12.04.2022
4291 Clouds 19 1005 62 10000 5.14 240 15:33 12.04.2022
4292 Clouds 19 1005 63 10000 4.12 180 14:33 12.04.2022
4293 Clouds 19 1005 63 10000 3.09 220 13:39 12.04.2022
4294 Clouds 18 1004 63 10000 4.12 200 13:20 12.04.2022
4295 Clouds 16 1004 65 10000 5.66 210 11:47 12.04.2022
4296 Clouds 16 1005 67 10000 2.57 100 11:24 12.04.2022
4297 Clouds 12 1005 80 9000 3.09 90 09:25 12.04.2022
4298 Clouds 10 1005 83 9000 3.6 80 08:26 12.04.2022
4299 Clouds 10 1004 82 9000 2.57 70 06:33 12.04.2022
4300 Clouds 10 1005 81 9000 1.54 70 05:38 12.04.2022
4301 Clouds 12 1006 73 10000 3.6 70 01:48 12.04.2022
4302 Clouds 13 1006 66 10000 4.63 100 23:20 11.04.2022
4303 Clouds 13 1007 64 10000 4.63 90 21:51 11.04.2022
4304 Clouds 13 1007 62 10000 5.14 100 21:18 11.04.2022
4305 Clouds 14 1007 58 10000 5.14 90 20:30 11.04.2022
4306 Clouds 14 1007 56 10000 6.69 90 19:58 11.04.2022
4307 Clouds 15 1007 54 10000 6.17 100 19:25 11.04.2022
4308 Clouds 14 1007 57 10000 6.17 90 18:52 11.04.2022
4309 Clouds 15 1007 52 10000 9.77 100 17:57 11.04.2022
4310 Clouds 15 1008 52 10000 10.29 80 17:30 11.04.2022
4311 Clouds 15 1008 50 10000 9.26 90 16:25 11.04.2022
4312 Clouds 16 1009 45 10000 8.23 90 14:40 11.04.2022
4313 Clouds 15 1010 44 10000 10.29 90 13:34 11.04.2022
4314 Clouds 14 1010 44 10000 6.69 90 12:37 11.04.2022
4315 Clouds 13 1011 49 10000 6.69 90 11:54 11.04.2022
4316 Clouds 11 1012 57 10000 4.63 80 10:35 11.04.2022
4317 Clouds 9 1012 68 10000 4.12 80 09:34 11.04.2022
4318 Clouds 6 1013 83 10000 3.6 90 07:53 11.04.2022
4319 Clouds 6 1015 74 10000 4.63 90 03:19 11.04.2022
4320 Clouds 8 1017 52 10000 3.6 100 23:22 10.04.2022
4321 Clouds 8 1017 46 10000 2.57 120 22:26 10.04.2022
4322 Clouds 9 1018 44 10000 3.09 120 21:43 10.04.2022
4323 Clouds 10 1018 41 10000 4.12 140 20:50 10.04.2022
4324 Clouds 11 1018 42 10000 4.12 150 19:54 10.04.2022
4325 Clouds 11 1018 42 10000 4.12 150 19:33 10.04.2022
4326 Clouds 12 1018 44 10000 4.12 190 18:46 10.04.2022
4327 Clouds 12 1018 45 10000 4.12 190 18:20 10.04.2022
4328 Clouds 13 1018 45 10000 4.12 0 17:41 10.04.2022
4329 Clouds 13 1018 48 10000 4.63 200 16:47 10.04.2022
4330 Clouds 13 1019 47 10000 4.12 200 15:38 10.04.2022
4331 Clouds 13 1019 43 10000 4.12 170 14:37 10.04.2022
4332 Clouds 12 1020 42 10000 2.57 200 12:50 10.04.2022
4333 Clouds 12 1020 43 10000 3.09 190 12:26 10.04.2022
4334 Clouds 12 1020 43 10000 3.09 190 12:26 10.04.2022
4335 Clouds 11 1020 54 10000 0.89 259 11:29 10.04.2022
4336 Clouds 9 1020 61 10000 2.24 156 10:57 10.04.2022
4337 Clouds 8 1020 67 10000 1.54 70 10:22 10.04.2022
4338 Clouds 6 1020 79 10000 1.54 90 09:40 10.04.2022
4339 Clouds 2 1020 86 10000 0.51 0 08:25 10.04.2022
4340 Clouds 2 1020 86 10000 0.82 148 07:47 10.04.2022
4341 Clouds 2 1019 85 10000 0.4 96 06:19 10.04.2022
4342 Clouds 4 1019 75 10000 0.65 16 02:48 10.04.2022
4343 Clouds 6 1019 68 10000 0.45 36 00:51 10.04.2022
4344 Clouds 6 1019 66 10000 1.03 0 23:50 09.04.2022
4345 Clouds 7 1018 59 10000 2.06 300 22:50 09.04.2022
4346 Clouds 8 1018 54 10000 2.57 300 21:48 09.04.2022
4347 Clouds 9 1017 49 10000 2.57 320 20:57 09.04.2022
4348 Clouds 10 1017 46 10000 4.12 310 20:26 09.04.2022
4349 Clouds 11 1017 44 10000 5.36 312 19:42 09.04.2022
4350 Clouds 11 1017 43 10000 3.6 300 19:18 09.04.2022
4351 Clouds 11 1017 39 10000 6.17 270 18:22 09.04.2022
4352 Clouds 12 1016 39 10000 6.17 300 17:40 09.04.2022
4353 Clouds 11 1016 40 10000 7.2 280 16:55 09.04.2022
4354 Clouds 12 1016 38 10000 6.69 260 16:24 09.04.2022
4355 Clouds 12 1017 42 10000 5.66 300 15:43 09.04.2022
4356 Clouds 11 1016 43 10000 6.17 290 14:44 09.04.2022
4357 Clouds 11 1016 44 10000 5.66 280 14:24 09.04.2022
4358 Clouds 10 1016 50 10000 4.63 0 13:21 09.04.2022
4359 Clouds 10 1016 52 10000 5.66 270 12:52 09.04.2022
4360 Clear 9 1016 63 10000 5.66 300 11:41 09.04.2022
4361 Clear 6 1015 81 10000 4.12 280 10:21 09.04.2022
4362 Clear 5 1015 84 10000 3.6 260 09:52 09.04.2022
4363 Clear 3 1014 90 10000 2.57 260 08:59 09.04.2022
4364 Clouds 1 1013 91 10000 0.45 242 07:44 09.04.2022
4365 Clouds 4 1010 88 10000 2.06 210 03:21 09.04.2022
4366 Clouds 5 1008 79 3800 4.63 310 00:32 09.04.2022
4367 Clouds 6 1006 67 10000 1.54 360 22:58 08.04.2022
4368 Clouds 8 1004 60 10000 2.06 0 21:35 08.04.2022
4369 Clouds 9 1003 52 10000 2.57 10 20:41 08.04.2022
4370 Clouds 10 1002 48 10000 3.6 0 19:41 08.04.2022
4371 Clouds 11 1001 44 10000 4.63 360 18:34 08.04.2022
4372 Clouds 11 1000 48 10000 4.02 321 17:59 08.04.2022
4373 Clouds 11 999 46 10000 4.12 330 17:27 08.04.2022
4374 Clouds 11 999 47 10000 3.6 350 16:52 08.04.2022
4375 Clouds 11 998 48 10000 4.12 350 16:22 08.04.2022
4376 Clouds 11 998 49 10000 2.24 346 15:28 08.04.2022
4377 Clouds 10 998 53 10000 1.54 0 14:44 08.04.2022
4378 Clouds 10 999 57 10000 1.54 0 13:55 08.04.2022
4379 Clouds 10 999 58 10000 2.68 355 13:30 08.04.2022
4380 Clouds 8 999 67 10000 2.57 60 12:45 08.04.2022
4381 Clouds 6 998 77 10000 1.54 50 10:56 08.04.2022
4382 Clouds 5 998 83 10000 1.03 0 09:41 08.04.2022
4383 Clouds 4 999 87 10000 1.54 0 08:59 08.04.2022
4384 Clouds 3 999 86 10000 0.29 315 07:43 08.04.2022
4385 Clouds 3 999 87 10000 0.76 240 06:44 08.04.2022
4386 Clouds 4 1001 75 10000 2.46 252 02:37 08.04.2022
4387 Clouds 6 1000 67 10000 4.63 280 00:29 08.04.2022
4388 Clouds 7 1000 65 10000 5.66 290 23:43 07.04.2022
4389 Clouds 8 999 64 10000 6.17 300 22:41 07.04.2022
4390 Clouds 8 998 64 10000 6.26 325 22:23 07.04.2022
4391 Clouds 8 998 63 10000 5.81 322 21:58 07.04.2022
4392 Clouds 9 997 60 10000 8.23 300 21:29 07.04.2022
4393 Clouds 9 995 57 10000 6.71 320 20:42 07.04.2022
4394 Clouds 11 994 50 10000 12.86 270 19:51 07.04.2022
4395 Clouds 13 990 44 10000 12.35 280 17:29 07.04.2022
4396 Clouds 13 989 43 10000 12.86 260 16:59 07.04.2022
4397 Clouds 13 989 42 10000 12.86 260 16:33 07.04.2022
4398 Clouds 13 989 43 10000 11.83 270 15:47 07.04.2022
4399 Clouds 12 987 50 10000 11.83 260 13:54 07.04.2022
4400 Clouds 11 987 55 10000 14.92 250 13:24 07.04.2022
4401 Clouds 11 986 60 10000 13.89 260 11:53 07.04.2022
4402 Clouds 10 985 65 10000 10.8 250 10:54 07.04.2022
4403 Clouds 8 984 78 10000 9.26 250 09:19 07.04.2022
4404 Rain 7 984 84 10000 8.23 250 06:59 07.04.2022
4405 Rain 8 985 89 10000 8.75 250 05:28 07.04.2022
4406 Clouds 10 987 79 10000 9.77 230 02:37 07.04.2022
4407 Clouds 9 990 83 10000 7.72 240 00:43 07.04.2022
4408 Clouds 10 991 85 10000 7.72 230 23:36 06.04.2022
4409 Clouds 9 992 87 10000 6.17 230 22:44 06.04.2022
4410 Clouds 10 992 87 10000 6.69 250 22:20 06.04.2022
4411 Clouds 10 992 85 10000 6.69 250 20:50 06.04.2022
4412 Rain 10 993 88 10000 8.23 240 20:26 06.04.2022
4413 Rain 11 992 86 10000 8.23 230 19:44 06.04.2022
4414 Clouds 11 993 86 10000 4.63 240 18:48 06.04.2022
4415 Clouds 12 994 83 10000 5.66 230 17:36 06.04.2022
4416 Rain 12 994 77 10000 6.69 240 16:58 06.04.2022
4417 Rain 12 994 76 10000 6.69 240 16:34 06.04.2022
4418 Clouds 13 995 78 10000 6.69 230 15:44 06.04.2022
4419 Clouds 13 997 73 10000 7.2 220 13:53 06.04.2022
4420 Clouds 12 998 78 10000 7.72 240 12:37 06.04.2022
4421 Clouds 11 999 86 10000 8.23 240 11:44 06.04.2022
4422 Clouds 11 999 90 10000 6.17 230 10:37 06.04.2022
4423 Rain 11 999 88 10000 2.68 209 10:18 06.04.2022
4424 Clouds 11 1000 84 10000 7.72 230 09:25 06.04.2022
4425 Clouds 11 1000 81 10000 6.17 240 08:26 06.04.2022
4426 Clouds 10 1001 79 10000 5.66 230 06:45 06.04.2022
4427 Clouds 10 1005 73 10000 7.2 240 01:44 06.04.2022
4428 Clouds 10 1006 71 10000 5.66 250 23:50 05.04.2022
4429 Clouds 11 1007 69 10000 7.2 250 22:20 05.04.2022
4430 Clouds 12 1007 67 10000 7.72 260 21:18 05.04.2022
4431 Clouds 11 1007 67 10000 7.72 260 21:18 05.04.2022
4432 Clouds 12 1007 67 10000 7.72 260 21:18 05.04.2022
4433 Clouds 13 1006 67 10000 7.72 250 20:25 05.04.2022
4434 Clouds 14 1007 60 10000 7.2 270 18:53 05.04.2022
4435 Clouds 14 1007 59 10000 8.23 250 17:30 05.04.2022
4436 Clouds 14 1008 62 10000 7.2 250 16:45 05.04.2022
4437 Clouds 14 1008 64 10000 6.17 260 15:52 05.04.2022
4438 Clouds 14 1008 67 10000 6.17 260 15:33 05.04.2022
4439 Clouds 13 1009 68 10000 5.14 270 14:18 05.04.2022
4440 Clouds 13 1010 71 10000 7.2 260 12:55 05.04.2022
4441 Clouds 12 1010 75 10000 7.2 260 11:49 05.04.2022
4442 Clouds 12 1010 77 10000 6.69 250 11:31 05.04.2022
4443 Clouds 11 1010 85 10000 5.14 250 09:49 05.04.2022
4444 Clouds 11 1009 86 10000 0.89 345 08:52 05.04.2022
4445 Clouds 11 1009 85 10000 5.66 250 06:43 05.04.2022
4446 Clouds 13 1010 80 10000 6.17 270 00:41 05.04.2022
4447 Clouds 13 1010 79 10000 6.17 270 22:41 04.04.2022
4448 Clouds 13 1010 79 10000 6.69 270 22:19 04.04.2022
4449 Clouds 13 1009 78 10000 6.17 260 21:21 04.04.2022
4450 Clouds 14 1009 78 10000 5.66 270 20:49 04.04.2022
4451 Clouds 14 1009 77 10000 6.69 270 19:45 04.04.2022
4452 Clouds 14 1009 76 10000 6.17 250 19:25 04.04.2022
4453 Clouds 14 1009 78 10000 5.14 250 18:20 04.04.2022
4454 Clouds 14 1010 81 10000 5.14 260 16:36 04.04.2022
4455 Clouds 12 1010 86 10000 4.63 240 15:43 04.04.2022
4456 Clouds 12 1010 87 10000 5.14 240 15:25 04.04.2022
4457 Clouds 12 1010 89 10000 6.69 250 14:46 04.04.2022
4458 Clouds 10 1011 93 10000 6.69 250 13:22 04.04.2022
4459 Rain 8 1012 93 10000 7.72 250 11:55 04.04.2022
4460 Clouds 7 1012 94 10000 7.2 240 11:28 04.04.2022
4461 Rain 5 1014 92 7000 7.72 240 08:54 04.04.2022
4462 Clouds 6 1018 75 10000 6.17 240 04:18 04.04.2022
4463 Clouds 5 1021 65 10000 5.14 240 00:44 04.04.2022
4464 Clouds 6 1022 61 10000 0.45 199 22:40 03.04.2022
4465 Clouds 7 1023 55 10000 3.6 250 21:46 03.04.2022
4466 Clouds 8 1023 53 10000 2.57 280 20:56 03.04.2022
4467 Clouds 9 1023 51 10000 3.6 290 19:50 03.04.2022
4468 Clouds 9 1024 48 10000 3.6 290 18:32 03.04.2022
4469 Clouds 9 1024 46 10000 3.13 309 17:47 03.04.2022
4470 Clouds 9 1024 46 10000 2.06 330 16:59 03.04.2022
4471 Clouds 9 1025 44 10000 2.24 342 16:41 03.04.2022
4472 Clouds 9 1026 44 10000 2.06 0 14:52 03.04.2022
4473 Clouds 9 1026 47 10000 3.6 310 13:55 03.04.2022
4474 Clouds 9 1026 52 10000 3.6 350 12:46 03.04.2022
4475 Clouds 6 1027 70 10000 2.68 321 11:29 03.04.2022
4476 Clouds 2 1027 87 10000 2.57 290 09:38 03.04.2022
4477 Clouds 0 1027 88 10000 2.06 280 08:40 03.04.2022
4478 Clear -1 1026 87 10000 0.45 336 05:42 03.04.2022
4479 Clear 0 1026 81 10000 1.54 340 02:53 03.04.2022
4480 Clouds 2 1025 80 10000 0.45 72 23:22 02.04.2022
4481 Clouds 2 1025 79 10000 0.45 131 22:38 02.04.2022
4482 Clouds 3 1025 74 10000 2.06 120 21:49 02.04.2022
4483 Clouds 4 1024 71 10000 3.09 110 21:19 02.04.2022
4484 Clouds 5 1024 70 10000 2.57 120 20:35 02.04.2022
4485 Clouds 7 1023 58 10000 4.12 300 18:27 02.04.2022
4486 Clouds 8 1023 56 10000 4.02 329 17:54 02.04.2022
4487 Clouds 9 1022 46 10000 4.12 350 16:30 02.04.2022
4488 Clouds 9 1023 49 10000 3.09 0 15:23 02.04.2022
4489 Clouds 9 1023 46 10000 4.12 30 14:51 02.04.2022
4490 Clouds 8 1022 50 10000 4.63 60 13:57 02.04.2022
4491 Clouds 8 1022 55 10000 3.6 50 13:23 02.04.2022
4492 Clouds 7 1023 62 10000 2.24 176 11:54 02.04.2022
4493 Clouds 2 1022 89 10000 2.06 330 09:48 02.04.2022
4494 Clouds 0 1021 90 10000 2.57 0 07:33 02.04.2022
4495 Clear 1 1021 85 10000 2.06 320 03:59 02.04.2022
4496 Clear 2 1021 73 10000 2.06 340 00:27 02.04.2022
4497 Clear 3 1020 71 10000 2.06 360 23:53 01.04.2022
4498 Clouds 4 1020 65 10000 3.09 360 22:34 01.04.2022
4499 Clear 6 1019 51 10000 3.6 360 20:54 01.04.2022
4500 Clear 6 1019 49 10000 3.6 360 20:32 01.04.2022
4501 Clouds 7 1018 47 10000 5.14 0 19:39 01.04.2022
4502 Clouds 7 1018 47 10000 5.14 0 19:39 01.04.2022
4503 Clouds 7 1018 48 10000 3.6 0 19:18 01.04.2022
4504 Clouds 7 1018 51 10000 5.14 50 18:36 01.04.2022
4505 Clouds 8 1017 52 10000 6.69 60 17:36 01.04.2022
4506 Clouds 8 1017 52 10000 8.75 50 15:46 01.04.2022
4507 Clouds 8 1017 46 10000 7.2 360 14:51 01.04.2022
4508 Clouds 7 1016 52 10000 5.81 359 13:39 01.04.2022
4509 Clouds 6 1016 56 10000 5.81 345 12:33 01.04.2022
4510 Clouds 6 1016 60 10000 5.66 0 11:47 01.04.2022
4511 Clouds 4 1016 69 10000 5.66 360 10:49 01.04.2022
4512 Clouds 2 1015 79 10000 5.66 340 09:35 01.04.2022
4513 Clouds 1 1014 82 10000 5.66 340 07:31 01.04.2022
4514 Clear 1 1012 84 10000 5.66 320 04:59 01.04.2022
4515 Clear 1 1012 84 10000 6.26 302 04:39 01.04.2022
4516 Clouds 1 1013 81 10000 4.63 310 02:37 01.04.2022
4517 Clouds 2 1013 76 10000 5.81 323 01:33 01.04.2022
4518 Clear 3 1013 62 10000 4.63 350 22:27 31.03.2022
4519 Clear 3 1012 58 10000 4.63 350 21:39 31.03.2022
4520 Clear 4 1012 55 10000 4.02 335 20:51 31.03.2022
4521 Clouds 4 1011 56 10000 6.17 360 20:28 31.03.2022
4522 Clouds 5 1011 47 10000 8.23 360 19:29 31.03.2022
4523 Clouds 7 1010 35 10000 6.17 0 18:33 31.03.2022
4524 Clouds 7 1009 45 10000 7.72 360 16:47 31.03.2022
4525 Clouds 8 1009 39 10000 7.2 10 15:55 31.03.2022
4526 Clouds 8 1009 36 10000 8.49 346 15:26 31.03.2022
4527 Clouds 8 1009 38 10000 7.15 358 14:48 31.03.2022
4528 Clouds 7 1008 46 10000 5.81 345 13:42 31.03.2022
4529 Rain 4 1008 79 10000 5.14 340 11:31 31.03.2022
4530 Clouds 3 1007 82 10000 5.36 338 10:26 31.03.2022
4531 Clouds 2 1007 84 10000 7.15 321 09:39 31.03.2022
4532 Clouds 1 1007 86 10000 4.63 340 07:49 31.03.2022
4533 Clouds 3 1006 82 10000 3.13 1 03:30 31.03.2022
4534 Clouds 4 1006 82 10000 3.6 0 23:25 30.03.2022
4535 Clouds 5 1005 83 10000 5.14 60 22:19 30.03.2022
4536 Clouds 6 1005 81 10000 4.63 340 21:31 30.03.2022
4537 Clouds 7 1005 81 10000 4.63 340 20:44 30.03.2022
4538 Clouds 8 1004 78 10000 5.14 340 19:54 30.03.2022
4539 Clouds 10 1004 73 10000 4.12 340 18:50 30.03.2022
4540 Clouds 10 1004 71 9000 4.12 310 17:52 30.03.2022
4541 Clouds 11 1004 70 10000 4.47 320 17:29 30.03.2022
4542 Clouds 11 1004 70 9000 3.13 326 16:41 30.03.2022
4543 Clouds 11 1005 72 8000 2.57 340 16:18 30.03.2022
4544 Clouds 10 1005 77 7000 3.13 301 14:42 30.03.2022
4545 Clouds 10 1006 82 7000 2.06 90 13:23 30.03.2022
4546 Clouds 9 1006 85 6000 3.6 90 12:32 30.03.2022
4547 Haze 8 1007 91 5000 2.06 40 10:48 30.03.2022
4548 Haze 7 1007 92 5000 2.57 360 09:58 30.03.2022
4549 Haze 7 1007 94 5000 1.54 0 08:28 30.03.2022
4550 Haze 7 1007 94 5000 2.24 9 07:29 30.03.2022
4551 Haze 7 1007 94 3900 1.79 6 05:40 30.03.2022
4552 Drizzle 8 1009 87 4800 2.06 50 02:40 30.03.2022
4553 Clouds 8 1009 85 7000 5.14 80 22:56 29.03.2022
4554 Clouds 9 1010 84 7000 3.6 80 21:58 29.03.2022
4555 Clouds 9 1010 83 7000 3.6 80 21:37 29.03.2022
4556 Clouds 9 1010 81 7000 5.14 90 20:30 29.03.2022
4557 Clouds 10 1010 78 7000 4.63 90 19:34 29.03.2022
4558 Clouds 10 1010 77 7000 5.14 90 18:54 29.03.2022
4559 Clouds 11 1010 75 7000 4.63 70 17:57 29.03.2022
4560 Clouds 11 1010 78 7000 5.14 80 17:20 29.03.2022
4561 Clouds 11 1011 78 6000 5.14 60 16:54 29.03.2022
4562 Clouds 11 1011 76 9000 5.14 90 15:44 29.03.2022
4563 Clouds 11 1012 79 9000 4.12 70 14:43 29.03.2022
4564 Clouds 11 1012 75 9000 4.12 70 14:43 29.03.2022
4565 Clouds 10 1012 77 8000 4.12 50 13:36 29.03.2022
4566 Clouds 10 1012 82 7000 5.14 70 12:40 29.03.2022
4567 Haze 9 1013 87 5000 5.14 70 11:27 29.03.2022
4568 Haze 8 1013 89 4100 5.14 70 10:23 29.03.2022
4569 Haze 8 1013 91 4800 4.63 70 08:57 29.03.2022
4570 Drizzle 8 1014 89 4500 4.12 60 06:53 29.03.2022
4571 Haze 9 1016 85 3800 4.12 60 02:55 29.03.2022
4572 Clouds 10 1018 81 6000 2.57 70 23:46 28.03.2022
4573 Clouds 10 1018 80 7000 2.57 70 22:58 28.03.2022
4574 Clouds 11 1018 79 7000 2.57 70 22:35 28.03.2022
4575 Clouds 11 1019 80 8000 2.06 100 21:48 28.03.2022
4576 Clouds 12 1019 74 10000 5.66 80 20:41 28.03.2022
4577 Clouds 13 1018 72 10000 4.63 70 19:59 28.03.2022
4578 Clouds 13 1019 71 10000 4.63 70 19:40 28.03.2022
4579 Clouds 14 1019 70 10000 4.12 80 18:51 28.03.2022
4580 Clouds 15 1019 66 10000 3.6 70 18:18 28.03.2022
4581 Clouds 15 1020 65 10000 3.09 80 17:28 28.03.2022
4582 Clouds 16 1022 59 10000 1.58 99 15:38 28.03.2022
4583 Clouds 15 1023 59 10000 1.29 78 14:24 28.03.2022
4584 Clouds 14 1023 64 10000 1.33 77 13:26 28.03.2022
4585 Clear 10 1024 76 10000 1.36 75 11:54 28.03.2022
4586 Fog 6 1025 94 400 2.57 100 10:39 28.03.2022
4587 Mist 5 1025 95 2100 1.54 100 09:21 28.03.2022
4588 Haze 5 1025 93 3200 1.54 50 08:46 28.03.2022
4589 Mist 5 1025 91 1700 1.54 20 08:21 28.03.2022
4590 Haze 4 1026 93 3200 1.54 50 07:26 28.03.2022
4591 Clear 5 1028 92 10000 0.89 81 02:46 28.03.2022
4592 Clear 7 1030 89 10000 3.09 110 22:59 27.03.2022
4593 Clear 8 1030 88 10000 3.6 100 22:22 27.03.2022
4594 Clear 9 1030 86 10000 3.6 110 21:40 27.03.2022
4595 Clear 10 1030 80 10000 3.6 100 20:42 27.03.2022
4596 Clouds 12 1029 74 10000 3.6 100 19:44 27.03.2022
4597 Clouds 13 1029 72 10000 4.12 110 18:47 27.03.2022
4598 Clouds 13 1029 72 10000 4.12 110 18:47 27.03.2022
4599 Clouds 13 1030 73 10000 4.63 100 18:25 27.03.2022
4600 Clouds 12 1030 76 10000 3.6 100 17:37 27.03.2022
4601 Clouds 11 1030 81 10000 4.04 87 15:57 27.03.2022
4602 Clouds 10 1032 85 10000 4.63 90 14:22 27.03.2022
4603 Clouds 10 1032 80 10000 4.63 90 13:42 27.03.2022
4604 Drizzle 9 1033 89 3800 3.6 70 11:46 27.03.2022
4605 Mist 8 1033 94 1100 3.6 60 10:23 27.03.2022
4606 Drizzle 7 1033 92 700 3.6 50 08:21 27.03.2022
4607 Clear 6 1032 88 10000 1.03 360 05:19 27.03.2022
4608 Clear 9 1033 80 10000 3.09 90 00:37 27.03.2022
4609 Clear 10 1033 78 10000 3.09 80 22:58 26.03.2022
4610 Clear 10 1033 75 10000 3.6 80 22:29 26.03.2022
4611 Clear 11 1033 71 10000 4.63 80 21:32 26.03.2022
4612 Clear 13 1032 59 10000 4.63 100 19:46 26.03.2022
4613 Clear 15 1032 55 10000 6.69 80 18:56 26.03.2022
4614 Clear 16 1032 46 10000 7.72 80 17:44 26.03.2022
4615 Clear 16 1032 46 10000 7.72 80 17:44 26.03.2022
4616 Clear 17 1032 47 10000 7.2 80 17:22 26.03.2022
4617 Clear 17 1032 44 10000 6.17 80 15:52 26.03.2022
4618 Clear 17 1033 43 10000 6.69 80 14:21 26.03.2022
4619 Clear 17 1033 43 10000 4.63 80 13:51 26.03.2022
4620 Clear 16 1033 50 10000 5.66 80 12:41 26.03.2022
4621 Clear 14 1034 56 8000 2.06 90 11:18 26.03.2022
4622 Clear 9 1033 69 6000 1.03 0 09:23 26.03.2022
4623 Clear 6 1033 78 6000 1.03 340 08:27 26.03.2022
4624 Clear 5 1032 77 6000 1.03 340 05:53 26.03.2022
4625 Clear 6 1032 76 7000 1.54 20 03:32 26.03.2022
4626 Clear 8 1032 68 9000 1.54 70 22:57 25.03.2022
4627 Clear 11 1032 60 10000 4.12 80 20:59 25.03.2022
4628 Clear 11 1032 60 10000 4.12 80 20:38 25.03.2022
4629 Clouds 13 1031 53 10000 4.12 100 19:27 25.03.2022
4630 Clouds 15 1031 49 10000 5.14 100 18:37 25.03.2022
4631 Clouds 16 1031 45 10000 4.63 80 17:35 25.03.2022
4632 Clouds 17 1031 43 10000 5.66 90 16:41 25.03.2022
4633 Clouds 17 1031 42 10000 5.14 70 15:50 25.03.2022
4634 Clouds 17 1032 44 10000 5.14 80 13:51 25.03.2022
4635 Clear 16 1032 50 8000 3.09 90 12:20 25.03.2022
4636 Haze 10 1032 69 3300 1.03 0 09:47 25.03.2022
4637 Haze 8 1032 74 3400 1.03 0 09:19 25.03.2022
4638 Haze 5 1031 83 3500 1.54 10 07:48 25.03.2022
4639 Haze 5 1031 83 3600 1.54 10 07:21 25.03.2022
4640 Haze 6 1030 77 2700 1.03 0 04:35 25.03.2022
4641 Haze 8 1031 69 4900 1.54 70 00:29 25.03.2022
4642 Clear 10 1030 60 7000 3.6 80 22:29 24.03.2022
4643 Clear 11 1030 55 7000 3.6 90 21:33 24.03.2022
4644 Clear 13 1029 47 8000 5.14 90 19:50 24.03.2022
4645 Clear 16 1029 36 10000 2.57 60 18:54 24.03.2022
4646 Clear 18 1029 29 10000 2.57 170 17:39 24.03.2022
4647 Clear 18 1029 28 10000 3.09 90 16:44 24.03.2022
4648 Clear 18 1029 29 10000 2.68 351 15:19 24.03.2022
4649 Clear 19 1030 29 10000 2.57 0 14:41 24.03.2022
4650 Clear 18 1030 31 10000 3.13 145 13:54 24.03.2022
4651 Clear 17 1030 39 10000 1.54 70 12:39 24.03.2022
4652 Clear 15 1030 46 10000 0.45 134 11:31 24.03.2022
4653 Haze 9 1030 80 3900 1.03 60 09:36 24.03.2022
4654 Haze 7 1030 82 4100 1.03 0 08:40 24.03.2022
4655 Haze 8 1030 79 4100 1.03 0 08:40 24.03.2022
4656 Haze 5 1030 84 2400 1.54 360 06:19 24.03.2022
4657 Haze 8 1030 79 3300 1.54 70 01:43 24.03.2022
4658 Haze 10 1031 72 5000 2.06 80 22:37 23.03.2022
4659 Clouds 11 1030 63 6000 3.09 80 21:25 23.03.2022
4660 Clouds 12 1030 56 8000 3.09 70 20:47 23.03.2022
4661 Clouds 14 1029 49 9000 4.12 100 19:43 23.03.2022
4662 Clouds 14 1029 49 9000 4.12 100 19:43 23.03.2022
4663 Clear 17 1029 40 10000 4.12 110 18:22 23.03.2022
4664 Clear 18 1029 35 10000 2.57 130 17:36 23.03.2022
4665 Clear 19 1029 34 10000 3.09 90 16:20 23.03.2022
4666 Clear 19 1030 35 10000 3.09 60 14:50 23.03.2022
4667 Clear 19 1030 34 10000 3.09 80 13:51 23.03.2022
4668 Clear 17 1031 50 10000 0.45 95 11:52 23.03.2022
4669 Haze 11 1031 79 3300 1.54 80 09:38 23.03.2022
4670 Haze 6 1029 89 2800 1.03 0 06:40 23.03.2022
4671 Haze 7 1029 86 4000 1.03 80 03:58 23.03.2022
4672 Clear 9 1029 78 8000 3.09 80 00:29 23.03.2022
4673 Clear 11 1029 71 10000 3.6 80 22:26 22.03.2022
4674 Clear 12 1029 66 10000 3.6 100 21:29 22.03.2022
4675 Clear 13 1029 61 10000 4.12 90 20:39 22.03.2022
4676 Clear 15 1028 50 10000 3.6 110 19:31 22.03.2022
4677 Clear 16 1028 46 10000 3.6 110 18:57 22.03.2022
4678 Clear 18 1027 41 10000 5.66 110 17:47 22.03.2022
4679 Clouds 19 1027 38 10000 5.14 120 17:25 22.03.2022
4680 Clouds 19 1028 42 10000 4.12 150 15:54 22.03.2022
4681 Clouds 19 1028 44 10000 5.14 150 15:22 22.03.2022
4682 Clouds 19 1028 46 10000 4.12 140 14:46 22.03.2022
4683 Clouds 19 1028 46 10000 5.14 110 14:26 22.03.2022
4684 Clouds 18 1028 62 10000 1.34 130 12:55 22.03.2022
4685 Clouds 16 1029 64 8000 4.63 90 11:48 22.03.2022
4686 Clouds 14 1029 69 6000 3.6 80 10:35 22.03.2022
4687 Haze 9 1029 84 3600 2.57 70 07:57 22.03.2022
4688 Haze 9 1028 81 3800 3.6 90 05:21 22.03.2022
4689 Haze 9 1028 80 4700 4.63 90 03:46 22.03.2022
4690 Clouds 9 1029 73 8000 3.6 90 23:59 21.03.2022
4691 Clouds 9 1029 68 10000 4.12 90 22:29 21.03.2022
4692 Clouds 11 1029 58 10000 4.12 90 20:54 21.03.2022
4693 Clouds 11 1029 56 10000 5.14 90 20:33 21.03.2022
4694 Clouds 12 1028 53 10000 5.66 90 19:58 21.03.2022
4695 Clouds 13 1028 51 10000 5.66 90 19:27 21.03.2022
4696 Clouds 15 1027 48 10000 5.66 90 18:18 21.03.2022
4697 Clouds 16 1027 45 10000 4.12 100 17:18 21.03.2022
4698 Clouds 16 1028 46 10000 3.13 107 16:42 21.03.2022
4699 Clouds 16 1028 45 10000 3.09 120 15:52 21.03.2022
4700 Clouds 16 1028 45 10000 3.6 110 15:19 21.03.2022
4701 Clouds 15 1028 47 10000 4.12 120 13:58 21.03.2022
4702 Clouds 14 1029 51 10000 3.6 80 12:40 21.03.2022
4703 Clouds 12 1029 55 9000 3.09 80 11:52 21.03.2022
4704 Clouds 10 1029 66 7000 3.6 90 10:40 21.03.2022
4705 Haze 3 1028 88 4000 1.54 70 08:30 21.03.2022
4706 Clear 2 1028 85 6000 1.03 0 06:54 21.03.2022
4707 Clear 2 1027 77 10000 0.45 202 02:52 21.03.2022
4708 Clouds 3 1027 76 10000 1.48 189 00:19 21.03.2022
4709 Clouds 4 1027 72 10000 1.6 198 22:44 20.03.2022
4710 Clouds 5 1027 67 10000 1.77 205 21:56 20.03.2022
4711 Clouds 6 1027 64 10000 2.06 200 21:29 20.03.2022
4712 Clouds 7 1026 62 10000 0.45 134 20:43 20.03.2022
4713 Clouds 8 1026 58 10000 1.34 129 19:59 20.03.2022
4714 Clouds 8 1026 55 10000 0.89 134 19:34 20.03.2022
4715 Clouds 11 1025 43 10000 2.06 240 18:34 20.03.2022
4716 Clouds 11 1025 40 10000 1.03 0 17:35 20.03.2022
4717 Clouds 11 1026 42 10000 1.54 150 16:57 20.03.2022
4718 Clouds 11 1026 44 10000 1.34 341 15:42 20.03.2022
4719 Clouds 11 1026 50 10000 4.63 90 14:35 20.03.2022
4720 Clouds 10 1027 55 10000 2.57 70 12:42 20.03.2022
4721 Clouds 10 1028 59 10000 3.09 80 11:32 20.03.2022
4722 Clouds 7 1029 77 10000 3.09 90 09:39 20.03.2022
4723 Clear 4 1029 83 10000 2.06 60 07:49 20.03.2022
4724 Clear 4 1029 78 10000 2.57 60 05:48 20.03.2022
4725 Clear 7 1031 67 10000 7.72 90 02:45 20.03.2022
4726 Clear 8 1032 62 10000 7.2 90 00:48 20.03.2022
4727 Clear 8 1033 66 10000 7.72 80 23:20 19.03.2022
4728 Clear 8 1033 65 10000 6.17 80 21:41 19.03.2022
4729 Clear 9 1033 66 10000 7.2 70 21:18 19.03.2022
4730 Clear 10 1034 55 10000 7.72 70 19:21 19.03.2022
4731 Clear 11 1034 54 10000 8.75 80 18:25 19.03.2022
4732 Clear 12 1034 55 10000 9.26 80 17:41 19.03.2022
4733 Clear 13 1035 54 10000 10.8 80 16:29 19.03.2022
4734 Clear 14 1036 52 10000 10.29 90 15:20 19.03.2022
4735 Clear 13 1037 54 10000 11.32 90 13:35 19.03.2022
4736 Clear 13 1038 54 10000 10.29 100 12:42 19.03.2022
4737 Clear 13 1038 58 10000 9.77 90 11:54 19.03.2022
4738 Clear 12 1038 60 10000 9.77 90 11:33 19.03.2022
4739 Clear 8 1039 82 10000 8.23 80 08:34 19.03.2022
4740 Clear 7 1040 88 10000 5.66 60 04:24 19.03.2022
4741 Clear 8 1041 88 10000 4.63 70 02:31 19.03.2022
4742 Clear 8 1042 80 10000 5.14 70 23:46 18.03.2022
4743 Clear 9 1043 77 10000 5.14 80 22:43 18.03.2022
4744 Clear 9 1043 77 10000 5.14 80 22:20 18.03.2022
4745 Clear 10 1043 72 10000 4.63 70 20:25 18.03.2022
4746 Clouds 12 1043 66 10000 5.66 70 19:23 18.03.2022
4747 Clouds 13 1042 62 10000 6.17 80 18:35 18.03.2022
4748 Clouds 15 1042 56 10000 7.2 100 16:53 18.03.2022
4749 Clouds 15 1043 56 10000 6.69 100 16:18 18.03.2022
4750 Clear 15 1043 61 10000 5.66 90 14:25 18.03.2022
4751 Clear 15 1043 61 10000 5.66 90 13:36 18.03.2022
4752 Clear 12 1043 76 10000 3.6 100 11:29 18.03.2022
4753 Clear 9 1042 88 10000 1.34 37 09:52 18.03.2022
4754 Clear 7 1042 89 10000 1.34 325 08:46 18.03.2022
4755 Clear 4 1041 94 10000 0.51 0 06:45 18.03.2022
4756 Clear 4 1040 89 10000 1.03 260 04:39 18.03.2022
4757 Clouds 6 1038 85 10000 1.54 220 00:55 18.03.2022
4758 Clouds 7 1037 83 9000 2.57 220 23:52 17.03.2022
4759 Clouds 7 1037 78 10000 2.06 250 22:45 17.03.2022
4760 Clouds 8 1037 77 10000 2.11 270 22:19 17.03.2022
4761 Clouds 9 1036 71 10000 1.03 0 21:27 17.03.2022
4762 Clouds 10 1035 68 10000 1.34 315 20:53 17.03.2022
4763 Clouds 10 1035 64 10000 3.09 250 20:19 17.03.2022
4764 Clouds 11 1035 62 10000 3.6 260 19:38 17.03.2022
4765 Clouds 12 1034 57 10000 5.14 260 18:52 17.03.2022
4766 Clouds 14 1033 51 10000 5.66 250 17:29 17.03.2022
4767 Clouds 14 1033 49 10000 4.63 240 16:20 17.03.2022
4768 Clouds 14 1033 49 10000 5.66 230 15:43 17.03.2022
4769 Clouds 13 1033 53 10000 5.66 230 14:59 17.03.2022
4770 Clouds 13 1033 55 10000 4.63 260 13:45 17.03.2022
4771 Clear 12 1032 56 10000 4.12 240 12:47 17.03.2022
4772 Clear 10 1032 64 10000 4.12 250 11:36 17.03.2022
4773 Clear 9 1032 71 10000 3.09 250 10:44 17.03.2022
4774 Clear 5 1031 83 10000 3.6 230 09:37 17.03.2022
4775 Clear 3 1030 89 10000 4.12 240 08:20 17.03.2022
4776 Clouds 3 1027 87 10000 3.6 270 05:53 17.03.2022
4777 Clouds 3 1027 86 10000 4.12 270 05:23 17.03.2022
4778 Clouds 6 1022 89 10000 7.2 290 00:27 17.03.2022
4779 Clouds 7 1020 91 7000 7.2 290 22:57 16.03.2022
4780 Rain 7 1020 90 7000 7.2 290 22:36 16.03.2022
4781 Rain 8 1019 90 10000 5.14 300 21:58 16.03.2022
4782 Rain 8 1017 90 10000 6.69 300 20:47 16.03.2022
4783 Rain 10 1015 93 6000 6.71 297 19:24 16.03.2022
4784 Rain 10 1015 94 5000 3.6 230 18:43 16.03.2022
4785 Rain 10 1015 94 2900 2.57 0 18:18 16.03.2022
4786 Rain 11 1015 93 6000 3.09 0 17:36 16.03.2022
4787 Rain 11 1015 91 10000 2.57 130 16:36 16.03.2022
4788 Rain 11 1016 90 7000 2.57 80 15:34 16.03.2022
4789 Rain 11 1017 86 10000 5.14 90 13:41 16.03.2022
4790 Clouds 10 1017 88 10000 4.12 80 12:57 16.03.2022
4791 Clouds 10 1019 88 10000 2.57 90 11:26 16.03.2022
4792 Clouds 10 1019 88 9000 3.6 90 10:43 16.03.2022
4793 Clouds 10 1019 88 9000 3.6 90 09:57 16.03.2022
4794 Clouds 9 1019 88 7000 4.63 100 08:33 16.03.2022
4795 Clouds 8 1020 89 8000 2.57 90 02:46 16.03.2022
4796 Clouds 9 1021 82 10000 3.09 140 23:37 15.03.2022
4797 Clouds 10 1021 80 10000 2.57 170 22:36 15.03.2022
4798 Clouds 11 1021 79 10000 2.57 140 21:27 15.03.2022
4799 Clouds 12 1020 73 10000 3.09 170 19:47 15.03.2022
4800 Clouds 13 1020 67 10000 3.6 140 18:38 15.03.2022
4801 Clouds 15 1019 56 10000 4.63 90 16:45 15.03.2022
4802 Clouds 15 1020 60 10000 5.14 90 15:44 15.03.2022
4803 Clouds 15 1020 56 10000 4.63 80 14:55 15.03.2022
4804 Clouds 15 1021 55 10000 5.14 90 14:30 15.03.2022
4805 Clouds 15 1021 56 10000 2.24 122 13:24 15.03.2022
4806 Clouds 14 1022 63 10000 2.24 119 11:48 15.03.2022
4807 Clouds 12 1022 70 10000 3.09 80 10:56 15.03.2022
4808 Clouds 8 1023 92 10000 3.09 90 09:30 15.03.2022
4809 Clouds 6 1023 92 10000 2.06 70 08:32 15.03.2022
4810 Clouds 6 1023 91 10000 2.06 60 07:44 15.03.2022
4811 Clouds 6 1023 93 10000 2.06 40 06:32 15.03.2022
4812 Clouds 6 1026 91 10000 2.57 100 01:59 15.03.2022
4813 Clouds 7 1027 91 10000 0.51 0 23:32 14.03.2022
4814 Clouds 7 1027 90 10000 0.51 0 22:54 14.03.2022
4815 Clouds 7 1026 88 10000 1.55 184 21:57 14.03.2022
4816 Clouds 7 1027 87 10000 0.45 248 21:20 14.03.2022
4817 Clouds 8 1026 83 10000 1.57 193 20:31 14.03.2022
4818 Clouds 9 1026 79 10000 2.06 210 19:47 14.03.2022
4819 Clouds 11 1025 75 10000 2.57 270 18:23 14.03.2022
4820 Clouds 12 1026 69 10000 3.6 220 17:43 14.03.2022
4821 Rain 12 1025 67 10000 3.6 230 16:54 14.03.2022
4822 Clouds 13 1025 63 10000 3.09 240 15:20 14.03.2022
4823 Clouds 12 1025 63 10000 3.6 250 14:00 14.03.2022
4824 Clouds 11 1024 74 10000 2.57 240 11:27 14.03.2022
4825 Clear 9 1024 82 10000 3.09 230 10:23 14.03.2022
4826 Clear 7 1023 91 10000 3.6 220 09:38 14.03.2022
4827 Clear 6 1023 93 10000 3.09 220 09:18 14.03.2022
4828 Clear 5 1023 93 10000 2.57 220 08:46 14.03.2022
4829 Clouds 4 1021 93 10000 2.06 220 07:21 14.03.2022
4830 Clouds 5 1018 93 10000 2.57 230 04:22 14.03.2022
4831 Clouds 6 1015 93 10000 1.54 210 01:46 14.03.2022
4832 Clouds 7 1014 91 10000 1.03 0 00:35 14.03.2022
4833 Clouds 8 1012 86 10000 2.57 200 21:56 13.03.2022
4834 Clouds 8 1011 84 10000 2.57 180 21:27 13.03.2022
4835 Clouds 9 1011 82 10000 2.57 190 20:49 13.03.2022
4836 Clouds 9 1011 80 10000 3.09 170 20:26 13.03.2022
4837 Clouds 9 1010 78 10000 2.57 180 19:42 13.03.2022
4838 Clouds 10 1010 77 10000 3.09 180 19:23 13.03.2022
4839 Clouds 10 1010 77 10000 3.09 180 19:23 13.03.2022
4840 Clouds 10 1010 77 10000 3.09 180 19:23 13.03.2022
4841 Clouds 10 1009 76 10000 3.09 170 18:49 13.03.2022
4842 Clouds 10 1009 76 10000 4.12 150 18:26 13.03.2022
4843 Clouds 10 1008 74 10000 4.02 168 17:39 13.03.2022
4844 Clouds 11 1008 74 10000 3.6 160 16:48 13.03.2022
4845 Clouds 11 1007 74 10000 3.6 150 16:27 13.03.2022
4846 Clouds 11 1007 77 10000 3.09 170 15:43 13.03.2022
4847 Rain 10 1007 82 10000 3.09 160 14:49 13.03.2022
4848 Rain 11 1007 79 10000 5.66 170 13:30 13.03.2022
4849 Clouds 11 1006 74 10000 4.12 180 12:26 13.03.2022
4850 Clouds 11 1006 76 10000 5.14 160 11:51 13.03.2022
4851 Clouds 11 1006 79 10000 4.47 174 11:25 13.03.2022
4852 Clouds 11 1006 81 10000 5.14 150 10:44 13.03.2022
4853 Clouds 10 1006 86 10000 4.63 150 09:43 13.03.2022
4854 Clouds 9 1006 87 10000 4.63 140 09:20 13.03.2022
4855 Clouds 9 1006 88 10000 5.14 140 08:39 13.03.2022
4856 Clouds 8 1005 87 10000 5.14 140 07:37 13.03.2022
4857 Clouds 9 1005 82 10000 6.17 130 05:39 13.03.2022
4858 Clouds 9 1007 82 10000 4.63 140 01:48 13.03.2022
4859 Clouds 9 1008 82 10000 5.66 130 23:30 12.03.2022
4860 Clouds 10 1008 76 10000 4.63 130 21:48 12.03.2022
4861 Clouds 9 1009 76 10000 5.14 130 20:29 12.03.2022
4862 Clouds 10 1009 76 10000 5.66 130 19:47 12.03.2022
4863 Clouds 11 1009 68 10000 4.47 160 18:47 12.03.2022
4864 Clouds 11 1010 66 10000 5.66 160 18:20 12.03.2022
4865 Clouds 12 1010 60 10000 7.2 180 17:23 12.03.2022
4866 Clouds 12 1010 58 10000 5.14 160 16:23 12.03.2022
4867 Clouds 12 1010 60 10000 6.17 170 15:22 12.03.2022
4868 Clouds 12 1011 64 10000 6.69 200 13:55 12.03.2022
4869 Clouds 11 1011 69 10000 6.69 170 12:35 12.03.2022
4870 Clouds 11 1011 72 10000 5.66 190 11:56 12.03.2022
4871 Clouds 11 1012 72 10000 5.66 190 11:34 12.03.2022
4872 Clouds 10 1011 80 10000 5.14 210 10:44 12.03.2022
4873 Clouds 9 1010 83 10000 4.12 190 09:44 12.03.2022
4874 Rain 8 1009 89 10000 3.6 190 08:41 12.03.2022
4875 Clouds 8 1007 86 10000 5.66 200 06:53 12.03.2022
4876 Clouds 9 1005 91 10000 4.63 170 01:44 12.03.2022
4877 Rain 9 1005 89 10000 3.09 160 23:51 11.03.2022
4878 Clouds 9 1005 91 10000 3.09 130 22:45 11.03.2022
4879 Rain 9 1005 88 10000 4.12 150 21:35 11.03.2022
4880 Rain 9 1004 88 10000 3.6 150 20:54 11.03.2022
4881 Clouds 9 1004 88 10000 4.12 160 20:28 11.03.2022
4882 Clouds 9 1004 88 10000 4.63 180 19:42 11.03.2022
4883 Clouds 10 1003 88 10000 5.14 170 18:51 11.03.2022
4884 Rain 10 1002 90 10000 5.36 168 17:28 11.03.2022
4885 Rain 10 1002 88 7000 6.69 140 16:27 11.03.2022
4886 Rain 10 1002 86 10000 7.2 130 15:53 11.03.2022
4887 Rain 12 1006 72 10000 7.6 166 14:19 11.03.2022
4888 Clouds 12 1007 65 10000 7.72 140 12:43 11.03.2022
4889 Clouds 13 1007 65 10000 7.72 130 12:20 11.03.2022
4890 Clouds 12 1007 67 10000 6.69 120 11:43 11.03.2022
4891 Clouds 10 1006 77 10000 5.66 120 09:39 11.03.2022
4892 Clouds 9 1006 81 10000 6.69 110 08:47 11.03.2022
4893 Clouds 9 1006 81 10000 5.14 120 07:53 11.03.2022
4894 Clouds 9 1007 81 10000 5.14 130 07:28 11.03.2022
4895 Clouds 10 1008 78 10000 4.12 120 05:42 11.03.2022
4896 Clouds 11 1010 71 10000 5.14 120 02:56 11.03.2022
4897 Clouds 12 1013 71 10000 3.6 120 23:31 10.03.2022
4898 Clouds 12 1014 69 10000 4.12 130 22:29 10.03.2022
4899 Clouds 12 1014 67 10000 4.63 120 21:27 10.03.2022
4900 Clouds 12 1014 66 10000 4.63 110 20:49 10.03.2022
4901 Clouds 13 1015 64 10000 4.12 140 19:23 10.03.2022
4902 Clouds 14 1015 64 10000 3.6 140 18:40 10.03.2022
4903 Clouds 15 1015 61 10000 5.66 140 16:54 10.03.2022
4904 Clouds 15 1016 61 10000 6.17 140 15:49 10.03.2022
4905 Clouds 15 1016 62 10000 5.36 167 14:39 10.03.2022
4906 Clouds 13 1017 63 10000 5.14 170 12:53 10.03.2022
4907 Clouds 12 1017 67 10000 4.47 167 11:42 10.03.2022
4908 Clouds 12 1017 69 10000 4.12 160 10:50 10.03.2022
4909 Clouds 9 1018 82 10000 3.09 100 08:55 10.03.2022
4910 Clouds 8 1017 82 10000 4.12 110 06:58 10.03.2022
4911 Clouds 9 1018 77 10000 2.57 120 03:52 10.03.2022
4912 Clouds 10 1018 76 10000 2.57 130 01:40 10.03.2022
4913 Clouds 10 1018 75 10000 4.12 130 22:46 09.03.2022
4914 Clouds 10 1018 75 10000 4.12 140 21:49 09.03.2022
4915 Clouds 10 1018 76 10000 4.92 141 21:24 09.03.2022
4916 Clouds 10 1017 76 10000 4.12 130 19:42 09.03.2022
4917 Clouds 11 1016 71 10000 4.02 166 18:29 09.03.2022
4918 Clouds 11 1017 65 10000 5.14 160 17:26 09.03.2022
4919 Clouds 11 1017 65 10000 5.14 160 17:26 09.03.2022
4920 Clouds 12 1017 63 10000 5.36 162 16:30 09.03.2022
4921 Clouds 12 1017 67 10000 6.17 170 14:56 09.03.2022
4922 Clouds 12 1017 67 10000 5.66 190 13:52 09.03.2022
4923 Clouds 12 1017 68 10000 4.63 190 12:45 09.03.2022
4924 Clouds 11 1017 71 10000 5.14 190 11:53 09.03.2022
4925 Clouds 11 1017 74 10000 6.17 180 11:35 09.03.2022
4926 Clouds 9 1017 81 10000 3.6 170 09:50 09.03.2022
4927 Clouds 9 1017 84 10000 4.12 170 08:49 09.03.2022
4928 Clouds 9 1016 85 10000 3.09 150 07:27 09.03.2022
4929 Clouds 8 1016 76 10000 3.09 130 01:54 09.03.2022
4930 Clouds 8 1016 72 10000 2.06 140 00:28 09.03.2022
4931 Clouds 8 1015 66 10000 5.14 130 22:47 08.03.2022
4932 Clouds 8 1015 65 10000 5.66 130 21:55 08.03.2022
4933 Clouds 9 1015 64 10000 5.66 130 21:22 08.03.2022
4934 Clouds 9 1015 62 10000 5.81 156 20:24 08.03.2022
4935 Clouds 9 1015 60 10000 5.66 140 19:30 08.03.2022
4936 Clouds 9 1014 58 10000 6.17 140 18:41 08.03.2022
4937 Clouds 11 1014 52 10000 7.72 110 16:59 08.03.2022
4938 Clear 12 1014 51 10000 7.6 137 15:19 08.03.2022
4939 Clear 11 1014 51 10000 8.94 135 14:18 08.03.2022
4940 Clear 9 1014 57 10000 5.36 140 12:41 08.03.2022
4941 Clear 8 1015 61 10000 5.66 100 11:44 08.03.2022
4942 Clear 6 1015 66 10000 6.71 113 10:37 08.03.2022
4943 Clear 2 1015 80 10000 4.63 90 08:58 08.03.2022
4944 Clear 1 1015 77 10000 5.66 90 06:34 08.03.2022
4945 Clear 1 1016 75 10000 4.63 90 04:25 08.03.2022
4946 Clear 3 1020 67 10000 6.69 100 22:57 07.03.2022
4947 Clear 3 1020 68 10000 6.69 100 21:50 07.03.2022
4948 Clear 3 1020 68 10000 6.69 100 21:31 07.03.2022
4949 Clear 4 1020 68 10000 9.26 100 20:39 07.03.2022
4950 Clouds 4 1020 69 10000 9.26 90 19:55 07.03.2022
4951 Clouds 4 1021 68 10000 9.26 90 19:29 07.03.2022
4952 Clouds 4 1021 68 10000 9.26 100 18:40 07.03.2022
4953 Clouds 5 1021 65 10000 9.26 80 17:41 07.03.2022
4954 Clear 7 1021 60 10000 8.75 90 16:55 07.03.2022
4955 Clear 8 1022 55 10000 7.72 100 15:32 07.03.2022
4956 Clouds 7 1025 61 10000 8.75 100 12:54 07.03.2022
4957 Clouds 6 1026 64 10000 7.72 100 12:21 07.03.2022
4958 Clouds 6 1026 72 10000 5.66 70 10:36 07.03.2022
4959 Clouds 4 1026 86 10000 2.57 60 08:48 07.03.2022
4960 Clouds 4 1028 80 10000 2.68 2 03:41 07.03.2022
4961 Clouds 4 1029 78 10000 2.68 22 00:22 07.03.2022
4962 Clouds 4 1029 74 10000 3.6 50 23:31 06.03.2022
4963 Clouds 5 1029 73 10000 4.12 50 22:37 06.03.2022
4964 Clouds 5 1029 69 10000 4.63 50 21:46 06.03.2022
4965 Clouds 5 1029 71 10000 5.14 70 20:30 06.03.2022
4966 Clouds 5 1029 71 10000 6.17 70 19:51 06.03.2022
4967 Clouds 6 1028 68 10000 5.66 60 18:51 06.03.2022
4968 Clouds 7 1028 62 10000 7.2 70 17:57 06.03.2022
4969 Clouds 7 1028 59 10000 6.69 60 17:21 06.03.2022
4970 Clouds 7 1028 58 10000 6.69 60 16:41 06.03.2022
4971 Clouds 7 1028 57 10000 8.23 80 15:49 06.03.2022
4972 Clouds 7 1029 57 10000 7.72 70 14:49 06.03.2022
4973 Clouds 7 1029 56 10000 7.72 60 14:30 06.03.2022
4974 Clouds 7 1029 58 10000 7.2 70 12:50 06.03.2022
4975 Clouds 6 1029 61 10000 7.2 60 11:56 06.03.2022
4976 Clouds 5 1029 70 10000 4.63 50 10:53 06.03.2022
4977 Clouds 4 1029 76 10000 4.12 50 09:54 06.03.2022
4978 Clouds 4 1028 77 10000 2.57 0 08:29 06.03.2022
4979 Clouds 4 1028 77 10000 2.57 0 08:29 06.03.2022
4980 Clouds 4 1028 77 10000 3.09 0 07:34 06.03.2022
4981 Clouds 4 1027 79 10000 2.57 50 04:46 06.03.2022
4982 Clouds 4 1027 80 10000 3.6 0 00:49 06.03.2022
4983 Clouds 4 1027 81 10000 4.02 3 00:29 06.03.2022
4984 Rain 4 1026 84 10000 4.47 20 23:21 05.03.2022
4985 Rain 5 1026 83 10000 4.12 50 22:43 05.03.2022
4986 Rain 5 1025 84 8000 4.12 0 21:45 05.03.2022
4987 Rain 5 1025 87 7000 3.6 50 21:20 05.03.2022
4988 Clouds 6 1023 88 10000 5.14 340 19:26 05.03.2022
4989 Clouds 6 1023 89 10000 3.58 337 18:53 05.03.2022
4990 Clouds 6 1023 87 10000 5.14 350 18:27 05.03.2022
4991 Clouds 7 1023 85 10000 5.66 360 16:32 05.03.2022
4992 Clouds 7 1023 83 10000 5.66 360 15:31 05.03.2022
4993 Clouds 7 1023 82 10000 5.14 360 14:47 05.03.2022
4994 Clouds 7 1024 86 10000 5.36 335 14:29 05.03.2022
4995 Clouds 7 1024 86 10000 6.17 340 13:21 05.03.2022
4996 Clouds 6 1024 87 10000 4.63 340 11:48 05.03.2022
4997 Clouds 6 1023 87 10000 5.14 350 11:19 05.03.2022
4998 Clouds 6 1023 88 10000 4.63 350 10:18 05.03.2022
4999 Clouds 5 1023 90 10000 4.63 340 08:59 05.03.2022
5000 Clouds 5 1022 89 10000 4.12 340 07:38 05.03.2022
5001 Clouds 5 1022 89 10000 5.81 324 05:43 05.03.2022
5002 Clouds 5 1022 89 8000 3.6 320 03:18 05.03.2022
5003 Clouds 6 1021 87 10000 3.13 345 23:37 04.03.2022
5004 Clouds 6 1021 87 10000 2.68 323 22:42 04.03.2022
5005 Clouds 6 1021 87 10000 3.09 330 22:19 04.03.2022
5006 Clouds 6 1021 87 10000 3.13 337 20:56 04.03.2022
5007 Rain 6 1021 87 10000 2.57 310 20:27 04.03.2022
5008 Clouds 7 1021 87 10000 4.02 313 19:36 04.03.2022
5009 Rain 7 1020 89 9000 4.12 300 18:45 04.03.2022
5010 Rain 7 1020 89 6000 3.6 300 17:48 04.03.2022
5011 Drizzle 7 1020 89 5000 4.12 300 17:28 04.03.2022
5012 Clouds 8 1019 87 10000 4.92 307 15:30 04.03.2022
5013 Clouds 8 1020 87 10000 4.12 290 14:33 04.03.2022
5014 Clouds 8 1019 87 10000 4.12 290 13:26 04.03.2022
5015 Haze 8 1019 89 5000 4.02 311 11:54 04.03.2022
5016 Clouds 8 1019 90 9000 4.02 331 10:54 04.03.2022
5017 Clouds 8 1018 93 7000 1.03 0 09:58 04.03.2022
5018 Clouds 8 1018 93 5000 1.03 0 08:40 04.03.2022
5019 Haze 8 1018 93 4800 2.06 100 08:40 04.03.2022
5020 Haze 8 1018 93 5000 1.03 80 07:38 04.03.2022
5021 Clouds 8 1016 92 6000 0.51 0 04:59 04.03.2022
5022 Clouds 9 1017 90 10000 2.06 210 00:41 04.03.2022
5023 Clouds 9 1017 86 10000 3.09 110 22:39 03.03.2022
5024 Clouds 9 1016 84 10000 4.12 100 21:50 03.03.2022
5025 Clouds 10 1016 83 10000 4.12 90 21:29 03.03.2022
5026 Clouds 10 1015 82 10000 2.57 150 20:18 03.03.2022
5027 Clouds 10 1015 78 10000 3.6 150 18:57 03.03.2022
5028 Clouds 11 1014 77 10000 4.47 153 18:24 03.03.2022
5029 Clouds 11 1015 76 10000 2.68 153 17:31 03.03.2022
5030 Clouds 12 1015 75 10000 4.63 130 16:26 03.03.2022
5031 Clouds 12 1015 75 10000 3.6 120 15:32 03.03.2022
5032 Clouds 12 1015 79 10000 3.6 130 14:43 03.03.2022
5033 Clouds 12 1015 79 10000 3.6 130 14:24 03.03.2022
5034 Clouds 11 1015 83 7000 2.57 80 12:27 03.03.2022
5035 Clouds 9 1015 89 7000 3.09 100 10:56 03.03.2022
5036 Clouds 7 1015 90 7000 2.06 80 09:56 03.03.2022
5037 Clouds 6 1015 91 6000 2.57 100 08:34 03.03.2022
5038 Clouds 5 1015 91 7000 2.57 90 06:54 03.03.2022
5039 Clouds 6 1015 90 7000 2.57 80 05:20 03.03.2022
5040 Clouds 7 1018 90 6000 4.12 100 23:45 02.03.2022
5041 Clouds 7 1018 91 6000 5.14 100 22:54 02.03.2022
5042 Clouds 7 1018 90 6000 5.14 100 22:33 02.03.2022
5043 Rain 7 1019 89 8000 4.12 90 20:59 02.03.2022
5044 Clouds 7 1019 89 8000 4.63 90 20:25 02.03.2022
5045 Clouds 7 1019 87 10000 3.6 90 19:38 02.03.2022
5046 Rain 7 1019 87 8000 3.6 90 19:18 02.03.2022
5047 Clouds 7 1019 87 7000 5.14 90 18:35 02.03.2022
5048 Rain 7 1019 85 8000 6.17 90 17:42 02.03.2022
5049 Rain 8 1020 85 8000 5.66 90 16:52 02.03.2022
5050 Clouds 8 1020 85 10000 5.14 90 15:59 02.03.2022
5051 Clouds 8 1021 88 10000 5.14 100 14:29 02.03.2022
5052 Rain 7 1021 91 9000 4.63 100 12:56 02.03.2022
5053 Rain 7 1022 92 9000 3.6 100 12:34 02.03.2022
5054 Rain 7 1022 93 10000 4.12 110 11:27 02.03.2022
5055 Rain 7 1022 94 10000 4.63 110 10:50 02.03.2022
5056 Drizzle 7 1022 95 4400 5.14 100 09:37 02.03.2022
5057 Drizzle 6 1022 96 4300 5.14 100 08:36 02.03.2022
5058 Rain 6 1022 96 4000 5.66 100 07:24 02.03.2022
5059 Rain 7 1022 96 3100 4.12 90 05:42 02.03.2022
5060 Rain 7 1024 96 6000 4.12 80 00:42 02.03.2022
5061 Rain 7 1025 96 4700 4.12 80 23:35 01.03.2022
5062 Rain 7 1025 95 3900 5.14 80 22:40 01.03.2022
5063 Drizzle 7 1025 95 5000 5.14 70 21:53 01.03.2022
5064 Rain 7 1025 93 10000 5.14 70 20:44 01.03.2022
5065 Rain 7 1025 93 10000 5.14 60 20:22 01.03.2022
5066 Rain 8 1025 93 10000 4.63 60 18:59 01.03.2022
5067 Rain 8 1025 93 8000 4.63 70 18:26 01.03.2022
5068 Rain 8 1025 93 9000 4.12 60 17:55 01.03.2022
5069 Rain 8 1025 93 6000 5.14 60 16:39 01.03.2022
5070 Drizzle 8 1026 93 3900 4.63 50 15:49 01.03.2022
5071 Clouds 8 1026 93 10000 4.12 60 14:54 01.03.2022
5072 Clouds 8 1026 93 10000 3.6 50 14:33 01.03.2022
5073 Drizzle 8 1027 93 5000 3.6 50 13:26 01.03.2022
5074 Drizzle 8 1027 93 4300 3.6 60 12:38 01.03.2022
5075 Drizzle 8 1027 94 3300 3.09 60 11:58 01.03.2022
5076 Drizzle 8 1026 94 4500 3.09 50 10:26 01.03.2022
5077 Drizzle 8 1026 94 5000 2.68 19 08:36 01.03.2022
5078 Drizzle 8 1025 94 3500 3.09 360 07:35 01.03.2022
5079 Drizzle 9 1025 95 1800 1.03 100 03:29 01.03.2022
5080 Rain 10 1025 94 8000 1.54 220 00:58 01.03.2022
5081 Rain 10 1025 93 7000 2.06 200 23:48 28.02.2022
5082 Rain 9 1025 92 10000 2.06 180 22:52 28.02.2022
5083 Rain 9 1024 91 10000 2.57 190 21:48 28.02.2022
5084 Rain 9 1024 90 9000 2.57 190 21:24 28.02.2022
5085 Clouds 10 1024 84 10000 3.09 170 19:52 28.02.2022
5086 Rain 10 1024 81 10000 3.09 160 19:22 28.02.2022
5087 Clouds 10 1023 78 10000 3.6 190 18:36 28.02.2022
5088 Clouds 10 1023 78 10000 3.6 190 18:36 28.02.2022
5089 Clouds 11 1023 74 10000 5.14 210 17:23 28.02.2022
5090 Clouds 11 1023 69 10000 5.66 210 16:33 28.02.2022
5091 Clouds 12 1024 71 10000 4.12 220 15:23 28.02.2022
5092 Clouds 12 1024 73 10000 4.12 200 14:31 28.02.2022
5093 Clouds 12 1025 72 10000 4.63 190 13:34 28.02.2022
5094 Clouds 12 1025 73 10000 5.14 180 12:41 28.02.2022
5095 Clouds 11 1025 74 10000 3.6 170 11:44 28.02.2022
5096 Clouds 10 1025 76 10000 3.6 170 10:48 28.02.2022
5097 Clouds 9 1025 76 10000 4.47 157 10:19 28.02.2022
5098 Clouds 8 1025 78 10000 3.6 160 09:32 28.02.2022
5099 Clouds 8 1024 78 10000 4.12 150 08:29 28.02.2022
5100 Clouds 7 1024 77 10000 3.6 160 07:28 28.02.2022
5101 Clouds 5 1024 79 10000 3.13 159 04:44 28.02.2022
5102 Clear 5 1024 80 10000 1.79 134 04:23 28.02.2022
5103 Clear 5 1024 72 10000 4.63 150 23:42 27.02.2022
5104 Clear 5 1024 72 10000 4.12 140 22:34 27.02.2022
5105 Clear 5 1024 70 10000 3.6 150 21:51 27.02.2022
5106 Clear 6 1024 68 10000 3.09 130 20:59 27.02.2022
5107 Clear 6 1024 67 10000 4.63 130 20:28 27.02.2022
5108 Clear 6 1024 65 10000 4.12 140 19:58 27.02.2022
5109 Clear 6 1024 63 10000 4.12 150 19:27 27.02.2022
5110 Clear 7 1024 59 10000 5.66 140 18:47 27.02.2022
5111 Clear 9 1023 54 10000 5.66 140 17:56 27.02.2022
5112 Clear 9 1024 51 10000 5.66 140 17:18 27.02.2022
5113 Clear 10 1023 47 10000 5.81 145 16:21 27.02.2022
5114 Clear 10 1024 52 10000 5.66 120 13:34 27.02.2022
5115 Clouds 9 1025 52 10000 5.14 130 12:33 27.02.2022
5116 Clouds 7 1025 64 10000 7.2 110 10:59 27.02.2022
5117 Clouds 6 1025 68 10000 5.81 144 10:20 27.02.2022
5118 Clouds 5 1025 72 10000 4.92 155 09:50 27.02.2022
5119 Clear 4 1025 77 10000 5.14 110 09:20 27.02.2022
5120 Clear 3 1025 78 10000 5.81 142 08:20 27.02.2022
5121 Clear 3 1025 78 10000 5.81 142 08:20 27.02.2022
5122 Clear 3 1025 76 10000 0.89 144 05:38 27.02.2022
5123 Clear 4 1026 74 10000 4.63 120 02:35 27.02.2022
5124 Clouds 5 1027 73 10000 5.36 141 23:34 26.02.2022
5125 Clouds 5 1027 71 10000 5.14 120 22:31 26.02.2022
5126 Clouds 5 1028 71 10000 5.14 110 21:19 26.02.2022
5127 Clouds 5 1028 69 10000 4.12 100 20:33 26.02.2022
5128 Clouds 6 1028 64 10000 3.09 120 19:52 26.02.2022
5129 Clouds 6 1028 62 10000 4.63 130 19:31 26.02.2022
5130 Clouds 9 1028 46 10000 6.17 130 17:58 26.02.2022
5131 Clouds 10 1028 47 10000 5.81 142 17:30 26.02.2022
5132 Clouds 10 1029 49 10000 5.66 140 16:34 26.02.2022
5133 Clouds 10 1029 53 10000 6.26 145 15:26 26.02.2022
5134 Clouds 10 1030 54 10000 5.14 160 14:58 26.02.2022
5135 Clouds 11 1030 55 10000 9.39 158 14:39 26.02.2022
5136 Clouds 11 1030 57 10000 5.14 180 13:46 26.02.2022
5137 Clouds 10 1031 60 10000 5.14 190 12:53 26.02.2022
5138 Clouds 9 1031 68 10000 5.36 198 11:45 26.02.2022
5139 Clear 9 1031 72 10000 4.02 202 11:24 26.02.2022
5140 Clouds 4 1032 89 10000 1.03 0 09:28 26.02.2022
5141 Clouds 2 1031 86 10000 1.03 0 08:21 26.02.2022
5142 Clouds 2 1031 82 10000 0.51 0 04:22 26.02.2022
5143 Clear 3 1031 81 10000 2.06 230 23:50 25.02.2022
5144 Clear 4 1031 78 10000 0.51 0 22:31 25.02.2022
5145 Clear 4 1031 77 10000 1.25 215 21:30 25.02.2022
5146 Clear 4 1030 75 10000 0.79 235 20:47 25.02.2022
5147 Clear 5 1030 74 10000 1.03 282 20:25 25.02.2022
5148 Clear 9 1029 53 10000 4.63 290 17:54 25.02.2022
5149 Clouds 10 1028 52 10000 4.63 280 16:48 25.02.2022
5150 Clouds 11 1028 51 10000 7.6 311 15:50 25.02.2022
5151 Clouds 10 1028 53 10000 6.71 321 15:23 25.02.2022
5152 Clouds 11 1028 52 10000 8.49 329 14:55 25.02.2022
5153 Clouds 10 1027 54 10000 8.94 326 14:24 25.02.2022
5154 Clouds 10 1027 55 10000 7.2 290 13:30 25.02.2022
5155 Clear 9 1026 62 10000 11.18 301 12:21 25.02.2022
5156 Clear 8 1025 66 10000 7.2 280 11:21 25.02.2022
5157 Clear 6 1024 74 10000 5.66 270 10:23 25.02.2022
5158 Clear 5 1024 79 10000 5.66 250 09:45 25.02.2022
5159 Clear 3 1022 81 10000 5.66 250 08:22 25.02.2022
5160 Clouds 4 1021 79 10000 5.14 250 06:56 25.02.2022
5161 Clouds 4 1020 78 10000 7.72 250 05:42 25.02.2022
5162 Clear 4 1018 76 10000 7.72 250 02:46 25.02.2022
5163 Clear 3 1017 74 10000 6.69 250 22:48 24.02.2022
5164 Clear 4 1017 75 10000 0.89 273 21:51 24.02.2022
5165 Clear 4 1017 74 10000 1.34 272 21:31 24.02.2022
5166 Clear 4 1016 67 10000 2.24 250 20:47 24.02.2022
5167 Clouds 5 1015 59 10000 8.23 270 19:32 24.02.2022
5168 Clouds 5 1014 56 10000 8.05 287 18:36 24.02.2022
5169 Clouds 6 1013 53 10000 11.18 309 18:18 24.02.2022
5170 Clouds 6 1012 56 10000 6.17 270 17:33 24.02.2022
5171 Clouds 7 1011 64 10000 13.89 270 16:28 24.02.2022
5172 Rain 6 1010 65 10000 8.75 250 15:46 24.02.2022
5173 Clouds 7 1009 64 10000 8.75 260 14:52 24.02.2022
5174 Clouds 7 1009 59 10000 7.72 260 14:20 24.02.2022
5175 Clouds 7 1008 61 10000 8.94 280 13:39 24.02.2022
5176 Clouds 6 1008 79 10000 6.17 250 12:27 24.02.2022
5177 Rain 6 1007 86 10000 9.39 297 10:39 24.02.2022
5178 Clouds 7 1006 90 3500 9.26 240 08:56 24.02.2022
5179 Thunderstorm 7 1007 90 3500 9.26 240 08:38 24.02.2022
5180 Clouds 9 1009 81 10000 5.36 202 05:52 24.02.2022
5181 Clouds 8 1014 83 10000 4.63 220 00:32 24.02.2022
5182 Clouds 8 1015 82 10000 4.92 222 22:38 23.02.2022
5183 Clouds 8 1016 81 10000 5.14 210 21:37 23.02.2022
5184 Clouds 8 1017 80 10000 5.66 230 20:31 23.02.2022
5185 Clouds 9 1017 78 10000 5.66 220 19:44 23.02.2022
5186 Clouds 9 1018 74 10000 5.66 220 18:32 23.02.2022
5187 Clouds 9 1018 73 10000 6.17 220 17:30 23.02.2022
5188 Clouds 10 1020 65 10000 6.17 210 14:42 23.02.2022
5189 Clouds 10 1023 70 10000 5.36 204 12:42 23.02.2022
5190 Clouds 9 1024 81 10000 6.26 208 11:34 23.02.2022
5191 Clear 7 1024 84 10000 4.02 217 10:31 23.02.2022
5192 Clear 3 1024 92 10000 2.57 210 08:59 23.02.2022
5193 Clear 3 1025 92 10000 2.06 220 08:23 23.02.2022
5194 Clear 4 1025 90 10000 3.6 230 03:49 23.02.2022
5195 Clear 5 1024 79 10000 4.12 240 00:28 23.02.2022
5196 Clear 6 1025 77 10000 4.12 230 23:36 22.02.2022
5197 Clear 6 1023 73 10000 2.57 230 22:32 22.02.2022
5198 Clear 7 1023 70 10000 4.63 290 21:49 22.02.2022
5199 Clear 7 1022 67 10000 6.17 280 21:31 22.02.2022
5200 Clear 8 1023 66 10000 5.36 305 20:55 22.02.2022
5201 Clear 8 1021 65 10000 5.66 280 20:30 22.02.2022
5202 Clear 9 1020 63 10000 6.69 280 19:42 22.02.2022
5203 Clouds 10 1020 62 10000 8.05 312 19:23 22.02.2022
5204 Clouds 12 1018 56 10000 10.73 317 17:49 22.02.2022
5205 Clouds 12 1017 55 10000 17.43 304 17:23 22.02.2022
5206 Clouds 12 1016 59 10000 9.26 290 16:41 22.02.2022
5207 Clouds 12 1015 72 10000 18.33 314 15:56 22.02.2022
5208 Clouds 12 1015 83 6000 9.39 322 14:45 22.02.2022
5209 Clouds 13 1015 67 10000 8.49 284 12:44 22.02.2022
5210 Clouds 11 1015 77 10000 6.69 230 10:53 22.02.2022
5211 Clouds 9 1017 91 10000 5.14 230 08:48 22.02.2022
5212 Clouds 8 1017 92 9000 4.12 230 07:27 22.02.2022
5213 Clouds 7 1018 90 10000 5.66 230 06:30 22.02.2022
5214 Clouds 6 1021 81 10000 4.12 230 02:45 22.02.2022
5215 Clear 7 1021 74 10000 4.63 280 22:53 21.02.2022
5216 Clear 8 1020 67 10000 5.66 290 21:46 21.02.2022
5217 Clear 9 1019 65 10000 8.05 302 20:37 21.02.2022
5218 Clouds 10 1016 62 10000 10.29 300 18:47 21.02.2022
5219 Clouds 11 1015 60 10000 12.52 306 17:39 21.02.2022
5220 Rain 11 1011 66 10000 17.43 311 15:25 21.02.2022
5221 Clouds 10 1009 67 10000 20.12 305 14:22 21.02.2022
5222 Clouds 10 1007 66 10000 14.31 320 13:30 21.02.2022
5223 Clouds 10 1006 65 10000 12.35 280 12:24 21.02.2022
5224 Clouds 9 1004 64 10000 13.89 260 11:20 21.02.2022
5225 Clouds 8 1002 66 10000 13.38 260 09:54 21.02.2022
5226 Clouds 5 1003 71 10000 9.26 250 05:35 21.02.2022
5227 Clouds 5 1002 68 10000 11.83 260 00:18 21.02.2022
5228 Clouds 7 999 72 10000 11.32 270 22:28 20.02.2022
5229 Clouds 7 998 76 10000 13.38 260 21:42 20.02.2022
5230 Clouds 7 997 82 10000 8.05 285 21:19 20.02.2022
5231 Clouds 8 996 84 8000 11.83 280 20:41 20.02.2022
5232 Rain 11 994 85 7000 11.83 230 19:42 20.02.2022
5233 Rain 12 994 86 10000 9.26 230 18:52 20.02.2022
5234 Rain 12 995 86 10000 9.26 230 18:32 20.02.2022
5235 Rain 12 996 86 10000 8.94 208 17:52 20.02.2022
5236 Rain 12 1000 86 8000 10.29 230 15:54 20.02.2022
5237 Clouds 12 1002 84 10000 9.77 230 14:52 20.02.2022
5238 Clouds 12 1004 84 10000 8.94 215 13:33 20.02.2022
5239 Rain 11 1004 86 9000 10.8 230 12:34 20.02.2022
5240 Clouds 11 1005 83 10000 9.26 240 10:47 20.02.2022
5241 Clouds 11 1006 83 10000 9.26 240 10:20 20.02.2022
5242 Clouds 11 1006 80 10000 9.26 240 08:56 20.02.2022
5243 Clouds 7 1011 88 10000 4.12 240 00:55 20.02.2022
5244 Clouds 6 1012 89 10000 3.58 195 00:30 20.02.2022
5245 Clouds 6 1012 85 10000 5.14 250 23:18 19.02.2022
5246 Clouds 7 1011 80 10000 6.17 280 22:23 19.02.2022
5247 Clouds 7 1011 76 10000 9.26 280 21:39 19.02.2022
5248 Clouds 9 1008 75 10000 9.26 260 19:54 19.02.2022
5249 Clouds 9 1008 76 10000 10.8 250 19:33 19.02.2022
5250 Clouds 9 1005 75 10000 6.26 277 18:35 19.02.2022
5251 Clouds 10 1004 78 10000 8.75 250 17:37 19.02.2022
5252 Clouds 9 1005 89 9000 7.72 240 16:34 19.02.2022
5253 Rain 7 1005 91 6000 8.94 212 15:19 19.02.2022
5254 Rain 7 1005 90 10000 8.75 210 14:52 19.02.2022
5255 Rain 7 1008 84 4600 8.23 210 13:47 19.02.2022
5256 Clouds 7 1012 72 10000 5.81 187 11:39 19.02.2022
5257 Clouds 6 1013 73 10000 5.66 240 10:30 19.02.2022
5258 Clouds 3 1013 80 10000 4.63 240 08:31 19.02.2022
5259 Clear 3 1012 80 10000 3.13 253 06:30 19.02.2022
5260 Clouds 4 1007 70 10000 10.29 250 23:45 18.02.2022
5261 Clouds 4 1004 76 10000 10.29 250 21:54 18.02.2022
5262 Clouds 4 1003 75 10000 9.77 250 20:57 18.02.2022
5263 Clouds 5 1002 76 10000 9.39 224 19:55 18.02.2022
5264 Clouds 7 1000 53 10000 10.8 260 18:50 18.02.2022
5265 Clouds 8 999 50 10000 16.46 270 18:24 18.02.2022
5266 Clouds 8 998 49 10000 14.4 260 17:55 18.02.2022
5267 Clouds 8 990 66 10000 16.46 250 15:23 18.02.2022
5268 Rain 10 986 62 10000 14.4 230 13:56 18.02.2022
5269 Rain 10 986 64 10000 14.4 220 13:25 18.02.2022
5270 Clouds 10 987 61 10000 13.86 195 12:40 18.02.2022
5271 Clouds 10 989 67 10000 16.54 194 11:40 18.02.2022
5272 Rain 10 991 79 10000 12.86 230 10:24 18.02.2022
5273 Rain 11 995 92 10000 7.2 210 06:58 18.02.2022
5274 Clouds 10 997 93 10000 6.26 209 05:41 18.02.2022
5275 Rain 8 1010 76 10000 4.47 167 23:43 17.02.2022
5276 Clouds 8 1011 75 10000 3.6 240 21:46 17.02.2022
5277 Clouds 8 1011 75 10000 4.12 240 21:26 17.02.2022
5278 Clouds 9 1011 74 10000 3.6 240 20:40 17.02.2022
5279 Clouds 9 1012 73 10000 6.69 250 19:52 17.02.2022
5280 Clouds 9 1011 71 4900 8.23 260 18:54 17.02.2022
5281 Clouds 10 1011 65 10000 7.2 250 17:55 17.02.2022
5282 Clouds 11 1010 65 10000 8.75 240 16:43 17.02.2022
5283 Clouds 11 1010 55 10000 5.66 250 15:40 17.02.2022
5284 Clouds 11 1011 51 10000 8.23 250 14:28 17.02.2022
5285 Clouds 11 1011 55 10000 12.07 301 12:50 17.02.2022
5286 Clouds 10 1010 58 10000 16.09 277 11:27 17.02.2022
5287 Clear 8 1008 75 10000 8.23 250 09:30 17.02.2022
5288 Clouds 10 1002 71 10000 9.26 260 04:41 17.02.2022
5289 Clouds 12 996 76 10000 12.35 250 23:21 16.02.2022
5290 Clouds 13 995 81 10000 12.86 260 22:20 16.02.2022
5291 Clouds 14 994 88 4900 10.29 240 20:19 16.02.2022
5292 Clouds 14 994 89 8000 9.26 240 18:43 16.02.2022
5293 Clouds 14 994 88 10000 9.77 240 17:53 16.02.2022
5294 Clouds 14 995 90 10000 8.75 240 15:55 16.02.2022
5295 Rain 13 996 89 9000 9.26 240 15:20 16.02.2022
5296 Clouds 15 997 76 10000 10.29 250 13:31 16.02.2022
5297 Clouds 14 997 76 10000 8.75 240 12:20 16.02.2022
5298 Clouds 13 997 78 10000 7.72 240 11:35 16.02.2022
5299 Clouds 13 997 83 10000 7.2 250 10:34 16.02.2022
5300 Clouds 12 997 92 10000 6.17 240 08:58 16.02.2022
5301 Clouds 12 996 94 9000 6.17 240 06:43 16.02.2022
5302 Rain 9 1002 92 10000 3.6 220 23:46 15.02.2022
5303 Rain 9 1003 93 10000 5.14 230 22:34 15.02.2022
5304 Rain 9 1003 93 10000 4.12 240 21:49 15.02.2022
5305 Rain 9 1004 93 10000 3.6 240 21:29 15.02.2022
5306 Clouds 9 1004 92 10000 4.12 230 20:56 15.02.2022
5307 Clouds 9 1004 92 10000 4.12 240 20:19 15.02.2022
5308 Clouds 9 1004 92 10000 4.12 230 19:33 15.02.2022
5309 Clouds 9 1004 93 10000 4.63 250 18:24 15.02.2022
5310 Clouds 9 1004 92 10000 5.66 250 17:52 15.02.2022
5311 Clouds 9 1004 92 10000 4.63 270 17:26 15.02.2022
5312 Rain 9 1004 91 8000 7.2 230 15:34 15.02.2022
5313 Rain 9 1005 89 10000 7.72 220 13:49 15.02.2022
5314 Rain 9 1006 89 10000 6.69 220 13:25 15.02.2022
5315 Rain 9 1007 84 10000 5.66 220 11:41 15.02.2022
5316 Rain 9 1007 84 10000 5.66 220 11:41 15.02.2022
5317 Clouds 7 1009 86 10000 5.36 195 10:19 15.02.2022
5318 Clouds 4 1010 88 10000 3.09 210 07:41 15.02.2022
5319 Clouds 3 1010 90 10000 3.6 230 06:36 15.02.2022
5320 Clouds 6 1009 83 10000 5.66 270 23:34 14.02.2022
5321 Clouds 7 1007 84 10000 1.34 228 21:56 14.02.2022
5322 Clouds 7 1005 85 10000 5.14 280 20:52 14.02.2022
5323 Clouds 7 1004 86 10000 4.12 280 19:46 14.02.2022
5324 Rain 7 1004 85 10000 6.17 280 19:28 14.02.2022
5325 Rain 8 1003 81 10000 5.66 280 18:23 14.02.2022
5326 Rain 9 1001 77 10000 7.15 289 17:27 14.02.2022
5327 Clouds 9 1001 78 10000 7.2 250 16:33 14.02.2022
5328 Clouds 9 999 77 10000 6.17 250 14:43 14.02.2022
5329 Clouds 9 999 74 10000 6.69 250 13:34 14.02.2022
5330 Clouds 9 999 74 10000 7.72 250 12:58 14.02.2022
5331 Clouds 9 999 75 10000 6.69 240 12:32 14.02.2022
5332 Clouds 8 999 78 10000 6.17 240 11:38 14.02.2022
5333 Clouds 7 998 86 10000 6.17 230 10:18 14.02.2022
5334 Clouds 6 996 89 10000 6.69 240 07:49 14.02.2022
5335 Clouds 6 995 88 10000 6.69 240 07:24 14.02.2022
5336 Rain 10 993 92 10000 7.2 200 22:48 13.02.2022
5337 Rain 10 993 92 6000 7.2 200 22:30 13.02.2022
5338 Rain 10 993 92 6000 7.2 200 22:30 13.02.2022
5339 Rain 10 993 92 10000 7.6 189 21:59 13.02.2022
5340 Clouds 9 993 92 7000 7.72 200 21:23 13.02.2022
5341 Rain 9 994 91 9000 5.66 190 20:27 13.02.2022
5342 Rain 9 994 90 10000 7.15 203 19:18 13.02.2022
5343 Rain 9 994 91 6000 8.94 185 18:41 13.02.2022
5344 Rain 8 995 91 10000 11.62 190 17:32 13.02.2022
5345 Rain 8 997 89 10000 6.69 180 15:51 13.02.2022
5346 Rain 8 998 85 10000 7.6 196 14:50 13.02.2022
5347 Clouds 8 1001 79 10000 4.02 182 13:29 13.02.2022
5348 Clouds 8 1002 79 10000 6.17 180 12:42 13.02.2022
5349 Clouds 8 1005 81 10000 4.63 190 10:46 13.02.2022
5350 Clouds 8 1005 81 10000 4.63 190 10:27 13.02.2022
5351 Clouds 7 1007 81 10000 6.17 200 08:57 13.02.2022
5352 Clouds 7 1012 84 10000 6.17 220 02:50 13.02.2022
5353 Clouds 7 1014 82 10000 4.47 217 00:33 13.02.2022
5354 Clouds 7 1015 78 10000 5.66 220 22:56 12.02.2022
5355 Clouds 6 1015 77 10000 5.66 220 22:32 12.02.2022
5356 Clouds 6 1016 73 10000 5.81 188 21:18 12.02.2022
5357 Clouds 6 1016 73 10000 5.14 210 20:25 12.02.2022
5358 Clouds 6 1017 70 10000 4.63 210 18:54 12.02.2022
5359 Clouds 6 1017 70 10000 4.63 210 18:36 12.02.2022
5360 Clouds 7 1017 67 10000 6.69 210 17:55 12.02.2022
5361 Clouds 7 1018 63 10000 6.17 210 16:54 12.02.2022
5362 Clouds 8 1019 58 10000 6.69 200 16:18 12.02.2022
5363 Clouds 8 1019 56 10000 6.69 210 15:32 12.02.2022
5364 Clouds 8 1020 53 10000 6.17 200 14:30 12.02.2022
5365 Clouds 7 1023 68 10000 7.72 200 12:26 12.02.2022
5366 Clouds 6 1024 76 10000 5.14 200 10:35 12.02.2022
5367 Clouds 5 1024 81 10000 3.09 170 09:38 12.02.2022
5368 Clouds 4 1025 83 10000 3.6 190 08:48 12.02.2022
5369 Clouds 4 1025 83 10000 3.6 190 08:48 12.02.2022
5370 Clouds 4 1025 84 10000 4.12 200 07:50 12.02.2022
5371 Clouds 3 1026 84 10000 3.6 170 05:31 12.02.2022
5372 Clouds 2 1029 85 10000 2.06 170 02:20 12.02.2022
5373 Clouds 2 1030 85 10000 3.09 210 01:44 12.02.2022
5374 Clouds 3 1032 82 10000 3.09 200 22:27 11.02.2022
5375 Clouds 4 1032 80 10000 4.12 210 21:45 11.02.2022
5376 Clouds 5 1032 77 10000 3.6 190 20:38 11.02.2022
5377 Clouds 6 1033 73 10000 2.24 162 19:33 11.02.2022
5378 Clouds 6 1032 70 10000 3.13 184 18:59 11.02.2022
5379 Clouds 7 1033 61 10000 2.24 152 17:41 11.02.2022
5380 Clouds 7 1033 60 10000 2.24 160 17:22 11.02.2022
5381 Clouds 8 1033 58 10000 2.68 162 15:55 11.02.2022
5382 Clouds 8 1033 61 10000 1.54 220 14:43 11.02.2022
5383 Clouds 8 1034 63 10000 1.34 314 14:20 11.02.2022
5384 Clouds 8 1034 64 10000 2.06 110 13:52 11.02.2022
5385 Clouds 8 1034 65 10000 2.06 110 13:34 11.02.2022
5386 Clear 6 1034 76 10000 1.79 355 11:41 11.02.2022
5387 Clouds 2 1033 90 10000 1.03 0 09:57 11.02.2022
5388 Clouds 1 1032 89 10000 2.06 220 08:42 11.02.2022
5389 Clouds 1 1032 89 10000 2.06 220 08:42 11.02.2022
5390 Clouds 1 1032 90 10000 3.09 260 08:22 11.02.2022
5391 Clear 1 1030 88 10000 2.57 230 06:33 11.02.2022
5392 Clear 2 1028 81 10000 3.6 240 02:26 11.02.2022
5393 Clear 3 1027 79 10000 4.3 287 00:51 11.02.2022
5394 Clear 4 1025 71 10000 5.66 270 22:49 10.02.2022
5395 Clear 4 1025 69 10000 4.02 266 21:45 10.02.2022
5396 Clear 5 1025 66 10000 4.02 289 20:57 10.02.2022
5397 Clear 5 1025 66 10000 4.84 282 20:35 10.02.2022
5398 Clouds 6 1024 65 10000 5.66 260 19:26 10.02.2022
5399 Clouds 6 1023 65 10000 5.66 260 18:45 10.02.2022
5400 Clouds 7 1023 62 10000 6.26 304 17:26 10.02.2022
5401 Clouds 7 1023 62 10000 5.66 280 16:50 10.02.2022
5402 Clouds 8 1023 63 10000 6.17 260 15:51 10.02.2022
5403 Clouds 7 1023 65 10000 5.36 308 15:30 10.02.2022
5404 Clouds 8 1023 65 10000 5.36 306 14:48 10.02.2022
5405 Clouds 8 1023 64 10000 5.66 280 14:24 10.02.2022
5406 Clouds 8 1023 66 10000 8.05 295 13:29 10.02.2022
5407 Clouds 7 1023 71 10000 4.92 311 12:45 10.02.2022
5408 Clouds 7 1023 77 10000 5.36 328 11:34 10.02.2022
5409 Clouds 6 1023 83 10000 4.63 280 10:55 10.02.2022
5410 Clouds 6 1022 88 10000 4.02 308 09:59 10.02.2022
5411 Clouds 5 1022 90 10000 0.89 298 09:24 10.02.2022
5412 Clouds 5 1021 90 10000 3.6 290 07:28 10.02.2022
5413 Clouds 6 1021 90 10000 3.58 315 04:55 10.02.2022
5414 Drizzle 8 1021 93 3800 5.36 336 01:51 10.02.2022
5415 Clouds 8 1021 93 4200 1.03 0 00:49 10.02.2022
5416 Clouds 9 1021 93 5000 3.13 337 00:28 10.02.2022
5417 Clouds 9 1022 91 4900 2.68 322 23:23 09.02.2022
5418 Clouds 9 1022 89 10000 3.09 330 22:35 09.02.2022
5419 Clouds 10 1022 87 10000 3.13 9 21:51 09.02.2022
5420 Clouds 10 1022 86 10000 2.06 260 21:29 09.02.2022
5421 Clouds 10 1022 85 10000 2.57 240 20:47 09.02.2022
5422 Clouds 10 1022 84 10000 2.57 240 20:27 09.02.2022
5423 Clouds 10 1022 81 10000 2.57 240 19:54 09.02.2022
5424 Clouds 11 1022 81 10000 2.57 240 19:31 09.02.2022
5425 Clouds 12 1023 76 10000 4.12 240 17:37 09.02.2022
5426 Clouds 12 1023 72 10000 4.12 250 16:48 09.02.2022
5427 Clouds 12 1023 70 10000 5.66 250 15:51 09.02.2022
5428 Clouds 13 1023 69 10000 5.66 240 14:42 09.02.2022
5429 Clouds 11 1024 75 10000 5.14 250 12:28 09.02.2022
5430 Clouds 10 1024 81 10000 6.17 240 10:54 09.02.2022
5431 Clouds 9 1024 84 10000 5.66 240 10:30 09.02.2022
5432 Clouds 9 1024 88 10000 4.12 240 09:40 09.02.2022
5433 Clouds 8 1024 88 10000 4.12 240 09:19 09.02.2022
5434 Clouds 8 1024 88 10000 5.14 230 07:55 09.02.2022
5435 Clouds 9 1024 83 10000 4.63 240 05:30 09.02.2022
5436 Clouds 10 1025 84 10000 5.66 230 03:50 09.02.2022
5437 Clouds 10 1025 84 10000 6.17 230 00:44 09.02.2022
5438 Clouds 10 1026 81 10000 5.66 230 23:33 08.02.2022
5439 Clouds 10 1026 80 10000 5.14 230 22:46 08.02.2022
5440 Clouds 10 1026 79 10000 6.17 230 22:21 08.02.2022
5441 Clouds 11 1026 76 10000 5.14 230 21:42 08.02.2022
5442 Clouds 11 1026 74 10000 5.66 230 21:21 08.02.2022
5443 Clouds 11 1027 73 10000 5.14 230 20:44 08.02.2022
5444 Clouds 11 1026 71 10000 5.14 240 19:46 08.02.2022
5445 Clouds 11 1026 71 10000 4.63 240 18:38 08.02.2022
5446 Clouds 12 1026 71 10000 4.63 240 17:43 08.02.2022
5447 Clouds 12 1026 70 10000 7.2 250 16:30 08.02.2022
5448 Clouds 12 1027 69 10000 6.69 240 15:30 08.02.2022
5449 Clouds 12 1027 69 10000 6.69 240 15:30 08.02.2022
5450 Clouds 12 1027 69 10000 6.69 240 15:30 08.02.2022
5451 Clouds 12 1027 69 10000 6.69 250 14:36 08.02.2022
5452 Clouds 12 1027 70 10000 6.69 240 13:20 08.02.2022
5453 Clouds 12 1027 72 10000 6.69 240 11:38 08.02.2022
5454 Clouds 11 1027 74 10000 6.69 250 10:23 08.02.2022
5455 Clouds 11 1027 74 10000 4.63 240 09:45 08.02.2022
5456 Clouds 10 1026 75 10000 6.69 240 07:53 08.02.2022
5457 Clouds 10 1026 77 10000 6.17 250 05:41 08.02.2022
5458 Clouds 10 1026 78 10000 8.23 250 04:39 08.02.2022
5459 Clouds 10 1026 78 10000 7.72 250 04:21 08.02.2022
5460 Clouds 10 1026 77 10000 8.23 250 03:36 08.02.2022
5461 Clouds 10 1026 77 10000 8.23 250 03:18 08.02.2022
5462 Clouds 10 1026 77 10000 7.72 250 02:59 08.02.2022
5463 Clouds 10 1026 78 10000 7.72 250 02:36 08.02.2022
5464 Clouds 10 1026 78 10000 6.69 250 02:18 08.02.2022
5465 Clouds 10 1026 78 10000 6.69 250 02:18 08.02.2022
5466 Clouds 10 1026 79 10000 6.69 250 01:44 08.02.2022
5467 Clouds 10 1026 79 10000 6.17 250 01:24 08.02.2022
5468 Clouds 10 1027 79 10000 6.69 240 00:54 08.02.2022
5469 Clouds 11 1027 84 10000 5.14 250 23:57 07.02.2022
5470 Clouds 10 1027 86 10000 6.69 250 23:39 07.02.2022
5471 Clouds 10 1027 87 10000 6.69 250 23:18 07.02.2022
5472 Clouds 10 1027 89 10000 4.63 240 22:42 07.02.2022
5473 Clouds 10 1027 89 10000 4.63 240 22:18 07.02.2022
5474 Clouds 10 1027 88 10000 5.14 250 21:43 07.02.2022
5475 Clouds 10 1027 88 10000 4.12 240 21:25 07.02.2022
5476 Clouds 10 1026 85 10000 4.12 240 20:41 07.02.2022
5477 Clouds 9 1026 83 10000 5.66 240 19:54 07.02.2022
5478 Clouds 9 1026 82 10000 5.66 240 19:36 07.02.2022
5479 Clouds 9 1026 75 10000 5.14 230 18:21 07.02.2022
5480 Clouds 9 1027 70 10000 5.14 250 16:53 07.02.2022
5481 Clouds 10 1027 68 10000 6.17 240 16:20 07.02.2022
5482 Clouds 10 1027 61 10000 7.2 250 15:48 07.02.2022
5483 Clouds 9 1028 64 10000 5.14 250 13:36 07.02.2022
5484 Clouds 9 1028 66 10000 4.12 240 13:18 07.02.2022
5485 Clouds 7 1028 75 10000 2.24 214 11:58 07.02.2022
5486 Clouds 6 1028 76 10000 0.89 316 11:37 07.02.2022
5487 Clouds 5 1028 82 10000 1.79 306 10:52 07.02.2022
5488 Clouds 4 1028 84 10000 0.89 281 10:32 07.02.2022
5489 Clouds 3 1027 85 10000 2.24 310 09:53 07.02.2022
5490 Clouds 2 1026 87 10000 4.12 240 09:18 07.02.2022
5491 Clouds 2 1026 86 10000 3.09 230 08:39 07.02.2022
5492 Clear 2 1024 84 10000 0.89 313 07:19 07.02.2022
5493 Clear 3 1024 81 10000 0.45 326 06:34 07.02.2022
5494 Clouds 5 1021 74 10000 6.17 280 03:48 07.02.2022
5495 Clouds 6 1016 68 10000 4.92 274 00:46 07.02.2022
5496 Clouds 6 1015 65 10000 4.47 307 23:49 06.02.2022
5497 Clouds 7 1014 66 10000 6.26 298 22:55 06.02.2022
5498 Clouds 7 1013 64 10000 5.81 318 22:34 06.02.2022
5499 Clouds 7 1012 64 10000 4.92 320 21:36 06.02.2022
5500 Clouds 8 1010 66 10000 5.36 301 20:56 06.02.2022
5501 Clouds 8 1009 68 10000 8.94 300 20:32 06.02.2022
5502 Clouds 9 1008 66 10000 8.49 317 19:40 06.02.2022
5503 Clouds 9 1007 70 10000 12.52 290 18:48 06.02.2022
5504 Clouds 10 1006 70 10000 4.47 294 17:58 06.02.2022
5505 Clouds 10 1005 69 10000 3.13 302 17:21 06.02.2022
5506 Clouds 10 1005 68 10000 3.13 268 16:48 06.02.2022
5507 Clouds 11 1004 62 10000 4.02 296 15:50 06.02.2022
5508 Clouds 11 1004 62 10000 3.13 233 15:27 06.02.2022
5509 Clouds 11 1004 63 10000 3.13 267 14:50 06.02.2022
5510 Clouds 10 1005 68 10000 2.68 313 13:51 06.02.2022
5511 Clouds 10 1005 70 10000 2.24 249 13:20 06.02.2022
5512 Clouds 10 1004 73 10000 3.13 292 11:39 06.02.2022
5513 Rain 10 1003 86 4900 2.68 249 10:31 06.02.2022
5514 Clouds 10 1003 88 10000 2.24 257 09:25 06.02.2022
5515 Rain 10 1003 88 10000 2.24 221 08:41 06.02.2022
5516 Rain 9 1008 85 10000 1.34 207 05:36 06.02.2022
5517 Rain 9 1010 85 10000 1.79 291 03:31 06.02.2022
5518 Rain 10 1010 81 10000 0.89 254 02:24 06.02.2022
5519 Rain 10 1012 79 10000 0.89 261 00:30 06.02.2022
5520 Clouds 10 1013 75 10000 1.34 229 23:25 05.02.2022
5521 Clouds 10 1014 76 10000 1.79 247 21:38 05.02.2022
5522 Clouds 10 1015 76 10000 1.79 216 20:25 05.02.2022
5523 Clouds 9 1015 75 10000 1.34 201 19:50 05.02.2022
5524 Clouds 9 1016 74 10000 1.79 203 19:27 05.02.2022
5525 Clouds 9 1016 72 10000 1.34 267 18:26 05.02.2022
5526 Clouds 10 1016 70 10000 1.79 229 17:33 05.02.2022
5527 Clouds 10 1018 67 10000 1.34 272 15:43 05.02.2022
5528 Clouds 10 1018 67 10000 0.89 214 15:25 05.02.2022
5529 Clouds 9 1020 70 10000 2.24 277 13:22 05.02.2022
5530 Clouds 8 1020 72 10000 1.79 225 12:42 05.02.2022
5531 Clouds 5 1021 79 10000 0.89 217 11:18 05.02.2022
5532 Clouds 4 1021 82 10000 0.89 268 10:43 05.02.2022
5533 Clouds 3 1022 86 10000 0.45 183 09:49 05.02.2022
5534 Clouds 2 1021 86 10000 0.45 247 08:21 05.02.2022
5535 Clouds 2 1021 86 10000 0.45 194 06:58 05.02.2022
5536 Clear 2 1021 86 10000 0.45 277 05:44 05.02.2022
5537 Clear 4 1019 84 10000 0.89 284 01:47 05.02.2022
5538 Clouds 4 1019 83 10000 1.34 239 01:18 05.02.2022
5539 Clouds 4 1019 83 10000 1.34 239 01:18 05.02.2022
5540 Clouds 4 1019 83 10000 6.69 240 00:36 05.02.2022
5541 Clouds 4 1018 81 10000 1.34 230 23:33 04.02.2022
5542 Clouds 4 1017 76 10000 0.89 319 22:37 04.02.2022
5543 Clouds 5 1017 71 10000 1.34 260 21:36 04.02.2022
5544 Clouds 5 1017 70 10000 7.2 250 21:18 04.02.2022
5545 Clouds 5 1016 69 10000 5.43 264 20:28 04.02.2022
5546 Clouds 7 1015 66 10000 0.89 285 18:30 04.02.2022
5547 Clouds 8 1012 66 10000 3.13 301 15:57 04.02.2022
5548 Clouds 7 1011 70 10000 1.79 257 15:18 04.02.2022
5549 Clouds 6 1011 77 10000 2.24 289 14:26 04.02.2022
5550 Clouds 4 1010 90 10000 0.89 314 12:43 04.02.2022
5551 Clouds 3 1009 91 7000 2.24 325 11:44 04.02.2022
5552 Rain 4 1008 88 10000 3.13 326 10:51 04.02.2022
5553 Rain 9 1006 80 10000 0.89 228 09:31 04.02.2022
5554 Clouds 10 1007 80 10000 1.34 210 07:44 04.02.2022
5555 Clouds 9 1010 81 10000 0.89 228 03:28 04.02.2022
5556 Clouds 9 1010 79 10000 1.34 184 02:33 04.02.2022
5557 Clouds 9 1012 84 10000 1.34 234 23:34 03.02.2022
5558 Clouds 9 1012 83 10000 0.45 200 22:48 03.02.2022
5559 Clouds 9 1012 81 10000 0.89 204 21:51 03.02.2022
5560 Clouds 9 1012 80 10000 0.45 245 21:18 03.02.2022
5561 Clouds 9 1013 78 10000 0.89 203 20:21 03.02.2022
5562 Clouds 9 1013 77 10000 0.89 211 19:36 03.02.2022
5563 Clouds 9 1013 77 10000 0.45 229 18:50 03.02.2022
5564 Clouds 10 1013 76 10000 0.45 207 17:51 03.02.2022
5565 Clouds 10 1013 75 10000 0.89 288 16:48 03.02.2022
5566 Clouds 10 1014 74 10000 0.89 278 14:59 03.02.2022
5567 Clouds 10 1014 76 10000 0.45 261 13:19 03.02.2022
5568 Clouds 9 1015 81 10000 0.89 213 11:44 03.02.2022
5569 Clouds 7 1015 84 10000 0.89 227 08:55 03.02.2022
5570 Clouds 8 1015 85 10000 0.89 215 07:41 03.02.2022
5571 Clouds 9 1020 76 10000 0.45 236 00:35 03.02.2022
5572 Clouds 9 1021 78 10000 0.45 207 23:47 02.02.2022
5573 Clouds 9 1021 82 10000 0.89 193 22:38 02.02.2022
5574 Clouds 9 1021 84 10000 0.45 295 21:42 02.02.2022
5575 Clouds 9 1022 85 10000 0.45 217 21:24 02.02.2022
5576 Clouds 9 1022 86 10000 0.45 168 20:20 02.02.2022
5577 Clouds 9 1022 85 10000 1.54 250 19:45 02.02.2022
5578 Clouds 10 1022 81 10000 0.45 242 18:55 02.02.2022
5579 Clouds 10 1022 80 10000 3.09 230 18:23 02.02.2022
5580 Clouds 11 1022 77 10000 2.06 280 17:20 02.02.2022
5581 Clouds 12 1022 76 10000 0.89 313 16:48 02.02.2022
5582 Clouds 12 1023 74 10000 0.89 323 14:21 02.02.2022
5583 Clouds 11 1024 75 10000 2.24 317 12:29 02.02.2022
5584 Clouds 11 1023 80 10000 0.45 301 11:44 02.02.2022
5585 Clouds 11 1023 81 10000 0.45 264 11:24 02.02.2022
5586 Clouds 9 1022 86 10000 0.89 329 08:27 02.02.2022
5587 Clouds 10 1021 85 10000 1.34 300 01:37 02.02.2022
5588 Clouds 11 1021 77 10000 2.24 292 22:29 01.02.2022
5589 Clouds 11 1021 74 10000 2.24 284 20:50 01.02.2022
5590 Clouds 12 1020 71 10000 2.24 287 18:55 01.02.2022
5591 Clouds 14 1019 65 10000 4.02 297 16:46 01.02.2022
5592 Clouds 14 1019 68 10000 1.79 303 15:44 01.02.2022
5593 Clouds 13 1020 72 10000 2.68 295 12:56 01.02.2022
5594 Clouds 12 1020 77 10000 3.13 315 11:57 01.02.2022
5595 Clouds 8 1020 83 10000 1.79 258 08:51 01.02.2022
5596 Clouds 6 1025 80 10000 0.45 275 02:20 01.02.2022
5597 Clouds 5 1026 80 10000 1.34 242 23:37 31.01.2022
5598 Clouds 5 1027 79 10000 0.45 308 22:33 31.01.2022
5599 Clouds 5 1027 78 10000 0.89 305 21:34 31.01.2022
5600 Clouds 5 1027 73 10000 0.89 290 20:34 31.01.2022
5601 Clouds 5 1027 72 10000 0.89 317 20:34 31.01.2022
5602 Clouds 5 1027 69 10000 1.34 300 19:57 31.01.2022
5603 Clouds 6 1026 61 10000 2.24 321 18:32 31.01.2022
5604 Clouds 7 1026 55 10000 1.34 309 17:57 31.01.2022
5605 Clouds 7 1026 50 10000 1.79 325 17:18 31.01.2022
5606 Clouds 8 1026 43 10000 4.02 322 16:21 31.01.2022
5607 Clouds 8 1025 42 10000 4.02 321 14:51 31.01.2022
5608 Clouds 8 1024 47 10000 4.92 337 13:31 31.01.2022
5609 Clouds 8 1024 47 10000 5.81 305 12:37 31.01.2022
5610 Clouds 7 1022 56 10000 4.02 309 11:20 31.01.2022
5611 Clouds 6 1022 60 10000 5.36 325 10:47 31.01.2022
5612 Clouds 5 1021 73 10000 4.47 311 09:36 31.01.2022
5613 Clouds 6 1021 70 10000 3.13 325 08:56 31.01.2022
5614 Clouds 6 1020 68 10000 4.47 304 08:20 31.01.2022
5615 Clouds 6 1019 68 10000 4.92 313 07:40 31.01.2022
5616 Clouds 7 1018 72 10000 2.24 293 05:25 31.01.2022
5617 Rain 8 1018 86 10000 1.79 311 00:36 31.01.2022
5618 Clouds 7 1021 78 10000 1.34 221 22:33 30.01.2022
5619 Clouds 6 1022 77 10000 0.89 241 21:46 30.01.2022
5620 Clouds 6 1022 77 10000 0.89 204 21:26 30.01.2022
5621 Clouds 6 1023 75 10000 0.89 222 20:54 30.01.2022
5622 Clouds 6 1023 75 10000 1.34 241 20:31 30.01.2022
5623 Clouds 6 1025 73 10000 0.89 210 19:56 30.01.2022
5624 Clouds 6 1026 69 10000 0.45 353 18:52 30.01.2022
5625 Clouds 6 1027 68 10000 0.89 291 18:26 30.01.2022
5626 Clouds 7 1027 65 10000 0.89 230 17:31 30.01.2022
5627 Clouds 8 1028 64 10000 0.89 200 16:44 30.01.2022
5628 Clouds 8 1028 64 10000 1.34 292 16:23 30.01.2022
5629 Clouds 8 1029 63 10000 0.45 262 15:55 30.01.2022
5630 Clouds 8 1029 63 10000 0.89 271 15:37 30.01.2022
5631 Clouds 8 1030 63 10000 0.45 272 15:19 30.01.2022
5632 Clouds 8 1031 63 10000 0.45 239 14:44 30.01.2022
5633 Clouds 6 1033 76 10000 0.45 251 12:46 30.01.2022
5634 Clouds 5 1034 81 10000 2.06 220 11:52 30.01.2022
5635 Clouds 2 1034 92 10000 3.09 210 10:26 30.01.2022
5636 Clouds 2 1034 90 10000 0.45 300 09:41 30.01.2022
5637 Clouds 1 1034 88 10000 2.06 260 08:44 30.01.2022
5638 Clouds 3 1033 85 10000 0.45 315 05:30 30.01.2022
5639 Clouds 5 1032 77 10000 0.45 307 01:55 30.01.2022
5640 Clouds 6 1032 71 10000 0.45 317 23:50 29.01.2022
5641 Clouds 7 1032 71 10000 1.79 307 22:58 29.01.2022
5642 Clouds 8 1031 67 10000 1.79 310 21:46 29.01.2022
5643 Clouds 8 1031 67 10000 2.24 306 21:22 29.01.2022
5644 Clouds 9 1030 66 10000 1.79 307 20:22 29.01.2022
5645 Clouds 10 1030 63 10000 1.34 319 19:33 29.01.2022
5646 Clouds 11 1028 65 10000 1.34 290 18:51 29.01.2022
5647 Clouds 11 1028 72 10000 3.13 305 18:18 29.01.2022
5648 Clouds 12 1026 77 10000 0.89 297 17:27 29.01.2022
5649 Clouds 13 1025 76 10000 2.24 254 15:44 29.01.2022
5650 Clouds 13 1026 73 10000 1.34 266 13:58 29.01.2022
5651 Clouds 13 1025 74 10000 2.24 269 13:38 29.01.2022
5652 Clouds 13 1026 72 10000 2.24 273 13:20 29.01.2022
5653 Clouds 12 1026 77 10000 4.02 287 11:40 29.01.2022
5654 Clouds 11 1027 81 10000 2.24 223 10:38 29.01.2022
5655 Clouds 11 1027 83 10000 1.34 282 08:42 29.01.2022
5656 Clouds 10 1028 91 10000 0.45 255 03:53 29.01.2022
5657 Clouds 9 1030 93 10000 0.45 267 00:34 29.01.2022
5658 Clouds 9 1031 91 10000 0.89 240 23:43 28.01.2022
5659 Clouds 9 1031 88 10000 0.89 240 22:48 28.01.2022
5660 Clouds 9 1031 86 10000 0.89 251 22:20 28.01.2022
5661 Clouds 8 1032 82 10000 0.89 237 20:42 28.01.2022
5662 Clouds 8 1032 80 10000 0.89 256 20:23 28.01.2022
5663 Clouds 8 1032 80 10000 0.45 241 19:28 28.01.2022
5664 Clouds 8 1033 80 10000 0.45 253 18:38 28.01.2022
5665 Clouds 9 1033 76 10000 1.34 258 16:39 28.01.2022
5666 Clouds 10 1034 73 10000 0.89 214 14:59 28.01.2022
5667 Clouds 9 1035 76 10000 0.89 216 13:34 28.01.2022
5668 Clouds 7 1036 87 10000 2.57 230 12:26 28.01.2022
5669 Clouds 4 1036 92 10000 3.09 240 10:41 28.01.2022
5670 Clouds 3 1036 92 10000 0.45 276 09:48 28.01.2022
5671 Clouds 2 1036 93 10000 2.06 230 07:43 28.01.2022
5672 Clouds 2 1035 92 10000 2.06 230 06:39 28.01.2022
5673 Clouds 3 1035 90 10000 2.06 230 03:53 28.01.2022
5674 Clouds 3 1035 89 10000 2.57 270 02:30 28.01.2022
5675 Clouds 3 1034 88 10000 3.09 280 01:57 28.01.2022
5676 Clouds 4 1034 88 10000 2.57 280 01:30 28.01.2022
5677 Clouds 5 1033 81 10000 0.45 296 22:47 27.01.2022
5678 Clouds 6 1032 78 10000 0.45 309 21:45 27.01.2022
5679 Clouds 6 1032 76 10000 0.89 318 21:26 27.01.2022
5680 Clear 7 1031 74 10000 0.89 315 20:23 27.01.2022
5681 Clouds 9 1030 71 10000 1.34 326 18:23 27.01.2022
5682 Clouds 11 1028 68 10000 1.34 291 17:26 27.01.2022
5683 Clouds 11 1027 88 10000 0.89 333 14:25 27.01.2022
5684 Clouds 10 1027 88 10000 1.34 306 13:19 27.01.2022
5685 Clouds 10 1027 89 10000 0.45 309 12:25 27.01.2022
5686 Clouds 8 1026 87 10000 0.89 237 09:56 27.01.2022
5687 Clouds 8 1026 86 10000 0.89 253 08:41 27.01.2022
5688 Clouds 8 1026 85 10000 1.34 217 08:18 27.01.2022
5689 Clouds 6 1027 84 10000 0.45 269 03:47 27.01.2022
5690 Clouds 5 1029 81 10000 0.89 220 00:25 27.01.2022
5691 Clouds 5 1029 81 10000 0.89 220 00:25 27.01.2022
5692 Clouds 5 1030 78 10000 4.12 240 22:38 26.01.2022
5693 Clouds 5 1030 77 10000 0.45 209 21:45 26.01.2022
5694 Clouds 5 1030 77 10000 0.45 246 21:26 26.01.2022
5695 Clouds 6 1031 74 10000 0.89 226 20:35 26.01.2022
5696 Clouds 7 1031 73 10000 0.89 303 19:52 26.01.2022
5697 Clouds 7 1031 74 10000 0.89 310 19:18 26.01.2022
5698 Clouds 7 1031 73 10000 0.45 255 18:26 26.01.2022
5699 Clouds 7 1031 73 10000 0.45 230 17:49 26.01.2022
5700 Clouds 7 1031 72 10000 0.89 202 17:19 26.01.2022
5701 Clear 8 1032 72 10000 0.89 359 16:26 26.01.2022
5702 Clouds 8 1032 70 10000 1.34 239 15:45 26.01.2022
5703 Clouds 7 1034 75 10000 0.89 316 12:54 26.01.2022
5704 Clouds 6 1034 80 10000 3.6 250 11:34 26.01.2022
5705 Clouds 4 1034 82 10000 3.09 230 10:19 26.01.2022
5706 Clouds 4 1034 85 10000 3.09 240 09:42 26.01.2022
5707 Clouds 3 1034 87 7000 0.45 246 07:31 26.01.2022
5708 Clouds 2 1035 84 8000 0.89 293 00:48 26.01.2022
5709 Clouds 2 1035 84 8000 0.89 293 00:48 26.01.2022
5710 Clouds 2 1035 85 9000 1.34 294 23:48 25.01.2022
5711 Clouds 2 1035 85 9000 0.89 310 22:50 25.01.2022
5712 Clouds 2 1035 85 9000 0.89 310 22:50 25.01.2022
5713 Clouds 2 1035 85 9000 0.89 310 22:50 25.01.2022
5714 Clouds 2 1035 86 9000 0.45 315 22:21 25.01.2022
5715 Clouds 2 1035 85 8000 1.34 319 21:37 25.01.2022
5716 Clouds 2 1035 84 6000 0.45 308 20:46 25.01.2022
5717 Clouds 2 1034 84 6000 1.34 311 19:59 25.01.2022
5718 Clouds 2 1034 85 6000 1.34 301 19:40 25.01.2022
5719 Clouds 2 1034 85 7000 0.45 331 18:22 25.01.2022
5720 Clouds 2 1034 85 7000 0.45 307 17:42 25.01.2022
5721 Clouds 3 1034 85 7000 1.34 305 16:35 25.01.2022
5722 Clouds 3 1034 85 6000 0.89 294 15:44 25.01.2022
5723 Clouds 3 1034 85 6000 0.89 351 15:26 25.01.2022
5724 Clouds 3 1034 84 6000 1.34 329 14:57 25.01.2022
5725 Clouds 3 1035 85 7000 0.89 309 13:28 25.01.2022
5726 Clouds 3 1034 86 6000 1.54 100 10:35 25.01.2022
5727 Clouds 3 1034 86 8000 0.89 28 08:33 25.01.2022
5728 Clouds 2 1034 86 8000 0.45 331 07:28 25.01.2022
5729 Clouds 2 1034 85 7000 2.06 240 06:29 25.01.2022
5730 Clouds 3 1034 85 8000 2.06 90 01:36 25.01.2022
5731 Clouds 3 1035 84 10000 0.45 61 23:37 24.01.2022
5732 Clouds 3 1035 84 9000 0.45 116 23:18 24.01.2022
5733 Clouds 3 1035 85 9000 0.45 136 22:59 24.01.2022
5734 Clouds 3 1034 84 9000 0.45 73 22:41 24.01.2022
5735 Clouds 3 1034 84 9000 2.06 70 21:49 24.01.2022
5736 Clouds 3 1034 83 8000 0.45 135 21:28 24.01.2022
5737 Clouds 4 1034 83 8000 0.45 40 20:29 24.01.2022
5738 Clouds 4 1034 82 8000 0.45 122 19:39 24.01.2022
5739 Clouds 4 1034 82 8000 0.45 157 19:20 24.01.2022
5740 Clouds 4 1033 81 8000 0.45 94 17:45 24.01.2022
5741 Clouds 4 1033 81 9000 0.45 76 17:23 24.01.2022
5742 Clouds 4 1033 81 9000 0.45 76 17:23 24.01.2022
5743 Clouds 4 1033 81 10000 0.45 127 16:40 24.01.2022
5744 Clouds 4 1033 80 10000 2.57 100 16:18 24.01.2022
5745 Clouds 4 1033 80 10000 0.45 113 14:28 24.01.2022
5746 Clouds 4 1034 82 10000 0.45 134 12:38 24.01.2022
5747 Clouds 4 1034 82 10000 0.45 213 11:59 24.01.2022
5748 Clouds 4 1034 82 10000 1.34 129 10:25 24.01.2022
5749 Clouds 4 1034 82 9000 0.45 122 09:47 24.01.2022
5750 Clouds 4 1033 81 10000 0.45 150 08:24 24.01.2022
5751 Clouds 5 1033 79 10000 0.89 142 04:50 24.01.2022
5752 Clouds 5 1033 79 10000 0.45 118 01:29 24.01.2022
5753 Clouds 5 1034 79 10000 0.45 166 00:35 24.01.2022
5754 Clouds 5 1034 78 10000 0.45 145 23:49 23.01.2022
5755 Clouds 5 1034 78 10000 0.45 137 22:28 23.01.2022
5756 Clouds 5 1034 78 10000 1.03 0 21:44 23.01.2022
5757 Clouds 5 1034 78 10000 0.45 180 21:24 23.01.2022
5758 Clouds 5 1034 78 10000 1.03 0 20:44 23.01.2022
5759 Clouds 5 1034 78 10000 0.51 0 19:43 23.01.2022
5760 Clouds 5 1034 78 10000 2.06 160 18:50 23.01.2022
5761 Clouds 6 1034 77 10000 0.45 192 17:34 23.01.2022
5762 Clouds 6 1034 77 10000 0.45 141 16:47 23.01.2022
5763 Clouds 6 1035 76 10000 0.45 119 14:59 23.01.2022
5764 Clouds 6 1035 76 10000 0.89 141 14:25 23.01.2022
5765 Clouds 6 1035 76 10000 0.89 141 14:25 23.01.2022
5766 Clouds 6 1036 78 10000 0.45 116 12:54 23.01.2022
5767 Clouds 6 1036 81 10000 0.45 108 12:22 23.01.2022
5768 Clouds 6 1036 81 10000 0.45 108 12:22 23.01.2022
5769 Clouds 6 1036 81 10000 0.45 140 11:59 23.01.2022
5770 Clouds 6 1036 83 10000 1.54 100 11:19 23.01.2022
5771 Clear 5 1036 85 10000 0.96 161 10:27 23.01.2022
5772 Clear 5 1036 85 10000 0.96 161 09:51 23.01.2022
5773 Clouds 5 1036 75 10000 1.54 60 08:54 23.01.2022
5774 Clouds 5 1036 82 10000 0 0 05:57 23.01.2022
5775 Clouds 5 1037 81 10000 1.54 300 01:52 23.01.2022
5776 Clear 5 1036 85 10000 1.01 304 01:27 23.01.2022
5777 Clouds 5 1037 83 10000 2.06 300 00:23 23.01.2022
5778 Clear 5 1036 83 10000 1.01 317 23:56 22.01.2022
5779 Clear 5 1037 82 10000 1.16 322 22:46 22.01.2022
5780 Clouds 5 1037 81 10000 0.51 0 21:36 22.01.2022
5781 Clouds 6 1037 80 10000 0.45 334 20:21 22.01.2022
5782 Clouds 5 1037 80 10000 0.89 323 19:21 22.01.2022
5783 Clouds 6 1037 80 10000 0.89 303 18:24 22.01.2022
5784 Clouds 6 1037 80 10000 0.89 292 17:40 22.01.2022
5785 Clouds 6 1037 79 10000 1.34 298 16:56 22.01.2022
5786 Clouds 6 1037 79 10000 0.45 319 15:53 22.01.2022
5787 Clouds 6 1037 79 10000 0.89 326 15:32 22.01.2022
5788 Clouds 6 1037 79 10000 0.89 300 13:51 22.01.2022
5789 Clouds 6 1037 80 10000 0.89 304 12:55 22.01.2022
5790 Clouds 6 1037 81 10000 1.34 313 12:30 22.01.2022
5791 Clouds 6 1038 83 10000 0.45 230 11:49 22.01.2022
5792 Clouds 5 1038 85 10000 1.34 336 10:31 22.01.2022
5793 Clouds 4 1037 86 10000 2.06 280 09:59 22.01.2022
5794 Clouds 4 1037 88 10000 2.57 290 08:53 22.01.2022
5795 Clouds 4 1037 89 10000 0.45 300 07:56 22.01.2022
5796 Clouds 2 1037 91 10000 2.57 260 05:20 22.01.2022
5797 Clear 3 1037 88 10000 2.25 276 01:58 22.01.2022
5798 Clear 4 1038 84 10000 0.45 321 23:48 21.01.2022
5799 Clear 5 1038 83 10000 2.47 281 22:44 21.01.2022
5800 Clear 4 1038 82 10000 0.45 254 20:45 21.01.2022
5801 Clouds 4 1037 81 10000 0.45 302 18:41 21.01.2022
5802 Clouds 4 1038 79 10000 0.89 246 17:45 21.01.2022
5803 Clouds 4 1038 76 10000 0.89 278 15:48 21.01.2022
5804 Clouds 4 1039 76 10000 0.45 191 14:37 21.01.2022
5805 Clouds 3 1040 74 10000 2.57 240 12:40 21.01.2022
5806 Clear 1 1040 84 10000 0.45 263 11:29 21.01.2022
5807 Clear 0 1040 88 10000 0.45 316 10:27 21.01.2022
5808 Clear -1 1040 86 10000 2.57 240 08:50 21.01.2022
5809 Clear -1 1039 84 10000 1.74 294 07:26 21.01.2022
5810 Clear 2 1039 72 10000 1.34 325 01:48 21.01.2022
5811 Clear 3 1039 69 10000 1.34 317 22:46 20.01.2022
5812 Clouds 3 1039 69 10000 1.34 318 21:48 20.01.2022
5813 Clear 3 1038 70 10000 1.34 311 20:57 20.01.2022
5814 Clear 3 1038 68 10000 1.79 325 19:40 20.01.2022
5815 Clouds 4 1038 68 10000 1.34 315 19:18 20.01.2022
5816 Clouds 4 1037 67 10000 2.24 321 17:36 20.01.2022
5817 Clouds 5 1037 64 10000 2.68 330 15:46 20.01.2022
5818 Clouds 5 1036 64 10000 2.68 348 15:26 20.01.2022
5819 Clouds 5 1036 65 10000 0.89 10 14:18 20.01.2022
5820 Clear 5 1037 74 10000 1.79 332 12:44 20.01.2022
5821 Clear 4 1037 75 10000 1.34 328 12:26 20.01.2022
5822 Clear 2 1036 86 10000 0.89 359 10:58 20.01.2022
5823 Clear 1 1035 88 10000 1.34 330 09:44 20.01.2022
5824 Clear 1 1034 87 10000 0.89 334 08:37 20.01.2022
5825 Clouds 1 1033 89 10000 0.45 328 06:19 20.01.2022
5826 Clouds 3 1030 88 10000 0.89 326 00:30 20.01.2022
5827 Clouds 4 1030 83 10000 0.89 327 22:38 19.01.2022
5828 Clouds 5 1029 82 10000 1.79 322 21:33 19.01.2022
5829 Clouds 5 1028 81 10000 0.89 304 20:55 19.01.2022
5830 Clouds 5 1028 80 10000 0.89 310 20:30 19.01.2022
5831 Clouds 7 1027 76 10000 0.89 309 18:52 19.01.2022
5832 Clouds 8 1026 72 10000 1.34 329 17:51 19.01.2022
5833 Clouds 9 1025 70 10000 2.24 311 17:18 19.01.2022
5834 Clouds 8 1026 70 10000 3.58 329 17:18 19.01.2022
5835 Clouds 9 1025 70 10000 2.24 311 17:18 19.01.2022
5836 Clouds 9 1025 86 10000 2.24 316 15:31 19.01.2022
5837 Clouds 8 1025 83 10000 2.24 280 13:25 19.01.2022
5838 Clouds 7 1026 85 10000 0.89 271 11:58 19.01.2022
5839 Clouds 6 1026 86 10000 0.45 258 11:38 19.01.2022
5840 Clouds 5 1026 88 10000 0.89 301 09:35 19.01.2022
5841 Clouds 5 1026 88 10000 0.89 217 08:38 19.01.2022
5842 Clouds 4 1029 93 10000 2.57 230 05:20 19.01.2022
5843 Haze 4 1032 94 5000 0.45 127 00:21 19.01.2022
5844 Haze 5 1033 93 4200 0.45 147 23:18 18.01.2022
5845 Clouds 5 1035 93 6000 0.45 146 21:45 18.01.2022
5846 Clouds 5 1035 93 6000 1.54 60 20:34 18.01.2022
5847 Clouds 4 1035 93 8000 1.03 80 19:49 18.01.2022
5848 Clouds 4 1035 93 8000 0.51 0 19:31 18.01.2022
5849 Clouds 5 1035 91 10000 0.51 0 18:19 18.01.2022
5850 Clouds 5 1036 90 10000 1.03 290 17:32 18.01.2022
5851 Clouds 6 1036 88 10000 0.45 176 16:22 18.01.2022
5852 Clouds 6 1036 89 10000 0.45 216 15:25 18.01.2022
5853 Clouds 6 1037 92 8000 0.45 301 14:23 18.01.2022
5854 Clear 4 1038 93 10000 1.03 0 11:45 18.01.2022
5855 Clear 2 1038 93 8000 2.06 70 10:30 18.01.2022
5856 Clear 1 1038 85 6000 1.03 0 08:29 18.01.2022
5857 Clear 1 1038 85 8000 0 0 07:44 18.01.2022
5858 Clear 2 1039 91 10000 1.54 250 00:42 18.01.2022
5859 Clear 2 1039 92 10000 1.03 0 22:46 17.01.2022
5860 Clear 2 1039 92 10000 1.54 230 21:44 17.01.2022
5861 Clear 3 1039 89 10000 1.54 240 21:24 17.01.2022
5862 Clear 4 1039 87 10000 1.54 220 19:37 17.01.2022
5863 Clear 5 1039 85 10000 1.03 0 18:26 17.01.2022
5864 Clear 7 1039 79 10000 0.98 287 17:22 17.01.2022
5865 Clear 9 1038 71 10000 0.45 349 15:58 17.01.2022
5866 Clear 9 1038 72 10000 0.89 325 14:58 17.01.2022
5867 Clear 8 1038 73 10000 1.54 230 14:32 17.01.2022
5868 Clear 7 1039 81 10000 0.45 317 13:19 17.01.2022
5869 Clear 6 1038 86 10000 0.89 320 12:22 17.01.2022
5870 Clear 4 1039 90 10000 0.89 320 11:33 17.01.2022
5871 Clear 1 1037 93 10000 0.45 260 09:53 17.01.2022
5872 Clear 1 1037 92 10000 0.45 251 08:44 17.01.2022
5873 Clear 1 1036 92 10000 0.45 272 07:21 17.01.2022
5874 Clear 3 1035 90 10000 0.45 313 01:52 17.01.2022
5875 Clouds 5 1034 88 10000 0.45 316 23:44 16.01.2022
5876 Clouds 7 1032 92 10000 0.89 304 21:21 16.01.2022
5877 Clouds 6 1032 93 10000 1.79 311 20:28 16.01.2022
5878 Clouds 6 1030 90 10000 2.06 280 18:46 16.01.2022
5879 Clouds 7 1029 86 10000 0.45 317 17:50 16.01.2022
5880 Clouds 8 1028 83 10000 0.89 301 16:54 16.01.2022
5881 Clouds 9 1027 83 10000 0.45 283 15:40 16.01.2022
5882 Clouds 8 1027 87 10000 0.45 322 14:29 16.01.2022
5883 Clouds 8 1027 87 10000 0.45 322 14:29 16.01.2022
5884 Clouds 8 1027 93 10000 0.45 310 13:33 16.01.2022
5885 Clouds 7 1026 95 6000 3.6 240 12:21 16.01.2022
5886 Mist 6 1026 96 5000 0.45 309 11:27 16.01.2022
5887 Mist 6 1025 96 5000 0.45 278 10:28 16.01.2022
5888 Mist 5 1024 96 4100 2.57 250 09:58 16.01.2022
5889 Mist 5 1024 96 4100 0.45 189 09:37 16.01.2022
5890 Mist 5 1024 96 3900 3.6 250 09:19 16.01.2022
5891 Mist 5 1023 96 4100 0 0 07:19 16.01.2022
5892 Clouds 5 1024 90 10000 0.45 299 00:35 16.01.2022
5893 Clouds 4 1024 91 9000 2.57 210 22:53 15.01.2022
5894 Clouds 4 1024 91 9000 2.06 230 21:22 15.01.2022
5895 Clouds 4 1024 91 9000 2.06 220 20:45 15.01.2022
5896 Clouds 4 1025 90 9000 2.06 210 20:22 15.01.2022
5897 Clouds 4 1025 89 10000 1.54 240 19:27 15.01.2022
5898 Clouds 5 1024 87 10000 0.45 227 18:20 15.01.2022
5899 Clouds 5 1025 88 10000 2.06 220 16:49 15.01.2022
5900 Clouds 4 1025 91 10000 0.89 250 14:38 15.01.2022
5901 Haze 4 1026 97 3500 0.89 142 12:40 15.01.2022
5902 Haze 3 1027 97 2900 0.45 139 11:26 15.01.2022
5903 Fog 2 1027 97 350 1.54 30 09:46 15.01.2022
5904 Fog 1 1028 96 100 0.45 100 04:46 15.01.2022
5905 Mist 2 1032 95 4500 1.54 70 23:21 14.01.2022
5906 Clear 3 1033 93 6000 1.54 80 21:18 14.01.2022
5907 Clear 3 1034 91 8000 2.06 80 20:25 14.01.2022
5908 Clear 3 1034 90 9000 1.54 70 19:50 14.01.2022
5909 Clear 4 1034 89 10000 2.06 90 18:41 14.01.2022
5910 Clear 6 1034 86 10000 1.54 100 17:39 14.01.2022
5911 Clear 7 1034 80 10000 2.06 100 16:43 14.01.2022
5912 Clear 8 1034 75 10000 0.45 5 15:32 14.01.2022
5913 Clear 8 1035 80 10000 1.03 0 14:28 14.01.2022
5914 Clear 7 1036 80 10000 0.45 83 12:58 14.01.2022
5915 Clear 5 1037 82 10000 0.45 355 11:52 14.01.2022
5916 Clear 3 1037 91 10000 2.06 230 10:39 14.01.2022
5917 Clear 2 1037 92 10000 0.51 0 08:53 14.01.2022
5918 Clear 1 1037 89 10000 0.45 274 07:30 14.01.2022
5919 Clear 3 1038 81 10000 0.51 0 02:27 14.01.2022
5920 Clear 3 1039 85 10000 1.54 230 00:22 14.01.2022
5921 Clear 4 1040 80 10000 0.45 299 21:47 13.01.2022
5922 Clear 4 1040 78 10000 0.45 240 21:29 13.01.2022
5923 Clear 4 1040 80 10000 2.06 220 19:47 13.01.2022
5924 Clear 4 1040 80 10000 2.57 230 19:29 13.01.2022
5925 Clear 5 1040 80 10000 1.62 245 18:40 13.01.2022
5926 Clear 8 1040 70 10000 2.06 240 16:53 13.01.2022
5927 Clear 9 1040 73 10000 0.45 281 15:39 13.01.2022
5928 Clear 9 1040 71 10000 0.45 258 15:21 13.01.2022
5929 Clear 7 1041 85 10000 0.45 315 13:29 13.01.2022
5930 Clear 4 1042 96 9000 2.06 230 11:18 13.01.2022
5931 Clear 2 1042 95 8000 2.06 220 09:24 13.01.2022
5932 Clear 2 1041 95 9000 2.06 240 08:29 13.01.2022
5933 Clear 2 1041 95 10000 1.54 230 07:59 13.01.2022
5934 Clear 2 1041 96 10000 2.06 230 07:20 13.01.2022
5935 Clouds 2 1041 96 9000 1.54 220 05:21 13.01.2022
5936 Clouds 2 1042 96 9000 2.06 230 04:55 13.01.2022
5937 Clear 3 1042 96 9000 2.57 230 01:39 13.01.2022
5938 Clouds 3 1042 95 9000 2.06 220 23:54 12.01.2022
5939 Clouds 3 1042 95 9000 2.06 220 23:34 12.01.2022
5940 Clouds 3 1042 94 9000 2.06 210 22:35 12.01.2022
5941 Clear 4 1042 93 9000 2.06 220 21:49 12.01.2022
5942 Clear 4 1042 93 9000 2.06 220 21:20 12.01.2022
5943 Clear 4 1042 92 9000 2.06 230 20:49 12.01.2022
5944 Clear 4 1041 91 10000 2.57 220 19:22 12.01.2022
5945 Clear 5 1041 90 10000 1.03 0 18:25 12.01.2022
5946 Clear 7 1041 85 10000 0.45 321 16:57 12.01.2022
5947 Clear 8 1041 84 10000 0.45 317 15:49 12.01.2022
5948 Clear 8 1041 87 10000 0.45 341 14:45 12.01.2022
5949 Clouds 6 1041 93 10000 0.45 321 12:57 12.01.2022
5950 Mist 2 1041 95 5000 1.03 260 09:57 12.01.2022
5951 Clear 2 1040 96 6000 1.54 290 07:58 12.01.2022
5952 Clear 2 1039 96 6000 0.45 344 07:33 12.01.2022
5953 Clouds 4 1038 92 10000 0.51 0 04:54 12.01.2022
5954 Clouds 8 1036 94 10000 0.89 352 23:27 11.01.2022
5955 Clouds 9 1035 96 7000 0.89 0 22:40 11.01.2022
5956 Clouds 9 1035 96 6000 0.89 329 22:18 11.01.2022
5957 Drizzle 9 1034 94 4100 0.89 330 20:40 11.01.2022
5958 Clouds 10 1033 94 8000 1.34 357 19:40 11.01.2022
5959 Drizzle 10 1032 96 800 0.45 331 18:22 11.01.2022
5960 Clouds 10 1031 96 2200 0.45 221 16:59 11.01.2022
5961 Clouds 10 1031 96 2200 1.54 270 16:35 11.01.2022
5962 Clouds 10 1030 96 3600 2.06 230 14:57 11.01.2022
5963 Clouds 10 1030 95 3600 2.06 230 14:39 11.01.2022
5964 Clouds 10 1030 94 10000 2.57 220 13:53 11.01.2022
5965 Clouds 10 1030 93 10000 0.45 188 13:31 11.01.2022
5966 Clouds 10 1030 94 10000 0.45 191 12:37 11.01.2022
5967 Clouds 9 1029 94 10000 2.06 160 10:45 11.01.2022
5968 Clouds 9 1028 93 10000 0.45 222 08:27 11.01.2022
5969 Clouds 8 1027 92 10000 0.45 194 06:22 11.01.2022
5970 Clouds 8 1025 92 7000 0.45 169 00:28 11.01.2022
5971 Clouds 8 1025 92 7000 0.89 158 23:40 10.01.2022
5972 Clouds 8 1025 93 6000 0.89 153 22:43 10.01.2022
5973 Clouds 8 1025 94 5000 0.45 159 22:18 10.01.2022
5974 Drizzle 8 1024 92 4200 0.45 144 21:42 10.01.2022
5975 Clouds 8 1024 92 8000 0.45 141 21:18 10.01.2022
5976 Clouds 8 1024 92 10000 0.89 143 20:55 10.01.2022
5977 Clouds 8 1024 92 10000 0.45 137 20:24 10.01.2022
5978 Clouds 8 1023 92 10000 0.45 121 19:41 10.01.2022
5979 Clouds 8 1023 91 10000 0.89 137 19:19 10.01.2022
5980 Clouds 8 1023 90 10000 0.89 146 18:48 10.01.2022
5981 Clouds 8 1021 89 10000 0.45 147 16:59 10.01.2022
5982 Clouds 8 1021 88 10000 0.45 146 16:41 10.01.2022
5983 Clouds 7 1020 89 10000 1.54 90 14:58 10.01.2022
5984 Clouds 7 1020 91 10000 1.54 70 13:39 10.01.2022
5985 Clouds 5 1019 95 10000 2.06 110 11:57 10.01.2022
5986 Clouds 5 1019 95 10000 1.54 70 11:24 10.01.2022
5987 Clouds 3 1017 96 10000 1.54 90 09:41 10.01.2022
5988 Clouds 2 1014 95 7000 0.51 0 05:52 10.01.2022
5989 Clouds 2 1013 96 9000 0.51 0 05:23 10.01.2022
5990 Clouds 2 1010 94 10000 2.57 230 01:24 10.01.2022
5991 Clouds 2 1009 93 10000 2.06 220 00:23 10.01.2022
5992 Clouds 2 1008 92 10000 2.06 230 23:28 09.01.2022
5993 Clouds 3 1008 91 10000 3.09 230 22:33 09.01.2022
5994 Clouds 3 1007 90 10000 2.06 220 21:44 09.01.2022
5995 Clouds 3 1007 91 10000 2.06 220 21:23 09.01.2022
5996 Clouds 3 1007 90 10000 2.06 220 21:23 09.01.2022
5997 Clouds 3 1007 91 10000 2.06 220 21:23 09.01.2022
5998 Clouds 3 1007 89 10000 2.14 266 20:50 09.01.2022
5999 Clouds 4 1006 87 10000 2.06 220 20:29 09.01.2022
6000 Clouds 4 1006 86 10000 2.06 230 19:44 09.01.2022
6001 Clouds 4 1006 85 10000 2.57 240 19:23 09.01.2022
6002 Clouds 4 1005 85 10000 2.27 260 18:51 09.01.2022
6003 Clouds 5 1005 84 10000 2.46 270 18:33 09.01.2022
6004 Clouds 6 1004 78 10000 0.45 224 17:30 09.01.2022
6005 Clouds 7 1004 75 10000 0.45 322 16:51 09.01.2022
6006 Clouds 8 1003 71 10000 0.45 319 15:57 09.01.2022
6007 Clouds 8 1003 70 10000 0.89 257 15:34 09.01.2022
6008 Clouds 8 1003 71 10000 0.45 265 14:40 09.01.2022
6009 Clouds 7 1003 74 10000 0.89 313 13:50 09.01.2022
6010 Clouds 6 1003 79 10000 1.34 288 12:50 09.01.2022
6011 Clouds 5 1003 82 10000 0.89 313 11:51 09.01.2022
6012 Clouds 3 1002 87 10000 0.89 303 10:52 09.01.2022
6013 Clouds 2 1002 87 10000 0.89 241 09:42 09.01.2022
6014 Clouds 2 1001 86 10000 0.89 237 08:34 09.01.2022
6015 Clear 3 1000 84 10000 0.89 224 05:21 09.01.2022
6016 Clouds 4 997 83 10000 1.34 322 01:24 09.01.2022
6017 Clouds 5 996 80 10000 1.34 320 23:44 08.01.2022
6018 Clouds 5 995 80 10000 2.24 278 23:26 08.01.2022
6019 Clouds 6 994 79 10000 2.24 272 22:28 08.01.2022
6020 Clouds 7 994 79 10000 3.13 313 21:25 08.01.2022
6021 Clouds 7 993 86 10000 2.68 299 20:42 08.01.2022
6022 Clouds 7 993 87 10000 1.79 294 20:20 08.01.2022
6023 Clouds 8 992 90 10000 0.45 320 18:40 08.01.2022
6024 Rain 10 992 92 10000 1.34 303 17:22 08.01.2022
6025 Clouds 10 993 94 10000 0.89 215 15:56 08.01.2022
6026 Clouds 10 995 94 10000 0.89 204 14:46 08.01.2022
6027 Rain 9 997 94 9000 0.89 217 13:28 08.01.2022
6028 Rain 9 1002 93 10000 1.34 217 11:28 08.01.2022
6029 Rain 8 1004 94 10000 1.79 199 10:28 08.01.2022
6030 Clouds 7 1005 94 10000 0.89 172 09:48 08.01.2022
6031 Clouds 5 1007 93 10000 0.45 192 08:22 08.01.2022
6032 Clouds 2 1013 93 10000 0.45 230 03:31 08.01.2022
6033 Clouds 1 1013 92 10000 0.45 225 00:57 08.01.2022
6034 Clouds 1 1012 90 10000 1.34 281 22:54 07.01.2022
6035 Clouds 2 1012 88 10000 0.45 286 21:21 07.01.2022
6036 Clouds 2 1011 87 10000 0.89 285 20:20 07.01.2022
6037 Clouds 3 1010 84 10000 1.34 306 19:26 07.01.2022
6038 Clouds 3 1010 81 10000 2.24 326 18:45 07.01.2022
6039 Clouds 5 1009 76 10000 0.45 280 17:28 07.01.2022
6040 Clouds 5 1009 76 10000 0.89 251 16:41 07.01.2022
6041 Clouds 5 1010 74 10000 1.34 260 14:37 07.01.2022
6042 Clouds 6 1010 73 10000 2.68 267 13:41 07.01.2022
6043 Clouds 6 1010 73 10000 1.34 283 12:50 07.01.2022
6044 Clouds 3 1010 85 10000 0.89 255 09:48 07.01.2022
6045 Clouds 5 1010 86 10000 0.89 220 02:58 07.01.2022
6046 Clouds 5 1010 86 10000 0.89 291 02:19 07.01.2022
6047 Rain 6 1010 86 10000 1.34 270 01:41 07.01.2022
6048 Rain 6 1010 88 10000 1.34 236 01:20 07.01.2022
6049 Clouds 6 1010 91 10000 0.89 279 00:28 07.01.2022
6050 Rain 7 1010 91 10000 0.89 197 21:40 06.01.2022
6051 Clouds 7 1011 87 10000 1.79 200 20:36 06.01.2022
6052 Rain 7 1011 82 10000 1.79 188 19:54 06.01.2022
6053 Clouds 7 1011 80 10000 1.34 188 19:29 06.01.2022
6054 Clouds 6 1013 79 10000 1.34 206 17:51 06.01.2022
6055 Rain 6 1013 79 10000 1.34 231 17:19 06.01.2022
6056 Rain 6 1014 80 10000 1.34 195 16:31 06.01.2022
6057 Rain 5 1015 81 10000 0.89 176 15:43 06.01.2022
6058 Rain 5 1015 80 10000 0.45 204 15:20 06.01.2022
6059 Clouds 4 1017 76 10000 0.89 174 14:19 06.01.2022
6060 Clouds 3 1017 75 10000 0.45 174 13:30 06.01.2022
6061 Clouds 2 1018 82 10000 0.45 140 12:20 06.01.2022
6062 Clear 1 1019 90 10000 0.45 160 11:29 06.01.2022
6063 Clear -1 1020 93 10000 2.06 220 09:56 06.01.2022
6064 Clear -2 1020 92 10000 2.57 230 06:37 06.01.2022
6065 Clouds 0 1020 88 10000 1.62 289 00:27 06.01.2022
6066 Clouds 1 1020 87 10000 0.45 337 23:22 05.01.2022
6067 Clouds 1 1019 86 10000 0.45 337 22:48 05.01.2022
6068 Clouds 2 1020 85 10000 0.45 337 22:21 05.01.2022
6069 Clouds 2 1019 85 10000 0.45 303 21:25 05.01.2022
6070 Clouds 3 1019 84 10000 0.89 315 20:30 05.01.2022
6071 Clouds 3 1019 84 10000 0.89 315 20:30 05.01.2022
6072 Clear 3 1018 83 10000 0.89 299 19:28 05.01.2022
6073 Clouds 3 1017 78 10000 0.45 312 18:20 05.01.2022
6074 Clouds 5 1016 72 10000 0.89 278 16:56 05.01.2022
6075 Clear 6 1015 70 10000 0.89 290 16:18 05.01.2022
6076 Clear 6 1015 70 10000 2.24 294 14:54 05.01.2022
6077 Clouds 6 1014 71 10000 3.13 310 13:34 05.01.2022
6078 Clear 5 1014 75 10000 2.24 292 12:20 05.01.2022
6079 Clear 2 1010 82 10000 0.89 305 08:29 05.01.2022
6080 Clear 2 1009 81 10000 0.89 310 06:37 05.01.2022
6081 Clear 2 1007 82 10000 0.45 290 01:24 05.01.2022
6082 Clear 2 1006 82 10000 0.89 295 23:43 04.01.2022
6083 Clear 2 1006 81 10000 1.79 301 23:21 04.01.2022
6084 Clear 2 1006 79 10000 1.34 287 21:41 04.01.2022
6085 Clear 2 1005 81 10000 0.45 339 20:42 04.01.2022
6086 Clouds 3 1004 79 10000 1.34 296 18:39 04.01.2022
6087 Clouds 3 1003 80 10000 0.89 304 17:33 04.01.2022
6088 Clouds 4 1002 80 10000 3.13 325 16:38 04.01.2022
6089 Clouds 4 1001 83 10000 1.79 323 15:25 04.01.2022
6090 Clouds 4 1001 87 10000 1.79 325 14:38 04.01.2022
6091 Rain 3 1001 90 7000 0.89 352 13:56 04.01.2022
6092 Rain 4 1000 90 10000 2.68 333 12:24 04.01.2022
6093 Rain 7 998 92 10000 0.45 303 10:24 04.01.2022
6094 Clouds 7 998 91 10000 0.45 247 08:57 04.01.2022
6095 Clouds 8 998 89 10000 0.45 246 06:46 04.01.2022
6096 Clouds 9 1001 90 10000 0.45 215 00:44 04.01.2022
6097 Clouds 9 1002 90 10000 0.45 173 23:56 03.01.2022
6098 Clouds 9 1003 89 10000 0.45 262 22:28 03.01.2022
6099 Clouds 9 1003 88 10000 0.45 263 21:41 03.01.2022
6100 Clouds 9 1004 88 10000 0.89 200 20:42 03.01.2022
6101 Clouds 9 1005 87 10000 0.45 190 19:43 03.01.2022
6102 Clouds 10 1006 84 10000 0.89 262 18:32 03.01.2022
6103 Clouds 10 1006 83 10000 0.45 210 17:34 03.01.2022
6104 Clouds 10 1006 81 10000 0.45 208 16:56 03.01.2022
6105 Clouds 11 1008 80 10000 0.45 232 14:54 03.01.2022
6106 Clouds 10 1009 80 10000 0.89 196 13:25 03.01.2022
6107 Clouds 10 1009 81 10000 1.34 196 12:28 03.01.2022
6108 Clouds 10 1009 81 10000 0.89 208 11:31 03.01.2022
6109 Clouds 9 1010 85 10000 0.89 221 09:42 03.01.2022
6110 Clouds 9 1010 83 10000 5.66 240 08:28 03.01.2022
6111 Clouds 9 1011 84 10000 6.17 240 06:31 03.01.2022
6112 Clouds 9 1011 84 10000 0.89 253 23:45 02.01.2022
6113 Clouds 9 1011 83 10000 0.89 210 22:57 02.01.2022
6114 Clouds 9 1011 82 10000 1.34 224 22:38 02.01.2022
6115 Clouds 10 1011 80 10000 1.34 258 21:32 02.01.2022
6116 Clouds 10 1010 83 10000 1.34 213 20:31 02.01.2022
6117 Clouds 10 1010 83 10000 1.34 258 20:30 02.01.2022
6118 Clouds 10 1010 83 10000 1.34 258 20:30 02.01.2022
6119 Clouds 10 1010 83 10000 1.34 258 20:30 02.01.2022
6120 Clouds 10 1009 85 10000 1.34 265 19:31 02.01.2022
6121 Clouds 10 1009 85 10000 1.34 209 18:56 02.01.2022
6122 Clouds 11 1008 83 10000 1.79 273 17:58 02.01.2022
6123 Clouds 11 1008 83 10000 2.24 270 17:39 02.01.2022
6124 Clouds 11 1008 82 10000 0.89 209 17:21 02.01.2022
6125 Clouds 11 1008 87 10000 2.24 228 16:28 02.01.2022
6126 Clouds 12 1009 87 10000 1.34 202 15:18 02.01.2022
6127 Clouds 12 1011 81 10000 0.89 236 13:38 02.01.2022
6128 Clouds 12 1012 81 10000 0.89 252 12:32 02.01.2022
6129 Clouds 12 1012 82 10000 1.34 250 11:55 02.01.2022
6130 Clouds 11 1011 86 10000 0.89 219 10:55 02.01.2022
6131 Clouds 11 1011 88 10000 0.89 226 09:58 02.01.2022
6132 Clouds 12 1009 88 10000 2.24 237 07:44 02.01.2022
6133 Clouds 13 1012 90 10000 0.89 208 02:57 02.01.2022
6134 Clouds 13 1015 89 10000 1.34 184 23:50 01.01.2022
6135 Clouds 13 1015 89 10000 0.89 216 23:27 01.01.2022
6136 Clouds 13 1015 90 10000 1.34 186 22:39 01.01.2022
6137 Clouds 13 1015 90 10000 1.34 192 22:18 01.01.2022
6138 Clouds 13 1015 90 10000 1.34 192 22:18 01.01.2022
6139 Clouds 13 1015 90 10000 1.34 175 21:42 01.01.2022
6140 Clouds 13 1016 90 10000 0.89 174 20:36 01.01.2022
6141 Clouds 13 1016 89 10000 1.34 220 19:45 01.01.2022
6142 Clouds 13 1016 88 10000 1.34 196 18:53 01.01.2022
6143 Clouds 13 1016 85 10000 0.45 260 17:45 01.01.2022
6144 Clouds 14 1016 83 10000 1.34 207 16:35 01.01.2022
6145 Clouds 14 1016 80 10000 1.34 189 15:45 01.01.2022
6146 Clouds 15 1016 78 10000 0.45 214 14:40 01.01.2022
6147 Clouds 15 1017 74 10000 1.34 205 13:42 01.01.2022
6148 Clouds 15 1017 74 10000 1.34 205 13:42 01.01.2022
6149 Clouds 14 1018 74 10000 2.24 209 12:26 01.01.2022
6150 Clouds 14 1018 74 10000 1.34 194 11:46 01.01.2022
6151 Clouds 13 1017 78 10000 1.34 199 11:18 01.01.2022
6152 Clouds 12 1018 86 10000 0.89 194 09:48 01.01.2022
6153 Clouds 13 1017 89 10000 1.34 201 08:49 01.01.2022
6154 Clouds 13 1017 90 10000 1.34 183 08:21 01.01.2022
6155 Clouds 13 1018 91 10000 1.34 177 07:40 01.01.2022
6156 Clouds 13 1019 91 10000 0.89 190 06:45 01.01.2022
6157 Clouds 13 1020 92 10000 0.45 221 05:25 01.01.2022
6158 Clouds 13 1020 93 10000 0.89 200 04:37 01.01.2022
6159 Clouds 13 1021 92 10000 0.45 193 00:37 01.01.2022
6160 Clouds 13 1021 90 10000 1.34 182 22:59 31.12.2021
6161 Clouds 13 1020 89 10000 0.45 239 21:51 31.12.2021
6162 Clouds 13 1020 86 10000 0.89 211 20:28 31.12.2021
6163 Clouds 13 1020 86 10000 0.45 206 19:28 31.12.2021
6164 Clouds 14 1019 84 10000 4.64 227 18:30 31.12.2021
6165 Clouds 14 1019 84 10000 1.34 193 17:37 31.12.2021
6166 Clouds 14 1018 84 10000 1.34 193 17:18 31.12.2021
6167 Clouds 14 1017 84 10000 0.89 192 16:21 31.12.2021
6168 Clouds 15 1017 84 10000 0.89 269 15:53 31.12.2021
6169 Clouds 15 1017 85 10000 0.45 177 15:28 31.12.2021
6170 Clouds 15 1017 85 10000 0.45 177 15:28 31.12.2021
6171 Clouds 14 1017 85 10000 1.34 210 14:47 31.12.2021
6172 Clouds 15 1017 85 10000 1.79 259 14:28 31.12.2021
6173 Clouds 14 1016 86 10000 1.34 245 13:36 31.12.2021
6174 Clouds 14 1016 88 10000 0.89 188 12:45 31.12.2021
6175 Clouds 13 1016 91 10000 0.89 286 11:43 31.12.2021
6176 Clouds 13 1016 91 10000 1.34 255 11:24 31.12.2021
6177 Clouds 13 1015 92 10000 1.79 215 10:34 31.12.2021
6178 Rain 12 1014 92 10000 1.34 236 09:54 31.12.2021
6179 Clouds 12 1014 92 10000 0.45 187 09:32 31.12.2021
6180 Clouds 13 1014 88 10000 1.34 268 08:27 31.12.2021
6181 Rain 13 1013 87 10000 1.34 229 07:30 31.12.2021
6182 Clouds 14 1015 84 10000 0.89 184 23:23 30.12.2021
6183 Clouds 14 1015 84 10000 0.89 211 22:33 30.12.2021
6184 Clouds 14 1015 84 10000 0.89 211 22:33 30.12.2021
6185 Clouds 14 1015 85 10000 1.34 225 21:56 30.12.2021
6186 Clouds 14 1015 85 10000 1.34 225 21:56 30.12.2021
6187 Clouds 14 1015 85 10000 1.34 229 21:37 30.12.2021
6188 Clouds 14 1015 86 10000 1.34 207 20:47 30.12.2021
6189 Clouds 14 1015 86 10000 1.79 224 20:27 30.12.2021
6190 Clouds 14 1015 87 10000 1.79 200 19:47 30.12.2021
6191 Clouds 14 1015 89 10000 1.79 214 18:48 30.12.2021
6192 Clouds 14 1015 90 10000 1.34 186 18:19 30.12.2021
6193 Clouds 14 1014 89 10000 1.79 213 16:27 30.12.2021
6194 Clouds 14 1013 89 10000 1.34 232 15:52 30.12.2021
6195 Clouds 14 1013 89 10000 0.45 188 14:41 30.12.2021
6196 Clouds 14 1013 89 10000 0.89 234 13:57 30.12.2021
6197 Clouds 14 1013 89 10000 0.89 265 12:52 30.12.2021
6198 Clouds 14 1013 89 10000 1.34 218 11:22 30.12.2021
6199 Clouds 14 1012 89 10000 1.34 214 09:59 30.12.2021
6200 Clouds 14 1012 89 10000 1.79 207 09:23 30.12.2021
6201 Clouds 14 1010 89 10000 1.34 208 06:54 30.12.2021
6202 Clouds 14 1010 91 10000 1.34 216 04:20 30.12.2021
6203 Clouds 14 1010 91 10000 0.89 197 03:39 30.12.2021
6204 Clouds 13 1009 93 10000 1.79 236 00:42 30.12.2021
6205 Clouds 13 1009 92 10000 0.89 229 23:35 29.12.2021
6206 Clouds 13 1007 91 10000 0.89 225 22:30 29.12.2021
6207 Clouds 13 1008 89 10000 0.45 214 21:53 29.12.2021
6208 Clouds 12 1007 88 10000 0.89 234 20:56 29.12.2021
6209 Clouds 12 1007 87 10000 0.89 220 20:25 29.12.2021
6210 Clouds 12 1006 83 10000 0.89 274 19:31 29.12.2021
6211 Clouds 12 1005 81 10000 1.34 234 18:30 29.12.2021
6212 Clouds 13 1004 81 10000 1.34 268 17:41 29.12.2021
6213 Clouds 13 1005 79 10000 0.89 274 17:20 29.12.2021
6214 Clouds 14 1003 83 10000 2.24 281 16:19 29.12.2021
6215 Clouds 14 1001 91 10000 2.24 260 14:59 29.12.2021
6216 Clouds 13 1001 96 10000 0.89 224 12:57 29.12.2021
6217 Clouds 13 1001 96 10000 0.45 167 12:32 29.12.2021
6218 Drizzle 11 1002 96 5000 0.45 162 11:22 29.12.2021
6219 Rain 9 1002 95 10000 0.45 140 09:24 29.12.2021
6220 Clouds 8 1004 92 10000 1.54 160 06:59 29.12.2021
6221 Rain 8 1004 92 10000 0.45 150 06:30 29.12.2021
6222 Clouds 8 1004 91 10000 0.45 150 05:55 29.12.2021
6223 Clouds 8 1005 92 10000 0.45 150 04:57 29.12.2021
6224 Clouds 9 1004 84 10000 0.45 220 00:43 29.12.2021
6225 Clouds 9 1004 82 10000 0.45 311 23:58 28.12.2021
6226 Clouds 10 1003 81 10000 0.45 262 22:57 28.12.2021
6227 Clouds 10 1002 80 10000 0.45 258 22:25 28.12.2021
6228 Clouds 10 1002 80 10000 0.45 258 22:25 28.12.2021
6229 Clouds 10 1002 81 10000 1.34 292 21:54 28.12.2021
6230 Clouds 10 1002 81 10000 1.34 292 21:54 28.12.2021
6231 Clouds 10 1002 80 10000 0.89 321 21:34 28.12.2021
6232 Clouds 10 1000 82 10000 0.45 329 20:25 28.12.2021
6233 Clouds 10 998 82 10000 2.24 306 18:54 28.12.2021
6234 Clouds 10 997 82 10000 1.34 297 18:27 28.12.2021
6235 Clouds 11 996 81 10000 2.24 321 17:39 28.12.2021
6236 Clouds 11 994 79 10000 3.13 293 16:21 28.12.2021
6237 Clouds 11 992 79 10000 2.24 287 15:41 28.12.2021
6238 Clouds 11 991 80 10000 2.24 311 14:56 28.12.2021
6239 Clouds 11 991 80 10000 2.24 311 14:56 28.12.2021
6240 Clouds 11 991 80 10000 2.24 300 14:38 28.12.2021
6241 Clouds 11 991 80 10000 2.24 300 14:38 28.12.2021
6242 Clouds 10 990 83 10000 2.24 289 14:19 28.12.2021
6243 Clouds 10 989 87 10000 3.13 301 13:37 28.12.2021
6244 Clouds 9 989 89 10000 1.34 254 12:56 28.12.2021
6245 Clouds 9 988 88 10000 1.34 268 12:29 28.12.2021
6246 Clouds 9 988 85 10000 0.89 210 10:51 28.12.2021
6247 Clouds 10 987 95 10000 0.45 237 07:39 28.12.2021
6248 Clouds 10 988 96 10000 1.54 220 03:37 28.12.2021
6249 Clouds 10 988 94 10000 0.45 118 23:42 27.12.2021
6250 Clouds 10 988 94 10000 0.89 149 22:31 27.12.2021
6251 Rain 11 988 94 7164 1.34 164 21:32 27.12.2021
6252 Rain 11 988 94 10000 1.34 178 20:40 27.12.2021
6253 Clouds 11 989 95 10000 0.89 172 19:56 27.12.2021
6254 Clouds 11 989 95 10000 0.89 169 19:38 27.12.2021
6255 Clouds 11 990 95 6000 0.89 213 17:55 27.12.2021
6256 Clouds 11 990 95 8000 0.45 168 17:29 27.12.2021
6257 Clouds 11 990 96 10000 0.45 147 16:32 27.12.2021
6258 Clouds 11 990 96 10000 0.89 164 15:50 27.12.2021
6259 Clouds 10 991 96 10000 0.89 159 14:29 27.12.2021
6260 Clouds 10 991 96 10000 0.89 133 13:38 27.12.2021
6261 Rain 9 993 97 9000 0.89 109 11:41 27.12.2021
6262 Clouds 9 994 97 8000 0.45 83 10:28 27.12.2021
6263 Mist 8 994 98 5000 0.45 93 09:39 27.12.2021
6264 Mist 8 995 98 4300 0.45 97 07:35 27.12.2021
6265 Clouds 8 996 98 10000 0.45 141 06:38 27.12.2021
6266 Clouds 8 998 97 10000 0.45 150 01:59 27.12.2021
6267 Clouds 8 999 97 10000 1.03 0 23:58 26.12.2021
6268 Clouds 8 999 97 10000 1.03 0 23:35 26.12.2021
6269 Clouds 8 1000 92 10000 2.06 200 21:59 26.12.2021
6270 Haze 8 1000 97 2500 1.03 70 20:54 26.12.2021
6271 Fog 8 1000 97 250 1.54 100 19:47 26.12.2021
6272 Fog 8 1000 97 250 1.54 100 19:47 26.12.2021
6273 Mist 9 1000 97 1500 1.03 0 18:24 26.12.2021
6274 Mist 9 1000 97 2200 1.54 60 16:20 26.12.2021
6275 Clouds 9 1000 97 2700 0.45 72 14:28 26.12.2021
6276 Mist 9 1000 96 3200 2.06 70 13:40 26.12.2021
6277 Mist 8 1000 97 3200 2.06 70 13:19 26.12.2021
6278 Mist 8 1001 97 3400 0.45 91 12:33 26.12.2021
6279 Rain 7 1001 96 2700 0.45 110 10:34 26.12.2021
6280 Rain 7 1001 96 1700 0.89 108 09:21 26.12.2021
6281 Rain 6 1001 96 1600 0.89 98 08:44 26.12.2021
6282 Mist 6 1001 95 1900 0.89 128 07:58 26.12.2021
6283 Clouds 6 1003 97 2400 1.79 118 01:29 26.12.2021
6284 Mist 6 1003 96 3200 2.24 101 23:56 25.12.2021
6285 Mist 6 1004 96 3200 1.79 130 23:27 25.12.2021
6286 Mist 6 1004 95 3400 1.34 103 22:26 25.12.2021
6287 Mist 6 1004 95 3300 1.34 117 21:00 25.12.2021
6288 Haze 6 1005 95 5000 2.24 127 19:28 25.12.2021
6289 Clouds 6 1005 95 7000 2.68 107 18:56 25.12.2021
6290 Clouds 6 1005 95 9000 2.24 137 17:38 25.12.2021
6291 Clouds 6 1005 94 10000 1.34 139 16:41 25.12.2021
6292 Clouds 7 1005 93 10000 1.34 84 15:26 25.12.2021
6293 Clouds 7 1005 95 10000 2.24 113 13:41 25.12.2021
6294 Clouds 7 1005 95 10000 2.24 96 11:54 25.12.2021
6295 Clouds 7 1004 96 7000 0.89 116 10:18 25.12.2021
6296 Clouds 8 1004 96 10000 0.89 116 09:42 25.12.2021
6297 Clouds 8 1003 97 5000 0.45 88 05:39 25.12.2021
6298 Rain 8 1002 97 7000 0.45 69 01:31 25.12.2021
6299 Rain 9 1002 97 4100 0.89 92 23:55 24.12.2021
6300 Rain 9 1002 95 2000 0.45 97 20:53 24.12.2021
6301 Rain 9 1002 95 3800 0.45 112 19:25 24.12.2021
6302 Rain 9 1003 94 3700 0.45 134 18:34 24.12.2021
6303 Clouds 10 1003 91 10000 1.54 180 16:40 24.12.2021
6304 Clouds 10 1003 92 10000 1.8 131 15:49 24.12.2021
6305 Clouds 10 1003 90 8000 0.45 157 15:20 24.12.2021
6306 Clouds 10 1004 91 10000 0.45 154 14:31 24.12.2021
6307 Clouds 10 1004 93 10000 2.57 210 13:50 24.12.2021
6308 Clouds 10 1004 94 7000 1.03 0 13:32 24.12.2021
6309 Clouds 9 1005 96 8000 0.45 160 12:39 24.12.2021
6310 Clouds 9 1005 96 7000 0.45 62 11:42 24.12.2021
6311 Clouds 9 1005 97 8000 1.54 90 11:24 24.12.2021
6312 Clouds 8 1006 97 8000 1.54 80 10:33 24.12.2021
6313 Clouds 8 1006 97 10000 0.45 307 08:40 24.12.2021
6314 Clouds 8 1006 97 7000 1.03 0 07:58 24.12.2021
6315 Clouds 8 1006 96 8000 1.03 270 06:44 24.12.2021
6316 Clouds 8 1007 94 10000 0.45 260 00:22 24.12.2021
6317 Clouds 8 1007 94 10000 0.45 214 23:49 23.12.2021
6318 Clouds 9 1007 94 10000 1.34 237 22:51 23.12.2021
6319 Clouds 9 1007 93 10000 2.24 253 22:24 23.12.2021
6320 Clouds 10 1006 94 10000 0.89 238 21:41 23.12.2021
6321 Clouds 11 1006 94 10000 0.45 215 20:31 23.12.2021
6322 Clouds 11 1006 95 10000 0.45 250 19:30 23.12.2021
6323 Clouds 11 1006 95 10000 0.45 250 19:30 23.12.2021
6324 Clouds 10 1006 93 10000 1.34 197 18:18 23.12.2021
6325 Clouds 10 1006 93 10000 1.34 221 17:46 23.12.2021
6326 Clouds 10 1006 93 10000 0.45 270 16:27 23.12.2021
6327 Clouds 10 1006 92 10000 1.34 205 15:48 23.12.2021
6328 Clouds 10 1006 92 10000 5.14 220 15:30 23.12.2021
6329 Clouds 10 1006 91 10000 0.89 192 14:42 23.12.2021
6330 Clouds 9 1007 92 7000 0.45 178 13:43 23.12.2021
6331 Clouds 8 1008 93 7000 0.89 185 11:52 23.12.2021
6332 Clouds 7 1008 93 6000 0.45 196 09:55 23.12.2021
6333 Clouds 7 1008 92 6000 0.45 190 09:34 23.12.2021
6334 Clouds 7 1009 93 6000 0.89 225 08:41 23.12.2021
6335 Clouds 6 1009 92 7000 0.45 146 06:20 23.12.2021
6336 Clouds 4 1011 88 9000 0.45 148 03:22 23.12.2021
6337 Clouds 3 1014 90 7000 0.51 0 22:54 22.12.2021
6338 Clouds 3 1015 90 7000 1.03 0 22:22 22.12.2021
6339 Clouds 3 1015 90 8000 2.06 160 21:48 22.12.2021
6340 Clouds 3 1015 89 9000 2.06 180 21:25 22.12.2021
6341 Clouds 3 1015 88 9000 1.54 110 20:41 22.12.2021
6342 Clouds 3 1016 87 10000 0.45 137 19:57 22.12.2021
6343 Clouds 3 1016 86 10000 0.89 138 18:56 22.12.2021
6344 Clouds 4 1016 84 10000 0.89 134 17:38 22.12.2021
6345 Clouds 4 1016 81 10000 0.89 138 16:32 22.12.2021
6346 Clouds 4 1017 81 10000 0.89 132 15:24 22.12.2021
6347 Clouds 4 1019 86 10000 0.45 136 12:59 22.12.2021
6348 Clouds 3 1021 89 10000 0.89 142 11:58 22.12.2021
6349 Clouds 0 1021 93 8000 2.06 100 09:53 22.12.2021
6350 Clouds 0 1021 92 10000 2.06 80 09:31 22.12.2021
6351 Clouds 0 1022 88 10000 1.54 80 07:22 22.12.2021
6352 Clouds -1 1022 91 10000 2.57 100 05:40 22.12.2021
6353 Clouds 0 1022 90 10000 2.57 110 05:21 22.12.2021
6354 Clouds -1 1023 89 10000 2.57 80 04:43 22.12.2021
6355 Clouds 0 1023 88 10000 3.09 90 04:19 22.12.2021
6356 Clouds 0 1023 89 10000 2.06 80 03:32 22.12.2021
6357 Clouds 0 1024 86 10000 1.03 0 23:58 21.12.2021
6358 Clouds 0 1024 84 10000 2.57 90 22:51 21.12.2021
6359 Clouds 1 1024 84 10000 2.06 110 22:27 21.12.2021
6360 Clouds 1 1024 85 10000 2.57 110 21:43 21.12.2021
6361 Clouds 1 1024 84 10000 0.45 116 20:53 21.12.2021
6362 Clouds 2 1024 84 10000 0.45 113 20:20 21.12.2021
6363 Clouds 2 1024 80 9000 3.09 100 19:41 21.12.2021
6364 Clouds 3 1024 76 10000 3.6 100 18:43 21.12.2021
6365 Clouds 4 1024 74 10000 0.45 88 18:21 21.12.2021
6366 Clouds 5 1024 72 10000 0.45 113 17:40 21.12.2021
6367 Clouds 6 1024 71 10000 0.45 97 15:47 21.12.2021
6368 Clouds 6 1024 70 10000 0.45 11 15:19 21.12.2021
6369 Clouds 6 1025 73 10000 1.54 160 13:50 21.12.2021
6370 Clouds 6 1025 75 10000 0.45 128 13:29 21.12.2021
6371 Clouds 5 1026 88 10000 1.54 80 10:56 21.12.2021
6372 Clouds 5 1025 90 10000 2.06 90 09:59 21.12.2021
6373 Clouds 4 1026 90 10000 2.06 100 09:19 21.12.2021
6374 Clouds 5 1025 90 10000 1.03 0 07:55 21.12.2021
6375 Clouds 5 1025 89 10000 1.54 40 07:26 21.12.2021
6376 Clouds 5 1026 88 10000 2.06 70 05:31 21.12.2021
6377 Clouds 5 1026 83 10000 1.54 50 02:40 21.12.2021
6378 Clouds 5 1027 79 10000 0.45 2 23:58 20.12.2021
6379 Clouds 5 1027 80 10000 0.45 61 23:27 20.12.2021
6380 Clouds 5 1027 80 10000 0.45 61 22:28 20.12.2021
6381 Clouds 5 1028 80 10000 2.06 50 21:47 20.12.2021
6382 Clouds 5 1028 80 10000 0.45 33 21:23 20.12.2021
6383 Clouds 6 1027 79 10000 0.45 44 20:44 20.12.2021
6384 Clouds 6 1028 78 10000 0.89 21 19:50 20.12.2021
6385 Clouds 6 1028 78 10000 0.45 10 19:30 20.12.2021
6386 Clouds 6 1028 78 10000 0.89 353 18:54 20.12.2021
6387 Clouds 6 1028 77 10000 0.45 34 17:52 20.12.2021
6388 Clouds 6 1028 78 10000 0.89 23 17:25 20.12.2021
6389 Clouds 7 1028 76 10000 0.45 11 16:40 20.12.2021
6390 Clouds 7 1028 76 10000 0.89 82 15:50 20.12.2021
6391 Clouds 7 1028 76 10000 0.89 5 14:43 20.12.2021
6392 Clouds 6 1029 81 10000 0.89 119 12:51 20.12.2021
6393 Clouds 6 1029 90 10000 0.45 122 11:19 20.12.2021
6394 Clouds 6 1029 94 10000 0.89 63 09:47 20.12.2021
6395 Clouds 6 1029 94 10000 0.45 29 09:28 20.12.2021
6396 Clouds 6 1029 94 10000 0.89 70 08:41 20.12.2021
6397 Clouds 6 1029 95 10000 0.45 72 07:49 20.12.2021
6398 Clouds 6 1029 95 10000 0.45 57 07:29 20.12.2021
6399 Clouds 6 1030 94 10000 0.45 63 03:59 20.12.2021
6400 Clouds 6 1031 97 10000 0.89 23 23:58 19.12.2021
6401 Clouds 5 1031 97 9000 0.89 358 22:45 19.12.2021
6402 Clouds 5 1031 98 4200 0.45 10 21:50 19.12.2021
6403 Clouds 5 1031 97 4100 0.89 341 21:29 19.12.2021
6404 Clouds 4 1032 97 3000 0.45 341 20:31 19.12.2021
6405 Drizzle 4 1032 96 3600 0.51 0 19:49 19.12.2021
6406 Clouds 4 1032 95 8000 0.89 62 18:59 19.12.2021
6407 Clouds 4 1033 96 6000 0.45 21 18:29 19.12.2021
6408 Clouds 4 1033 96 6000 0.89 355 18:29 19.12.2021
6409 Haze 4 1033 93 2600 1.34 12 17:52 19.12.2021
6410 Haze 4 1032 93 3300 3.6 60 17:19 19.12.2021
6411 Clouds 5 1032 89 2700 2.57 10 16:26 19.12.2021
6412 Haze 5 1033 88 4100 2.06 10 15:42 19.12.2021
6413 Haze 5 1033 86 2900 2.06 20 15:20 19.12.2021
6414 Haze 5 1033 85 2000 2.57 0 14:41 19.12.2021
6415 Haze 5 1034 94 1800 2.57 60 13:22 19.12.2021
6416 Clouds 5 1035 98 6000 2.06 330 12:36 19.12.2021
6417 Haze 5 1035 97 1800 0.45 9 12:18 19.12.2021
6418 Fog 4 1036 97 450 0.89 0 11:18 19.12.2021
6419 Fog 4 1035 97 250 0.89 333 10:25 19.12.2021
6420 Fog 4 1035 97 350 0.45 321 09:37 19.12.2021
6421 Fog 4 1036 97 350 0.45 329 08:25 19.12.2021
6422 Drizzle 6 1037 97 2100 0.45 34 04:45 19.12.2021
6423 Fog 7 1038 97 600 0.45 103 01:19 19.12.2021
6424 Mist 7 1038 97 3000 0.45 31 00:52 19.12.2021
6425 Mist 7 1039 96 4700 0.45 14 22:36 18.12.2021
6426 Clouds 7 1039 96 7000 0.45 111 21:57 18.12.2021
6427 Clouds 7 1039 96 7000 3.09 70 21:35 18.12.2021
6428 Clouds 7 1039 95 7000 0.89 69 20:44 18.12.2021
6429 Clouds 8 1039 96 7000 0.89 25 19:59 18.12.2021
6430 Clouds 8 1039 95 6000 1.34 65 19:20 18.12.2021
6431 Clouds 8 1039 94 8000 0.45 74 18:21 18.12.2021
6432 Clouds 8 1039 94 10000 0.45 261 17:48 18.12.2021
6433 Clouds 8 1039 93 10000 0.89 112 16:26 18.12.2021
6434 Clouds 8 1039 92 10000 0.89 88 15:27 18.12.2021
6435 Clouds 8 1039 92 10000 0.89 103 14:38 18.12.2021
6436 Clouds 8 1039 93 9000 0.45 50 13:21 18.12.2021
6437 Clouds 8 1040 94 8000 0.45 87 11:22 18.12.2021
6438 Clouds 8 1039 95 6000 0.89 0 09:40 18.12.2021
6439 Clouds 8 1039 95 3500 0.89 0 08:47 18.12.2021
6440 Clouds 8 1039 95 4400 0.89 96 08:19 18.12.2021
6441 Clouds 8 1039 94 8000 0.89 45 03:42 18.12.2021
6442 Clouds 8 1040 94 10000 0.89 69 00:28 18.12.2021
6443 Clouds 8 1040 94 9000 1.34 97 23:44 17.12.2021
6444 Clouds 8 1040 93 9000 0.89 86 21:57 17.12.2021
6445 Clouds 8 1040 93 10000 0.89 46 21:18 17.12.2021
6446 Clouds 8 1040 92 10000 0.45 64 20:38 17.12.2021
6447 Clouds 8 1040 92 10000 0.89 90 19:24 17.12.2021
6448 Clouds 8 1040 92 10000 0.45 68 18:38 17.12.2021
6449 Clouds 8 1040 93 6000 0.45 99 17:31 17.12.2021
6450 Clouds 8 1040 93 7000 0.45 57 16:46 17.12.2021
6451 Clouds 8 1040 93 7000 0.45 55 16:22 17.12.2021
6452 Haze 8 1040 92 4900 0.45 60 15:25 17.12.2021
6453 Drizzle 8 1040 90 4000 0.89 9 14:40 17.12.2021
6454 Clouds 8 1041 90 8000 0.89 42 12:47 17.12.2021
6455 Mist 8 1042 92 1700 0.89 129 11:46 17.12.2021
6456 Fog 8 1041 90 550 0.89 134 10:37 17.12.2021
6457 Haze 8 1041 89 5000 0.45 38 09:33 17.12.2021
6458 Clouds 8 1040 88 8000 0.45 68 08:30 17.12.2021
6459 Clouds 9 1040 87 10000 2.06 90 06:22 17.12.2021
6460 Clear 9 1040 78 10000 1.49 49 02:53 17.12.2021
6461 Clouds 10 1040 75 10000 0.89 14 23:25 16.12.2021
6462 Clouds 10 1040 75 10000 0.45 30 22:24 16.12.2021
6463 Clouds 10 1040 75 10000 0.89 32 22:24 16.12.2021
6464 Clouds 10 1040 75 10000 0.45 30 22:24 16.12.2021
6465 Clouds 10 1040 75 10000 0.45 30 22:24 16.12.2021
6466 Clouds 10 1040 75 10000 0.89 32 22:23 16.12.2021
6467 Clouds 10 1040 75 10000 0.45 30 22:23 16.12.2021
6468 Clouds 10 1040 75 10000 0.45 63 21:44 16.12.2021
6469 Clouds 10 1040 76 10000 1.03 0 20:55 16.12.2021
6470 Clouds 10 1040 76 10000 0.45 329 20:27 16.12.2021
6471 Clouds 10 1040 77 10000 0.45 324 19:33 16.12.2021
6472 Clouds 10 1039 77 10000 1.03 0 18:37 16.12.2021
6473 Clouds 11 1039 77 10000 2.57 290 17:48 16.12.2021
6474 Clouds 11 1039 75 10000 0.45 323 16:55 16.12.2021
6475 Clouds 11 1039 74 10000 0.45 5 16:20 16.12.2021
6476 Clouds 11 1039 76 10000 0.45 344 14:32 16.12.2021
6477 Clouds 11 1039 79 10000 1.54 340 12:34 16.12.2021
6478 Clouds 11 1038 81 10000 0.45 344 11:19 16.12.2021
6479 Clouds 11 1038 81 10000 0.45 344 11:19 16.12.2021
6480 Clear 11 1038 83 10000 0.45 329 10:46 16.12.2021
6481 Clear 10 1037 83 10000 1.3 271 09:52 16.12.2021
6482 Clouds 10 1036 82 10000 2.06 220 07:19 16.12.2021
6483 Clouds 10 1036 83 10000 1.72 253 06:19 16.12.2021
6484 Clouds 11 1034 79 10000 2.57 230 00:53 16.12.2021
6485 Clouds 11 1034 78 10000 0.45 313 23:21 15.12.2021
6486 Clouds 12 1034 77 10000 2.57 230 22:26 15.12.2021
6487 Clouds 12 1033 78 10000 0.45 238 21:49 15.12.2021
6488 Clouds 12 1034 78 10000 0.45 184 21:26 15.12.2021
6489 Clouds 12 1033 76 10000 0.45 333 19:55 15.12.2021
6490 Clouds 12 1033 76 10000 0.89 238 19:23 15.12.2021
6491 Clouds 12 1032 75 10000 0.89 306 18:26 15.12.2021
6492 Clouds 12 1032 75 10000 0.45 290 17:49 15.12.2021
6493 Clouds 12 1032 75 10000 0.89 313 17:27 15.12.2021
6494 Clouds 13 1031 76 10000 1.34 297 16:26 15.12.2021
6495 Clouds 13 1031 76 10000 1.34 292 15:45 15.12.2021
6496 Clouds 13 1031 77 10000 0.45 344 15:27 15.12.2021
6497 Clouds 13 1031 79 10000 0.45 280 13:59 15.12.2021
6498 Clouds 12 1031 80 10000 0.89 227 12:24 15.12.2021
6499 Clouds 11 1030 84 10000 3.09 240 10:24 15.12.2021
6500 Clouds 11 1029 81 10000 3.6 250 08:54 15.12.2021
6501 Clouds 11 1029 84 10000 0.45 227 06:45 15.12.2021
6502 Clouds 11 1028 92 10000 0.45 308 00:52 15.12.2021
6503 Clouds 10 1028 93 10000 2.06 240 23:42 14.12.2021
6504 Clouds 10 1028 92 10000 0.45 169 22:48 14.12.2021
6505 Clouds 11 1028 92 10000 3.09 230 22:18 14.12.2021
6506 Clouds 11 1028 88 10000 0.45 228 20:27 14.12.2021
6507 Clouds 12 1028 88 10000 2.75 225 19:40 14.12.2021
6508 Clouds 12 1027 85 10000 0.89 250 18:44 14.12.2021
6509 Clouds 12 1027 84 10000 0.45 230 18:22 14.12.2021
6510 Clouds 12 1027 84 10000 0.89 205 17:28 14.12.2021
6511 Clouds 12 1027 84 10000 0.45 282 16:38 14.12.2021
6512 Clouds 12 1026 84 10000 1.34 273 15:35 14.12.2021
6513 Clouds 12 1027 85 10000 0.89 275 13:31 14.12.2021
6514 Clouds 12 1027 85 10000 0.89 275 13:31 14.12.2021
6515 Clouds 12 1027 89 10000 3.09 230 11:59 14.12.2021
6516 Clouds 11 1027 92 10000 0.45 277 11:24 14.12.2021
6517 Clouds 10 1027 93 10000 0.45 196 09:57 14.12.2021
6518 Clouds 10 1027 94 10000 0.45 233 09:35 14.12.2021
6519 Clouds 10 1026 93 10000 0.45 247 08:25 14.12.2021
6520 Clouds 10 1026 92 10000 0.45 234 07:43 14.12.2021
6521 Clouds 9 1025 91 10000 0.89 219 02:37 14.12.2021
6522 Clouds 10 1025 87 10000 0.45 227 22:56 13.12.2021
6523 Clouds 10 1025 87 10000 0.45 201 21:53 13.12.2021
6524 Clouds 10 1025 87 10000 0.45 185 21:32 13.12.2021
6525 Clouds 10 1024 88 10000 0.89 210 20:42 13.12.2021
6526 Clouds 10 1025 87 10000 0.89 223 19:52 13.12.2021
6527 Clouds 10 1024 87 10000 4.12 220 18:33 13.12.2021
6528 Clouds 10 1024 87 10000 0.89 151 17:26 13.12.2021
6529 Clouds 11 1024 88 5000 0.45 177 15:54 13.12.2021
6530 Clouds 11 1024 88 5000 0.89 215 15:32 13.12.2021
6531 Clouds 11 1024 86 10000 0.89 242 13:45 13.12.2021
6532 Clouds 11 1024 85 10000 1.34 206 12:59 13.12.2021
6533 Clouds 11 1024 87 10000 0.45 190 11:59 13.12.2021
6534 Clouds 11 1024 88 10000 0.45 232 11:35 13.12.2021
6535 Clouds 11 1024 90 10000 0.45 206 10:47 13.12.2021
6536 Clouds 11 1023 92 10000 1.34 171 09:41 13.12.2021
6537 Clouds 11 1022 91 10000 0.89 201 07:57 13.12.2021
6538 Clouds 10 1022 90 6000 0.89 205 05:36 13.12.2021
6539 Clouds 11 1022 89 10000 0.89 203 03:31 13.12.2021
6540 Clouds 11 1022 84 6000 1.34 213 23:27 12.12.2021
6541 Clouds 11 1022 86 8000 0.89 192 21:50 12.12.2021
6542 Clouds 11 1022 87 10000 1.34 192 20:28 12.12.2021
6543 Clouds 12 1021 90 10000 0.45 209 18:43 12.12.2021
6544 Clouds 12 1021 91 10000 0.45 232 17:46 12.12.2021
6545 Clouds 13 1021 88 10000 0.89 208 16:28 12.12.2021
6546 Clouds 13 1020 87 10000 0.89 224 15:51 12.12.2021
6547 Clouds 13 1021 88 10000 0.45 231 15:26 12.12.2021
6548 Clouds 13 1021 88 10000 0.45 193 14:37 12.12.2021
6549 Clouds 13 1021 88 10000 0.89 233 13:34 12.12.2021
6550 Clouds 13 1021 90 10000 0.89 203 12:32 12.12.2021
6551 Clouds 12 1021 91 10000 0.89 207 11:44 12.12.2021
6552 Clouds 12 1020 91 10000 0.89 220 11:25 12.12.2021
6553 Clouds 12 1020 93 10000 0.45 252 10:32 12.12.2021
6554 Clouds 12 1019 94 10000 0.45 209 09:44 12.12.2021
6555 Clouds 12 1019 95 10000 0.45 238 08:38 12.12.2021
6556 Clouds 12 1018 95 10000 0.89 241 06:34 12.12.2021
6557 Clouds 11 1017 95 10000 0.45 226 05:22 12.12.2021
6558 Rain 11 1017 94 10000 0.89 245 03:58 12.12.2021
6559 Clouds 11 1016 95 10000 0.45 210 00:36 12.12.2021
6560 Clouds 10 1016 95 10000 0.45 209 22:24 11.12.2021
6561 Clouds 10 1016 95 10000 0.89 196 21:52 11.12.2021
6562 Clouds 9 1016 94 10000 0.45 216 21:22 11.12.2021
6563 Clouds 8 1016 94 10000 0.45 217 19:40 11.12.2021
6564 Rain 8 1016 94 10000 0.45 216 19:20 11.12.2021
6565 Rain 8 1017 93 10000 0.45 155 18:38 11.12.2021
6566 Rain 7 1017 89 10000 0.45 158 17:41 11.12.2021
6567 Rain 7 1017 83 10000 0.45 171 15:57 11.12.2021
6568 Rain 8 1017 80 10000 2.06 220 15:35 11.12.2021
6569 Clouds 7 1017 78 10000 0.45 249 14:21 11.12.2021
6570 Clouds 6 1017 86 10000 3.6 230 11:58 11.12.2021
6571 Clouds 3 1017 91 10000 3.6 230 10:24 11.12.2021
6572 Clouds 3 1016 90 10000 2.57 230 09:37 11.12.2021
6573 Clear 2 1013 89 10000 0.45 322 03:26 11.12.2021
6574 Clear 3 1010 86 10000 0.45 281 00:45 11.12.2021
6575 Clear 3 1010 84 10000 0.45 283 23:40 10.12.2021
6576 Clear 4 1008 82 10000 1.34 296 22:33 10.12.2021
6577 Clear 4 1008 83 10000 0.89 290 21:40 10.12.2021
6578 Clear 5 1007 82 10000 0.89 305 20:22 10.12.2021
6579 Clear 5 1006 79 10000 0.89 298 19:18 10.12.2021
6580 Clouds 6 1003 73 10000 2.68 308 17:31 10.12.2021
6581 Clouds 7 1002 72 10000 1.34 305 16:35 10.12.2021
6582 Clouds 7 1001 71 10000 3.58 304 15:43 10.12.2021
6583 Clouds 7 1001 71 10000 3.13 305 15:25 10.12.2021
6584 Clouds 7 1000 72 10000 2.24 302 14:29 10.12.2021
6585 Clouds 7 999 73 10000 4.02 317 13:48 10.12.2021
6586 Clouds 6 999 76 10000 2.68 315 12:55 10.12.2021
6587 Clouds 6 999 76 10000 2.68 315 12:55 10.12.2021
6588 Clouds 6 998 79 10000 3.13 279 11:41 10.12.2021
6589 Clouds 5 997 82 10000 2.68 298 10:56 10.12.2021
6590 Clouds 4 996 83 10000 2.68 312 09:46 10.12.2021
6591 Clouds 6 994 83 10000 2.24 296 07:28 10.12.2021
6592 Rain 7 990 91 10000 4.02 319 04:57 10.12.2021
6593 Rain 8 988 94 10000 3.13 298 02:42 10.12.2021
6594 Rain 8 990 93 10000 0.89 168 23:42 09.12.2021
6595 Clouds 8 992 93 5000 0.89 152 22:43 09.12.2021
6596 Clouds 7 992 93 10000 1.79 166 22:22 09.12.2021
6597 Clouds 7 993 91 10000 1.34 152 21:40 09.12.2021
6598 Rain 7 995 89 10000 0.45 155 20:36 09.12.2021
6599 Rain 7 997 83 10000 0.45 140 19:45 09.12.2021
6600 Clouds 6 997 81 10000 0.45 143 19:20 09.12.2021
6601 Clouds 6 999 79 10000 0.45 165 18:22 09.12.2021
6602 Clouds 6 999 78 10000 1.34 148 17:48 09.12.2021
6603 Clouds 6 999 78 10000 0.45 163 17:24 09.12.2021
6604 Clouds 7 1000 75 10000 1.34 155 16:43 09.12.2021
6605 Clouds 8 1001 69 10000 0.45 225 15:31 09.12.2021
6606 Clouds 8 1002 68 10000 0.89 265 14:43 09.12.2021
6607 Clouds 7 1003 75 10000 0.45 270 12:49 09.12.2021
6608 Clouds 6 1003 76 10000 0.45 228 12:31 09.12.2021
6609 Clouds 4 1003 82 10000 0.45 263 10:47 09.12.2021
6610 Clouds 4 1002 82 10000 0.45 254 08:20 09.12.2021
6611 Clouds 6 999 75 10000 2.24 308 03:59 09.12.2021
6612 Clouds 6 999 77 10000 0.89 270 01:43 09.12.2021
6613 Clouds 6 998 76 10000 1.79 270 23:40 08.12.2021
6614 Clouds 6 998 76 10000 2.24 279 23:20 08.12.2021
6615 Clouds 6 998 76 10000 1.34 241 22:43 08.12.2021
6616 Clouds 6 997 75 10000 1.79 242 21:39 08.12.2021
6617 Clouds 6 997 72 10000 0.89 270 20:58 08.12.2021
6618 Clouds 6 996 70 10000 0.45 184 19:57 08.12.2021
6619 Clouds 6 996 70 10000 0.89 262 19:29 08.12.2021
6620 Clouds 6 995 70 10000 0.45 245 18:30 08.12.2021
6621 Clouds 7 994 68 10000 2.24 228 17:24 08.12.2021
6622 Clouds 8 993 66 10000 0.89 216 15:46 08.12.2021
6623 Clouds 8 992 67 10000 1.79 273 15:23 08.12.2021
6624 Clouds 8 992 68 10000 1.79 269 14:26 08.12.2021
6625 Clouds 7 989 73 10000 0.89 264 10:53 08.12.2021
6626 Clouds 6 989 74 10000 0.89 204 10:28 08.12.2021
6627 Clouds 5 988 78 10000 1.79 222 08:54 08.12.2021
6628 Clouds 6 987 78 10000 0.89 192 07:21 08.12.2021
6629 Clear 5 985 83 10000 0.89 186 01:40 08.12.2021
6630 Clouds 6 985 83 10000 1.34 198 23:33 07.12.2021
6631 Clouds 6 986 90 10000 0.45 141 21:26 07.12.2021
6632 Clouds 6 986 91 10000 0.89 171 20:54 07.12.2021
6633 Clouds 6 987 91 10000 0.89 143 20:19 07.12.2021
6634 Clouds 5 987 93 10000 2.06 130 18:42 07.12.2021
6635 Rain 7 988 92 6000 1.79 218 17:29 07.12.2021
6636 Rain 7 988 92 10000 4.47 154 16:58 07.12.2021
6637 Rain 8 989 91 10000 4.02 146 16:28 07.12.2021
6638 Rain 7 993 91 10000 2.68 152 14:57 07.12.2021
6639 Rain 7 996 90 10000 3.58 139 13:53 07.12.2021
6640 Rain 7 998 85 10000 3.13 156 12:49 07.12.2021
6641 Clouds 6 1002 86 10000 1.79 126 11:25 07.12.2021
6642 Clouds 4 1004 86 10000 0.89 138 09:55 07.12.2